Wetterdaten: Samstag, 01.07.2017
Datum Zeit Temp. A. Temp. A. max Feuchte A. Luftdruck Regen Wind Richtung Richtung Sonnenschein ET UV Solar Taupunkt Windchill Windböen
01.07.2017 00:00 12,3 °C 12,3 °C 80 % 1008,6 hPa 0,0 mm 0,1 km/h (0 Bft) W-SW 248 ° 0 min 0,000 mm 0,0 UV-I 0 W/m² 8,9 °C 12,3 °C 1,6 km/h (1 Bft)
01.07.2017 00:01 12,3 °C 12,3 °C 81 % 1008,5 hPa 0,0 mm 0,2 km/h (0 Bft) W-SW 248 ° 0 min 0,000 mm 0,0 UV-I 0 W/m² 9,1 °C 12,3 °C 1,6 km/h (1 Bft)
01.07.2017 00:03 12,2 °C 12,3 °C 82 % 1008,6 hPa 0,0 mm 1,8 km/h (1 Bft) W-SW 239 ° 0 min 0,000 mm 0,0 UV-I 0 W/m² 9,2 °C 12,2 °C 6,4 km/h (2 Bft)
01.07.2017 00:04 12,2 °C 12,2 °C 82 % 1008,5 hPa 0,0 mm 2,5 km/h (1 Bft) SW 236 ° 0 min 0,000 mm 0,0 UV-I 0 W/m² 9,2 °C 12,2 °C 4,8 km/h (1 Bft)
01.07.2017 00:05 12,3 °C 12,3 °C 81 % 1008,5 hPa 0,0 mm 0,1 km/h (0 Bft) SW 236 ° 0 min 0,000 mm 0,0 UV-I 0 W/m² 9,1 °C 12,3 °C 1,6 km/h (1 Bft)
01.07.2017 00:06 12,3 °C 12,3 °C 82 % 1008,5 hPa 0,0 mm 0,0 km/h (0 Bft) SW 236 ° 0 min 0,000 mm 0,0 UV-I 0 W/m² 9,3 °C 12,3 °C 0,0 km/h (0 Bft)
01.07.2017 00:07 12,2 °C 12,3 °C 82 % 1008,5 hPa 0,0 mm 1,4 km/h (1 Bft) W-SW 246 ° 0 min 0,000 mm 0,0 UV-I 0 W/m² 9,2 °C 12,2 °C 3,2 km/h (1 Bft)
01.07.2017 00:08 12,2 °C 12,3 °C 82 % 1008,5 hPa 0,0 mm 0,1 km/h (0 Bft) W-SW 246 ° 0 min 0,000 mm 0,0 UV-I 0 W/m² 9,2 °C 12,2 °C 1,6 km/h (1 Bft)
01.07.2017 00:09 12,3 °C 12,3 °C 82 % 1008,5 hPa 0,0 mm 1,0 km/h (0 Bft) W-SW 246 ° 0 min 0,000 mm 0,0 UV-I 0 W/m² 9,3 °C 12,3 °C 3,2 km/h (1 Bft)
01.07.2017 00:10 12,2 °C 12,3 °C 82 % 1008,5 hPa 0,0 mm 0,6 km/h (0 Bft) W-SW 246 ° 0 min 0,000 mm 0,0 UV-I 0 W/m² 9,2 °C 12,2 °C 1,6 km/h (1 Bft)
01.07.2017 00:11 12,3 °C 12,3 °C 82 % 1008,5 hPa 0,0 mm 0,8 km/h (0 Bft) W-SW 246 ° 0 min 0,000 mm 0,0 UV-I 0 W/m² 9,3 °C 12,3 °C 3,2 km/h (1 Bft)
01.07.2017 00:12 12,2 °C 12,3 °C 82 % 1008,5 hPa 0,0 mm 1,9 km/h (1 Bft) W-SW 246 ° 0 min 0,000 mm 0,0 UV-I 0 W/m² 9,2 °C 12,2 °C 3,2 km/h (1 Bft)
01.07.2017 00:13 12,3 °C 12,3 °C 82 % 1008,5 hPa 0,0 mm 1,7 km/h (1 Bft) W-SW 246 ° 0 min 0,000 mm 0,0 UV-I 0 W/m² 9,3 °C 12,3 °C 3,2 km/h (1 Bft)
01.07.2017 00:14 12,3 °C 12,3 °C 82 % 1008,6 hPa 0,0 mm 1,3 km/h (1 Bft) W-SW 246 ° 0 min 0,000 mm 0,0 UV-I 0 W/m² 9,3 °C 12,3 °C 3,2 km/h (1 Bft)
01.07.2017 00:15 12,3 °C 12,3 °C 82 % 1008,5 hPa 0,0 mm 0,0 km/h (0 Bft) W-SW 246 ° 0 min 0,000 mm 0,0 UV-I 0 W/m² 9,3 °C 12,3 °C 0,0 km/h (0 Bft)
01.07.2017 00:16 12,2 °C 12,3 °C 83 % 1008,5 hPa 0,0 mm 0,0 km/h (0 Bft) W-SW 246 ° 0 min 0,000 mm 0,0 UV-I 0 W/m² 9,4 °C 12,2 °C 0,0 km/h (0 Bft)
01.07.2017 00:17 12,2 °C 12,3 °C 82 % 1008,6 hPa 0,0 mm 0,0 km/h (0 Bft) W-SW 246 ° 0 min 0,000 mm 0,0 UV-I 0 W/m² 9,2 °C 12,2 °C 0,0 km/h (0 Bft)
01.07.2017 00:18 12,2 °C 12,3 °C 82 % 1008,6 hPa 0,0 mm 0,0 km/h (0 Bft) W-SW 246 ° 0 min 0,000 mm 0,0 UV-I 0 W/m² 9,2 °C 12,2 °C 0,0 km/h (0 Bft)
01.07.2017 00:19 12,3 °C 12,3 °C 82 % 1008,6 hPa 0,0 mm 0,0 km/h (0 Bft) W-SW 246 ° 0 min 0,000 mm 0,0 UV-I 0 W/m² 9,3 °C 12,3 °C 0,0 km/h (0 Bft)
01.07.2017 00:20 12,3 °C 12,3 °C 82 % 1008,5 hPa 0,0 mm 0,0 km/h (0 Bft) W-SW 246 ° 0 min 0,000 mm 0,0 UV-I 0 W/m² 9,3 °C 12,3 °C 0,0 km/h (0 Bft)
01.07.2017 00:21 12,3 °C 12,3 °C 82 % 1008,6 hPa 0,0 mm 0,0 km/h (0 Bft) W-SW 246 ° 0 min 0,000 mm 0,0 UV-I 0 W/m² 9,3 °C 12,3 °C 0,0 km/h (0 Bft)
01.07.2017 00:22 12,2 °C 12,3 °C 82 % 1008,6 hPa 0,0 mm 0,0 km/h (0 Bft) W-SW 246 ° 0 min 0,000 mm 0,0 UV-I 0 W/m² 9,2 °C 12,2 °C 0,0 km/h (0 Bft)
01.07.2017 00:23 12,2 °C 12,2 °C 84 % 1008,7 hPa 0,0 mm 0,0 km/h (0 Bft) W-SW 246 ° 0 min 0,000 mm 0,0 UV-I 0 W/m² 9,6 °C 12,2 °C 0,0 km/h (0 Bft)
01.07.2017 00:24 12,2 °C 12,2 °C 84 % 1008,6 hPa 0,0 mm 0,0 km/h (0 Bft) W-SW 246 ° 0 min 0,000 mm 0,0 UV-I 0 W/m² 9,6 °C 12,2 °C 0,0 km/h (0 Bft)
01.07.2017 00:25 12,2 °C 12,2 °C 85 % 1008,6 hPa 0,0 mm 0,5 km/h (0 Bft) W-SW 246 ° 0 min 0,000 mm 0,0 UV-I 0 W/m² 9,8 °C 12,2 °C 1,6 km/h (1 Bft)
01.07.2017 00:26 12,2 °C 12,2 °C 83 % 1008,6 hPa 0,0 mm 0,0 km/h (0 Bft) W-SW 246 ° 0 min 0,000 mm 0,0 UV-I 0 W/m² 9,4 °C 12,2 °C 0,0 km/h (0 Bft)
01.07.2017 00:27 12,1 °C 12,2 °C 83 % 1008,7 hPa 0,0 mm 0,0 km/h (0 Bft) W-SW 246 ° 0 min 0,000 mm 0,0 UV-I 0 W/m² 9,3 °C 12,1 °C 0,0 km/h (0 Bft)
01.07.2017 00:28 12,1 °C 12,2 °C 83 % 1008,6 hPa 0,0 mm 0,0 km/h (0 Bft) W-SW 246 ° 0 min 0,000 mm 0,0 UV-I 0 W/m² 9,3 °C 12,1 °C 0,0 km/h (0 Bft)
01.07.2017 00:29 12,2 °C 12,2 °C 83 % 1008,7 hPa 0,0 mm 0,0 km/h (0 Bft) W-SW 246 ° 0 min 0,000 mm 0,0 UV-I 0 W/m² 9,4 °C 12,2 °C 0,0 km/h (0 Bft)
01.07.2017 00:30 12,2 °C 12,2 °C 84 % 1008,7 hPa 0,0 mm 0,0 km/h (0 Bft) W-SW 246 ° 0 min 0,000 mm 0,0 UV-I 0 W/m² 9,6 °C 12,2 °C 0,0 km/h (0 Bft)
01.07.2017 00:31 12,2 °C 12,2 °C 84 % 1008,8 hPa 0,0 mm 0,0 km/h (0 Bft) W-SW 246 ° 0 min 0,000 mm 0,0 UV-I 0 W/m² 9,6 °C 12,2 °C 0,0 km/h (0 Bft)
01.07.2017 00:32 12,2 °C 12,2 °C 84 % 1008,7 hPa 0,0 mm 0,3 km/h (0 Bft) W-SW 246 ° 0 min 0,000 mm 0,0 UV-I 0 W/m² 9,6 °C 12,2 °C 1,6 km/h (1 Bft)
01.07.2017 00:33 12,2 °C 12,2 °C 85 % 1008,8 hPa 0,0 mm 0,1 km/h (0 Bft) W-SW 246 ° 0 min 0,000 mm 0,0 UV-I 0 W/m² 9,8 °C 12,2 °C 1,6 km/h (1 Bft)
01.07.2017 00:34 12,1 °C 12,2 °C 85 % 1008,8 hPa 0,0 mm 0,0 km/h (0 Bft) W-SW 246 ° 0 min 0,000 mm 0,0 UV-I 0 W/m² 9,7 °C 12,1 °C 0,0 km/h (0 Bft)
01.07.2017 00:35 12,1 °C 12,2 °C 85 % 1008,8 hPa 0,0 mm 0,8 km/h (0 Bft) W 275 ° 0 min 0,000 mm 0,0 UV-I 0 W/m² 9,7 °C 12,1 °C 4,8 km/h (1 Bft)
01.07.2017 00:36 12,1 °C 12,1 °C 85 % 1008,8 hPa 0,0 mm 3,8 km/h (1 Bft) W-NW 286 ° 0 min 0,000 mm 0,0 UV-I 0 W/m² 9,7 °C 12,1 °C 4,8 km/h (1 Bft)
01.07.2017 00:37 12,2 °C 12,2 °C 85 % 1008,8 hPa 0,0 mm 3,0 km/h (1 Bft) W-NW 288 ° 0 min 0,000 mm 0,0 UV-I 0 W/m² 9,8 °C 12,2 °C 4,8 km/h (1 Bft)
01.07.2017 00:38 12,2 °C 12,2 °C 85 % 1008,9 hPa 0,0 mm 3,8 km/h (1 Bft) W-NW 296 ° 0 min 0,000 mm 0,0 UV-I 0 W/m² 9,8 °C 12,2 °C 8,0 km/h (2 Bft)
01.07.2017 00:39 12,2 °C 12,3 °C 85 % 1008,9 hPa 0,0 mm 6,6 km/h (2 Bft) W 272 ° 0 min 0,000 mm 0,0 UV-I 0 W/m² 9,8 °C 12,2 °C 11,3 km/h (2 Bft)
01.07.2017 00:40 12,3 °C 12,3 °C 84 % 1008,9 hPa 0,0 mm 7,9 km/h (2 Bft) W-NW 298 ° 0 min 0,000 mm 0,0 UV-I 0 W/m² 9,7 °C 12,3 °C 12,9 km/h (3 Bft)
01.07.2017 00:41 12,3 °C 12,3 °C 84 % 1008,9 hPa 0,0 mm 6,5 km/h (2 Bft) W-NW 294 ° 0 min 0,000 mm 0,0 UV-I 0 W/m² 9,7 °C 12,3 °C 12,9 km/h (3 Bft)
01.07.2017 00:42 12,3 °C 12,3 °C 84 % 1009,0 hPa 0,0 mm 8,2 km/h (2 Bft) W-NW 302 ° 0 min 0,000 mm 0,0 UV-I 0 W/m² 9,7 °C 12,3 °C 14,5 km/h (3 Bft)
01.07.2017 00:43 12,4 °C 12,4 °C 83 % 1008,9 hPa 0,0 mm 9,7 km/h (2 Bft) W-SW 244 ° 0 min 0,000 mm 0,0 UV-I 0 W/m² 9,6 °C 12,4 °C 14,5 km/h (3 Bft)
01.07.2017 00:44 12,4 °C 12,4 °C 83 % 1008,9 hPa 0,0 mm 6,3 km/h (2 Bft) W 268 ° 0 min 0,000 mm 0,0 UV-I 0 W/m² 9,6 °C 12,4 °C 9,7 km/h (2 Bft)
01.07.2017 00:45 12,4 °C 12,4 °C 83 % 1008,9 hPa 0,0 mm 4,0 km/h (1 Bft) W-NW 294 ° 0 min 0,000 mm 0,0 UV-I 0 W/m² 9,6 °C 12,4 °C 6,4 km/h (2 Bft)
01.07.2017 00:46 12,4 °C 12,4 °C 83 % 1008,9 hPa 0,0 mm 4,8 km/h (1 Bft) NW 304 ° 0 min 0,000 mm 0,0 UV-I 0 W/m² 9,6 °C 12,4 °C 9,7 km/h (2 Bft)
01.07.2017 00:47 12,4 °C 12,5 °C 83 % 1009,0 hPa 0,0 mm 10,1 km/h (2 Bft) W-NW 298 ° 0 min 0,000 mm 0,0 UV-I 0 W/m² 9,6 °C 12,4 °C 17,7 km/h (3 Bft)
01.07.2017 00:48 12,5 °C 12,5 °C 82 % 1009,0 hPa 0,0 mm 6,7 km/h (2 Bft) W 262 ° 0 min 0,000 mm 0,0 UV-I 0 W/m² 9,5 °C 12,5 °C 11,3 km/h (2 Bft)
01.07.2017 00:49 12,5 °C 12,5 °C 83 % 1009,0 hPa 0,0 mm 7,2 km/h (2 Bft) W-NW 286 ° 0 min 0,000 mm 0,0 UV-I 0 W/m² 9,7 °C 12,5 °C 12,9 km/h (3 Bft)
01.07.2017 00:50 12,5 °C 12,5 °C 83 % 1009,0 hPa 0,0 mm 6,8 km/h (2 Bft) W 271 ° 0 min 0,000 mm 0,0 UV-I 0 W/m² 9,7 °C 12,5 °C 11,3 km/h (2 Bft)
01.07.2017 00:51 12,5 °C 12,5 °C 82 % 1009,0 hPa 0,0 mm 6,6 km/h (2 Bft) W-NW 283 ° 0 min 0,000 mm 0,0 UV-I 0 W/m² 9,5 °C 12,5 °C 11,3 km/h (2 Bft)
01.07.2017 00:52 12,5 °C 12,5 °C 82 % 1009,0 hPa 0,0 mm 9,2 km/h (2 Bft) W-NW 288 ° 0 min 0,000 mm 0,0 UV-I 0 W/m² 9,5 °C 12,5 °C 16,1 km/h (3 Bft)
01.07.2017 00:53 12,5 °C 12,6 °C 83 % 1009,1 hPa 0,0 mm 7,2 km/h (2 Bft) W-NW 298 ° 0 min 0,000 mm 0,0 UV-I 0 W/m² 9,7 °C 12,5 °C 12,9 km/h (3 Bft)
01.07.2017 00:54 12,5 °C 12,5 °C 82 % 1009,0 hPa 0,0 mm 12,9 km/h (3 Bft) W-NW 283 ° 0 min 0,000 mm 0,0 UV-I 0 W/m² 9,5 °C 12,5 °C 19,3 km/h (3 Bft)
01.07.2017 00:55 12,5 °C 12,5 °C 82 % 1009,0 hPa 0,0 mm 8,8 km/h (2 Bft) W 265 ° 0 min 0,000 mm 0,0 UV-I 0 W/m² 9,5 °C 12,5 °C 12,9 km/h (3 Bft)
01.07.2017 00:56 12,4 °C 12,5 °C 82 % 1009,1 hPa 0,0 mm 7,7 km/h (2 Bft) W-SW 248 ° 0 min 0,000 mm 0,0 UV-I 0 W/m² 9,4 °C 12,4 °C 12,9 km/h (3 Bft)
01.07.2017 00:57 12,5 °C 12,5 °C 82 % 1009,1 hPa 0,0 mm 7,6 km/h (2 Bft) W-NW 282 ° 0 min 0,000 mm 0,0 UV-I 0 W/m² 9,5 °C 12,5 °C 9,7 km/h (2 Bft)
01.07.2017 00:58 12,4 °C 12,5 °C 83 % 1009,2 hPa 0,0 mm 7,0 km/h (2 Bft) W-NW 286 ° 0 min 0,000 mm 0,0 UV-I 0 W/m² 9,6 °C 12,4 °C 12,9 km/h (3 Bft)
01.07.2017 00:59 12,4 °C 12,4 °C 82 % 1009,2 hPa 0,0 mm 3,1 km/h (1 Bft) W-NW 286 ° 0 min 0,000 mm 0,0 UV-I 0 W/m² 9,4 °C 12,4 °C 4,8 km/h (1 Bft)
01.07.2017 01:00 12,4 °C 12,4 °C 82 % 1009,2 hPa 0,0 mm 5,2 km/h (1 Bft) W-NW 302 ° 0 min 0,025 mm 0,0 UV-I 0 W/m² 9,4 °C 12,4 °C 6,4 km/h (2 Bft)
01.07.2017 01:01 12,4 °C 12,4 °C 83 % 1009,2 hPa 0,0 mm 4,3 km/h (1 Bft) W-NW 302 ° 0 min 0,000 mm 0,0 UV-I 0 W/m² 9,6 °C 12,4 °C 6,4 km/h (2 Bft)
01.07.2017 01:02 12,4 °C 12,4 °C 83 % 1009,2 hPa 0,0 mm 9,8 km/h (2 Bft) W-NW 291 ° 0 min 0,000 mm 0,0 UV-I 0 W/m² 9,6 °C 12,4 °C 12,9 km/h (3 Bft)
01.07.2017 01:03 12,4 °C 12,4 °C 83 % 1009,3 hPa 0,0 mm 4,8 km/h (1 Bft) W-NW 284 ° 0 min 0,000 mm 0,0 UV-I 0 W/m² 9,6 °C 12,4 °C 9,7 km/h (2 Bft)
01.07.2017 01:04 12,4 °C 12,4 °C 83 % 1009,2 hPa 0,0 mm 2,8 km/h (1 Bft) W 272 ° 0 min 0,000 mm 0,0 UV-I 0 W/m² 9,6 °C 12,4 °C 4,8 km/h (1 Bft)
01.07.2017 01:05 12,3 °C 12,4 °C 84 % 1009,2 hPa 0,2 mm 4,4 km/h (1 Bft) NW 308 ° 0 min 0,000 mm 0,0 UV-I 0 W/m² 9,7 °C 12,3 °C 8,0 km/h (2 Bft)
01.07.2017 01:06 12,3 °C 12,3 °C 84 % 1009,2 hPa 0,0 mm 3,0 km/h (1 Bft) NW 307 ° 0 min 0,000 mm 0,0 UV-I 0 W/m² 9,7 °C 12,3 °C 4,8 km/h (1 Bft)
01.07.2017 01:07 12,2 °C 12,3 °C 85 % 1009,2 hPa 0,0 mm 5,5 km/h (1 Bft) W-NW 291 ° 0 min 0,000 mm 0,0 UV-I 0 W/m² 9,8 °C 12,2 °C 9,7 km/h (2 Bft)
01.07.2017 01:08 12,2 °C 12,2 °C 85 % 1009,2 hPa 0,0 mm 2,8 km/h (1 Bft) W-NW 291 ° 0 min 0,000 mm 0,0 UV-I 0 W/m² 9,8 °C 12,2 °C 6,4 km/h (2 Bft)
01.07.2017 01:09 12,1 °C 12,2 °C 86 % 1009,2 hPa 0,0 mm 1,9 km/h (1 Bft) W 277 ° 0 min 0,000 mm 0,0 UV-I 0 W/m² 9,8 °C 12,1 °C 3,2 km/h (1 Bft)
01.07.2017 01:10 11,9 °C 12,1 °C 86 % 1009,2 hPa 0,2 mm 2,6 km/h (1 Bft) W 277 ° 0 min 0,000 mm 0,0 UV-I 0 W/m² 9,6 °C 11,9 °C 4,8 km/h (1 Bft)
01.07.2017 01:11 11,9 °C 11,9 °C 87 % 1009,2 hPa 0,0 mm 3,0 km/h (1 Bft) W 273 ° 0 min 0,000 mm 0,0 UV-I 0 W/m² 9,8 °C 11,9 °C 4,8 km/h (1 Bft)
01.07.2017 01:12 11,8 °C 11,9 °C 87 % 1009,3 hPa 0,0 mm 1,6 km/h (1 Bft) W 281 ° 0 min 0,000 mm 0,0 UV-I 0 W/m² 9,7 °C 11,8 °C 3,2 km/h (1 Bft)
01.07.2017 01:13 11,7 °C 11,8 °C 88 % 1009,2 hPa 0,0 mm 4,2 km/h (1 Bft) W 280 ° 0 min 0,000 mm 0,0 UV-I 0 W/m² 9,8 °C 11,7 °C 9,7 km/h (2 Bft)
01.07.2017 01:14 11,7 °C 11,7 °C 88 % 1009,3 hPa 0,2 mm 5,4 km/h (1 Bft) W-NW 284 ° 0 min 0,000 mm 0,0 UV-I 0 W/m² 9,8 °C 11,7 °C 9,7 km/h (2 Bft)
01.07.2017 01:15 11,7 °C 11,7 °C 88 % 1009,3 hPa 0,0 mm 3,6 km/h (1 Bft) W-NW 290 ° 0 min 0,000 mm 0,0 UV-I 0 W/m² 9,8 °C 11,7 °C 4,8 km/h (1 Bft)
01.07.2017 01:16 11,7 °C 11,7 °C 89 % 1009,3 hPa 0,0 mm 3,0 km/h (1 Bft) W-NW 303 ° 0 min 0,000 mm 0,0 UV-I 0 W/m² 9,9 °C 11,7 °C 4,8 km/h (1 Bft)
01.07.2017 01:17 11,6 °C 11,7 °C 89 % 1009,2 hPa 0,0 mm 5,7 km/h (1 Bft) W-SW 252 ° 0 min 0,000 mm 0,0 UV-I 0 W/m² 9,8 °C 11,6 °C 12,9 km/h (3 Bft)
01.07.2017 01:18 11,6 °C 11,7 °C 89 % 1009,2 hPa 0,0 mm 7,0 km/h (2 Bft) W 275 ° 0 min 0,000 mm 0,0 UV-I 0 W/m² 9,8 °C 11,6 °C 11,3 km/h (2 Bft)
01.07.2017 01:19 11,6 °C 11,6 °C 89 % 1009,2 hPa 0,0 mm 9,1 km/h (2 Bft) W-NW 292 ° 0 min 0,000 mm 0,0 UV-I 0 W/m² 9,8 °C 11,6 °C 12,9 km/h (3 Bft)
01.07.2017 01:20 11,7 °C 11,7 °C 88 % 1009,2 hPa 0,0 mm 5,8 km/h (2 Bft) W-NW 290 ° 0 min 0,000 mm 0,0 UV-I 0 W/m² 9,8 °C 11,7 °C 11,3 km/h (2 Bft)
01.07.2017 01:21 11,7 °C 11,7 °C 88 % 1009,2 hPa 0,0 mm 7,5 km/h (2 Bft) W 262 ° 0 min 0,000 mm 0,0 UV-I 0 W/m² 9,8 °C 11,7 °C 11,3 km/h (2 Bft)
01.07.2017 01:22 11,8 °C 11,8 °C 88 % 1009,2 hPa 0,0 mm 6,8 km/h (2 Bft) W 279 ° 0 min 0,000 mm 0,0 UV-I 0 W/m² 9,9 °C 11,8 °C 12,9 km/h (3 Bft)
01.07.2017 01:23 11,8 °C 11,8 °C 88 % 1009,2 hPa 0,0 mm 5,8 km/h (2 Bft) W 277 ° 0 min 0,000 mm 0,0 UV-I 0 W/m² 9,9 °C 11,8 °C 9,7 km/h (2 Bft)
01.07.2017 01:24 11,8 °C 11,8 °C 88 % 1009,3 hPa 0,0 mm 5,8 km/h (2 Bft) NW 304 ° 0 min 0,000 mm 0,0 UV-I 0 W/m² 9,9 °C 11,8 °C 11,3 km/h (2 Bft)
01.07.2017 01:25 11,8 °C 11,8 °C 88 % 1009,3 hPa 0,0 mm 4,2 km/h (1 Bft) W 274 ° 0 min 0,000 mm 0,0 UV-I 0 W/m² 9,9 °C 11,8 °C 6,4 km/h (2 Bft)
01.07.2017 01:26 11,8 °C 11,8 °C 88 % 1009,3 hPa 0,0 mm 3,4 km/h (1 Bft) W-SW 250 ° 0 min 0,000 mm 0,0 UV-I 0 W/m² 9,9 °C 11,8 °C 4,8 km/h (1 Bft)
01.07.2017 01:27 11,7 °C 11,8 °C 88 % 1009,2 hPa 0,0 mm 2,9 km/h (1 Bft) S 190 ° 0 min 0,000 mm 0,0 UV-I 0 W/m² 9,8 °C 11,7 °C 4,8 km/h (1 Bft)
01.07.2017 01:28 11,7 °C 11,7 °C 89 % 1009,2 hPa 0,0 mm 0,1 km/h (0 Bft) S 190 ° 0 min 0,000 mm 0,0 UV-I 0 W/m² 9,9 °C 11,7 °C 1,6 km/h (1 Bft)
01.07.2017 01:29 11,6 °C 11,7 °C 88 % 1009,2 hPa 0,0 mm 1,4 km/h (1 Bft) S 190 ° 0 min 0,000 mm 0,0 UV-I 0 W/m² 9,7 °C 11,6 °C 3,2 km/h (1 Bft)
01.07.2017 01:30 11,6 °C 11,6 °C 88 % 1009,3 hPa 0,0 mm 2,2 km/h (1 Bft) W-SW 257 ° 0 min 0,000 mm 0,0 UV-I 0 W/m² 9,7 °C 11,6 °C 4,8 km/h (1 Bft)
01.07.2017 01:31 11,7 °C 11,7 °C 88 % 1009,3 hPa 0,0 mm 1,6 km/h (1 Bft) S-SW 197 ° 0 min 0,000 mm 0,0 UV-I 0 W/m² 9,8 °C 11,7 °C 4,8 km/h (1 Bft)
01.07.2017 01:32 11,7 °C 11,7 °C 88 % 1009,2 hPa 0,0 mm 0,7 km/h (0 Bft) S-SW 197 ° 0 min 0,000 mm 0,0 UV-I 0 W/m² 9,8 °C 11,7 °C 1,6 km/h (1 Bft)
01.07.2017 01:33 11,7 °C 11,7 °C 88 % 1009,2 hPa 0,0 mm 0,8 km/h (0 Bft) S-SW 197 ° 0 min 0,000 mm 0,0 UV-I 0 W/m² 9,8 °C 11,7 °C 1,6 km/h (1 Bft)
01.07.2017 01:34 11,7 °C 11,7 °C 88 % 1009,3 hPa 0,0 mm 0,0 km/h (0 Bft) S-SW 197 ° 0 min 0,000 mm 0,0 UV-I 0 W/m² 9,8 °C 11,7 °C 0,0 km/h (0 Bft)
01.07.2017 01:35 11,7 °C 11,7 °C 88 % 1009,3 hPa 0,0 mm 0,5 km/h (0 Bft) S-SW 197 ° 0 min 0,000 mm 0,0 UV-I 0 W/m² 9,8 °C 11,7 °C 1,6 km/h (1 Bft)
01.07.2017 01:36 11,6 °C 11,7 °C 89 % 1009,3 hPa 0,0 mm 1,1 km/h (1 Bft) S-SW 197 ° 0 min 0,000 mm 0,0 UV-I 0 W/m² 9,8 °C 11,6 °C 3,2 km/h (1 Bft)
01.07.2017 01:37 11,6 °C 11,6 °C 89 % 1009,3 hPa 0,0 mm 0,3 km/h (0 Bft) S-SW 197 ° 0 min 0,000 mm 0,0 UV-I 0 W/m² 9,8 °C 11,6 °C 1,6 km/h (1 Bft)
01.07.2017 01:38 11,6 °C 11,6 °C 89 % 1009,3 hPa 0,0 mm 1,7 km/h (1 Bft) S-SW 198 ° 0 min 0,000 mm 0,0 UV-I 0 W/m² 9,8 °C 11,6 °C 3,2 km/h (1 Bft)
01.07.2017 01:39 11,6 °C 11,6 °C 89 % 1009,3 hPa 0,0 mm 1,6 km/h (1 Bft) S-SW 198 ° 0 min 0,000 mm 0,0 UV-I 0 W/m² 9,8 °C 11,6 °C 3,2 km/h (1 Bft)
01.07.2017 01:40 11,6 °C 11,6 °C 89 % 1009,3 hPa 0,0 mm 0,2 km/h (0 Bft) S-SW 198 ° 0 min 0,000 mm 0,0 UV-I 0 W/m² 9,8 °C 11,6 °C 1,6 km/h (1 Bft)
01.07.2017 01:41 11,5 °C 11,6 °C 89 % 1009,3 hPa 0,0 mm 1,2 km/h (1 Bft) S-SW 198 ° 0 min 0,000 mm 0,0 UV-I 0 W/m² 9,8 °C 11,5 °C 1,6 km/h (1 Bft)
01.07.2017 01:42 11,5 °C 11,5 °C 90 % 1009,3 hPa 0,0 mm 2,0 km/h (1 Bft) S-SW 198 ° 0 min 0,000 mm 0,0 UV-I 0 W/m² 9,9 °C 11,5 °C 3,2 km/h (1 Bft)
01.07.2017 01:43 11,4 °C 11,5 °C 90 % 1009,3 hPa 0,0 mm 0,1 km/h (0 Bft) S-SW 198 ° 0 min 0,000 mm 0,0 UV-I 0 W/m² 9,8 °C 11,4 °C 1,6 km/h (1 Bft)
01.07.2017 01:44 11,4 °C 11,4 °C 90 % 1009,3 hPa 0,0 mm 0,7 km/h (0 Bft) S-SW 198 ° 0 min 0,000 mm 0,0 UV-I 0 W/m² 9,8 °C 11,4 °C 1,6 km/h (1 Bft)
01.07.2017 01:45 11,3 °C 11,4 °C 90 % 1009,2 hPa 0,0 mm 0,8 km/h (0 Bft) S-SW 198 ° 0 min 0,000 mm 0,0 UV-I 0 W/m² 9,7 °C 11,3 °C 3,2 km/h (1 Bft)
01.07.2017 01:46 11,3 °C 11,4 °C 91 % 1009,2 hPa 0,0 mm 1,6 km/h (1 Bft) S-SW 198 ° 0 min 0,000 mm 0,0 UV-I 0 W/m² 9,9 °C 11,3 °C 3,2 km/h (1 Bft)
01.07.2017 01:47 11,3 °C 11,3 °C 90 % 1009,2 hPa 0,0 mm 1,1 km/h (1 Bft) S-SW 198 ° 0 min 0,000 mm 0,0 UV-I 0 W/m² 9,7 °C 11,3 °C 3,2 km/h (1 Bft)
01.07.2017 01:48 11,3 °C 11,3 °C 90 % 1009,3 hPa 0,0 mm 1,7 km/h (1 Bft) S-SW 198 ° 0 min 0,000 mm 0,0 UV-I 0 W/m² 9,7 °C 11,3 °C 3,2 km/h (1 Bft)
01.07.2017 01:49 11,3 °C 11,3 °C 91 % 1009,2 hPa 0,0 mm 0,9 km/h (0 Bft) S-SW 198 ° 0 min 0,000 mm 0,0 UV-I 0 W/m² 9,9 °C 11,3 °C 1,6 km/h (1 Bft)
01.07.2017 01:50 11,3 °C 11,3 °C 91 % 1009,3 hPa 0,0 mm 0,0 km/h (0 Bft) S-SW 198 ° 0 min 0,000 mm 0,0 UV-I 0 W/m² 9,9 °C 11,3 °C 0,0 km/h (0 Bft)
01.07.2017 01:51 11,3 °C 11,3 °C 90 % 1009,3 hPa 0,0 mm 2,5 km/h (1 Bft) S-SW 198 ° 0 min 0,000 mm 0,0 UV-I 0 W/m² 9,7 °C 11,3 °C 4,8 km/h (1 Bft)
01.07.2017 01:52 11,3 °C 11,3 °C 91 % 1009,3 hPa 0,0 mm 3,3 km/h (1 Bft) S-SW 198 ° 0 min 0,000 mm 0,0 UV-I 0 W/m² 9,9 °C 11,3 °C 4,8 km/h (1 Bft)
01.07.2017 01:53 11,3 °C 11,3 °C 91 % 1009,2 hPa 0,0 mm 3,4 km/h (1 Bft) S 175 ° 0 min 0,000 mm 0,0 UV-I 0 W/m² 9,9 °C 11,3 °C 4,8 km/h (1 Bft)
01.07.2017 01:54 11,3 °C 11,3 °C 91 % 1009,3 hPa 0,0 mm 4,3 km/h (1 Bft) S 173 ° 0 min 0,000 mm 0,0 UV-I 0 W/m² 9,9 °C 11,3 °C 4,8 km/h (1 Bft)
01.07.2017 01:55 11,3 °C 11,3 °C 91 % 1009,3 hPa 0,0 mm 2,5 km/h (1 Bft) S 173 ° 0 min 0,000 mm 0,0 UV-I 0 W/m² 9,9 °C 11,3 °C 3,2 km/h (1 Bft)
01.07.2017 01:56 11,2 °C 11,3 °C 91 % 1009,3 hPa 0,0 mm 3,3 km/h (1 Bft) S 173 ° 0 min 0,000 mm 0,0 UV-I 0 W/m² 9,8 °C 11,2 °C 4,8 km/h (1 Bft)
01.07.2017 01:57 11,2 °C 11,2 °C 91 % 1009,3 hPa 0,0 mm 3,2 km/h (1 Bft) S 173 ° 0 min 0,000 mm 0,0 UV-I 0 W/m² 9,8 °C 11,2 °C 4,8 km/h (1 Bft)
01.07.2017 01:58 11,2 °C 11,2 °C 91 % 1009,3 hPa 0,0 mm 2,7 km/h (1 Bft) S 173 ° 0 min 0,000 mm 0,0 UV-I 0 W/m² 9,8 °C 11,2 °C 4,8 km/h (1 Bft)
01.07.2017 01:59 11,2 °C 11,2 °C 91 % 1009,3 hPa 0,0 mm 3,0 km/h (1 Bft) S 173 ° 0 min 0,000 mm 0,0 UV-I 0 W/m² 9,8 °C 11,2 °C 4,8 km/h (1 Bft)
01.07.2017 02:00 11,1 °C 11,2 °C 91 % 1009,3 hPa 0,0 mm 2,7 km/h (1 Bft) S 173 ° 0 min 0,000 mm 0,0 UV-I 0 W/m² 9,7 °C 11,1 °C 4,8 km/h (1 Bft)
01.07.2017 02:01 11,1 °C 11,1 °C 92 % 1009,3 hPa 0,0 mm 2,7 km/h (1 Bft) S 172 ° 0 min 0,000 mm 0,0 UV-I 0 W/m² 9,8 °C 11,1 °C 4,8 km/h (1 Bft)
01.07.2017 02:02 11,1 °C 11,1 °C 92 % 1009,3 hPa 0,0 mm 4,6 km/h (1 Bft) S-SO 158 ° 0 min 0,000 mm 0,0 UV-I 0 W/m² 9,8 °C 11,1 °C 8,0 km/h (2 Bft)
01.07.2017 02:03 11,0 °C 11,1 °C 92 % 1009,3 hPa 0,0 mm 3,2 km/h (1 Bft) S-SO 158 ° 0 min 0,000 mm 0,0 UV-I 0 W/m² 9,8 °C 11,0 °C 4,8 km/h (1 Bft)
01.07.2017 02:04 11,0 °C 11,1 °C 92 % 1009,3 hPa 0,0 mm 3,1 km/h (1 Bft) S-SO 158 ° 0 min 0,000 mm 0,0 UV-I 0 W/m² 9,8 °C 11,0 °C 3,2 km/h (1 Bft)
01.07.2017 02:05 11,0 °C 11,0 °C 92 % 1009,3 hPa 0,0 mm 3,0 km/h (1 Bft) S-SO 158 ° 0 min 0,000 mm 0,0 UV-I 0 W/m² 9,8 °C 11,0 °C 4,8 km/h (1 Bft)
01.07.2017 02:06 10,9 °C 11,0 °C 92 % 1009,2 hPa 0,0 mm 2,6 km/h (1 Bft) S-SO 158 ° 0 min 0,000 mm 0,0 UV-I 0 W/m² 9,7 °C 10,9 °C 4,8 km/h (1 Bft)
01.07.2017 02:07 11,0 °C 11,0 °C 92 % 1009,2 hPa 0,0 mm 3,5 km/h (1 Bft) S-SO 158 ° 0 min 0,000 mm 0,0 UV-I 0 W/m² 9,8 °C 11,0 °C 4,8 km/h (1 Bft)
01.07.2017 02:08 11,0 °C 11,0 °C 92 % 1009,2 hPa 0,0 mm 2,3 km/h (1 Bft) S-SO 158 ° 0 min 0,000 mm 0,0 UV-I 0 W/m² 9,8 °C 11,0 °C 3,2 km/h (1 Bft)
01.07.2017 02:09 11,0 °C 11,0 °C 92 % 1009,3 hPa 0,0 mm 1,4 km/h (1 Bft) S-SO 158 ° 0 min 0,000 mm 0,0 UV-I 0 W/m² 9,8 °C 11,0 °C 3,2 km/h (1 Bft)
01.07.2017 02:10 10,9 °C 11,0 °C 92 % 1009,2 hPa 0,0 mm 0,4 km/h (0 Bft) S-SO 158 ° 0 min 0,000 mm 0,0 UV-I 0 W/m² 9,7 °C 10,9 °C 1,6 km/h (1 Bft)
01.07.2017 02:11 10,9 °C 11,0 °C 92 % 1009,2 hPa 0,0 mm 0,0 km/h (0 Bft) S-SO 158 ° 0 min 0,000 mm 0,0 UV-I 0 W/m² 9,7 °C 10,9 °C 0,0 km/h (0 Bft)
01.07.2017 02:12 10,9 °C 10,9 °C 92 % 1009,2 hPa 0,0 mm 0,0 km/h (0 Bft) S-SO 158 ° 0 min 0,000 mm 0,0 UV-I 0 W/m² 9,7 °C 10,9 °C 0,0 km/h (0 Bft)
01.07.2017 02:13 10,9 °C 10,9 °C 93 % 1009,2 hPa 0,0 mm 0,0 km/h (0 Bft) S-SO 158 ° 0 min 0,000 mm 0,0 UV-I 0 W/m² 9,8 °C 10,9 °C 0,0 km/h (0 Bft)
01.07.2017 02:14 10,9 °C 10,9 °C 92 % 1009,2 hPa 0,0 mm 0,0 km/h (0 Bft) S-SO 158 ° 0 min 0,000 mm 0,0 UV-I 0 W/m² 9,7 °C 10,9 °C 0,0 km/h (0 Bft)
01.07.2017 02:15 10,9 °C 10,9 °C 92 % 1009,2 hPa 0,0 mm 0,0 km/h (0 Bft) S-SO 158 ° 0 min 0,000 mm 0,0 UV-I 0 W/m² 9,7 °C 10,9 °C 0,0 km/h (0 Bft)
01.07.2017 02:16 10,9 °C 10,9 °C 93 % 1009,2 hPa 0,0 mm 0,5 km/h (0 Bft) S-SO 158 ° 0 min 0,000 mm 0,0 UV-I 0 W/m² 9,8 °C 10,9 °C 1,6 km/h (1 Bft)
01.07.2017 02:17 10,9 °C 10,9 °C 92 % 1009,3 hPa 0,0 mm 0,3 km/h (0 Bft) S-SO 158 ° 0 min 0,000 mm 0,0 UV-I 0 W/m² 9,7 °C 10,9 °C 3,2 km/h (1 Bft)
01.07.2017 02:18 10,9 °C 10,9 °C 92 % 1009,3 hPa 0,0 mm 1,1 km/h (1 Bft) S-SO 158 ° 0 min 0,000 mm 0,0 UV-I 0 W/m² 9,7 °C 10,9 °C 3,2 km/h (1 Bft)
01.07.2017 02:19 10,8 °C 10,9 °C 92 % 1009,2 hPa 0,0 mm 0,6 km/h (0 Bft) S-SO 158 ° 0 min 0,000 mm 0,0 UV-I 0 W/m² 9,6 °C 10,8 °C 3,2 km/h (1 Bft)
01.07.2017 02:20 10,9 °C 10,9 °C 92 % 1009,2 hPa 0,0 mm 1,6 km/h (1 Bft) S-SO 158 ° 0 min 0,000 mm 0,0 UV-I 0 W/m² 9,7 °C 10,9 °C 3,2 km/h (1 Bft)
01.07.2017 02:21 10,9 °C 10,9 °C 92 % 1009,3 hPa 0,0 mm 1,5 km/h (1 Bft) S-SO 158 ° 0 min 0,000 mm 0,0 UV-I 0 W/m² 9,7 °C 10,9 °C 3,2 km/h (1 Bft)
01.07.2017 02:22 10,9 °C 10,9 °C 93 % 1009,3 hPa 0,0 mm 1,0 km/h (0 Bft) S-SO 158 ° 0 min 0,000 mm 0,0 UV-I 0 W/m² 9,8 °C 10,9 °C 3,2 km/h (1 Bft)
01.07.2017 02:23 10,9 °C 10,9 °C 92 % 1009,3 hPa 0,0 mm 0,3 km/h (0 Bft) S-SO 158 ° 0 min 0,000 mm 0,0 UV-I 0 W/m² 9,7 °C 10,9 °C 1,6 km/h (1 Bft)
01.07.2017 02:24 10,9 °C 10,9 °C 92 % 1009,2 hPa 0,0 mm 0,7 km/h (0 Bft) S-SO 158 ° 0 min 0,000 mm 0,0 UV-I 0 W/m² 9,7 °C 10,9 °C 1,6 km/h (1 Bft)
01.07.2017 02:25 11,0 °C 11,0 °C 92 % 1009,3 hPa 0,0 mm 1,5 km/h (1 Bft) S-SO 159 ° 0 min 0,000 mm 0,0 UV-I 0 W/m² 9,8 °C 11,0 °C 3,2 km/h (1 Bft)
01.07.2017 02:26 11,0 °C 11,0 °C 92 % 1009,2 hPa 0,0 mm 1,5 km/h (1 Bft) S-SO 159 ° 0 min 0,000 mm 0,0 UV-I 0 W/m² 9,8 °C 11,0 °C 3,2 km/h (1 Bft)
01.07.2017 02:27 11,0 °C 11,0 °C 92 % 1009,2 hPa 0,0 mm 5,1 km/h (1 Bft) S 176 ° 0 min 0,000 mm 0,0 UV-I 0 W/m² 9,8 °C 11,0 °C 8,0 km/h (2 Bft)
01.07.2017 02:28 11,0 °C 11,0 °C 92 % 1009,2 hPa 0,0 mm 2,5 km/h (1 Bft) S 172 ° 0 min 0,000 mm 0,0 UV-I 0 W/m² 9,8 °C 11,0 °C 6,4 km/h (2 Bft)
01.07.2017 02:29 11,0 °C 11,0 °C 92 % 1009,2 hPa 0,0 mm 1,9 km/h (1 Bft) S 172 ° 0 min 0,000 mm 0,0 UV-I 0 W/m² 9,8 °C 11,0 °C 3,2 km/h (1 Bft)
01.07.2017 02:30 11,0 °C 11,0 °C 92 % 1009,2 hPa 0,0 mm 1,7 km/h (1 Bft) S 172 ° 0 min 0,000 mm 0,0 UV-I 0 W/m² 9,8 °C 11,0 °C 3,2 km/h (1 Bft)
01.07.2017 02:31 11,0 °C 11,0 °C 92 % 1009,2 hPa 0,0 mm 0,5 km/h (0 Bft) S 172 ° 0 min 0,000 mm 0,0 UV-I 0 W/m² 9,8 °C 11,0 °C 3,2 km/h (1 Bft)
01.07.2017 02:32 11,0 °C 11,0 °C 92 % 1009,3 hPa 0,0 mm 0,0 km/h (0 Bft) S 172 ° 0 min 0,000 mm 0,0 UV-I 0 W/m² 9,8 °C 11,0 °C 0,0 km/h (0 Bft)
01.07.2017 02:33 10,9 °C 11,0 °C 92 % 1009,3 hPa 0,0 mm 3,0 km/h (1 Bft) S 178 ° 0 min 0,000 mm 0,0 UV-I 0 W/m² 9,7 °C 10,9 °C 6,4 km/h (2 Bft)
01.07.2017 02:34 10,9 °C 10,9 °C 92 % 1009,3 hPa 0,0 mm 6,0 km/h (2 Bft) S 171 ° 0 min 0,000 mm 0,0 UV-I 0 W/m² 9,7 °C 10,9 °C 8,0 km/h (2 Bft)
01.07.2017 02:35 10,9 °C 11,0 °C 92 % 1009,3 hPa 0,0 mm 3,9 km/h (1 Bft) S-SO 155 ° 0 min 0,000 mm 0,0 UV-I 0 W/m² 9,7 °C 10,9 °C 6,4 km/h (2 Bft)
01.07.2017 02:36 10,9 °C 11,0 °C 92 % 1009,3 hPa 0,0 mm 4,2 km/h (1 Bft) S-SO 155 ° 0 min 0,000 mm 0,0 UV-I 0 W/m² 9,7 °C 10,9 °C 4,8 km/h (1 Bft)
01.07.2017 02:37 10,9 °C 11,0 °C 92 % 1009,2 hPa 0,0 mm 2,5 km/h (1 Bft) S-SO 155 ° 0 min 0,000 mm 0,0 UV-I 0 W/m² 9,7 °C 10,9 °C 4,8 km/h (1 Bft)
01.07.2017 02:38 10,9 °C 10,9 °C 92 % 1009,3 hPa 0,0 mm 2,3 km/h (1 Bft) S-SO 155 ° 0 min 0,000 mm 0,0 UV-I 0 W/m² 9,7 °C 10,9 °C 3,2 km/h (1 Bft)
01.07.2017 02:39 10,9 °C 10,9 °C 92 % 1009,2 hPa 0,0 mm 2,7 km/h (1 Bft) S-SO 155 ° 0 min 0,000 mm 0,0 UV-I 0 W/m² 9,7 °C 10,9 °C 3,2 km/h (1 Bft)
01.07.2017 02:40 10,9 °C 10,9 °C 92 % 1009,2 hPa 0,0 mm 3,1 km/h (1 Bft) S-SO 155 ° 0 min 0,000 mm 0,0 UV-I 0 W/m² 9,7 °C 10,9 °C 4,8 km/h (1 Bft)
01.07.2017 02:41 10,9 °C 10,9 °C 92 % 1009,3 hPa 0,0 mm 0,4 km/h (0 Bft) S-SO 155 ° 0 min 0,000 mm 0,0 UV-I 0 W/m² 9,7 °C 10,9 °C 1,6 km/h (1 Bft)
01.07.2017 02:42 10,9 °C 10,9 °C 92 % 1009,3 hPa 0,0 mm 0,0 km/h (0 Bft) S-SO 155 ° 0 min 0,000 mm 0,0 UV-I 0 W/m² 9,7 °C 10,9 °C 0,0 km/h (0 Bft)
01.07.2017 02:43 10,9 °C 10,9 °C 92 % 1009,3 hPa 0,0 mm 0,0 km/h (0 Bft) S-SO 155 ° 0 min 0,000 mm 0,0 UV-I 0 W/m² 9,7 °C 10,9 °C 0,0 km/h (0 Bft)
01.07.2017 02:44 10,9 °C 10,9 °C 92 % 1009,3 hPa 0,0 mm 0,0 km/h (0 Bft) S-SO 155 ° 0 min 0,000 mm 0,0 UV-I 0 W/m² 9,7 °C 10,9 °C 0,0 km/h (0 Bft)
01.07.2017 02:45 10,9 °C 10,9 °C 92 % 1009,3 hPa 0,0 mm 0,0 km/h (0 Bft) S-SO 155 ° 0 min 0,000 mm 0,0 UV-I 0 W/m² 9,7 °C 10,9 °C 0,0 km/h (0 Bft)
01.07.2017 02:46 10,9 °C 10,9 °C 92 % 1009,3 hPa 0,0 mm 0,0 km/h (0 Bft) S-SO 155 ° 0 min 0,000 mm 0,0 UV-I 0 W/m² 9,7 °C 10,9 °C 0,0 km/h (0 Bft)
01.07.2017 02:47 10,8 °C 10,9 °C 92 % 1009,3 hPa 0,0 mm 0,0 km/h (0 Bft) S-SO 155 ° 0 min 0,000 mm 0,0 UV-I 0 W/m² 9,6 °C 10,8 °C 0,0 km/h (0 Bft)
01.07.2017 02:48 10,8 °C 10,8 °C 92 % 1009,3 hPa 0,0 mm 0,0 km/h (0 Bft) S-SO 155 ° 0 min 0,000 mm 0,0 UV-I 0 W/m² 9,6 °C 10,8 °C 0,0 km/h (0 Bft)
01.07.2017 02:49 10,8 °C 10,8 °C 93 % 1009,3 hPa 0,0 mm 1,8 km/h (1 Bft) S-SO 155 ° 0 min 0,000 mm 0,0 UV-I 0 W/m² 9,7 °C 10,8 °C 3,2 km/h (1 Bft)
01.07.2017 02:50 10,8 °C 10,8 °C 93 % 1009,3 hPa 0,0 mm 1,7 km/h (1 Bft) S-SO 155 ° 0 min 0,000 mm 0,0 UV-I 0 W/m² 9,7 °C 10,8 °C 3,2 km/h (1 Bft)
01.07.2017 02:51 10,8 °C 10,8 °C 93 % 1009,3 hPa 0,0 mm 2,1 km/h (1 Bft) S-SO 155 ° 0 min 0,000 mm 0,0 UV-I 0 W/m² 9,7 °C 10,8 °C 4,8 km/h (1 Bft)
01.07.2017 02:52 10,8 °C 10,8 °C 93 % 1009,3 hPa 0,0 mm 2,6 km/h (1 Bft) S-SO 155 ° 0 min 0,000 mm 0,0 UV-I 0 W/m² 9,7 °C 10,8 °C 3,2 km/h (1 Bft)
01.07.2017 02:53 10,8 °C 10,8 °C 93 % 1009,3 hPa 0,0 mm 2,3 km/h (1 Bft) S-SO 155 ° 0 min 0,000 mm 0,0 UV-I 0 W/m² 9,7 °C 10,8 °C 3,2 km/h (1 Bft)
01.07.2017 02:54 10,8 °C 10,8 °C 93 % 1009,3 hPa 0,0 mm 2,9 km/h (1 Bft) S-SO 155 ° 0 min 0,000 mm 0,0 UV-I 0 W/m² 9,7 °C 10,8 °C 4,8 km/h (1 Bft)
01.07.2017 02:55 10,8 °C 10,8 °C 93 % 1009,3 hPa 0,0 mm 2,3 km/h (1 Bft) S-SO 155 ° 0 min 0,000 mm 0,0 UV-I 0 W/m² 9,7 °C 10,8 °C 3,2 km/h (1 Bft)
01.07.2017 02:56 10,8 °C 10,8 °C 93 % 1009,3 hPa 0,0 mm 4,3 km/h (1 Bft) S-SO 155 ° 0 min 0,000 mm 0,0 UV-I 0 W/m² 9,7 °C 10,8 °C 6,4 km/h (2 Bft)
01.07.2017 02:57 10,8 °C 10,8 °C 93 % 1009,2 hPa 0,0 mm 3,7 km/h (1 Bft) S-SO 155 ° 0 min 0,000 mm 0,0 UV-I 0 W/m² 9,7 °C 10,8 °C 4,8 km/h (1 Bft)
01.07.2017 02:58 10,8 °C 10,8 °C 93 % 1009,2 hPa 0,0 mm 3,8 km/h (1 Bft) S-SO 155 ° 0 min 0,000 mm 0,0 UV-I 0 W/m² 9,7 °C 10,8 °C 4,8 km/h (1 Bft)
01.07.2017 02:59 10,8 °C 10,8 °C 93 % 1009,3 hPa 0,0 mm 3,5 km/h (1 Bft) S-SO 155 ° 0 min 0,000 mm 0,0 UV-I 0 W/m² 9,7 °C 10,8 °C 4,8 km/h (1 Bft)
01.07.2017 03:00 10,8 °C 10,8 °C 93 % 1009,2 hPa 0,0 mm 2,9 km/h (1 Bft) S-SO 155 ° 0 min 0,000 mm 0,0 UV-I 0 W/m² 9,7 °C 10,8 °C 4,8 km/h (1 Bft)
01.07.2017 03:01 10,8 °C 10,8 °C 93 % 1009,2 hPa 0,0 mm 2,6 km/h (1 Bft) S-SO 155 ° 0 min 0,000 mm 0,0 UV-I 0 W/m² 9,7 °C 10,8 °C 3,2 km/h (1 Bft)
01.07.2017 03:02 10,8 °C 10,8 °C 93 % 1009,2 hPa 0,0 mm 2,3 km/h (1 Bft) S-SO 155 ° 0 min 0,000 mm 0,0 UV-I 0 W/m² 9,7 °C 10,8 °C 3,2 km/h (1 Bft)
01.07.2017 03:03 10,8 °C 10,8 °C 92 % 1009,2 hPa 0,0 mm 0,5 km/h (0 Bft) S-SO 155 ° 0 min 0,000 mm 0,0 UV-I 0 W/m² 9,6 °C 10,8 °C 3,2 km/h (1 Bft)
01.07.2017 03:04 10,8 °C 10,8 °C 92 % 1009,2 hPa 0,0 mm 0,0 km/h (0 Bft) S-SO 155 ° 0 min 0,000 mm 0,0 UV-I 0 W/m² 9,6 °C 10,8 °C 0,0 km/h (0 Bft)
01.07.2017 03:05 10,8 °C 10,8 °C 92 % 1009,2 hPa 0,0 mm 1,3 km/h (1 Bft) S-SO 155 ° 0 min 0,000 mm 0,0 UV-I 0 W/m² 9,6 °C 10,8 °C 3,2 km/h (1 Bft)
01.07.2017 03:06 10,8 °C 10,8 °C 92 % 1009,2 hPa 0,0 mm 1,2 km/h (1 Bft) S-SO 155 ° 0 min 0,000 mm 0,0 UV-I 0 W/m² 9,6 °C 10,8 °C 1,6 km/h (1 Bft)
01.07.2017 03:07 10,8 °C 10,8 °C 92 % 1009,2 hPa 0,0 mm 1,5 km/h (1 Bft) S-SO 155 ° 0 min 0,000 mm 0,0 UV-I 0 W/m² 9,6 °C 10,8 °C 3,2 km/h (1 Bft)
01.07.2017 03:08 10,8 °C 10,8 °C 92 % 1009,2 hPa 0,0 mm 0,0 km/h (0 Bft) S-SO 155 ° 0 min 0,000 mm 0,0 UV-I 0 W/m² 9,6 °C 10,8 °C 0,0 km/h (0 Bft)
01.07.2017 03:09 10,8 °C 10,8 °C 92 % 1009,2 hPa 0,0 mm 1,1 km/h (1 Bft) S-SO 155 ° 0 min 0,000 mm 0,0 UV-I 0 W/m² 9,6 °C 10,8 °C 3,2 km/h (1 Bft)
01.07.2017 03:10 10,8 °C 10,8 °C 92 % 1009,2 hPa 0,0 mm 0,0 km/h (0 Bft) S-SO 155 ° 0 min 0,000 mm 0,0 UV-I 0 W/m² 9,6 °C 10,8 °C 0,0 km/h (0 Bft)
01.07.2017 03:11 10,8 °C 10,8 °C 92 % 1009,2 hPa 0,0 mm 0,0 km/h (0 Bft) S-SO 155 ° 0 min 0,000 mm 0,0 UV-I 0 W/m² 9,6 °C 10,8 °C 0,0 km/h (0 Bft)
01.07.2017 03:12 10,8 °C 10,8 °C 92 % 1009,2 hPa 0,0 mm 0,0 km/h (0 Bft) S-SO 155 ° 0 min 0,000 mm 0,0 UV-I 0 W/m² 9,6 °C 10,8 °C 0,0 km/h (0 Bft)
01.07.2017 03:13 10,7 °C 10,8 °C 92 % 1009,2 hPa 0,0 mm 0,0 km/h (0 Bft) S-SO 155 ° 0 min 0,000 mm 0,0 UV-I 0 W/m² 9,5 °C 10,7 °C 0,0 km/h (0 Bft)
01.07.2017 03:14 10,7 °C 10,8 °C 92 % 1009,2 hPa 0,0 mm 0,0 km/h (0 Bft) S-SO 155 ° 0 min 0,000 mm 0,0 UV-I 0 W/m² 9,5 °C 10,7 °C 0,0 km/h (0 Bft)
01.07.2017 03:15 10,7 °C 10,7 °C 92 % 1009,2 hPa 0,0 mm 0,0 km/h (0 Bft) S-SO 155 ° 0 min 0,000 mm 0,0 UV-I 0 W/m² 9,5 °C 10,7 °C 0,0 km/h (0 Bft)
01.07.2017 03:16 10,7 °C 10,7 °C 93 % 1009,2 hPa 0,0 mm 0,0 km/h (0 Bft) S-SO 155 ° 0 min 0,000 mm 0,0 UV-I 0 W/m² 9,6 °C 10,7 °C 0,0 km/h (0 Bft)
01.07.2017 03:17 10,6 °C 10,7 °C 93 % 1009,2 hPa 0,0 mm 0,0 km/h (0 Bft) S-SO 155 ° 0 min 0,000 mm 0,0 UV-I 0 W/m² 9,5 °C 10,6 °C 0,0 km/h (0 Bft)
01.07.2017 03:18 10,6 °C 10,6 °C 93 % 1009,2 hPa 0,0 mm 0,0 km/h (0 Bft) S-SO 155 ° 0 min 0,000 mm 0,0 UV-I 0 W/m² 9,5 °C 10,6 °C 0,0 km/h (0 Bft)
01.07.2017 03:19 10,6 °C 10,6 °C 92 % 1009,2 hPa 0,0 mm 0,0 km/h (0 Bft) S-SO 155 ° 0 min 0,000 mm 0,0 UV-I 0 W/m² 9,4 °C 10,6 °C 0,0 km/h (0 Bft)
01.07.2017 03:20 10,6 °C 10,6 °C 93 % 1009,2 hPa 0,0 mm 0,0 km/h (0 Bft) S-SO 155 ° 0 min 0,000 mm 0,0 UV-I 0 W/m² 9,5 °C 10,6 °C 0,0 km/h (0 Bft)
01.07.2017 03:21 10,5 °C 10,6 °C 93 % 1009,2 hPa 0,0 mm 0,0 km/h (0 Bft) S-SO 155 ° 0 min 0,000 mm 0,0 UV-I 0 W/m² 9,4 °C 10,5 °C 0,0 km/h (0 Bft)
01.07.2017 03:22 10,5 °C 10,5 °C 93 % 1009,2 hPa 0,0 mm 0,0 km/h (0 Bft) S-SO 155 ° 0 min 0,000 mm 0,0 UV-I 0 W/m² 9,4 °C 10,5 °C 0,0 km/h (0 Bft)
01.07.2017 03:23 10,4 °C 10,5 °C 93 % 1009,2 hPa 0,0 mm 0,0 km/h (0 Bft) S-SO 155 ° 0 min 0,000 mm 0,0 UV-I 0 W/m² 9,3 °C 10,4 °C 0,0 km/h (0 Bft)
01.07.2017 03:24 10,4 °C 10,4 °C 93 % 1009,2 hPa 0,0 mm 0,0 km/h (0 Bft) S-SO 155 ° 0 min 0,000 mm 0,0 UV-I 0 W/m² 9,3 °C 10,4 °C 0,0 km/h (0 Bft)
01.07.2017 03:25 10,4 °C 10,4 °C 93 % 1009,1 hPa 0,0 mm 0,0 km/h (0 Bft) S-SO 155 ° 0 min 0,000 mm 0,0 UV-I 0 W/m² 9,3 °C 10,4 °C 0,0 km/h (0 Bft)
01.07.2017 03:26 10,4 °C 10,4 °C 93 % 1009,2 hPa 0,0 mm 0,0 km/h (0 Bft) S-SO 155 ° 0 min 0,000 mm 0,0 UV-I 0 W/m² 9,3 °C 10,4 °C 0,0 km/h (0 Bft)
01.07.2017 03:27 10,4 °C 10,4 °C 93 % 1009,2 hPa 0,0 mm 0,9 km/h (0 Bft) S-SO 155 ° 0 min 0,000 mm 0,0 UV-I 0 W/m² 9,3 °C 10,4 °C 3,2 km/h (1 Bft)
01.07.2017 03:28 10,4 °C 10,4 °C 93 % 1009,2 hPa 0,0 mm 0,7 km/h (0 Bft) S-SO 155 ° 0 min 0,000 mm 0,0 UV-I 0 W/m² 9,3 °C 10,4 °C 3,2 km/h (1 Bft)
01.07.2017 03:29 10,3 °C 10,4 °C 93 % 1009,2 hPa 0,0 mm 2,0 km/h (1 Bft) S-SO 155 ° 0 min 0,000 mm 0,0 UV-I 0 W/m² 9,2 °C 10,3 °C 3,2 km/h (1 Bft)
01.07.2017 03:30 10,3 °C 10,4 °C 93 % 1009,2 hPa 0,0 mm 1,8 km/h (1 Bft) S 187 ° 0 min 0,000 mm 0,0 UV-I 0 W/m² 9,2 °C 10,3 °C 3,2 km/h (1 Bft)
01.07.2017 03:31 10,3 °C 10,4 °C 93 % 1009,2 hPa 0,0 mm 1,6 km/h (1 Bft) S 187 ° 0 min 0,000 mm 0,0 UV-I 0 W/m² 9,2 °C 10,3 °C 3,2 km/h (1 Bft)
01.07.2017 03:32 10,3 °C 10,4 °C 93 % 1009,1 hPa 0,0 mm 2,4 km/h (1 Bft) S 184 ° 0 min 0,000 mm 0,0 UV-I 0 W/m² 9,2 °C 10,3 °C 4,8 km/h (1 Bft)
01.07.2017 03:33 10,4 °C 10,4 °C 93 % 1009,0 hPa 0,0 mm 0,9 km/h (0 Bft) S 184 ° 0 min 0,000 mm 0,0 UV-I 0 W/m² 9,3 °C 10,4 °C 3,2 km/h (1 Bft)
01.07.2017 03:34 10,4 °C 10,4 °C 93 % 1009,0 hPa 0,0 mm 0,3 km/h (0 Bft) S 184 ° 0 min 0,000 mm 0,0 UV-I 0 W/m² 9,3 °C 10,4 °C 1,6 km/h (1 Bft)
01.07.2017 03:35 10,3 °C 10,4 °C 93 % 1009,0 hPa 0,0 mm 0,8 km/h (0 Bft) S 184 ° 0 min 0,000 mm 0,0 UV-I 0 W/m² 9,2 °C 10,3 °C 3,2 km/h (1 Bft)
01.07.2017 03:36 10,3 °C 10,3 °C 93 % 1009,0 hPa 0,0 mm 3,0 km/h (1 Bft) S 184 ° 0 min 0,000 mm 0,0 UV-I 0 W/m² 9,2 °C 10,3 °C 4,8 km/h (1 Bft)
01.07.2017 03:37 10,3 °C 10,3 °C 93 % 1009,0 hPa 0,0 mm 0,8 km/h (0 Bft) S 184 ° 0 min 0,000 mm 0,0 UV-I 0 W/m² 9,2 °C 10,3 °C 3,2 km/h (1 Bft)
01.07.2017 03:38 10,3 °C 10,3 °C 93 % 1009,0 hPa 0,0 mm 1,3 km/h (1 Bft) S 184 ° 0 min 0,000 mm 0,0 UV-I 0 W/m² 9,2 °C 10,3 °C 3,2 km/h (1 Bft)
01.07.2017 03:39 10,3 °C 10,3 °C 93 % 1009,0 hPa 0,0 mm 0,3 km/h (0 Bft) S 184 ° 0 min 0,000 mm 0,0 UV-I 0 W/m² 9,2 °C 10,3 °C 1,6 km/h (1 Bft)
01.07.2017 03:40 10,4 °C 10,4 °C 93 % 1009,0 hPa 0,0 mm 0,0 km/h (0 Bft) S 184 ° 0 min 0,000 mm 0,0 UV-I 0 W/m² 9,3 °C 10,4 °C 0,0 km/h (0 Bft)
01.07.2017 03:41 10,3 °C 10,4 °C 93 % 1009,0 hPa 0,0 mm 0,0 km/h (0 Bft) S 184 ° 0 min 0,000 mm 0,0 UV-I 0 W/m² 9,2 °C 10,3 °C 0,0 km/h (0 Bft)
01.07.2017 03:42 10,3 °C 10,4 °C 93 % 1009,0 hPa 0,0 mm 0,5 km/h (0 Bft) S 184 ° 0 min 0,000 mm 0,0 UV-I 0 W/m² 9,2 °C 10,3 °C 1,6 km/h (1 Bft)
01.07.2017 03:43 10,3 °C 10,3 °C 93 % 1009,0 hPa 0,0 mm 0,6 km/h (0 Bft) S 184 ° 0 min 0,000 mm 0,0 UV-I 0 W/m² 9,2 °C 10,3 °C 3,2 km/h (1 Bft)
01.07.2017 03:44 10,3 °C 10,3 °C 93 % 1009,1 hPa 0,0 mm 0,0 km/h (0 Bft) S 184 ° 0 min 0,000 mm 0,0 UV-I 0 W/m² 9,2 °C 10,3 °C 0,0 km/h (0 Bft)
01.07.2017 03:45 10,3 °C 10,3 °C 93 % 1009,1 hPa 0,0 mm 1,8 km/h (1 Bft) S 188 ° 0 min 0,000 mm 0,0 UV-I 0 W/m² 9,2 °C 10,3 °C 3,2 km/h (1 Bft)
01.07.2017 03:46 10,3 °C 10,3 °C 93 % 1009,1 hPa 0,0 mm 0,1 km/h (0 Bft) S 188 ° 0 min 0,000 mm 0,0 UV-I 0 W/m² 9,2 °C 10,3 °C 1,6 km/h (1 Bft)
01.07.2017 03:47 10,4 °C 10,4 °C 92 % 1009,1 hPa 0,0 mm 0,0 km/h (0 Bft) S 188 ° 0 min 0,000 mm 0,0 UV-I 0 W/m² 9,2 °C 10,4 °C 0,0 km/h (0 Bft)
01.07.2017 03:48 10,4 °C 10,4 °C 92 % 1009,1 hPa 0,0 mm 0,0 km/h (0 Bft) S 188 ° 0 min 0,000 mm 0,0 UV-I 0 W/m² 9,2 °C 10,4 °C 0,0 km/h (0 Bft)
01.07.2017 03:49 10,4 °C 10,4 °C 92 % 1009,1 hPa 0,0 mm 0,0 km/h (0 Bft) S 188 ° 0 min 0,000 mm 0,0 UV-I 0 W/m² 9,2 °C 10,4 °C 0,0 km/h (0 Bft)
01.07.2017 03:50 10,4 °C 10,4 °C 92 % 1009,1 hPa 0,0 mm 0,8 km/h (0 Bft) S 188 ° 0 min 0,000 mm 0,0 UV-I 0 W/m² 9,2 °C 10,4 °C 1,6 km/h (1 Bft)
01.07.2017 03:51 10,4 °C 10,4 °C 92 % 1009,1 hPa 0,0 mm 0,0 km/h (0 Bft) S 188 ° 0 min 0,000 mm 0,0 UV-I 0 W/m² 9,2 °C 10,4 °C 0,0 km/h (0 Bft)
01.07.2017 03:52 10,4 °C 10,4 °C 92 % 1009,1 hPa 0,0 mm 0,0 km/h (0 Bft) S 188 ° 0 min 0,000 mm 0,0 UV-I 0 W/m² 9,2 °C 10,4 °C 0,0 km/h (0 Bft)
01.07.2017 03:53 10,4 °C 10,4 °C 92 % 1009,2 hPa 0,0 mm 1,3 km/h (1 Bft) S 188 ° 0 min 0,000 mm 0,0 UV-I 0 W/m² 9,2 °C 10,4 °C 3,2 km/h (1 Bft)
01.07.2017 03:54 10,4 °C 10,4 °C 92 % 1009,1 hPa 0,0 mm 1,5 km/h (1 Bft) S 188 ° 0 min 0,000 mm 0,0 UV-I 0 W/m² 9,2 °C 10,4 °C 3,2 km/h (1 Bft)
01.07.2017 03:55 10,4 °C 10,4 °C 92 % 1009,1 hPa 0,0 mm 2,0 km/h (1 Bft) S 188 ° 0 min 0,000 mm 0,0 UV-I 0 W/m² 9,2 °C 10,4 °C 3,2 km/h (1 Bft)
01.07.2017 03:56 10,4 °C 10,4 °C 92 % 1009,2 hPa 0,0 mm 1,7 km/h (1 Bft) S 188 ° 0 min 0,000 mm 0,0 UV-I 0 W/m² 9,2 °C 10,4 °C 3,2 km/h (1 Bft)
01.07.2017 03:57 10,4 °C 10,4 °C 92 % 1009,1 hPa 0,0 mm 1,1 km/h (1 Bft) S 188 ° 0 min 0,000 mm 0,0 UV-I 0 W/m² 9,2 °C 10,4 °C 3,2 km/h (1 Bft)
01.07.2017 03:58 10,4 °C 10,4 °C 92 % 1009,2 hPa 0,0 mm 2,4 km/h (1 Bft) S 188 ° 0 min 0,000 mm 0,0 UV-I 0 W/m² 9,2 °C 10,4 °C 3,2 km/h (1 Bft)
01.07.2017 03:59 10,4 °C 10,4 °C 92 % 1009,2 hPa 0,0 mm 2,4 km/h (1 Bft) S 188 ° 0 min 0,000 mm 0,0 UV-I 0 W/m² 9,2 °C 10,4 °C 4,8 km/h (1 Bft)
01.07.2017 04:00 10,4 °C 10,4 °C 92 % 1009,2 hPa 0,0 mm 2,4 km/h (1 Bft) S 188 ° 0 min 0,000 mm 0,0 UV-I 0 W/m² 9,2 °C 10,4 °C 4,8 km/h (1 Bft)
01.07.2017 04:01 10,4 °C 10,4 °C 92 % 1009,1 hPa 0,0 mm 2,4 km/h (1 Bft) S 185 ° 0 min 0,000 mm 0,0 UV-I 0 W/m² 9,2 °C 10,4 °C 3,2 km/h (1 Bft)
01.07.2017 04:02 10,4 °C 10,4 °C 92 % 1009,2 hPa 0,0 mm 2,1 km/h (1 Bft) S 185 ° 0 min 0,000 mm 0,0 UV-I 0 W/m² 9,2 °C 10,4 °C 3,2 km/h (1 Bft)
01.07.2017 04:03 10,4 °C 10,4 °C 92 % 1009,2 hPa 0,0 mm 2,1 km/h (1 Bft) S 185 ° 0 min 0,000 mm 0,0 UV-I 0 W/m² 9,2 °C 10,4 °C 4,8 km/h (1 Bft)
01.07.2017 04:04 10,4 °C 10,4 °C 92 % 1009,1 hPa 0,0 mm 0,8 km/h (0 Bft) S 185 ° 0 min 0,000 mm 0,0 UV-I 0 W/m² 9,2 °C 10,4 °C 1,6 km/h (1 Bft)
01.07.2017 04:05 10,4 °C 10,4 °C 92 % 1009,2 hPa 0,0 mm 1,5 km/h (1 Bft) S 185 ° 0 min 0,000 mm 0,0 UV-I 0 W/m² 9,2 °C 10,4 °C 3,2 km/h (1 Bft)
01.07.2017 04:06 10,5 °C 10,5 °C 92 % 1009,2 hPa 0,0 mm 0,9 km/h (0 Bft) S 185 ° 0 min 0,000 mm 0,0 UV-I 0 W/m² 9,3 °C 10,5 °C 1,6 km/h (1 Bft)
01.07.2017 04:07 10,4 °C 10,5 °C 92 % 1009,2 hPa 0,0 mm 1,7 km/h (1 Bft) S 185 ° 0 min 0,000 mm 0,0 UV-I 0 W/m² 9,2 °C 10,4 °C 3,2 km/h (1 Bft)
01.07.2017 04:08 10,4 °C 10,5 °C 92 % 1009,2 hPa 0,0 mm 0,0 km/h (0 Bft) S 185 ° 0 min 0,000 mm 0,0 UV-I 0 W/m² 9,2 °C 10,4 °C 0,0 km/h (0 Bft)
01.07.2017 04:09 10,5 °C 10,5 °C 92 % 1009,2 hPa 0,0 mm 0,0 km/h (0 Bft) S 185 ° 0 min 0,000 mm 0,0 UV-I 0 W/m² 9,3 °C 10,5 °C 0,0 km/h (0 Bft)
01.07.2017 04:10 10,5 °C 10,5 °C 92 % 1009,3 hPa 0,0 mm 2,3 km/h (1 Bft) W-SW 238 ° 0 min 0,000 mm 0,0 UV-I 0 W/m² 9,3 °C 10,5 °C 8,0 km/h (2 Bft)
01.07.2017 04:11 10,6 °C 10,6 °C 91 % 1009,3 hPa 0,0 mm 2,3 km/h (1 Bft) SW 218 ° 0 min 0,000 mm 0,0 UV-I 0 W/m² 9,2 °C 10,6 °C 3,2 km/h (1 Bft)
01.07.2017 04:12 10,7 °C 10,7 °C 90 % 1009,3 hPa 0,0 mm 4,0 km/h (1 Bft) S-SW 193 ° 0 min 0,000 mm 0,0 UV-I 0 W/m² 9,1 °C 10,7 °C 6,4 km/h (2 Bft)
01.07.2017 04:13 10,8 °C 10,8 °C 89 % 1009,3 hPa 0,0 mm 4,2 km/h (1 Bft) S 184 ° 0 min 0,000 mm 0,0 UV-I 0 W/m² 9,1 °C 10,8 °C 6,4 km/h (2 Bft)
01.07.2017 04:14 10,9 °C 10,9 °C 89 % 1009,3 hPa 0,0 mm 5,8 km/h (2 Bft) S 190 ° 0 min 0,000 mm 0,0 UV-I 0 W/m² 9,2 °C 10,9 °C 9,7 km/h (2 Bft)
01.07.2017 04:15 11,0 °C 11,0 °C 89 % 1009,3 hPa 0,0 mm 2,9 km/h (1 Bft) S 190 ° 0 min 0,000 mm 0,0 UV-I 0 W/m² 9,3 °C 11,0 °C 6,4 km/h (2 Bft)
01.07.2017 04:16 11,0 °C 11,1 °C 90 % 1009,3 hPa 0,0 mm 1,5 km/h (1 Bft) S 190 ° 0 min 0,000 mm 0,0 UV-I 0 W/m² 9,4 °C 11,0 °C 3,2 km/h (1 Bft)
01.07.2017 04:17 11,0 °C 11,0 °C 89 % 1009,3 hPa 0,0 mm 3,5 km/h (1 Bft) S 190 ° 0 min 0,000 mm 0,0 UV-I 0 W/m² 9,3 °C 11,0 °C 4,8 km/h (1 Bft)
01.07.2017 04:18 10,9 °C 11,0 °C 89 % 1009,3 hPa 0,0 mm 2,1 km/h (1 Bft) S 190 ° 0 min 0,000 mm 0,0 UV-I 0 W/m² 9,2 °C 10,9 °C 3,2 km/h (1 Bft)
01.07.2017 04:19 10,9 °C 10,9 °C 89 % 1009,3 hPa 0,0 mm 1,8 km/h (1 Bft) S 190 ° 0 min 0,000 mm 0,0 UV-I 0 W/m² 9,2 °C 10,9 °C 3,2 km/h (1 Bft)
01.07.2017 04:20 10,9 °C 10,9 °C 89 % 1009,3 hPa 0,0 mm 1,1 km/h (1 Bft) S 190 ° 0 min 0,000 mm 0,0 UV-I 0 W/m² 9,2 °C 10,9 °C 3,2 km/h (1 Bft)
01.07.2017 04:21 10,8 °C 10,9 °C 90 % 1009,4 hPa 0,0 mm 1,9 km/h (1 Bft) S 190 ° 0 min 0,000 mm 0,0 UV-I 0 W/m² 9,2 °C 10,8 °C 3,2 km/h (1 Bft)
01.07.2017 04:22 10,8 °C 10,8 °C 90 % 1009,3 hPa 0,0 mm 2,3 km/h (1 Bft) S 190 ° 0 min 0,000 mm 0,0 UV-I 0 W/m² 9,2 °C 10,8 °C 3,2 km/h (1 Bft)
01.07.2017 04:23 10,8 °C 10,8 °C 90 % 1009,4 hPa 0,0 mm 1,9 km/h (1 Bft) S 179 ° 0 min 0,000 mm 0,0 UV-I 0 W/m² 9,2 °C 10,8 °C 3,2 km/h (1 Bft)
01.07.2017 04:24 10,8 °C 10,8 °C 90 % 1009,4 hPa 0,0 mm 2,4 km/h (1 Bft) S 178 ° 0 min 0,000 mm 0,0 UV-I 0 W/m² 9,2 °C 10,8 °C 4,8 km/h (1 Bft)
01.07.2017 04:25 10,7 °C 10,8 °C 90 % 1009,4 hPa 0,0 mm 3,6 km/h (1 Bft) S 180 ° 0 min 0,000 mm 0,0 UV-I 0 W/m² 9,1 °C 10,7 °C 4,8 km/h (1 Bft)
01.07.2017 04:26 10,7 °C 10,7 °C 90 % 1009,4 hPa 0,0 mm 2,1 km/h (1 Bft) S 180 ° 0 min 0,000 mm 0,0 UV-I 0 W/m² 9,1 °C 10,7 °C 3,2 km/h (1 Bft)
01.07.2017 04:27 10,7 °C 10,7 °C 91 % 1009,4 hPa 0,0 mm 3,1 km/h (1 Bft) S 180 ° 0 min 0,000 mm 0,0 UV-I 0 W/m² 9,3 °C 10,7 °C 4,8 km/h (1 Bft)
01.07.2017 04:28 10,7 °C 10,7 °C 90 % 1009,4 hPa 0,0 mm 2,3 km/h (1 Bft) S 180 ° 0 min 0,000 mm 0,0 UV-I 0 W/m² 9,1 °C 10,7 °C 4,8 km/h (1 Bft)
01.07.2017 04:29 10,7 °C 10,7 °C 90 % 1009,4 hPa 0,0 mm 1,3 km/h (1 Bft) S 180 ° 0 min 0,000 mm 0,0 UV-I 0 W/m² 9,1 °C 10,7 °C 3,2 km/h (1 Bft)
01.07.2017 04:30 10,7 °C 10,7 °C 91 % 1009,4 hPa 0,0 mm 0,2 km/h (0 Bft) S 180 ° 0 min 0,000 mm 0,0 UV-I 0 W/m² 9,3 °C 10,7 °C 1,6 km/h (1 Bft)
01.07.2017 04:31 10,7 °C 10,7 °C 91 % 1009,4 hPa 0,0 mm 1,2 km/h (1 Bft) S 180 ° 0 min 0,000 mm 0,0 UV-I 0 W/m² 9,3 °C 10,7 °C 3,2 km/h (1 Bft)
01.07.2017 04:32 10,7 °C 10,7 °C 91 % 1009,4 hPa 0,0 mm 1,5 km/h (1 Bft) S 180 ° 0 min 0,000 mm 0,0 UV-I 0 W/m² 9,3 °C 10,7 °C 3,2 km/h (1 Bft)
01.07.2017 04:33 10,6 °C 10,7 °C 91 % 1009,4 hPa 0,0 mm 1,4 km/h (1 Bft) S 180 ° 0 min 0,000 mm 0,0 UV-I 0 W/m² 9,2 °C 10,6 °C 3,2 km/h (1 Bft)
01.07.2017 04:34 10,6 °C 10,6 °C 91 % 1009,4 hPa 0,0 mm 2,6 km/h (1 Bft) S 180 ° 0 min 0,000 mm 0,0 UV-I 0 W/m² 9,2 °C 10,6 °C 4,8 km/h (1 Bft)
01.07.2017 04:35 10,6 °C 10,6 °C 91 % 1009,4 hPa 0,0 mm 1,8 km/h (1 Bft) S 180 ° 0 min 0,000 mm 0,0 UV-I 0 W/m² 9,2 °C 10,6 °C 4,8 km/h (1 Bft)
01.07.2017 04:36 10,6 °C 10,6 °C 91 % 1009,4 hPa 0,0 mm 2,5 km/h (1 Bft) S 180 ° 0 min 0,000 mm 0,0 UV-I 0 W/m² 9,2 °C 10,6 °C 3,2 km/h (1 Bft)
01.07.2017 04:37 10,6 °C 10,6 °C 91 % 1009,4 hPa 0,0 mm 1,5 km/h (1 Bft) S 180 ° 0 min 0,000 mm 0,0 UV-I 0 W/m² 9,2 °C 10,6 °C 3,2 km/h (1 Bft)
01.07.2017 04:38 10,6 °C 10,7 °C 91 % 1009,4 hPa 0,0 mm 1,0 km/h (0 Bft) S 180 ° 0 min 0,000 mm 0,0 UV-I 0 W/m² 9,2 °C 10,6 °C 3,2 km/h (1 Bft)
01.07.2017 04:39 10,7 °C 10,7 °C 91 % 1009,4 hPa 0,0 mm 2,1 km/h (1 Bft) S 180 ° 0 min 0,000 mm 0,0 UV-I 0 W/m² 9,3 °C 10,7 °C 3,2 km/h (1 Bft)
01.07.2017 04:40 10,6 °C 10,7 °C 91 % 1009,4 hPa 0,0 mm 1,1 km/h (1 Bft) S 180 ° 0 min 0,000 mm 0,0 UV-I 0 W/m² 9,2 °C 10,6 °C 1,6 km/h (1 Bft)
01.07.2017 04:41 10,6 °C 10,6 °C 91 % 1009,4 hPa 0,0 mm 1,0 km/h (0 Bft) S 180 ° 0 min 0,000 mm 0,0 UV-I 0 W/m² 9,2 °C 10,6 °C 1,6 km/h (1 Bft)
01.07.2017 04:42 10,6 °C 10,6 °C 91 % 1009,4 hPa 0,0 mm 0,5 km/h (0 Bft) S 180 ° 0 min 0,000 mm 0,0 UV-I 0 W/m² 9,2 °C 10,6 °C 1,6 km/h (1 Bft)
01.07.2017 04:43 10,6 °C 10,6 °C 91 % 1009,4 hPa 0,0 mm 0,0 km/h (0 Bft) S 180 ° 0 min 0,000 mm 0,0 UV-I 0 W/m² 9,2 °C 10,6 °C 0,0 km/h (0 Bft)
01.07.2017 04:44 10,6 °C 10,6 °C 91 % 1009,5 hPa 0,0 mm 1,7 km/h (1 Bft) S 180 ° 0 min 0,000 mm 0,0 UV-I 0 W/m² 9,2 °C 10,6 °C 3,2 km/h (1 Bft)
01.07.2017 04:45 10,6 °C 10,6 °C 91 % 1009,5 hPa 0,0 mm 1,9 km/h (1 Bft) S-SW 193 ° 0 min 0,000 mm 0,0 UV-I 0 W/m² 9,2 °C 10,6 °C 4,8 km/h (1 Bft)
01.07.2017 04:46 10,7 °C 10,7 °C 91 % 1009,6 hPa 0,0 mm 1,1 km/h (1 Bft) S-SW 193 ° 0 min 0,000 mm 0,0 UV-I 0 W/m² 9,3 °C 10,7 °C 3,2 km/h (1 Bft)
01.07.2017 04:47 10,7 °C 10,7 °C 91 % 1009,5 hPa 0,0 mm 1,5 km/h (1 Bft) S-SW 193 ° 0 min 0,000 mm 0,0 UV-I 0 W/m² 9,3 °C 10,7 °C 3,2 km/h (1 Bft)
01.07.2017 04:48 10,7 °C 10,7 °C 91 % 1009,6 hPa 0,0 mm 1,3 km/h (1 Bft) S-SW 193 ° 0 min 0,000 mm 0,0 UV-I 0 W/m² 9,3 °C 10,7 °C 3,2 km/h (1 Bft)
01.07.2017 04:49 10,7 °C 10,7 °C 90 % 1009,6 hPa 0,0 mm 2,7 km/h (1 Bft) S-SW 192 ° 0 min 0,000 mm 0,0 UV-I 0 W/m² 9,1 °C 10,7 °C 4,8 km/h (1 Bft)
01.07.2017 04:50 10,8 °C 10,8 °C 90 % 1009,7 hPa 0,0 mm 1,9 km/h (1 Bft) S-SW 192 ° 0 min 0,000 mm 0,0 UV-I 0 W/m² 9,2 °C 10,8 °C 3,2 km/h (1 Bft)
01.07.2017 04:51 10,8 °C 10,8 °C 91 % 1009,6 hPa 0,0 mm 2,4 km/h (1 Bft) S-SW 192 ° 0 min 0,000 mm 0,0 UV-I 0 W/m² 9,4 °C 10,8 °C 3,2 km/h (1 Bft)
01.07.2017 04:52 10,7 °C 10,8 °C 91 % 1009,7 hPa 0,0 mm 2,5 km/h (1 Bft) S-SW 192 ° 0 min 0,000 mm 0,0 UV-I 0 W/m² 9,3 °C 10,7 °C 3,2 km/h (1 Bft)
01.07.2017 04:53 10,7 °C 10,7 °C 91 % 1009,6 hPa 0,0 mm 3,8 km/h (1 Bft) S-SW 192 ° 0 min 0,000 mm 0,0 UV-I 0 W/m² 9,3 °C 10,7 °C 4,8 km/h (1 Bft)
01.07.2017 04:54 10,7 °C 10,7 °C 91 % 1009,6 hPa 0,0 mm 1,9 km/h (1 Bft) S-SW 192 ° 0 min 0,000 mm 0,0 UV-I 0 W/m² 9,3 °C 10,7 °C 4,8 km/h (1 Bft)
01.07.2017 04:55 10,7 °C 10,7 °C 91 % 1009,7 hPa 0,0 mm 2,3 km/h (1 Bft) S-SW 192 ° 0 min 0,000 mm 0,0 UV-I 0 W/m² 9,3 °C 10,7 °C 3,2 km/h (1 Bft)
01.07.2017 04:56 10,7 °C 10,7 °C 91 % 1009,7 hPa 0,0 mm 2,5 km/h (1 Bft) S-SW 192 ° 0 min 0,000 mm 0,0 UV-I 0 W/m² 9,3 °C 10,7 °C 3,2 km/h (1 Bft)
01.07.2017 04:57 10,7 °C 10,7 °C 91 % 1009,7 hPa 0,0 mm 2,7 km/h (1 Bft) S-SW 192 ° 0 min 0,000 mm 0,0 UV-I 0 W/m² 9,3 °C 10,7 °C 4,8 km/h (1 Bft)
01.07.2017 04:58 10,8 °C 10,8 °C 91 % 1009,7 hPa 0,0 mm 1,5 km/h (1 Bft) S-SW 192 ° 0 min 0,000 mm 0,0 UV-I 0 W/m² 9,4 °C 10,8 °C 3,2 km/h (1 Bft)
01.07.2017 04:59 10,7 °C 10,8 °C 91 % 1009,8 hPa 0,0 mm 2,5 km/h (1 Bft) S 188 ° 0 min 0,000 mm 0,0 UV-I 0 W/m² 9,3 °C 10,7 °C 4,8 km/h (1 Bft)
01.07.2017 05:00 10,7 °C 10,8 °C 91 % 1009,8 hPa 0,0 mm 1,3 km/h (1 Bft) S 188 ° 0 min 0,000 mm 0,0 UV-I 0 W/m² 9,3 °C 10,7 °C 3,2 km/h (1 Bft)
01.07.2017 05:01 10,7 °C 10,7 °C 91 % 1009,8 hPa 0,0 mm 1,6 km/h (1 Bft) S 188 ° 0 min 0,000 mm 0,0 UV-I 0 W/m² 9,3 °C 10,7 °C 3,2 km/h (1 Bft)
01.07.2017 05:02 10,7 °C 10,7 °C 91 % 1009,8 hPa 0,0 mm 2,4 km/h (1 Bft) S 185 ° 0 min 0,000 mm 0,0 UV-I 0 W/m² 9,3 °C 10,7 °C 4,8 km/h (1 Bft)
01.07.2017 05:03 10,7 °C 10,7 °C 90 % 1009,8 hPa 0,0 mm 0,5 km/h (0 Bft) S 184 ° 0 min 0,000 mm 0,0 UV-I 0 W/m² 9,1 °C 10,7 °C 1,6 km/h (1 Bft)
01.07.2017 05:04 10,7 °C 10,8 °C 90 % 1009,8 hPa 0,0 mm 1,5 km/h (1 Bft) S 184 ° 0 min 0,000 mm 0,0 UV-I 0 W/m² 9,1 °C 10,7 °C 3,2 km/h (1 Bft)
01.07.2017 05:05 10,8 °C 10,8 °C 90 % 1009,8 hPa 0,0 mm 2,3 km/h (1 Bft) S 184 ° 0 min 0,000 mm 0,0 UV-I 0 W/m² 9,2 °C 10,8 °C 3,2 km/h (1 Bft)
01.07.2017 05:06 10,8 °C 10,8 °C 91 % 1009,8 hPa 0,0 mm 2,7 km/h (1 Bft) S 184 ° 0 min 0,000 mm 0,0 UV-I 0 W/m² 9,4 °C 10,8 °C 4,8 km/h (1 Bft)
01.07.2017 05:07 10,8 °C 10,8 °C 90 % 1009,9 hPa 0,0 mm 2,7 km/h (1 Bft) S 183 ° 0 min 0,000 mm 0,0 UV-I 0 W/m² 9,2 °C 10,8 °C 6,4 km/h (2 Bft)
01.07.2017 05:08 10,8 °C 10,8 °C 90 % 1009,8 hPa 0,0 mm 2,6 km/h (1 Bft) S 182 ° 0 min 0,000 mm 0,0 UV-I 0 W/m² 9,2 °C 10,8 °C 4,8 km/h (1 Bft)
01.07.2017 05:09 10,8 °C 10,8 °C 90 % 1009,8 hPa 0,0 mm 3,4 km/h (1 Bft) S 182 ° 0 min 0,000 mm 0,0 UV-I 0 W/m² 9,2 °C 10,8 °C 4,8 km/h (1 Bft)
01.07.2017 05:10 10,8 °C 10,8 °C 90 % 1009,8 hPa 0,0 mm 2,8 km/h (1 Bft) S 182 ° 0 min 0,000 mm 0,0 UV-I 0 W/m² 9,2 °C 10,8 °C 3,2 km/h (1 Bft)
01.07.2017 05:11 10,8 °C 10,8 °C 91 % 1009,8 hPa 0,0 mm 0,9 km/h (0 Bft) S 182 ° 0 min 0,000 mm 0,0 UV-I 0 W/m² 9,4 °C 10,8 °C 1,6 km/h (1 Bft)
01.07.2017 05:12 10,8 °C 10,8 °C 91 % 1009,8 hPa 0,0 mm 2,1 km/h (1 Bft) S 182 ° 0 min 0,000 mm 0,0 UV-I 0 W/m² 9,4 °C 10,8 °C 3,2 km/h (1 Bft)
01.07.2017 05:13 10,8 °C 10,8 °C 91 % 1009,8 hPa 0,0 mm 1,6 km/h (1 Bft) S 182 ° 0 min 0,000 mm 0,0 UV-I 0 W/m² 9,4 °C 10,8 °C 3,2 km/h (1 Bft)
01.07.2017 05:14 10,8 °C 10,8 °C 91 % 1009,8 hPa 0,0 mm 1,6 km/h (1 Bft) S 182 ° 0 min 0,000 mm 0,0 UV-I 0 W/m² 9,4 °C 10,8 °C 4,8 km/h (1 Bft)
01.07.2017 05:15 10,7 °C 10,8 °C 91 % 1009,8 hPa 0,0 mm 2,3 km/h (1 Bft) S 182 ° 0 min 0,000 mm 0,0 UV-I 0 W/m² 9,3 °C 10,7 °C 3,2 km/h (1 Bft)
01.07.2017 05:16 10,7 °C 10,7 °C 91 % 1009,9 hPa 0,0 mm 2,5 km/h (1 Bft) S 182 ° 0 min 0,000 mm 0,0 UV-I 0 W/m² 9,3 °C 10,7 °C 4,8 km/h (1 Bft)
01.07.2017 05:17 10,7 °C 10,7 °C 91 % 1009,8 hPa 0,0 mm 3,9 km/h (1 Bft) S 182 ° 0 min 0,000 mm 0,0 UV-I 0 W/m² 9,3 °C 10,7 °C 4,8 km/h (1 Bft)
01.07.2017 05:18 10,7 °C 10,7 °C 91 % 1009,8 hPa 0,0 mm 2,2 km/h (1 Bft) S 182 ° 0 min 0,000 mm 0,0 UV-I 0 W/m² 9,3 °C 10,7 °C 3,2 km/h (1 Bft)
01.07.2017 05:19 10,7 °C 10,7 °C 91 % 1009,8 hPa 0,0 mm 2,2 km/h (1 Bft) S 182 ° 0 min 0,000 mm 0,0 UV-I 0 W/m² 9,3 °C 10,7 °C 3,2 km/h (1 Bft)
01.07.2017 05:20 10,7 °C 10,7 °C 91 % 1009,8 hPa 0,0 mm 2,3 km/h (1 Bft) S 182 ° 0 min 0,000 mm 0,0 UV-I 0 W/m² 9,3 °C 10,7 °C 3,2 km/h (1 Bft)
01.07.2017 05:21 10,6 °C 10,7 °C 91 % 1009,8 hPa 0,0 mm 2,4 km/h (1 Bft) S-SW 211 ° 0 min 0,000 mm 0,0 UV-I 0 W/m² 9,2 °C 10,6 °C 3,2 km/h (1 Bft)
01.07.2017 05:22 10,6 °C 10,7 °C 91 % 1009,9 hPa 0,0 mm 0,9 km/h (0 Bft) S-SW 211 ° 0 min 0,000 mm 0,0 UV-I 0 W/m² 9,2 °C 10,6 °C 3,2 km/h (1 Bft)
01.07.2017 05:23 10,6 °C 10,6 °C 91 % 1009,9 hPa 0,0 mm 0,2 km/h (0 Bft) S-SW 211 ° 0 min 0,000 mm 0,0 UV-I 0 W/m² 9,2 °C 10,6 °C 1,6 km/h (1 Bft)
01.07.2017 05:24 10,6 °C 10,6 °C 91 % 1009,9 hPa 0,0 mm 0,9 km/h (0 Bft) S-SW 211 ° 0 min 0,000 mm 0,0 UV-I 0 W/m² 9,2 °C 10,6 °C 3,2 km/h (1 Bft)
01.07.2017 05:25 10,6 °C 10,6 °C 91 % 1009,9 hPa 0,0 mm 2,3 km/h (1 Bft) S-SO 165 ° 0 min 0,000 mm 0,0 UV-I 0 W/m² 9,2 °C 10,6 °C 6,4 km/h (2 Bft)
01.07.2017 05:26 10,6 °C 10,6 °C 90 % 1009,9 hPa 0,0 mm 0,7 km/h (0 Bft) S-SO 166 ° 0 min 0,000 mm 0,0 UV-I 0 W/m² 9,0 °C 10,6 °C 4,8 km/h (1 Bft)
01.07.2017 05:27 10,6 °C 10,6 °C 90 % 1009,9 hPa 0,0 mm 0,0 km/h (0 Bft) S-SO 166 ° 0 min 0,000 mm 0,0 UV-I 0 W/m² 9,0 °C 10,6 °C 0,0 km/h (0 Bft)
01.07.2017 05:28 10,7 °C 10,7 °C 90 % 1009,9 hPa 0,0 mm 0,0 km/h (0 Bft) S-SO 166 ° 0 min 0,000 mm 0,0 UV-I 0 W/m² 9,1 °C 10,7 °C 0,0 km/h (0 Bft)
01.07.2017 05:29 10,7 °C 10,7 °C 89 % 1010,0 hPa 0,0 mm 0,0 km/h (0 Bft) S-SO 166 ° 0 min 0,000 mm 0,0 UV-I 0 W/m² 9,0 °C 10,7 °C 0,0 km/h (0 Bft)
01.07.2017 05:30 10,6 °C 10,7 °C 89 % 1010,0 hPa 0,0 mm 0,0 km/h (0 Bft) S-SO 166 ° 0 min 0,000 mm 0,0 UV-I 0 W/m² 8,9 °C 10,6 °C 0,0 km/h (0 Bft)
01.07.2017 05:31 10,7 °C 10,7 °C 89 % 1010,0 hPa 0,0 mm 0,0 km/h (0 Bft) S-SO 166 ° 0 min 0,000 mm 0,0 UV-I 0 W/m² 9,0 °C 10,7 °C 0,0 km/h (0 Bft)
01.07.2017 05:32 10,6 °C 10,7 °C 90 % 1010,0 hPa 0,0 mm 0,0 km/h (0 Bft) S-SO 166 ° 0 min 0,000 mm 0,0 UV-I 0 W/m² 9,0 °C 10,6 °C 0,0 km/h (0 Bft)
01.07.2017 05:33 10,6 °C 10,6 °C 90 % 1009,9 hPa 0,0 mm 0,0 km/h (0 Bft) S-SO 166 ° 0 min 0,000 mm 0,0 UV-I 0 W/m² 9,0 °C 10,6 °C 0,0 km/h (0 Bft)
01.07.2017 05:34 10,6 °C 10,6 °C 90 % 1009,9 hPa 0,0 mm 2,4 km/h (1 Bft) S-SO 166 ° 0 min 0,000 mm 0,0 UV-I 0 W/m² 9,0 °C 10,6 °C 4,8 km/h (1 Bft)
01.07.2017 05:35 10,6 °C 10,6 °C 90 % 1009,9 hPa 0,0 mm 1,5 km/h (1 Bft) S-SO 166 ° 0 min 0,000 mm 0,0 UV-I 0 W/m² 9,0 °C 10,6 °C 4,8 km/h (1 Bft)
01.07.2017 05:36 10,6 °C 10,6 °C 90 % 1009,9 hPa 0,0 mm 4,3 km/h (1 Bft) S 189 ° 0 min 0,000 mm 0,0 UV-I 0 W/m² 9,0 °C 10,6 °C 6,4 km/h (2 Bft)
01.07.2017 05:37 10,6 °C 10,6 °C 90 % 1009,9 hPa 0,0 mm 1,5 km/h (1 Bft) S 189 ° 0 min 0,000 mm 0,0 UV-I 5 W/m² 9,0 °C 10,6 °C 3,2 km/h (1 Bft)
01.07.2017 05:38 10,6 °C 10,6 °C 90 % 1009,9 hPa 0,0 mm 1,2 km/h (1 Bft) S 189 ° 0 min 0,000 mm 0,0 UV-I 5 W/m² 9,0 °C 10,6 °C 3,2 km/h (1 Bft)
01.07.2017 05:39 10,6 °C 10,6 °C 89 % 1009,9 hPa 0,0 mm 3,8 km/h (1 Bft) S 184 ° 0 min 0,000 mm 0,0 UV-I 5 W/m² 8,9 °C 10,6 °C 4,8 km/h (1 Bft)
01.07.2017 05:40 10,6 °C 10,6 °C 89 % 1009,9 hPa 0,0 mm 2,6 km/h (1 Bft) S 184 ° 0 min 0,000 mm 0,0 UV-I 5 W/m² 8,9 °C 10,6 °C 4,8 km/h (1 Bft)
01.07.2017 05:41 10,6 °C 10,6 °C 89 % 1009,9 hPa 0,0 mm 0,9 km/h (0 Bft) S 184 ° 0 min 0,000 mm 0,0 UV-I 5 W/m² 8,9 °C 10,6 °C 3,2 km/h (1 Bft)
01.07.2017 05:42 10,6 °C 10,6 °C 89 % 1009,9 hPa 0,0 mm 0,9 km/h (0 Bft) S 184 ° 0 min 0,000 mm 0,0 UV-I 5 W/m² 8,9 °C 10,6 °C 4,8 km/h (1 Bft)
01.07.2017 05:43 10,7 °C 10,7 °C 88 % 1009,9 hPa 0,0 mm 6,4 km/h (2 Bft) S 183 ° 0 min 0,000 mm 0,0 UV-I 5 W/m² 8,8 °C 10,7 °C 9,7 km/h (2 Bft)
01.07.2017 05:44 10,7 °C 10,7 °C 88 % 1010,0 hPa 0,0 mm 4,4 km/h (1 Bft) S-SW 199 ° 0 min 0,000 mm 0,0 UV-I 5 W/m² 8,8 °C 10,7 °C 6,4 km/h (2 Bft)
01.07.2017 05:45 10,7 °C 10,7 °C 88 % 1009,9 hPa 0,0 mm 1,8 km/h (1 Bft) S 182 ° 0 min 0,000 mm 0,0 UV-I 5 W/m² 8,8 °C 10,7 °C 4,8 km/h (1 Bft)
01.07.2017 05:46 10,7 °C 10,7 °C 88 % 1009,9 hPa 0,0 mm 1,5 km/h (1 Bft) S 189 ° 0 min 0,000 mm 0,0 UV-I 7 W/m² 8,8 °C 10,7 °C 3,2 km/h (1 Bft)
01.07.2017 05:47 10,8 °C 10,8 °C 88 % 1009,9 hPa 0,0 mm 3,6 km/h (1 Bft) SW 216 ° 0 min 0,000 mm 0,0 UV-I 7 W/m² 8,9 °C 10,8 °C 6,4 km/h (2 Bft)
01.07.2017 05:48 10,7 °C 10,8 °C 88 % 1010,0 hPa 0,0 mm 2,3 km/h (1 Bft) S-SW 213 ° 0 min 0,000 mm 0,0 UV-I 7 W/m² 8,8 °C 10,7 °C 4,8 km/h (1 Bft)
01.07.2017 05:49 10,7 °C 10,7 °C 89 % 1010,0 hPa 0,0 mm 0,2 km/h (0 Bft) S-SW 213 ° 0 min 0,000 mm 0,0 UV-I 7 W/m² 9,0 °C 10,7 °C 1,6 km/h (1 Bft)
01.07.2017 05:50 10,6 °C 10,7 °C 89 % 1010,1 hPa 0,0 mm 3,3 km/h (1 Bft) S-SW 204 ° 0 min 0,000 mm 0,0 UV-I 7 W/m² 8,9 °C 10,6 °C 6,4 km/h (2 Bft)
01.07.2017 05:51 10,6 °C 10,6 °C 89 % 1010,1 hPa 0,0 mm 2,8 km/h (1 Bft) S-SO 167 ° 0 min 0,000 mm 0,0 UV-I 7 W/m² 8,9 °C 10,6 °C 6,4 km/h (2 Bft)
01.07.2017 05:52 10,5 °C 10,6 °C 89 % 1010,1 hPa 0,0 mm 1,1 km/h (1 Bft) S 170 ° 0 min 0,000 mm 0,0 UV-I 9 W/m² 8,8 °C 10,5 °C 3,2 km/h (1 Bft)
01.07.2017 05:53 10,4 °C 10,5 °C 89 % 1010,1 hPa 0,0 mm 0,9 km/h (0 Bft) S 170 ° 0 min 0,000 mm 0,0 UV-I 11 W/m² 8,7 °C 10,4 °C 1,6 km/h (1 Bft)
01.07.2017 05:54 10,4 °C 10,4 °C 90 % 1010,1 hPa 0,0 mm 1,2 km/h (1 Bft) S 170 ° 0 min 0,000 mm 0,0 UV-I 11 W/m² 8,8 °C 10,4 °C 3,2 km/h (1 Bft)
01.07.2017 05:55 10,4 °C 10,4 °C 90 % 1010,1 hPa 0,0 mm 3,1 km/h (1 Bft) S 190 ° 0 min 0,000 mm 0,0 UV-I 11 W/m² 8,8 °C 10,4 °C 4,8 km/h (1 Bft)
01.07.2017 05:56 10,4 °C 10,4 °C 90 % 1010,1 hPa 0,0 mm 3,5 km/h (1 Bft) S 185 ° 0 min 0,000 mm 0,0 UV-I 12 W/m² 8,8 °C 10,4 °C 4,8 km/h (1 Bft)
01.07.2017 05:57 10,4 °C 10,4 °C 89 % 1010,0 hPa 0,0 mm 4,0 km/h (1 Bft) S-SW 196 ° 0 min 0,000 mm 0,0 UV-I 12 W/m² 8,7 °C 10,4 °C 6,4 km/h (2 Bft)
01.07.2017 05:58 10,4 °C 10,4 °C 90 % 1010,1 hPa 0,0 mm 3,5 km/h (1 Bft) S 186 ° 0 min 0,000 mm 0,0 UV-I 12 W/m² 8,8 °C 10,4 °C 6,4 km/h (2 Bft)
01.07.2017 05:59 10,5 °C 10,5 °C 89 % 1010,1 hPa 0,0 mm 4,6 km/h (1 Bft) S-SW 194 ° 0 min 0,000 mm 0,0 UV-I 12 W/m² 8,8 °C 10,5 °C 6,4 km/h (2 Bft)
01.07.2017 06:00 10,6 °C 10,6 °C 89 % 1010,1 hPa 0,0 mm 3,5 km/h (1 Bft) S-SW 192 ° 0 min 0,000 mm 0,0 UV-I 11 W/m² 8,9 °C 10,6 °C 4,8 km/h (1 Bft)
01.07.2017 06:01 10,6 °C 10,6 °C 89 % 1010,1 hPa 0,0 mm 4,7 km/h (1 Bft) S 187 ° 0 min 0,000 mm 0,0 UV-I 11 W/m² 8,9 °C 10,6 °C 8,0 km/h (2 Bft)
01.07.2017 06:02 10,6 °C 10,6 °C 89 % 1010,1 hPa 0,0 mm 6,1 km/h (2 Bft) S-SW 198 ° 0 min 0,000 mm 0,0 UV-I 12 W/m² 8,9 °C 10,6 °C 8,0 km/h (2 Bft)
01.07.2017 06:03 10,7 °C 10,7 °C 89 % 1010,1 hPa 0,0 mm 3,4 km/h (1 Bft) S 183 ° 0 min 0,000 mm 0,0 UV-I 12 W/m² 9,0 °C 10,7 °C 4,8 km/h (1 Bft)
01.07.2017 06:04 10,7 °C 10,7 °C 88 % 1010,1 hPa 0,0 mm 6,6 km/h (2 Bft) S 191 ° 0 min 0,000 mm 0,0 UV-I 12 W/m² 8,8 °C 10,7 °C 8,0 km/h (2 Bft)
01.07.2017 06:05 10,8 °C 10,8 °C 88 % 1010,1 hPa 0,0 mm 4,6 km/h (1 Bft) S-SW 204 ° 0 min 0,000 mm 0,0 UV-I 12 W/m² 8,9 °C 10,8 °C 8,0 km/h (2 Bft)
01.07.2017 06:06 10,8 °C 10,8 °C 88 % 1010,1 hPa 0,0 mm 1,7 km/h (1 Bft) S-SW 204 ° 0 min 0,000 mm 0,0 UV-I 12 W/m² 8,9 °C 10,8 °C 4,8 km/h (1 Bft)
01.07.2017 06:07 10,8 °C 10,8 °C 89 % 1010,1 hPa 0,0 mm 2,9 km/h (1 Bft) SW 218 ° 0 min 0,000 mm 0,0 UV-I 12 W/m² 9,1 °C 10,8 °C 4,8 km/h (1 Bft)
01.07.2017 06:08 10,7 °C 10,8 °C 89 % 1010,1 hPa 0,0 mm 4,9 km/h (1 Bft) SW 217 ° 0 min 0,000 mm 0,0 UV-I 12 W/m² 9,0 °C 10,7 °C 9,7 km/h (2 Bft)
01.07.2017 06:09 10,7 °C 10,8 °C 89 % 1010,1 hPa 0,0 mm 1,3 km/h (1 Bft) SW 215 ° 0 min 0,000 mm 0,0 UV-I 12 W/m² 9,0 °C 10,7 °C 3,2 km/h (1 Bft)
01.07.2017 06:10 10,7 °C 10,7 °C 89 % 1010,1 hPa 0,0 mm 5,2 km/h (1 Bft) S-SW 196 ° 0 min 0,000 mm 0,0 UV-I 14 W/m² 9,0 °C 10,7 °C 8,0 km/h (2 Bft)
01.07.2017 06:11 10,7 °C 10,7 °C 89 % 1010,1 hPa 0,0 mm 2,1 km/h (1 Bft) S-SW 192 ° 0 min 0,000 mm 0,0 UV-I 12 W/m² 9,0 °C 10,7 °C 4,8 km/h (1 Bft)
01.07.2017 06:12 10,7 °C 10,7 °C 89 % 1010,1 hPa 0,0 mm 0,7 km/h (0 Bft) S-SW 192 ° 0 min 0,000 mm 0,0 UV-I 12 W/m² 9,0 °C 10,7 °C 1,6 km/h (1 Bft)
01.07.2017 06:13 10,6 °C 10,7 °C 90 % 1010,1 hPa 0,0 mm 1,7 km/h (1 Bft) S-SW 192 ° 0 min 0,000 mm 0,0 UV-I 12 W/m² 9,0 °C 10,6 °C 3,2 km/h (1 Bft)
01.07.2017 06:14 10,5 °C 10,6 °C 90 % 1010,1 hPa 0,0 mm 1,4 km/h (1 Bft) S-SW 192 ° 0 min 0,000 mm 0,0 UV-I 12 W/m² 8,9 °C 10,5 °C 3,2 km/h (1 Bft)
01.07.2017 06:15 10,4 °C 10,5 °C 90 % 1010,1 hPa 0,0 mm 1,8 km/h (1 Bft) S-SW 192 ° 0 min 0,000 mm 0,0 UV-I 12 W/m² 8,8 °C 10,4 °C 3,2 km/h (1 Bft)
01.07.2017 06:16 10,4 °C 10,4 °C 90 % 1010,1 hPa 0,0 mm 2,5 km/h (1 Bft) S-SW 192 ° 0 min 0,000 mm 0,0 UV-I 12 W/m² 8,8 °C 10,4 °C 3,2 km/h (1 Bft)
01.07.2017 06:17 10,4 °C 10,4 °C 90 % 1010,1 hPa 0,0 mm 2,3 km/h (1 Bft) S-SW 192 ° 0 min 0,000 mm 0,0 UV-I 12 W/m² 8,8 °C 10,4 °C 3,2 km/h (1 Bft)
01.07.2017 06:18 10,4 °C 10,4 °C 90 % 1010,2 hPa 0,0 mm 2,3 km/h (1 Bft) S 175 ° 0 min 0,000 mm 0,0 UV-I 12 W/m² 8,8 °C 10,4 °C 4,8 km/h (1 Bft)
01.07.2017 06:19 10,4 °C 10,4 °C 90 % 1010,2 hPa 0,0 mm 0,0 km/h (0 Bft) S 175 ° 0 min 0,000 mm 0,0 UV-I 12 W/m² 8,8 °C 10,4 °C 0,0 km/h (0 Bft)
01.07.2017 06:20 10,4 °C 10,4 °C 91 % 1010,2 hPa 0,0 mm 0,0 km/h (0 Bft) S 175 ° 0 min 0,000 mm 0,0 UV-I 12 W/m² 9,0 °C 10,4 °C 0,0 km/h (0 Bft)
01.07.2017 06:21 10,3 °C 10,4 °C 90 % 1010,2 hPa 0,0 mm 0,0 km/h (0 Bft) S 175 ° 0 min 0,000 mm 0,0 UV-I 12 W/m² 8,7 °C 10,3 °C 0,0 km/h (0 Bft)
01.07.2017 06:22 10,3 °C 10,3 °C 91 % 1010,2 hPa 0,0 mm 0,2 km/h (0 Bft) S 175 ° 0 min 0,000 mm 0,0 UV-I 14 W/m² 8,9 °C 10,3 °C 1,6 km/h (1 Bft)
01.07.2017 06:23 10,3 °C 10,3 °C 91 % 1010,2 hPa 0,0 mm 1,3 km/h (1 Bft) S 175 ° 0 min 0,000 mm 0,0 UV-I 14 W/m² 8,9 °C 10,3 °C 1,6 km/h (1 Bft)
01.07.2017 06:24 10,3 °C 10,3 °C 91 % 1010,2 hPa 0,0 mm 0,3 km/h (0 Bft) S 175 ° 0 min 0,000 mm 0,0 UV-I 18 W/m² 8,9 °C 10,3 °C 1,6 km/h (1 Bft)
01.07.2017 06:25 10,3 °C 10,3 °C 91 % 1010,2 hPa 0,0 mm 1,1 km/h (1 Bft) S 175 ° 0 min 0,000 mm 0,0 UV-I 19 W/m² 8,9 °C 10,3 °C 1,6 km/h (1 Bft)
01.07.2017 06:26 10,3 °C 10,3 °C 91 % 1010,2 hPa 0,0 mm 0,9 km/h (0 Bft) S 175 ° 0 min 0,000 mm 0,0 UV-I 19 W/m² 8,9 °C 10,3 °C 1,6 km/h (1 Bft)
01.07.2017 06:27 10,3 °C 10,3 °C 91 % 1010,2 hPa 0,0 mm 0,6 km/h (0 Bft) S 175 ° 0 min 0,000 mm 0,0 UV-I 21 W/m² 8,9 °C 10,3 °C 1,6 km/h (1 Bft)
01.07.2017 06:28 10,3 °C 10,3 °C 91 % 1010,2 hPa 0,0 mm 0,0 km/h (0 Bft) S 175 ° 0 min 0,000 mm 0,0 UV-I 23 W/m² 8,9 °C 10,3 °C 0,0 km/h (0 Bft)
01.07.2017 06:29 10,3 °C 10,3 °C 91 % 1010,2 hPa 0,0 mm 1,4 km/h (1 Bft) S 175 ° 0 min 0,000 mm 0,0 UV-I 25 W/m² 8,9 °C 10,3 °C 3,2 km/h (1 Bft)
01.07.2017 06:30 10,3 °C 10,3 °C 91 % 1010,3 hPa 0,0 mm 1,1 km/h (1 Bft) S 175 ° 0 min 0,000 mm 0,0 UV-I 28 W/m² 8,9 °C 10,3 °C 1,6 km/h (1 Bft)
01.07.2017 06:31 10,3 °C 10,3 °C 91 % 1010,3 hPa 0,0 mm 0,1 km/h (0 Bft) S 175 ° 0 min 0,000 mm 0,0 UV-I 28 W/m² 8,9 °C 10,3 °C 1,6 km/h (1 Bft)
01.07.2017 06:32 10,4 °C 10,4 °C 91 % 1010,2 hPa 0,0 mm 2,6 km/h (1 Bft) S 175 ° 0 min 0,000 mm 0,0 UV-I 26 W/m² 9,0 °C 10,4 °C 4,8 km/h (1 Bft)
01.07.2017 06:33 10,4 °C 10,4 °C 91 % 1010,2 hPa 0,0 mm 1,9 km/h (1 Bft) S 175 ° 0 min 0,000 mm 0,0 UV-I 32 W/m² 9,0 °C 10,4 °C 3,2 km/h (1 Bft)
01.07.2017 06:34 10,4 °C 10,4 °C 91 % 1010,3 hPa 0,0 mm 2,5 km/h (1 Bft) S 175 ° 0 min 0,000 mm 0,0 UV-I 37 W/m² 9,0 °C 10,4 °C 3,2 km/h (1 Bft)
01.07.2017 06:35 10,6 °C 10,6 °C 90 % 1010,2 hPa 0,0 mm 1,6 km/h (1 Bft) S 175 ° 0 min 0,000 mm 0,0 UV-I 42 W/m² 9,0 °C 10,6 °C 3,2 km/h (1 Bft)
01.07.2017 06:36 10,6 °C 10,6 °C 90 % 1010,2 hPa 0,0 mm 1,2 km/h (1 Bft) S 175 ° 0 min 0,000 mm 0,0 UV-I 49 W/m² 9,0 °C 10,6 °C 3,2 km/h (1 Bft)
01.07.2017 06:37 10,6 °C 10,6 °C 91 % 1010,2 hPa 0,0 mm 0,0 km/h (0 Bft) S 175 ° 0 min 0,000 mm 0,0 UV-I 53 W/m² 9,2 °C 10,6 °C 0,0 km/h (0 Bft)
01.07.2017 06:38 10,6 °C 10,6 °C 90 % 1010,2 hPa 0,0 mm 0,0 km/h (0 Bft) S 175 ° 0 min 0,000 mm 0,0 UV-I 54 W/m² 9,0 °C 10,6 °C 0,0 km/h (0 Bft)
01.07.2017 06:39 10,7 °C 10,7 °C 90 % 1010,2 hPa 0,0 mm 0,0 km/h (0 Bft) S 175 ° 0 min 0,000 mm 0,0 UV-I 60 W/m² 9,1 °C 10,7 °C 0,0 km/h (0 Bft)
01.07.2017 06:40 10,8 °C 10,8 °C 90 % 1010,3 hPa 0,0 mm 0,6 km/h (0 Bft) S 175 ° 0 min 0,000 mm 0,0 UV-I 63 W/m² 9,2 °C 10,8 °C 3,2 km/h (1 Bft)
01.07.2017 06:41 10,8 °C 10,8 °C 90 % 1010,3 hPa 0,0 mm 1,0 km/h (0 Bft) S 175 ° 0 min 0,000 mm 0,0 UV-I 69 W/m² 9,2 °C 10,8 °C 3,2 km/h (1 Bft)
01.07.2017 06:42 10,8 °C 10,8 °C 90 % 1010,3 hPa 0,0 mm 1,4 km/h (1 Bft) S 175 ° 0 min 0,000 mm 0,0 UV-I 69 W/m² 9,2 °C 10,8 °C 3,2 km/h (1 Bft)
01.07.2017 06:43 10,9 °C 10,9 °C 90 % 1010,3 hPa 0,0 mm 0,7 km/h (0 Bft) S 175 ° 0 min 0,000 mm 0,0 UV-I 70 W/m² 9,3 °C 10,9 °C 1,6 km/h (1 Bft)
01.07.2017 06:44 11,0 °C 11,0 °C 90 % 1010,3 hPa 0,0 mm 0,3 km/h (0 Bft) S 175 ° 0 min 0,000 mm 0,0 UV-I 70 W/m² 9,4 °C 11,0 °C 1,6 km/h (1 Bft)
01.07.2017 06:45 11,1 °C 11,1 °C 90 % 1010,3 hPa 0,0 mm 2,5 km/h (1 Bft) S 175 ° 0 min 0,000 mm 0,0 UV-I 69 W/m² 9,5 °C 11,1 °C 3,2 km/h (1 Bft)
01.07.2017 06:46 11,2 °C 11,2 °C 89 % 1010,4 hPa 0,0 mm 0,6 km/h (0 Bft) S 175 ° 0 min 0,000 mm 0,0 UV-I 67 W/m² 9,5 °C 11,2 °C 3,2 km/h (1 Bft)
01.07.2017 06:47 11,2 °C 11,2 °C 88 % 1010,3 hPa 0,0 mm 1,5 km/h (1 Bft) S 175 ° 0 min 0,000 mm 0,0 UV-I 63 W/m² 9,3 °C 11,2 °C 3,2 km/h (1 Bft)
01.07.2017 06:48 11,3 °C 11,3 °C 87 % 1010,3 hPa 0,0 mm 1,3 km/h (1 Bft) S-SW 195 ° 0 min 0,000 mm 0,0 UV-I 63 W/m² 9,2 °C 11,3 °C 3,2 km/h (1 Bft)
01.07.2017 06:49 11,3 °C 11,3 °C 88 % 1010,3 hPa 0,0 mm 0,3 km/h (0 Bft) S-SW 194 ° 0 min 0,000 mm 0,0 UV-I 65 W/m² 9,4 °C 11,3 °C 1,6 km/h (1 Bft)
01.07.2017 06:50 11,4 °C 11,4 °C 87 % 1010,4 hPa 0,0 mm 0,0 km/h (0 Bft) S-SW 195 ° 0 min 0,000 mm 0,0 UV-I 67 W/m² 9,3 °C 11,4 °C 0,0 km/h (0 Bft)
01.07.2017 06:51 11,4 °C 11,4 °C 88 % 1010,4 hPa 0,0 mm 0,1 km/h (0 Bft) S-SW 195 ° 0 min 0,000 mm 0,0 UV-I 65 W/m² 9,5 °C 11,4 °C 1,6 km/h (1 Bft)
01.07.2017 06:52 11,4 °C 11,4 °C 88 % 1010,4 hPa 0,0 mm 0,0 km/h (0 Bft) S-SW 195 ° 0 min 0,000 mm 0,5 UV-I 58 W/m² 9,5 °C 11,4 °C 0,0 km/h (0 Bft)
01.07.2017 06:53 11,5 °C 11,5 °C 88 % 1010,4 hPa 0,0 mm 0,0 km/h (0 Bft) S-SW 195 ° 0 min 0,000 mm 0,0 UV-I 53 W/m² 9,6 °C 11,5 °C 0,0 km/h (0 Bft)
01.07.2017 06:54 11,6 °C 11,6 °C 89 % 1010,4 hPa 0,0 mm 0,0 km/h (0 Bft) S-SW 195 ° 0 min 0,000 mm 0,0 UV-I 49 W/m² 9,8 °C 11,6 °C 0,0 km/h (0 Bft)
01.07.2017 06:55 11,6 °C 11,6 °C 88 % 1010,4 hPa 0,0 mm 0,0 km/h (0 Bft) S-SW 195 ° 0 min 0,000 mm 0,0 UV-I 46 W/m² 9,7 °C 11,6 °C 0,0 km/h (0 Bft)
01.07.2017 06:56 11,6 °C 11,6 °C 87 % 1010,4 hPa 0,0 mm 0,9 km/h (0 Bft) S-SW 201 ° 0 min 0,000 mm 0,0 UV-I 46 W/m² 9,5 °C 11,6 °C 3,2 km/h (1 Bft)
01.07.2017 06:57 11,6 °C 11,6 °C 86 % 1010,5 hPa 0,0 mm 1,5 km/h (1 Bft) S-SW 201 ° 0 min 0,000 mm 0,0 UV-I 49 W/m² 9,3 °C 11,6 °C 3,2 km/h (1 Bft)
01.07.2017 06:58 11,7 °C 11,7 °C 86 % 1010,5 hPa 0,0 mm 0,0 km/h (0 Bft) S-SW 201 ° 0 min 0,000 mm 0,5 UV-I 70 W/m² 9,4 °C 11,7 °C 0,0 km/h (0 Bft)
01.07.2017 06:59 11,7 °C 11,7 °C 86 % 1010,5 hPa 0,0 mm 0,0 km/h (0 Bft) S-SW 201 ° 0 min 0,000 mm 0,5 UV-I 93 W/m² 9,4 °C 11,7 °C 0,0 km/h (0 Bft)
01.07.2017 07:00 11,7 °C 11,8 °C 86 % 1010,5 hPa 0,0 mm 0,9 km/h (0 Bft) S-SW 201 ° 0 min 0,000 mm 0,6 UV-I 151 W/m² 9,4 °C 11,7 °C 3,2 km/h (1 Bft)
01.07.2017 07:01 11,8 °C 11,8 °C 85 % 1010,5 hPa 0,0 mm 0,3 km/h (0 Bft) S-SW 201 ° 0 min 0,026 mm 0,5 UV-I 155 W/m² 9,4 °C 11,8 °C 1,6 km/h (1 Bft)
01.07.2017 07:02 11,9 °C 11,9 °C 85 % 1010,5 hPa 0,0 mm 2,3 km/h (1 Bft) S-SW 200 ° 0 min 0,000 mm 0,5 UV-I 105 W/m² 9,5 °C 11,9 °C 3,2 km/h (1 Bft)
01.07.2017 07:03 12,0 °C 12,0 °C 85 % 1010,5 hPa 0,0 mm 0,8 km/h (0 Bft) S-SW 200 ° 0 min 0,000 mm 0,5 UV-I 58 W/m² 9,6 °C 12,0 °C 3,2 km/h (1 Bft)
01.07.2017 07:04 12,1 °C 12,1 °C 85 % 1010,5 hPa 0,0 mm 1,3 km/h (1 Bft) S-SW 200 ° 0 min 0,000 mm 0,5 UV-I 58 W/m² 9,7 °C 12,1 °C 3,2 km/h (1 Bft)
01.07.2017 07:05 12,1 °C 12,1 °C 86 % 1010,5 hPa 0,0 mm 1,3 km/h (1 Bft) S-SW 200 ° 0 min 0,000 mm 0,6 UV-I 69 W/m² 9,8 °C 12,1 °C 3,2 km/h (1 Bft)
01.07.2017 07:06 12,1 °C 12,1 °C 84 % 1010,5 hPa 0,0 mm 1,1 km/h (1 Bft) S-SW 200 ° 0 min 0,000 mm 0,6 UV-I 81 W/m² 9,5 °C 12,1 °C 3,2 km/h (1 Bft)
01.07.2017 07:07 12,1 °C 12,1 °C 84 % 1010,5 hPa 0,0 mm 1,5 km/h (1 Bft) S-SW 200 ° 0 min 0,000 mm 0,6 UV-I 91 W/m² 9,5 °C 12,1 °C 3,2 km/h (1 Bft)
01.07.2017 07:08 12,1 °C 12,1 °C 84 % 1010,5 hPa 0,0 mm 1,5 km/h (1 Bft) S-SW 200 ° 0 min 0,000 mm 0,6 UV-I 100 W/m² 9,5 °C 12,1 °C 3,2 km/h (1 Bft)
01.07.2017 07:09 12,1 °C 12,1 °C 83 % 1010,5 hPa 0,0 mm 0,8 km/h (0 Bft) S-SW 200 ° 0 min 0,000 mm 0,7 UV-I 135 W/m² 9,3 °C 12,1 °C 3,2 km/h (1 Bft)
01.07.2017 07:10 12,2 °C 12,2 °C 85 % 1010,5 hPa 0,0 mm 0,1 km/h (0 Bft) S-SW 200 ° 0 min 0,000 mm 0,8 UV-I 206 W/m² 9,8 °C 12,2 °C 1,6 km/h (1 Bft)
01.07.2017 07:11 12,3 °C 12,3 °C 86 % 1010,6 hPa 0,0 mm 0,7 km/h (0 Bft) S-SW 201 ° 0 min 0,000 mm 0,7 UV-I 125 W/m² 10,0 °C 12,3 °C 3,2 km/h (1 Bft)
01.07.2017 07:12 12,4 °C 12,4 °C 84 % 1010,5 hPa 0,0 mm 3,2 km/h (1 Bft) W-SW 254 ° 0 min 0,000 mm 0,7 UV-I 160 W/m² 9,8 °C 12,4 °C 4,8 km/h (1 Bft)
01.07.2017 07:13 12,5 °C 12,5 °C 83 % 1010,6 hPa 0,0 mm 4,1 km/h (1 Bft) W-SW 246 ° 0 min 0,000 mm 0,6 UV-I 120 W/m² 9,7 °C 12,5 °C 6,4 km/h (2 Bft)
01.07.2017 07:14 12,6 °C 12,6 °C 83 % 1010,5 hPa 0,0 mm 5,1 km/h (1 Bft) NW 325 ° 0 min 0,000 mm 0,6 UV-I 114 W/m² 9,8 °C 12,6 °C 8,0 km/h (2 Bft)
01.07.2017 07:15 12,6 °C 12,6 °C 82 % 1010,6 hPa 0,0 mm 3,4 km/h (1 Bft) W-NW 292 ° 0 min 0,000 mm 0,6 UV-I 156 W/m² 9,6 °C 12,6 °C 4,8 km/h (1 Bft)
01.07.2017 07:16 12,7 °C 12,7 °C 84 % 1010,6 hPa 0,0 mm 2,0 km/h (1 Bft) W 278 ° 0 min 0,000 mm 0,6 UV-I 111 W/m² 10,1 °C 12,7 °C 4,8 km/h (1 Bft)
01.07.2017 07:17 12,7 °C 12,8 °C 84 % 1010,6 hPa 0,0 mm 3,1 km/h (1 Bft) W 278 ° 0 min 0,000 mm 0,6 UV-I 97 W/m² 10,1 °C 12,7 °C 4,8 km/h (1 Bft)
01.07.2017 07:18 12,8 °C 12,8 °C 84 % 1010,6 hPa 0,0 mm 7,2 km/h (2 Bft) W 260 ° 0 min 0,000 mm 0,6 UV-I 95 W/m² 10,2 °C 12,8 °C 11,3 km/h (2 Bft)
01.07.2017 07:19 12,8 °C 12,8 °C 84 % 1010,6 hPa 0,0 mm 4,6 km/h (1 Bft) W 277 ° 0 min 0,000 mm 0,6 UV-I 93 W/m² 10,2 °C 12,8 °C 6,4 km/h (2 Bft)
01.07.2017 07:20 12,8 °C 12,8 °C 84 % 1010,6 hPa 0,0 mm 6,0 km/h (2 Bft) W 279 ° 0 min 0,000 mm 0,6 UV-I 90 W/m² 10,2 °C 12,8 °C 11,3 km/h (2 Bft)
01.07.2017 07:21 12,7 °C 12,8 °C 84 % 1010,6 hPa 0,0 mm 5,6 km/h (1 Bft) W 267 ° 0 min 0,000 mm 0,6 UV-I 88 W/m² 10,1 °C 12,7 °C 9,7 km/h (2 Bft)
01.07.2017 07:22 12,8 °C 12,8 °C 84 % 1010,6 hPa 0,0 mm 3,8 km/h (1 Bft) W-SW 258 ° 0 min 0,000 mm 0,6 UV-I 91 W/m² 10,2 °C 12,8 °C 4,8 km/h (1 Bft)
01.07.2017 07:23 12,7 °C 12,8 °C 83 % 1010,6 hPa 0,0 mm 4,4 km/h (1 Bft) W 273 ° 0 min 0,000 mm 0,6 UV-I 95 W/m² 9,9 °C 12,7 °C 8,0 km/h (2 Bft)
01.07.2017 07:24 12,7 °C 12,7 °C 83 % 1010,7 hPa 0,0 mm 4,0 km/h (1 Bft) W-SW 244 ° 0 min 0,000 mm 0,6 UV-I 97 W/m² 9,9 °C 12,7 °C 6,4 km/h (2 Bft)
01.07.2017 07:25 12,7 °C 12,7 °C 84 % 1010,6 hPa 0,0 mm 3,4 km/h (1 Bft) W 265 ° 0 min 0,000 mm 0,6 UV-I 98 W/m² 10,1 °C 12,7 °C 4,8 km/h (1 Bft)
01.07.2017 07:26 12,7 °C 12,7 °C 84 % 1010,7 hPa 0,0 mm 5,8 km/h (2 Bft) W-NW 292 ° 0 min 0,000 mm 0,7 UV-I 98 W/m² 10,1 °C 12,7 °C 9,7 km/h (2 Bft)
01.07.2017 07:27 12,7 °C 12,7 °C 85 % 1010,7 hPa 0,0 mm 7,7 km/h (2 Bft) W 279 ° 0 min 0,000 mm 0,7 UV-I 102 W/m² 10,2 °C 12,7 °C 9,7 km/h (2 Bft)
01.07.2017 07:28 12,7 °C 12,7 °C 84 % 1010,7 hPa 0,0 mm 7,6 km/h (2 Bft) W-NW 303 ° 0 min 0,000 mm 0,7 UV-I 105 W/m² 10,1 °C 12,7 °C 11,3 km/h (2 Bft)
01.07.2017 07:29 12,7 °C 12,7 °C 83 % 1010,7 hPa 0,0 mm 4,6 km/h (1 Bft) W 259 ° 0 min 0,000 mm 0,8 UV-I 107 W/m² 9,9 °C 12,7 °C 9,7 km/h (2 Bft)
01.07.2017 07:30 12,7 °C 12,7 °C 84 % 1010,7 hPa 0,0 mm 4,4 km/h (1 Bft) W 265 ° 0 min 0,000 mm 0,8 UV-I 105 W/m² 10,1 °C 12,7 °C 6,4 km/h (2 Bft)
01.07.2017 07:31 12,7 °C 12,7 °C 84 % 1010,7 hPa 0,0 mm 2,6 km/h (1 Bft) W-SW 254 ° 0 min 0,000 mm 0,8 UV-I 97 W/m² 10,1 °C 12,7 °C 4,8 km/h (1 Bft)
01.07.2017 07:32 12,7 °C 12,7 °C 83 % 1010,7 hPa 0,0 mm 5,8 km/h (2 Bft) W 263 ° 0 min 0,000 mm 0,8 UV-I 95 W/m² 9,9 °C 12,7 °C 9,7 km/h (2 Bft)
01.07.2017 07:33 12,7 °C 12,7 °C 83 % 1010,7 hPa 0,0 mm 5,3 km/h (1 Bft) W 266 ° 0 min 0,000 mm 0,8 UV-I 95 W/m² 9,9 °C 12,7 °C 6,4 km/h (2 Bft)
01.07.2017 07:34 12,7 °C 12,7 °C 83 % 1010,8 hPa 0,0 mm 4,8 km/h (1 Bft) W 270 ° 0 min 0,000 mm 0,9 UV-I 93 W/m² 9,9 °C 12,7 °C 8,0 km/h (2 Bft)
01.07.2017 07:35 12,7 °C 12,7 °C 83 % 1010,7 hPa 0,0 mm 5,8 km/h (2 Bft) NW 306 ° 0 min 0,000 mm 0,9 UV-I 91 W/m² 9,9 °C 12,7 °C 9,7 km/h (2 Bft)
01.07.2017 07:36 12,7 °C 12,7 °C 83 % 1010,7 hPa 0,0 mm 6,2 km/h (2 Bft) W 259 ° 0 min 0,000 mm 0,9 UV-I 98 W/m² 9,9 °C 12,7 °C 12,9 km/h (3 Bft)
01.07.2017 07:37 12,7 °C 12,7 °C 82 % 1010,8 hPa 0,0 mm 9,3 km/h (2 Bft) W 271 ° 0 min 0,000 mm 0,9 UV-I 109 W/m² 9,7 °C 12,7 °C 14,5 km/h (3 Bft)
01.07.2017 07:38 12,7 °C 12,7 °C 83 % 1010,8 hPa 0,0 mm 7,2 km/h (2 Bft) W 265 ° 0 min 0,000 mm 1,0 UV-I 98 W/m² 9,9 °C 12,7 °C 11,3 km/h (2 Bft)
01.07.2017 07:39 12,8 °C 12,8 °C 83 % 1010,8 hPa 0,0 mm 9,0 km/h (2 Bft) W-NW 284 ° 0 min 0,000 mm 0,9 UV-I 98 W/m² 10,0 °C 12,8 °C 12,9 km/h (3 Bft)
01.07.2017 07:40 12,7 °C 12,8 °C 83 % 1010,8 hPa 0,0 mm 6,1 km/h (2 Bft) W-NW 283 ° 0 min 0,000 mm 0,9 UV-I 95 W/m² 9,9 °C 12,7 °C 9,7 km/h (2 Bft)
01.07.2017 07:41 12,7 °C 12,8 °C 83 % 1010,8 hPa 0,0 mm 8,9 km/h (2 Bft) W 270 ° 0 min 0,000 mm 0,9 UV-I 93 W/m² 9,9 °C 12,7 °C 12,9 km/h (3 Bft)
01.07.2017 07:42 12,8 °C 12,8 °C 83 % 1010,8 hPa 0,0 mm 8,2 km/h (2 Bft) W-SW 250 ° 0 min 0,000 mm 1,0 UV-I 98 W/m² 10,0 °C 12,8 °C 11,3 km/h (2 Bft)
01.07.2017 07:43 12,7 °C 12,8 °C 82 % 1010,8 hPa 0,0 mm 8,0 km/h (2 Bft) W 266 ° 0 min 0,000 mm 1,0 UV-I 127 W/m² 9,7 °C 12,7 °C 11,3 km/h (2 Bft)
01.07.2017 07:44 12,7 °C 12,7 °C 83 % 1010,8 hPa 0,0 mm 3,6 km/h (1 Bft) W 274 ° 0 min 0,000 mm 1,4 UV-I 127 W/m² 9,9 °C 12,7 °C 9,7 km/h (2 Bft)
01.07.2017 07:45 12,8 °C 12,8 °C 83 % 1010,8 hPa 0,0 mm 5,8 km/h (2 Bft) W 263 ° 0 min 0,000 mm 1,0 UV-I 144 W/m² 10,0 °C 12,8 °C 11,3 km/h (2 Bft)
01.07.2017 07:46 12,8 °C 12,8 °C 83 % 1010,7 hPa 0,0 mm 4,5 km/h (1 Bft) W-NW 298 ° 0 min 0,000 mm 1,0 UV-I 135 W/m² 10,0 °C 12,8 °C 6,4 km/h (2 Bft)
01.07.2017 07:47 12,9 °C 12,9 °C 82 % 1010,7 hPa 0,0 mm 10,0 km/h (2 Bft) W-NW 293 ° 0 min 0,000 mm 1,0 UV-I 132 W/m² 9,9 °C 12,9 °C 12,9 km/h (3 Bft)
01.07.2017 07:48 12,9 °C 12,9 °C 82 % 1010,7 hPa 0,0 mm 4,6 km/h (1 Bft) W 281 ° 0 min 0,000 mm 1,0 UV-I 130 W/m² 9,9 °C 12,9 °C 11,3 km/h (2 Bft)
01.07.2017 07:49 12,9 °C 12,9 °C 83 % 1010,8 hPa 0,0 mm 6,4 km/h (2 Bft) W 275 ° 0 min 0,000 mm 1,0 UV-I 98 W/m² 10,1 °C 12,9 °C 11,3 km/h (2 Bft)
01.07.2017 07:50 12,9 °C 12,9 °C 82 % 1010,8 hPa 0,0 mm 7,6 km/h (2 Bft) NW 313 ° 0 min 0,000 mm 1,0 UV-I 90 W/m² 9,9 °C 12,9 °C 11,3 km/h (2 Bft)
01.07.2017 07:51 12,9 °C 12,9 °C 81 % 1010,8 hPa 0,0 mm 8,9 km/h (2 Bft) W 277 ° 0 min 0,000 mm 1,0 UV-I 90 W/m² 9,7 °C 12,9 °C 14,5 km/h (3 Bft)
01.07.2017 07:52 12,9 °C 12,9 °C 82 % 1010,8 hPa 0,0 mm 5,0 km/h (1 Bft) W-NW 294 ° 0 min 0,000 mm 0,9 UV-I 62 W/m² 9,9 °C 12,9 °C 6,4 km/h (2 Bft)
01.07.2017 07:53 12,9 °C 12,9 °C 82 % 1010,7 hPa 0,0 mm 5,2 km/h (1 Bft) W-NW 302 ° 0 min 0,000 mm 0,9 UV-I 58 W/m² 9,9 °C 12,9 °C 8,0 km/h (2 Bft)
01.07.2017 07:54 12,8 °C 12,9 °C 82 % 1010,8 hPa 0,0 mm 9,5 km/h (2 Bft) W 277 ° 0 min 0,000 mm 0,0 UV-I 54 W/m² 9,8 °C 12,8 °C 17,7 km/h (3 Bft)
01.07.2017 07:55 12,8 °C 12,9 °C 81 % 1010,8 hPa 0,0 mm 10,0 km/h (2 Bft) W 272 ° 0 min 0,000 mm 0,0 UV-I 54 W/m² 9,6 °C 12,8 °C 14,5 km/h (3 Bft)
01.07.2017 07:56 12,8 °C 12,8 °C 81 % 1010,8 hPa 0,0 mm 11,7 km/h (2 Bft) W-NW 296 ° 0 min 0,000 mm 1,0 UV-I 56 W/m² 9,6 °C 12,8 °C 17,7 km/h (3 Bft)
01.07.2017 07:57 12,8 °C 12,8 °C 81 % 1010,8 hPa 0,0 mm 6,5 km/h (2 Bft) W 281 ° 0 min 0,000 mm 1,0 UV-I 58 W/m² 9,6 °C 12,8 °C 9,7 km/h (2 Bft)
01.07.2017 07:58 12,8 °C 12,8 °C 81 % 1010,8 hPa 0,0 mm 8,1 km/h (2 Bft) W-NW 298 ° 0 min 0,000 mm 1,1 UV-I 67 W/m² 9,6 °C 12,8 °C 12,9 km/h (3 Bft)
01.07.2017 07:59 12,8 °C 12,8 °C 82 % 1010,9 hPa 0,0 mm 6,2 km/h (2 Bft) NW 310 ° 0 min 0,000 mm 1,4 UV-I 67 W/m² 9,8 °C 12,8 °C 11,3 km/h (2 Bft)
01.07.2017 08:00 12,8 °C 12,8 °C 83 % 1010,9 hPa 0,0 mm 5,4 km/h (1 Bft) W 279 ° 0 min 0,000 mm 1,4 UV-I 197 W/m² 10,0 °C 12,8 °C 6,4 km/h (2 Bft)
01.07.2017 08:01 12,9 °C 12,9 °C 83 % 1010,9 hPa 0,0 mm 7,0 km/h (2 Bft) W-NW 289 ° 0 min 0,051 mm 1,2 UV-I 84 W/m² 10,1 °C 12,9 °C 9,7 km/h (2 Bft)
01.07.2017 08:02 12,9 °C 12,9 °C 81 % 1010,9 hPa 0,0 mm 8,6 km/h (2 Bft) W 262 ° 0 min 0,000 mm 1,4 UV-I 100 W/m² 9,7 °C 12,9 °C 11,3 km/h (2 Bft)
01.07.2017 08:03 13,0 °C 13,0 °C 81 % 1010,9 hPa 0,0 mm 5,8 km/h (2 Bft) NW 323 ° 0 min 0,000 mm 1,3 UV-I 118 W/m² 9,8 °C 13,0 °C 9,7 km/h (2 Bft)
01.07.2017 08:04 13,1 °C 13,1 °C 80 % 1010,9 hPa 0,0 mm 10,9 km/h (2 Bft) W-NW 294 ° 0 min 0,000 mm 1,7 UV-I 118 W/m² 9,7 °C 13,1 °C 16,1 km/h (3 Bft)
01.07.2017 08:05 13,2 °C 13,2 °C 80 % 1010,9 hPa 0,0 mm 8,4 km/h (2 Bft) W-SW 249 ° 0 min 0,000 mm 1,7 UV-I 220 W/m² 9,8 °C 13,2 °C 12,9 km/h (3 Bft)
01.07.2017 08:06 13,4 °C 13,4 °C 80 % 1010,9 hPa 0,0 mm 5,5 km/h (1 Bft) W-NW 298 ° 0 min 0,000 mm 1,7 UV-I 220 W/m² 10,0 °C 13,4 °C 9,7 km/h (2 Bft)
01.07.2017 08:07 13,7 °C 13,7 °C 81 % 1010,9 hPa 0,0 mm 6,1 km/h (2 Bft) W-NW 284 ° 0 min 0,000 mm 1,8 UV-I 234 W/m² 10,5 °C 13,7 °C 9,7 km/h (2 Bft)
01.07.2017 08:08 13,8 °C 13,8 °C 81 % 1011,0 hPa 0,0 mm 8,3 km/h (2 Bft) W-SW 246 ° 0 min 0,000 mm 1,8 UV-I 239 W/m² 10,6 °C 13,8 °C 12,9 km/h (3 Bft)
01.07.2017 08:09 14,1 °C 14,1 °C 82 % 1010,9 hPa 0,0 mm 5,0 km/h (1 Bft) NW 309 ° 0 min 0,000 mm 1,8 UV-I 243 W/m² 11,1 °C 14,1 °C 8,0 km/h (2 Bft)
01.07.2017 08:10 14,2 °C 14,2 °C 80 % 1010,9 hPa 0,0 mm 8,0 km/h (2 Bft) W 261 ° 0 min 0,000 mm 1,8 UV-I 248 W/m² 10,8 °C 14,2 °C 11,3 km/h (2 Bft)
01.07.2017 08:11 14,3 °C 14,3 °C 79 % 1010,9 hPa 0,0 mm 9,7 km/h (2 Bft) N 350 ° 0 min 0,000 mm 1,9 UV-I 253 W/m² 10,7 °C 14,3 °C 12,9 km/h (3 Bft)
01.07.2017 08:12 14,4 °C 14,4 °C 77 % 1011,0 hPa 0,0 mm 9,3 km/h (2 Bft) W 270 ° 0 min 0,000 mm 1,9 UV-I 264 W/m² 10,4 °C 14,4 °C 14,5 km/h (3 Bft)
01.07.2017 08:13 14,4 °C 14,4 °C 76 % 1011,0 hPa 0,0 mm 6,2 km/h (2 Bft) W-NW 284 ° 1 min 0,000 mm 1,9 UV-I 292 W/m² 10,2 °C 14,4 °C 12,9 km/h (3 Bft)
01.07.2017 08:14 14,6 °C 14,6 °C 78 % 1011,0 hPa 0,0 mm 9,3 km/h (2 Bft) W-NW 299 ° 0 min 0,000 mm 1,6 UV-I 195 W/m² 10,8 °C 14,6 °C 19,3 km/h (3 Bft)
01.07.2017 08:15 14,6 °C 14,6 °C 75 % 1011,0 hPa 0,0 mm 9,6 km/h (2 Bft) W-SW 244 ° 0 min 0,000 mm 1,3 UV-I 98 W/m² 10,2 °C 14,6 °C 17,7 km/h (3 Bft)
01.07.2017 08:16 14,4 °C 14,6 °C 78 % 1011,0 hPa 0,0 mm 7,5 km/h (2 Bft) W-SW 248 ° 0 min 0,000 mm 1,4 UV-I 109 W/m² 10,6 °C 14,4 °C 14,5 km/h (3 Bft)
01.07.2017 08:17 14,3 °C 14,4 °C 76 % 1011,0 hPa 0,0 mm 8,3 km/h (2 Bft) W-NW 284 ° 0 min 0,000 mm 2,0 UV-I 109 W/m² 10,1 °C 14,3 °C 12,9 km/h (3 Bft)
01.07.2017 08:18 14,3 °C 14,3 °C 76 % 1011,1 hPa 0,0 mm 11,8 km/h (2 Bft) W-NW 288 ° 1 min 0,000 mm 2,1 UV-I 364 W/m² 10,1 °C 14,3 °C 20,9 km/h (4 Bft)
01.07.2017 08:19 14,3 °C 14,3 °C 75 % 1011,1 hPa 0,0 mm 14,2 km/h (3 Bft) W 272 ° 1 min 0,000 mm 2,0 UV-I 381 W/m² 9,9 °C 14,3 °C 22,5 km/h (4 Bft)
01.07.2017 08:20 14,3 °C 14,3 °C 75 % 1011,1 hPa 0,0 mm 14,2 km/h (3 Bft) W 259 ° 1 min 0,000 mm 2,2 UV-I 404 W/m² 9,9 °C 14,3 °C 17,7 km/h (3 Bft)
01.07.2017 08:21 14,4 °C 14,4 °C 75 % 1011,0 hPa 0,0 mm 12,7 km/h (3 Bft) NW 308 ° 1 min 0,000 mm 2,2 UV-I 424 W/m² 10,0 °C 14,4 °C 22,5 km/h (4 Bft)
01.07.2017 08:22 14,6 °C 14,6 °C 76 % 1011,0 hPa 0,0 mm 5,6 km/h (1 Bft) W-NW 284 ° 1 min 0,000 mm 2,3 UV-I 446 W/m² 10,4 °C 14,6 °C 11,3 km/h (2 Bft)
01.07.2017 08:23 14,7 °C 14,7 °C 74 % 1011,1 hPa 0,0 mm 13,7 km/h (3 Bft) W 273 ° 1 min 0,000 mm 2,4 UV-I 482 W/m² 10,1 °C 14,7 °C 24,1 km/h (4 Bft)
01.07.2017 08:24 14,8 °C 14,8 °C 76 % 1011,0 hPa 0,0 mm 11,0 km/h (2 Bft) W-SW 238 ° 1 min 0,000 mm 2,5 UV-I 531 W/m² 10,6 °C 14,8 °C 16,1 km/h (3 Bft)
01.07.2017 08:25 14,8 °C 14,8 °C 73 % 1011,0 hPa 0,0 mm 13,6 km/h (3 Bft) W 271 ° 1 min 0,000 mm 2,5 UV-I 526 W/m² 10,0 °C 14,8 °C 20,9 km/h (4 Bft)
01.07.2017 08:26 14,9 °C 14,9 °C 74 % 1011,0 hPa 0,0 mm 12,7 km/h (3 Bft) W 274 ° 1 min 0,000 mm 2,7 UV-I 585 W/m² 10,3 °C 14,9 °C 17,7 km/h (3 Bft)
01.07.2017 08:27 15,1 °C 15,1 °C 74 % 1011,0 hPa 0,0 mm 13,5 km/h (3 Bft) W-SW 240 ° 1 min 0,000 mm 2,7 UV-I 592 W/m² 10,5 °C 15,1 °C 20,9 km/h (4 Bft)
01.07.2017 08:28 15,1 °C 15,1 °C 73 % 1011,1 hPa 0,0 mm 7,2 km/h (2 Bft) W 271 ° 1 min 0,000 mm 2,8 UV-I 589 W/m² 10,3 °C 15,1 °C 14,5 km/h (3 Bft)
01.07.2017 08:29 15,3 °C 15,3 °C 74 % 1011,0 hPa 0,0 mm 10,8 km/h (2 Bft) W 265 ° 1 min 0,000 mm 2,5 UV-I 589 W/m² 10,7 °C 15,3 °C 17,7 km/h (3 Bft)
01.07.2017 08:30 15,2 °C 15,3 °C 74 % 1011,0 hPa 0,0 mm 16,2 km/h (3 Bft) SW 231 ° 1 min 0,000 mm 2,0 UV-I 589 W/m² 10,6 °C 15,2 °C 20,9 km/h (4 Bft)
01.07.2017 08:31 15,2 °C 15,2 °C 72 % 1011,0 hPa 0,0 mm 13,1 km/h (3 Bft) SW 218 ° 1 min 0,000 mm 2,1 UV-I 536 W/m² 10,2 °C 15,2 °C 22,5 km/h (4 Bft)
01.07.2017 08:32 15,1 °C 15,2 °C 70 % 1011,0 hPa 0,0 mm 12,7 km/h (3 Bft) W 272 ° 1 min 0,000 mm 2,7 UV-I 513 W/m² 9,7 °C 15,1 °C 16,1 km/h (3 Bft)
01.07.2017 08:33 15,1 °C 15,1 °C 72 % 1011,1 hPa 0,0 mm 4,2 km/h (1 Bft) W-SW 253 ° 1 min 0,000 mm 2,7 UV-I 504 W/m² 10,1 °C 15,1 °C 8,0 km/h (2 Bft)
01.07.2017 08:34 15,1 °C 15,1 °C 74 % 1011,1 hPa 0,0 mm 11,0 km/h (2 Bft) W-NW 296 ° 1 min 0,000 mm 2,7 UV-I 489 W/m² 10,5 °C 15,1 °C 17,7 km/h (3 Bft)
01.07.2017 08:35 15,2 °C 15,2 °C 73 % 1011,1 hPa 0,0 mm 7,3 km/h (2 Bft) W 275 ° 1 min 0,000 mm 2,7 UV-I 480 W/m² 10,4 °C 15,2 °C 20,9 km/h (4 Bft)
01.07.2017 08:36 15,2 °C 15,2 °C 69 % 1011,1 hPa 0,0 mm 13,3 km/h (3 Bft) W 259 ° 1 min 0,000 mm 2,7 UV-I 469 W/m² 9,6 °C 15,2 °C 19,3 km/h (3 Bft)
01.07.2017 08:37 15,1 °C 15,2 °C 70 % 1011,1 hPa 0,0 mm 10,5 km/h (2 Bft) W-NW 300 ° 1 min 0,000 mm 2,7 UV-I 464 W/m² 9,7 °C 15,1 °C 12,9 km/h (3 Bft)
01.07.2017 08:38 15,1 °C 15,1 °C 72 % 1011,2 hPa 0,0 mm 13,3 km/h (3 Bft) NW 313 ° 1 min 0,000 mm 1,9 UV-I 464 W/m² 10,1 °C 15,1 °C 19,3 km/h (3 Bft)
01.07.2017 08:39 15,1 °C 15,1 °C 71 % 1011,2 hPa 0,0 mm 10,7 km/h (2 Bft) W-NW 302 ° 0 min 0,000 mm 2,3 UV-I 255 W/m² 9,9 °C 15,1 °C 16,1 km/h (3 Bft)
01.07.2017 08:40 15,0 °C 15,1 °C 72 % 1011,3 hPa 0,0 mm 15,8 km/h (3 Bft) W 281 ° 1 min 0,000 mm 1,7 UV-I 332 W/m² 10,0 °C 15,0 °C 20,9 km/h (4 Bft)
01.07.2017 08:41 14,9 °C 15,0 °C 72 % 1011,2 hPa 0,0 mm 11,7 km/h (2 Bft) W 279 ° 1 min 0,000 mm 2,5 UV-I 343 W/m² 9,9 °C 14,9 °C 16,1 km/h (3 Bft)
01.07.2017 08:42 14,9 °C 14,9 °C 72 % 1011,3 hPa 0,0 mm 5,8 km/h (2 Bft) W 271 ° 1 min 0,000 mm 2,9 UV-I 343 W/m² 9,9 °C 14,9 °C 11,3 km/h (2 Bft)
01.07.2017 08:43 14,9 °C 14,9 °C 73 % 1011,3 hPa 0,0 mm 8,2 km/h (2 Bft) NW 304 ° 1 min 0,000 mm 2,9 UV-I 515 W/m² 10,1 °C 14,9 °C 12,9 km/h (3 Bft)
01.07.2017 08:44 15,1 °C 15,1 °C 72 % 1011,3 hPa 0,0 mm 9,1 km/h (2 Bft) SW 217 ° 1 min 0,000 mm 2,9 UV-I 515 W/m² 10,1 °C 15,1 °C 14,5 km/h (3 Bft)
01.07.2017 08:45 15,2 °C 15,2 °C 75 % 1011,3 hPa 0,0 mm 7,8 km/h (2 Bft) W-NW 292 ° 1 min 0,000 mm 2,9 UV-I 512 W/m² 10,8 °C 15,2 °C 12,9 km/h (3 Bft)
01.07.2017 08:46 15,3 °C 15,3 °C 72 % 1011,3 hPa 0,0 mm 8,4 km/h (2 Bft) W 274 ° 1 min 0,000 mm 2,9 UV-I 506 W/m² 10,3 °C 15,3 °C 11,3 km/h (2 Bft)
01.07.2017 08:47 15,4 °C 15,4 °C 72 % 1011,3 hPa 0,0 mm 12,3 km/h (3 Bft) SW 236 ° 1 min 0,000 mm 2,9 UV-I 503 W/m² 10,4 °C 15,4 °C 19,3 km/h (3 Bft)
01.07.2017 08:48 15,4 °C 15,4 °C 69 % 1011,4 hPa 0,0 mm 11,8 km/h (2 Bft) W 261 ° 1 min 0,000 mm 2,9 UV-I 506 W/m² 9,7 °C 15,4 °C 20,9 km/h (4 Bft)
01.07.2017 08:49 15,3 °C 15,4 °C 70 % 1011,3 hPa 0,0 mm 13,9 km/h (3 Bft) W-NW 291 ° 1 min 0,000 mm 3,0 UV-I 508 W/m² 9,9 °C 15,3 °C 25,7 km/h (4 Bft)
01.07.2017 08:50 15,2 °C 15,3 °C 69 % 1011,3 hPa 0,0 mm 9,2 km/h (2 Bft) W-NW 284 ° 1 min 0,000 mm 3,0 UV-I 508 W/m² 9,6 °C 15,2 °C 16,1 km/h (3 Bft)
01.07.2017 08:51 15,2 °C 15,2 °C 71 % 1011,4 hPa 0,0 mm 4,8 km/h (1 Bft) W 269 ° 1 min 0,000 mm 3,0 UV-I 512 W/m² 10,0 °C 15,2 °C 12,9 km/h (3 Bft)
01.07.2017 08:52 15,2 °C 15,2 °C 72 % 1011,4 hPa 0,0 mm 8,8 km/h (2 Bft) W-NW 288 ° 1 min 0,000 mm 3,0 UV-I 512 W/m² 10,2 °C 15,2 °C 16,1 km/h (3 Bft)
01.07.2017 08:53 15,2 °C 15,2 °C 74 % 1011,4 hPa 0,0 mm 7,8 km/h (2 Bft) SW 223 ° 1 min 0,000 mm 3,0 UV-I 517 W/m² 10,6 °C 15,2 °C 19,3 km/h (3 Bft)
01.07.2017 08:54 15,3 °C 15,3 °C 69 % 1011,4 hPa 0,0 mm 14,4 km/h (3 Bft) W-SW 250 ° 1 min 0,000 mm 3,1 UV-I 533 W/m² 9,6 °C 15,3 °C 20,9 km/h (4 Bft)
01.07.2017 08:55 15,3 °C 15,3 °C 71 % 1011,4 hPa 0,0 mm 7,9 km/h (2 Bft) S 190 ° 1 min 0,000 mm 3,1 UV-I 540 W/m² 10,1 °C 15,3 °C 17,7 km/h (3 Bft)
01.07.2017 08:56 15,3 °C 15,3 °C 70 % 1011,4 hPa 0,0 mm 7,3 km/h (2 Bft) W 263 ° 1 min 0,000 mm 3,2 UV-I 543 W/m² 9,9 °C 15,3 °C 14,5 km/h (3 Bft)
01.07.2017 08:57 15,3 °C 15,3 °C 71 % 1011,4 hPa 0,0 mm 10,9 km/h (2 Bft) S 191 ° 1 min 0,000 mm 3,2 UV-I 550 W/m² 10,1 °C 15,3 °C 20,9 km/h (4 Bft)
01.07.2017 08:58 15,2 °C 15,3 °C 67 % 1011,3 hPa 0,0 mm 11,0 km/h (2 Bft) S-SW 213 ° 1 min 0,000 mm 3,2 UV-I 559 W/m² 9,1 °C 15,2 °C 19,3 km/h (3 Bft)
01.07.2017 08:59 15,2 °C 15,2 °C 70 % 1011,3 hPa 0,0 mm 6,9 km/h (2 Bft) W-NW 285 ° 1 min 0,000 mm 3,3 UV-I 573 W/m² 9,8 °C 15,2 °C 12,9 km/h (3 Bft)
01.07.2017 09:00 15,3 °C 15,3 °C 74 % 1011,3 hPa 0,0 mm 5,2 km/h (1 Bft) W-NW 303 ° 1 min 0,000 mm 3,3 UV-I 578 W/m² 10,7 °C 15,3 °C 6,4 km/h (2 Bft)
01.07.2017 09:01 15,5 °C 15,5 °C 72 % 1011,4 hPa 0,0 mm 13,7 km/h (3 Bft) W 278 ° 1 min 0,228 mm 3,4 UV-I 582 W/m² 10,5 °C 15,5 °C 20,9 km/h (4 Bft)
01.07.2017 09:02 15,7 °C 15,7 °C 72 % 1011,4 hPa 0,0 mm 13,3 km/h (3 Bft) W 281 ° 1 min 0,000 mm 3,4 UV-I 585 W/m² 10,7 °C 15,7 °C 22,5 km/h (4 Bft)
01.07.2017 09:03 15,7 °C 15,7 °C 69 % 1011,3 hPa 0,0 mm 12,1 km/h (2 Bft) W 274 ° 1 min 0,000 mm 3,4 UV-I 592 W/m² 10,0 °C 15,7 °C 16,1 km/h (3 Bft)
01.07.2017 09:04 15,7 °C 15,7 °C 71 % 1011,3 hPa 0,0 mm 10,1 km/h (2 Bft) W 259 ° 1 min 0,000 mm 3,5 UV-I 599 W/m² 10,5 °C 15,7 °C 14,5 km/h (3 Bft)
01.07.2017 09:05 15,7 °C 15,7 °C 68 % 1011,4 hPa 0,0 mm 10,3 km/h (2 Bft) W 273 ° 1 min 0,000 mm 3,5 UV-I 624 W/m² 9,8 °C 15,7 °C 19,3 km/h (3 Bft)
01.07.2017 09:06 15,7 °C 15,7 °C 68 % 1011,4 hPa 0,0 mm 14,7 km/h (3 Bft) W 281 ° 1 min 0,000 mm 3,6 UV-I 645 W/m² 9,8 °C 15,7 °C 22,5 km/h (4 Bft)
01.07.2017 09:07 15,6 °C 15,7 °C 68 % 1011,4 hPa 0,0 mm 12,0 km/h (2 Bft) W-SW 250 ° 1 min 0,000 mm 3,7 UV-I 670 W/m² 9,7 °C 15,6 °C 17,7 km/h (3 Bft)
01.07.2017 09:08 15,7 °C 15,7 °C 69 % 1011,4 hPa 0,0 mm 11,8 km/h (2 Bft) W 269 ° 1 min 0,000 mm 3,8 UV-I 689 W/m² 10,0 °C 15,7 °C 17,7 km/h (3 Bft)
01.07.2017 09:09 15,8 °C 15,8 °C 69 % 1011,4 hPa 0,0 mm 19,1 km/h (3 Bft) W-NW 288 ° 1 min 0,000 mm 3,9 UV-I 712 W/m² 10,1 °C 15,8 °C 27,4 km/h (4 Bft)
01.07.2017 09:10 15,8 °C 15,8 °C 69 % 1011,3 hPa 0,0 mm 11,4 km/h (2 Bft) NW 306 ° 1 min 0,000 mm 3,7 UV-I 738 W/m² 10,1 °C 15,8 °C 17,7 km/h (3 Bft)
01.07.2017 09:11 15,7 °C 15,8 °C 69 % 1011,4 hPa 0,0 mm 13,3 km/h (3 Bft) W 272 ° 1 min 0,000 mm 2,9 UV-I 738 W/m² 10,0 °C 15,7 °C 20,9 km/h (4 Bft)
01.07.2017 09:12 15,7 °C 15,7 °C 68 % 1011,4 hPa 0,0 mm 13,7 km/h (3 Bft) NW 314 ° 1 min 0,000 mm 4,1 UV-I 738 W/m² 9,8 °C 15,7 °C 19,3 km/h (3 Bft)
01.07.2017 09:13 15,7 °C 15,7 °C 68 % 1011,3 hPa 0,0 mm 10,2 km/h (2 Bft) W 280 ° 1 min 0,000 mm 4,0 UV-I 694 W/m² 9,8 °C 15,7 °C 14,5 km/h (3 Bft)
01.07.2017 09:14 15,8 °C 15,8 °C 71 % 1011,3 hPa 0,0 mm 9,4 km/h (2 Bft) W 279 ° 1 min 0,000 mm 3,1 UV-I 647 W/m² 10,6 °C 15,8 °C 16,1 km/h (3 Bft)
01.07.2017 09:15 15,9 °C 15,9 °C 68 % 1011,4 hPa 0,0 mm 13,1 km/h (3 Bft) W-NW 293 ° 1 min 0,000 mm 3,9 UV-I 677 W/m² 10,0 °C 15,9 °C 19,3 km/h (3 Bft)
01.07.2017 09:16 15,8 °C 15,9 °C 69 % 1011,4 hPa 0,0 mm 9,5 km/h (2 Bft) NW 315 ° 1 min 0,000 mm 3,9 UV-I 677 W/m² 10,1 °C 15,8 °C 16,1 km/h (3 Bft)
01.07.2017 09:17 15,9 °C 15,9 °C 70 % 1011,4 hPa 0,0 mm 6,5 km/h (2 Bft) W-NW 295 ° 1 min 0,000 mm 3,9 UV-I 673 W/m² 10,4 °C 15,9 °C 11,3 km/h (2 Bft)
01.07.2017 09:18 15,9 °C 15,9 °C 69 % 1011,4 hPa 0,0 mm 8,7 km/h (2 Bft) W-NW 284 ° 1 min 0,000 mm 4,0 UV-I 671 W/m² 10,2 °C 15,9 °C 16,1 km/h (3 Bft)
01.07.2017 09:19 15,9 °C 15,9 °C 69 % 1011,4 hPa 0,0 mm 14,1 km/h (3 Bft) W 267 ° 1 min 0,000 mm 4,0 UV-I 677 W/m² 10,2 °C 15,9 °C 22,5 km/h (4 Bft)
01.07.2017 09:20 15,9 °C 15,9 °C 67 % 1011,3 hPa 0,0 mm 13,9 km/h (3 Bft) W 265 ° 1 min 0,000 mm 4,0 UV-I 680 W/m² 9,8 °C 15,9 °C 25,7 km/h (4 Bft)
01.07.2017 09:21 15,9 °C 15,9 °C 67 % 1011,3 hPa 0,0 mm 17,2 km/h (3 Bft) NW 306 ° 1 min 0,000 mm 4,0 UV-I 671 W/m² 9,8 °C 15,9 °C 24,1 km/h (4 Bft)
01.07.2017 09:22 15,9 °C 15,9 °C 70 % 1011,3 hPa 0,0 mm 9,1 km/h (2 Bft) W-SW 244 ° 1 min 0,000 mm 4,0 UV-I 671 W/m² 10,4 °C 15,9 °C 12,9 km/h (3 Bft)
01.07.2017 09:23 15,9 °C 15,9 °C 70 % 1011,4 hPa 0,0 mm 10,5 km/h (2 Bft) W-NW 292 ° 1 min 0,000 mm 4,0 UV-I 621 W/m² 10,4 °C 15,9 °C 16,1 km/h (3 Bft)
01.07.2017 09:24 16,0 °C 16,0 °C 69 % 1011,3 hPa 0,0 mm 10,3 km/h (2 Bft) NW 309 ° 1 min 0,000 mm 3,4 UV-I 696 W/m² 10,3 °C 16,0 °C 16,1 km/h (3 Bft)
01.07.2017 09:25 16,1 °C 16,1 °C 68 % 1011,3 hPa 0,0 mm 13,7 km/h (3 Bft) W-NW 293 ° 1 min 0,000 mm 4,2 UV-I 694 W/m² 10,2 °C 16,1 °C 22,5 km/h (4 Bft)
01.07.2017 09:26 16,0 °C 16,1 °C 68 % 1011,4 hPa 0,0 mm 12,4 km/h (3 Bft) W-NW 284 ° 1 min 0,000 mm 4,2 UV-I 694 W/m² 10,1 °C 16,0 °C 19,3 km/h (3 Bft)
01.07.2017 09:27 16,0 °C 16,0 °C 69 % 1011,3 hPa 0,0 mm 14,0 km/h (3 Bft) W 273 ° 1 min 0,000 mm 4,2 UV-I 694 W/m² 10,3 °C 16,0 °C 19,3 km/h (3 Bft)
01.07.2017 09:28 15,9 °C 16,0 °C 65 % 1011,4 hPa 0,0 mm 23,0 km/h (4 Bft) W 271 ° 1 min 0,000 mm 4,2 UV-I 694 W/m² 9,3 °C 15,9 °C 32,2 km/h (5 Bft)
01.07.2017 09:29 15,8 °C 15,9 °C 64 % 1011,4 hPa 0,0 mm 15,7 km/h (3 Bft) SW 218 ° 1 min 0,000 mm 4,1 UV-I 671 W/m² 9,0 °C 15,8 °C 32,2 km/h (5 Bft)
01.07.2017 09:30 15,8 °C 15,8 °C 67 % 1011,3 hPa 0,0 mm 11,8 km/h (2 Bft) W 272 ° 1 min 0,000 mm 4,2 UV-I 671 W/m² 9,7 °C 15,8 °C 16,1 km/h (3 Bft)
01.07.2017 09:31 15,8 °C 15,8 °C 66 % 1011,4 hPa 0,0 mm 15,0 km/h (3 Bft) W 264 ° 1 min 0,000 mm 4,2 UV-I 689 W/m² 9,5 °C 15,8 °C 27,4 km/h (4 Bft)
01.07.2017 09:32 15,8 °C 15,8 °C 67 % 1011,4 hPa 0,0 mm 9,2 km/h (2 Bft) W 279 ° 1 min 0,000 mm 4,3 UV-I 712 W/m² 9,7 °C 15,8 °C 19,3 km/h (3 Bft)
01.07.2017 09:33 15,8 °C 15,8 °C 68 % 1011,4 hPa 0,0 mm 11,8 km/h (2 Bft) NW 323 ° 1 min 0,000 mm 4,4 UV-I 744 W/m² 9,9 °C 15,8 °C 19,3 km/h (3 Bft)
01.07.2017 09:34 15,9 °C 15,9 °C 69 % 1011,4 hPa 0,0 mm 13,1 km/h (3 Bft) W 266 ° 1 min 0,000 mm 4,5 UV-I 772 W/m² 10,2 °C 15,9 °C 24,1 km/h (4 Bft)
01.07.2017 09:35 16,1 °C 16,1 °C 69 % 1011,4 hPa 0,0 mm 13,6 km/h (3 Bft) W-SW 244 ° 1 min 0,000 mm 4,5 UV-I 752 W/m² 10,4 °C 16,1 °C 17,7 km/h (3 Bft)
01.07.2017 09:36 16,2 °C 16,2 °C 68 % 1011,4 hPa 0,0 mm 12,9 km/h (3 Bft) W 269 ° 1 min 0,000 mm 4,5 UV-I 747 W/m² 10,3 °C 16,2 °C 22,5 km/h (4 Bft)
01.07.2017 09:37 16,2 °C 16,2 °C 69 % 1011,4 hPa 0,0 mm 9,7 km/h (2 Bft) W-SW 250 ° 1 min 0,000 mm 4,5 UV-I 756 W/m² 10,5 °C 16,2 °C 16,1 km/h (3 Bft)
01.07.2017 09:38 16,3 °C 16,3 °C 68 % 1011,3 hPa 0,0 mm 9,3 km/h (2 Bft) W-NW 298 ° 1 min 0,000 mm 4,7 UV-I 780 W/m² 10,4 °C 16,3 °C 14,5 km/h (3 Bft)
01.07.2017 09:39 16,5 °C 16,5 °C 70 % 1011,3 hPa 0,0 mm 12,2 km/h (2 Bft) W-NW 294 ° 1 min 0,000 mm 4,6 UV-I 779 W/m² 11,0 °C 16,5 °C 19,3 km/h (3 Bft)
01.07.2017 09:40 16,6 °C 16,6 °C 67 % 1011,3 hPa 0,0 mm 16,4 km/h (3 Bft) W-NW 295 ° 1 min 0,000 mm 3,9 UV-I 779 W/m² 10,4 °C 16,6 °C 20,9 km/h (4 Bft)
01.07.2017 09:41 16,6 °C 16,6 °C 66 % 1011,4 hPa 0,0 mm 9,5 km/h (2 Bft) W-NW 294 ° 1 min 0,000 mm 4,6 UV-I 779 W/m² 10,2 °C 16,6 °C 16,1 km/h (3 Bft)
01.07.2017 09:42 16,6 °C 16,6 °C 68 % 1011,4 hPa 0,0 mm 12,3 km/h (3 Bft) W-NW 292 ° 1 min 0,000 mm 4,8 UV-I 796 W/m² 10,7 °C 16,6 °C 20,9 km/h (4 Bft)
01.07.2017 09:43 16,6 °C 16,6 °C 67 % 1011,4 hPa 0,0 mm 5,1 km/h (1 Bft) W-NW 286 ° 1 min 0,000 mm 4,7 UV-I 784 W/m² 10,4 °C 16,6 °C 12,9 km/h (3 Bft)
01.07.2017 09:44 16,6 °C 16,6 °C 67 % 1011,4 hPa 0,0 mm 11,5 km/h (2 Bft) W-NW 298 ° 1 min 0,000 mm 4,7 UV-I 784 W/m² 10,4 °C 16,6 °C 20,9 km/h (4 Bft)
01.07.2017 09:45 16,4 °C 16,6 °C 64 % 1011,4 hPa 0,0 mm 19,5 km/h (3 Bft) NW 314 ° 1 min 0,000 mm 4,8 UV-I 784 W/m² 9,6 °C 16,4 °C 29,0 km/h (5 Bft)
01.07.2017 09:46 16,4 °C 16,4 °C 66 % 1011,4 hPa 0,0 mm 16,2 km/h (3 Bft) W 273 ° 1 min 0,000 mm 4,7 UV-I 742 W/m² 10,0 °C 16,4 °C 24,1 km/h (4 Bft)
01.07.2017 09:47 16,3 °C 16,4 °C 67 % 1011,4 hPa 0,0 mm 13,7 km/h (3 Bft) W-NW 297 ° 1 min 0,000 mm 4,6 UV-I 717 W/m² 10,2 °C 16,3 °C 19,3 km/h (3 Bft)
01.07.2017 09:48 16,2 °C 16,3 °C 67 % 1011,4 hPa 0,0 mm 15,4 km/h (3 Bft) W-NW 297 ° 1 min 0,000 mm 4,6 UV-I 717 W/m² 10,1 °C 16,2 °C 20,9 km/h (4 Bft)
01.07.2017 09:49 16,1 °C 16,2 °C 65 % 1011,5 hPa 0,0 mm 12,7 km/h (3 Bft) NW 309 ° 1 min 0,000 mm 4,3 UV-I 717 W/m² 9,5 °C 16,1 °C 17,7 km/h (3 Bft)
01.07.2017 09:50 16,0 °C 16,1 °C 65 % 1011,4 hPa 0,0 mm 14,5 km/h (3 Bft) W-SW 252 ° 1 min 0,000 mm 4,5 UV-I 708 W/m² 9,4 °C 16,0 °C 22,5 km/h (4 Bft)
01.07.2017 09:51 16,0 °C 16,0 °C 70 % 1011,4 hPa 0,0 mm 14,3 km/h (3 Bft) W 259 ° 1 min 0,000 mm 4,4 UV-I 719 W/m² 10,5 °C 16,0 °C 20,9 km/h (4 Bft)
01.07.2017 09:52 16,0 °C 16,1 °C 67 % 1011,5 hPa 0,0 mm 15,2 km/h (3 Bft) W-NW 294 ° 1 min 0,000 mm 4,5 UV-I 680 W/m² 9,9 °C 16,0 °C 22,5 km/h (4 Bft)
01.07.2017 09:53 16,0 °C 16,0 °C 67 % 1011,5 hPa 0,0 mm 9,9 km/h (2 Bft) W-NW 291 ° 1 min 0,000 mm 4,3 UV-I 680 W/m² 9,9 °C 16,0 °C 16,1 km/h (3 Bft)
01.07.2017 09:54 15,9 °C 16,0 °C 65 % 1011,5 hPa 0,0 mm 11,5 km/h (2 Bft) W 269 ° 1 min 0,000 mm 4,5 UV-I 680 W/m² 9,3 °C 15,9 °C 20,9 km/h (4 Bft)
01.07.2017 09:55 15,9 °C 15,9 °C 67 % 1011,5 hPa 0,0 mm 16,0 km/h (3 Bft) W-NW 296 ° 1 min 0,000 mm 4,5 UV-I 666 W/m² 9,8 °C 15,9 °C 24,1 km/h (4 Bft)
01.07.2017 09:56 15,9 °C 15,9 °C 69 % 1011,5 hPa 0,0 mm 12,5 km/h (3 Bft) W-NW 298 ° 1 min 0,000 mm 4,6 UV-I 675 W/m² 10,2 °C 15,9 °C 17,7 km/h (3 Bft)
01.07.2017 09:57 15,9 °C 15,9 °C 66 % 1011,6 hPa 0,0 mm 10,8 km/h (2 Bft) NW 304 ° 1 min 0,000 mm 4,6 UV-I 686 W/m² 9,6 °C 15,9 °C 17,7 km/h (3 Bft)
01.07.2017 09:58 15,9 °C 15,9 °C 67 % 1011,5 hPa 0,0 mm 16,6 km/h (3 Bft) W-NW 286 ° 1 min 0,000 mm 4,7 UV-I 684 W/m² 9,8 °C 15,9 °C 22,5 km/h (4 Bft)
01.07.2017 09:59 15,9 °C 15,9 °C 67 % 1011,5 hPa 0,0 mm 14,1 km/h (3 Bft) W-NW 283 ° 1 min 0,000 mm 4,7 UV-I 689 W/m² 9,8 °C 15,9 °C 20,9 km/h (4 Bft)
01.07.2017 10:00 15,8 °C 15,9 °C 67 % 1011,5 hPa 0,0 mm 16,2 km/h (3 Bft) W 259 ° 1 min 0,000 mm 4,6 UV-I 679 W/m² 9,7 °C 15,8 °C 20,9 km/h (4 Bft)
01.07.2017 10:01 15,8 °C 15,8 °C 67 % 1011,5 hPa 0,0 mm 14,8 km/h (3 Bft) W 270 ° 1 min 0,407 mm 4,6 UV-I 673 W/m² 9,7 °C 15,8 °C 20,9 km/h (4 Bft)
01.07.2017 10:02 15,8 °C 15,8 °C 67 % 1011,5 hPa 0,0 mm 15,0 km/h (3 Bft) W 277 ° 1 min 0,000 mm 4,7 UV-I 677 W/m² 9,7 °C 15,8 °C 19,3 km/h (3 Bft)
01.07.2017 10:03 15,8 °C 15,8 °C 68 % 1011,5 hPa 0,0 mm 11,8 km/h (2 Bft) W 266 ° 1 min 0,000 mm 4,7 UV-I 680 W/m² 9,9 °C 15,8 °C 14,5 km/h (3 Bft)
01.07.2017 10:04 15,9 °C 15,9 °C 72 % 1011,5 hPa 0,0 mm 9,4 km/h (2 Bft) W-NW 284 ° 1 min 0,000 mm 4,7 UV-I 687 W/m² 10,9 °C 15,9 °C 16,1 km/h (3 Bft)
01.07.2017 10:05 16,0 °C 16,0 °C 67 % 1011,5 hPa 0,0 mm 7,8 km/h (2 Bft) W 281 ° 1 min 0,000 mm 4,8 UV-I 694 W/m² 9,9 °C 16,0 °C 12,9 km/h (3 Bft)
01.07.2017 10:06 16,0 °C 16,0 °C 68 % 1011,5 hPa 0,0 mm 8,5 km/h (2 Bft) W-NW 298 ° 1 min 0,000 mm 4,8 UV-I 701 W/m² 10,1 °C 16,0 °C 12,9 km/h (3 Bft)
01.07.2017 10:07 16,0 °C 16,1 °C 67 % 1011,5 hPa 0,0 mm 15,2 km/h (3 Bft) W 273 ° 1 min 0,000 mm 4,8 UV-I 705 W/m² 9,9 °C 16,0 °C 25,7 km/h (4 Bft)
01.07.2017 10:08 16,1 °C 16,1 °C 68 % 1011,5 hPa 0,0 mm 12,1 km/h (2 Bft) W 265 ° 1 min 0,000 mm 4,9 UV-I 710 W/m² 10,2 °C 16,1 °C 16,1 km/h (3 Bft)
01.07.2017 10:09 16,1 °C 16,1 °C 66 % 1011,5 hPa 0,0 mm 12,9 km/h (3 Bft) W-SW 242 ° 1 min 0,000 mm 4,9 UV-I 710 W/m² 9,7 °C 16,1 °C 19,3 km/h (3 Bft)
01.07.2017 10:10 16,1 °C 16,1 °C 66 % 1011,5 hPa 0,0 mm 12,2 km/h (2 Bft) W-NW 302 ° 1 min 0,000 mm 4,8 UV-I 705 W/m² 9,7 °C 16,1 °C 17,7 km/h (3 Bft)
01.07.2017 10:11 16,1 °C 16,1 °C 68 % 1011,5 hPa 0,0 mm 8,9 km/h (2 Bft) W-SW 249 ° 1 min 0,000 mm 4,9 UV-I 703 W/m² 10,2 °C 16,1 °C 14,5 km/h (3 Bft)
01.07.2017 10:12 16,2 °C 16,2 °C 69 % 1011,5 hPa 0,0 mm 12,1 km/h (2 Bft) W-NW 296 ° 1 min 0,000 mm 4,9 UV-I 705 W/m² 10,5 °C 16,2 °C 19,3 km/h (3 Bft)
01.07.2017 10:13 16,3 °C 16,3 °C 68 % 1011,5 hPa 0,0 mm 15,3 km/h (3 Bft) W-NW 292 ° 1 min 0,000 mm 4,9 UV-I 710 W/m² 10,4 °C 16,3 °C 22,5 km/h (4 Bft)
01.07.2017 10:14 16,3 °C 16,3 °C 67 % 1011,5 hPa 0,0 mm 13,3 km/h (3 Bft) W-NW 288 ° 1 min 0,000 mm 4,9 UV-I 717 W/m² 10,2 °C 16,3 °C 19,3 km/h (3 Bft)
01.07.2017 10:15 16,4 °C 16,4 °C 68 % 1011,5 hPa 0,0 mm 8,8 km/h (2 Bft) W-NW 285 ° 1 min 0,000 mm 5,0 UV-I 729 W/m² 10,5 °C 16,4 °C 14,5 km/h (3 Bft)
01.07.2017 10:16 16,3 °C 16,4 °C 67 % 1011,5 hPa 0,0 mm 12,7 km/h (3 Bft) W-SW 248 ° 1 min 0,000 mm 2,2 UV-I 733 W/m² 10,2 °C 16,3 °C 22,5 km/h (4 Bft)
01.07.2017 10:17 16,3 °C 16,3 °C 66 % 1011,5 hPa 0,0 mm 13,3 km/h (3 Bft) W-NW 288 ° 1 min 0,000 mm 5,0 UV-I 721 W/m² 9,9 °C 16,3 °C 20,9 km/h (4 Bft)
01.07.2017 10:18 16,3 °C 16,3 °C 66 % 1011,5 hPa 0,0 mm 12,8 km/h (3 Bft) W-SW 252 ° 1 min 0,000 mm 5,0 UV-I 719 W/m² 9,9 °C 16,3 °C 17,7 km/h (3 Bft)
01.07.2017 10:19 16,3 °C 16,3 °C 66 % 1011,5 hPa 0,0 mm 13,2 km/h (3 Bft) W-NW 289 ° 1 min 0,000 mm 5,0 UV-I 726 W/m² 9,9 °C 16,3 °C 20,9 km/h (4 Bft)
01.07.2017 10:20 16,2 °C 16,3 °C 65 % 1011,5 hPa 0,0 mm 14,1 km/h (3 Bft) W-SW 242 ° 1 min 0,000 mm 5,0 UV-I 715 W/m² 9,6 °C 16,2 °C 20,9 km/h (4 Bft)
01.07.2017 10:21 16,2 °C 16,2 °C 66 % 1011,5 hPa 0,0 mm 12,9 km/h (3 Bft) W 276 ° 1 min 0,000 mm 5,1 UV-I 717 W/m² 9,8 °C 16,2 °C 19,3 km/h (3 Bft)
01.07.2017 10:22 16,2 °C 16,3 °C 67 % 1011,5 hPa 0,0 mm 16,7 km/h (3 Bft) NW 324 ° 1 min 0,000 mm 5,1 UV-I 717 W/m² 10,1 °C 16,2 °C 22,5 km/h (4 Bft)
01.07.2017 10:23 16,2 °C 16,3 °C 65 % 1011,5 hPa 0,0 mm 12,0 km/h (2 Bft) NW 323 ° 1 min 0,000 mm 5,1 UV-I 721 W/m² 9,6 °C 16,2 °C 17,7 km/h (3 Bft)
01.07.2017 10:24 16,1 °C 16,2 °C 65 % 1011,5 hPa 0,0 mm 7,2 km/h (2 Bft) W-NW 288 ° 1 min 0,000 mm 4,9 UV-I 635 W/m² 9,5 °C 16,1 °C 11,3 km/h (2 Bft)
01.07.2017 10:25 16,1 °C 16,2 °C 67 % 1011,5 hPa 0,0 mm 10,7 km/h (2 Bft) NW 304 ° 1 min 0,000 mm 5,2 UV-I 735 W/m² 10,0 °C 16,1 °C 12,9 km/h (3 Bft)
01.07.2017 10:26 16,1 °C 16,1 °C 64 % 1011,5 hPa 0,0 mm 8,9 km/h (2 Bft) W-NW 294 ° 1 min 0,000 mm 5,3 UV-I 747 W/m² 9,3 °C 16,1 °C 16,1 km/h (3 Bft)
01.07.2017 10:27 16,1 °C 16,1 °C 65 % 1011,5 hPa 0,0 mm 12,7 km/h (3 Bft) NW 307 ° 1 min 0,000 mm 5,4 UV-I 809 W/m² 9,5 °C 16,1 °C 16,1 km/h (3 Bft)
01.07.2017 10:28 16,1 °C 16,1 °C 67 % 1011,4 hPa 0,0 mm 16,2 km/h (3 Bft) NW 325 ° 1 min 0,000 mm 5,5 UV-I 809 W/m² 10,0 °C 16,1 °C 24,1 km/h (4 Bft)
01.07.2017 10:29 16,1 °C 16,2 °C 68 % 1011,5 hPa 0,0 mm 12,7 km/h (3 Bft) NW 319 ° 1 min 0,000 mm 2,5 UV-I 809 W/m² 10,2 °C 16,1 °C 19,3 km/h (3 Bft)
01.07.2017 10:30 16,1 °C 16,1 °C 65 % 1011,5 hPa 0,0 mm 10,8 km/h (2 Bft) W 279 ° 1 min 0,000 mm 5,4 UV-I 809 W/m² 9,5 °C 16,1 °C 17,7 km/h (3 Bft)
01.07.2017 10:31 16,0 °C 16,1 °C 65 % 1011,5 hPa 0,0 mm 8,1 km/h (2 Bft) NW 309 ° 1 min 0,000 mm 5,4 UV-I 779 W/m² 9,4 °C 16,0 °C 12,9 km/h (3 Bft)
01.07.2017 10:32 16,1 °C 16,1 °C 68 % 1011,5 hPa 0,0 mm 9,1 km/h (2 Bft) W-NW 292 ° 1 min 0,000 mm 5,5 UV-I 789 W/m² 10,2 °C 16,1 °C 12,9 km/h (3 Bft)
01.07.2017 10:33 16,2 °C 16,2 °C 66 % 1011,5 hPa 0,0 mm 9,0 km/h (2 Bft) W-SW 254 ° 1 min 0,000 mm 5,5 UV-I 782 W/m² 9,8 °C 16,2 °C 12,9 km/h (3 Bft)
01.07.2017 10:34 16,4 °C 16,4 °C 69 % 1011,5 hPa 0,0 mm 7,5 km/h (2 Bft) NW 308 ° 1 min 0,000 mm 5,7 UV-I 814 W/m² 10,7 °C 16,4 °C 11,3 km/h (2 Bft)
01.07.2017 10:35 16,7 °C 16,7 °C 70 % 1011,5 hPa 0,0 mm 9,0 km/h (2 Bft) W-SW 247 ° 1 min 0,000 mm 5,6 UV-I 819 W/m² 11,2 °C 16,7 °C 19,3 km/h (3 Bft)
01.07.2017 10:36 16,9 °C 16,9 °C 70 % 1011,5 hPa 0,0 mm 13,3 km/h (3 Bft) W-SW 248 ° 1 min 0,000 mm 5,6 UV-I 810 W/m² 11,4 °C 16,9 °C 17,7 km/h (3 Bft)
01.07.2017 10:37 16,9 °C 16,9 °C 65 % 1011,5 hPa 0,0 mm 12,7 km/h (3 Bft) W-SW 253 ° 1 min 0,000 mm 5,7 UV-I 810 W/m² 10,3 °C 16,9 °C 22,5 km/h (4 Bft)
01.07.2017 10:38 16,9 °C 16,9 °C 65 % 1011,5 hPa 0,0 mm 15,7 km/h (3 Bft) NW 325 ° 1 min 0,000 mm 5,8 UV-I 840 W/m² 10,3 °C 16,9 °C 20,9 km/h (4 Bft)
01.07.2017 10:39 16,9 °C 16,9 °C 66 % 1011,5 hPa 0,0 mm 14,2 km/h (3 Bft) W 267 ° 1 min 0,000 mm 5,8 UV-I 861 W/m² 10,5 °C 16,9 °C 17,7 km/h (3 Bft)
01.07.2017 10:40 16,8 °C 16,9 °C 64 % 1011,5 hPa 0,0 mm 13,5 km/h (3 Bft) W-NW 298 ° 1 min 0,000 mm 5,9 UV-I 856 W/m² 10,0 °C 16,8 °C 25,7 km/h (4 Bft)
01.07.2017 10:41 16,7 °C 16,8 °C 65 % 1011,6 hPa 0,0 mm 14,1 km/h (3 Bft) W-NW 294 ° 1 min 0,000 mm 5,8 UV-I 902 W/m² 10,1 °C 16,7 °C 19,3 km/h (3 Bft)
01.07.2017 10:42 16,7 °C 16,7 °C 63 % 1011,6 hPa 0,0 mm 15,9 km/h (3 Bft) W 276 ° 1 min 0,000 mm 5,9 UV-I 863 W/m² 9,6 °C 16,7 °C 20,9 km/h (4 Bft)
01.07.2017 10:43 16,7 °C 16,7 °C 64 % 1011,6 hPa 0,0 mm 13,9 km/h (3 Bft) W-NW 288 ° 1 min 0,000 mm 5,9 UV-I 874 W/m² 9,9 °C 16,7 °C 16,1 km/h (3 Bft)
01.07.2017 10:44 16,8 °C 16,8 °C 65 % 1011,6 hPa 0,0 mm 18,8 km/h (3 Bft) W-NW 299 ° 1 min 0,000 mm 6,0 UV-I 888 W/m² 10,2 °C 16,8 °C 27,4 km/h (4 Bft)
01.07.2017 10:45 16,8 °C 16,8 °C 62 % 1011,7 hPa 0,0 mm 15,3 km/h (3 Bft) W 271 ° 1 min 0,000 mm 6,0 UV-I 879 W/m² 9,5 °C 16,8 °C 25,7 km/h (4 Bft)
01.07.2017 10:46 16,8 °C 16,8 °C 62 % 1011,5 hPa 0,0 mm 11,7 km/h (2 Bft) W-NW 284 ° 1 min 0,000 mm 2,7 UV-I 879 W/m² 9,5 °C 16,8 °C 17,7 km/h (3 Bft)
01.07.2017 10:47 16,8 °C 16,8 °C 65 % 1011,5 hPa 0,0 mm 12,1 km/h (2 Bft) W 268 ° 1 min 0,000 mm 5,9 UV-I 879 W/m² 10,2 °C 16,8 °C 17,7 km/h (3 Bft)
01.07.2017 10:48 16,7 °C 16,8 °C 64 % 1011,5 hPa 0,0 mm 10,1 km/h (2 Bft) NW 309 ° 1 min 0,000 mm 5,9 UV-I 849 W/m² 9,9 °C 16,7 °C 12,9 km/h (3 Bft)
01.07.2017 10:49 16,8 °C 16,8 °C 65 % 1011,5 hPa 0,0 mm 9,0 km/h (2 Bft) W-SW 257 ° 1 min 0,000 mm 6,0 UV-I 872 W/m² 10,2 °C 16,8 °C 16,1 km/h (3 Bft)
01.07.2017 10:50 16,8 °C 16,8 °C 65 % 1011,5 hPa 0,0 mm 12,0 km/h (2 Bft) W 276 ° 1 min 0,000 mm 3,2 UV-I 872 W/m² 10,2 °C 16,8 °C 17,7 km/h (3 Bft)
01.07.2017 10:51 16,7 °C 16,8 °C 65 % 1011,5 hPa 0,0 mm 11,2 km/h (2 Bft) W 262 ° 1 min 0,000 mm 5,7 UV-I 896 W/m² 10,1 °C 16,7 °C 16,1 km/h (3 Bft)
01.07.2017 10:52 16,8 °C 16,8 °C 65 % 1011,5 hPa 0,0 mm 16,9 km/h (3 Bft) NW 323 ° 1 min 0,000 mm 6,3 UV-I 930 W/m² 10,2 °C 16,8 °C 24,1 km/h (4 Bft)
01.07.2017 10:53 16,9 °C 16,9 °C 67 % 1011,6 hPa 0,0 mm 6,3 km/h (2 Bft) W-NW 288 ° 1 min 0,000 mm 6,3 UV-I 940 W/m² 10,7 °C 16,9 °C 12,9 km/h (3 Bft)
01.07.2017 10:54 16,9 °C 16,9 °C 66 % 1011,5 hPa 0,0 mm 10,2 km/h (2 Bft) W-NW 284 ° 1 min 0,000 mm 6,4 UV-I 940 W/m² 10,5 °C 16,9 °C 12,9 km/h (3 Bft)
01.07.2017 10:55 16,8 °C 16,9 °C 64 % 1011,5 hPa 0,0 mm 13,9 km/h (3 Bft) W-NW 287 ° 1 min 0,000 mm 6,1 UV-I 940 W/m² 10,0 °C 16,8 °C 20,9 km/h (4 Bft)
01.07.2017 10:56 16,7 °C 16,8 °C 63 % 1011,5 hPa 0,0 mm 11,7 km/h (2 Bft) W-NW 296 ° 1 min 0,000 mm 5,6 UV-I 940 W/m² 9,6 °C 16,7 °C 16,1 km/h (3 Bft)
01.07.2017 10:57 16,7 °C 16,8 °C 65 % 1011,5 hPa 0,0 mm 7,1 km/h (2 Bft) W-NW 295 ° 1 min 0,000 mm 6,3 UV-I 956 W/m² 10,1 °C 16,7 °C 11,3 km/h (2 Bft)
01.07.2017 10:58 16,7 °C 16,7 °C 67 % 1011,5 hPa 0,0 mm 10,4 km/h (2 Bft) W 281 ° 1 min 0,000 mm 2,9 UV-I 965 W/m² 10,5 °C 16,7 °C 19,3 km/h (3 Bft)
01.07.2017 10:59 16,7 °C 16,7 °C 66 % 1011,5 hPa 0,0 mm 9,8 km/h (2 Bft) W-NW 303 ° 1 min 0,000 mm 6,4 UV-I 949 W/m² 10,3 °C 16,7 °C 19,3 km/h (3 Bft)
01.07.2017 11:00 16,8 °C 16,8 °C 68 % 1011,5 hPa 0,0 mm 8,3 km/h (2 Bft) N-NW 327 ° 1 min 0,000 mm 6,4 UV-I 946 W/m² 10,9 °C 16,8 °C 14,5 km/h (3 Bft)
01.07.2017 11:01 16,9 °C 16,9 °C 65 % 1011,5 hPa 0,0 mm 13,9 km/h (3 Bft) NW 304 ° 1 min 0,457 mm 2,8 UV-I 946 W/m² 10,3 °C 16,9 °C 19,3 km/h (3 Bft)
01.07.2017 11:02 16,8 °C 16,9 °C 64 % 1011,5 hPa 0,0 mm 9,6 km/h (2 Bft) W-NW 292 ° 0 min 0,000 mm 2,8 UV-I 179 W/m² 10,0 °C 16,8 °C 14,5 km/h (3 Bft)
01.07.2017 11:03 16,6 °C 16,8 °C 66 % 1011,5 hPa 0,0 mm 7,2 km/h (2 Bft) W 277 ° 0 min 0,000 mm 4,5 UV-I 179 W/m² 10,2 °C 16,6 °C 14,5 km/h (3 Bft)
01.07.2017 11:04 16,7 °C 16,7 °C 68 % 1011,5 hPa 0,0 mm 6,6 km/h (2 Bft) NW 312 ° 1 min 0,000 mm 6,3 UV-I 886 W/m² 10,8 °C 16,7 °C 12,9 km/h (3 Bft)
01.07.2017 11:05 16,7 °C 16,7 °C 68 % 1011,4 hPa 0,0 mm 7,2 km/h (2 Bft) W-NW 296 ° 1 min 0,000 mm 6,5 UV-I 911 W/m² 10,8 °C 16,7 °C 12,9 km/h (3 Bft)
01.07.2017 11:06 16,8 °C 16,8 °C 65 % 1011,4 hPa 0,0 mm 10,1 km/h (2 Bft) W-NW 300 ° 1 min 0,000 mm 6,6 UV-I 951 W/m² 10,2 °C 16,8 °C 12,9 km/h (3 Bft)
01.07.2017 11:07 16,9 °C 16,9 °C 67 % 1011,5 hPa 0,0 mm 5,3 km/h (1 Bft) W 281 ° 1 min 0,000 mm 6,7 UV-I 958 W/m² 10,7 °C 16,9 °C 9,7 km/h (2 Bft)
01.07.2017 11:08 17,0 °C 17,0 °C 66 % 1011,5 hPa 0,0 mm 8,8 km/h (2 Bft) W-NW 296 ° 1 min 0,000 mm 6,7 UV-I 976 W/m² 10,6 °C 17,0 °C 12,9 km/h (3 Bft)
01.07.2017 11:09 17,2 °C 17,2 °C 67 % 1011,5 hPa 0,0 mm 11,5 km/h (2 Bft) W-NW 288 ° 1 min 0,000 mm 6,3 UV-I 976 W/m² 11,0 °C 17,2 °C 14,5 km/h (3 Bft)
01.07.2017 11:10 17,2 °C 17,2 °C 67 % 1011,5 hPa 0,0 mm 12,6 km/h (3 Bft) W-NW 297 ° 1 min 0,000 mm 2,6 UV-I 976 W/m² 11,0 °C 17,2 °C 16,1 km/h (3 Bft)
01.07.2017 11:11 17,1 °C 17,2 °C 65 % 1011,5 hPa 0,0 mm 9,6 km/h (2 Bft) W 261 ° 0 min 0,000 mm 2,7 UV-I 185 W/m² 10,5 °C 17,1 °C 17,7 km/h (3 Bft)
01.07.2017 11:12 16,8 °C 17,1 °C 64 % 1011,5 hPa 0,0 mm 12,9 km/h (3 Bft) W-SW 255 ° 0 min 0,000 mm 4,5 UV-I 258 W/m² 10,0 °C 16,8 °C 17,7 km/h (3 Bft)
01.07.2017 11:13 16,6 °C 16,8 °C 67 % 1011,5 hPa 0,0 mm 9,0 km/h (2 Bft) W 274 ° 0 min 0,000 mm 6,6 UV-I 258 W/m² 10,4 °C 16,6 °C 12,9 km/h (3 Bft)
01.07.2017 11:14 16,6 °C 16,6 °C 66 % 1011,4 hPa 0,0 mm 13,7 km/h (3 Bft) W-SW 255 ° 0 min 0,000 mm 4,0 UV-I 220 W/m² 10,2 °C 16,6 °C 20,9 km/h (4 Bft)
01.07.2017 11:15 16,4 °C 16,6 °C 64 % 1011,4 hPa 0,0 mm 13,8 km/h (3 Bft) W-NW 292 ° 0 min 0,000 mm 2,5 UV-I 163 W/m² 9,6 °C 16,4 °C 17,7 km/h (3 Bft)
01.07.2017 11:16 16,3 °C 16,4 °C 65 % 1011,5 hPa 0,0 mm 11,7 km/h (2 Bft) NW 308 ° 0 min 0,000 mm 2,4 UV-I 149 W/m² 9,7 °C 16,3 °C 16,1 km/h (3 Bft)
01.07.2017 11:17 16,1 °C 16,3 °C 65 % 1011,5 hPa 0,0 mm 10,1 km/h (2 Bft) W-SW 252 ° 0 min 0,000 mm 2,3 UV-I 107 W/m² 9,5 °C 16,1 °C 14,5 km/h (3 Bft)
01.07.2017 11:18 15,9 °C 16,1 °C 66 % 1011,5 hPa 0,0 mm 10,8 km/h (2 Bft) W-NW 286 ° 0 min 0,000 mm 6,3 UV-I 107 W/m² 9,6 °C 15,9 °C 16,1 km/h (3 Bft)
01.07.2017 11:19 15,9 °C 15,9 °C 67 % 1011,5 hPa 0,0 mm 13,5 km/h (3 Bft) W-SW 243 ° 1 min 0,000 mm 6,3 UV-I 847 W/m² 9,8 °C 15,9 °C 20,9 km/h (4 Bft)
01.07.2017 11:20 16,1 °C 16,1 °C 67 % 1011,5 hPa 0,0 mm 9,9 km/h (2 Bft) W 264 ° 1 min 0,000 mm 6,3 UV-I 833 W/m² 10,0 °C 16,1 °C 12,9 km/h (3 Bft)
01.07.2017 11:21 16,2 °C 16,2 °C 66 % 1011,5 hPa 0,0 mm 7,6 km/h (2 Bft) W-NW 288 ° 1 min 0,000 mm 6,3 UV-I 840 W/m² 9,8 °C 16,2 °C 12,9 km/h (3 Bft)
01.07.2017 11:22 16,4 °C 16,4 °C 69 % 1011,4 hPa 0,0 mm 7,1 km/h (2 Bft) W-NW 287 ° 1 min 0,000 mm 6,4 UV-I 847 W/m² 10,7 °C 16,4 °C 11,3 km/h (2 Bft)
01.07.2017 11:23 16,7 °C 16,7 °C 69 % 1011,5 hPa 0,0 mm 8,7 km/h (2 Bft) W 263 ° 1 min 0,000 mm 6,5 UV-I 867 W/m² 11,0 °C 16,7 °C 12,9 km/h (3 Bft)
01.07.2017 11:24 16,9 °C 16,9 °C 67 % 1011,5 hPa 0,0 mm 13,1 km/h (3 Bft) W-NW 294 ° 1 min 0,000 mm 6,6 UV-I 902 W/m² 10,7 °C 16,9 °C 19,3 km/h (3 Bft)
01.07.2017 11:25 17,1 °C 17,1 °C 65 % 1011,5 hPa 0,0 mm 10,7 km/h (2 Bft) W-NW 294 ° 1 min 0,000 mm 6,5 UV-I 902 W/m² 10,5 °C 17,1 °C 16,1 km/h (3 Bft)
01.07.2017 11:26 16,9 °C 17,1 °C 64 % 1011,5 hPa 0,0 mm 15,0 km/h (3 Bft) W 273 ° 1 min 0,000 mm 2,7 UV-I 902 W/m² 10,0 °C 16,9 °C 19,3 km/h (3 Bft)
01.07.2017 11:27 16,9 °C 16,9 °C 63 % 1011,4 hPa 0,0 mm 9,6 km/h (2 Bft) W-SW 251 ° 1 min 0,000 mm 6,4 UV-I 844 W/m² 9,8 °C 16,9 °C 16,1 km/h (3 Bft)
01.07.2017 11:28 16,9 °C 16,9 °C 64 % 1011,4 hPa 0,0 mm 6,1 km/h (2 Bft) W-NW 302 ° 1 min 0,000 mm 6,5 UV-I 846 W/m² 10,0 °C 16,9 °C 9,7 km/h (2 Bft)
01.07.2017 11:29 17,0 °C 17,0 °C 65 % 1011,5 hPa 0,0 mm 12,1 km/h (2 Bft) W 278 ° 1 min 0,000 mm 6,5 UV-I 851 W/m² 10,4 °C 17,0 °C 19,3 km/h (3 Bft)
01.07.2017 11:30 17,1 °C 17,1 °C 66 % 1011,4 hPa 0,0 mm 10,1 km/h (2 Bft) W 265 ° 1 min 0,000 mm 6,5 UV-I 858 W/m² 10,7 °C 17,1 °C 12,9 km/h (3 Bft)
01.07.2017 11:31 17,2 °C 17,2 °C 66 % 1011,4 hPa 0,0 mm 10,4 km/h (2 Bft) W 278 ° 1 min 0,000 mm 6,6 UV-I 865 W/m² 10,8 °C 17,2 °C 14,5 km/h (3 Bft)
01.07.2017 11:32 17,3 °C 17,3 °C 65 % 1011,4 hPa 0,0 mm 13,7 km/h (3 Bft) W-NW 290 ° 1 min 0,000 mm 6,7 UV-I 884 W/m² 10,7 °C 17,3 °C 17,7 km/h (3 Bft)
01.07.2017 11:33 17,3 °C 17,3 °C 65 % 1011,4 hPa 0,0 mm 10,7 km/h (2 Bft) NW 314 ° 1 min 0,000 mm 6,5 UV-I 912 W/m² 10,7 °C 17,3 °C 19,3 km/h (3 Bft)
01.07.2017 11:34 17,2 °C 17,3 °C 63 % 1011,5 hPa 0,0 mm 14,1 km/h (3 Bft) W-NW 282 ° 1 min 0,000 mm 2,6 UV-I 912 W/m² 10,1 °C 17,2 °C 20,9 km/h (4 Bft)
01.07.2017 11:35 17,2 °C 17,2 °C 65 % 1011,5 hPa 0,0 mm 7,8 km/h (2 Bft) W 269 ° 1 min 0,000 mm 6,6 UV-I 912 W/m² 10,6 °C 17,2 °C 12,9 km/h (3 Bft)
01.07.2017 11:36 17,2 °C 17,2 °C 64 % 1011,4 hPa 0,0 mm 10,3 km/h (2 Bft) SW 236 ° 1 min 0,000 mm 6,8 UV-I 912 W/m² 10,3 °C 17,2 °C 17,7 km/h (3 Bft)
01.07.2017 11:37 17,2 °C 17,2 °C 64 % 1011,5 hPa 0,0 mm 14,3 km/h (3 Bft) W 278 ° 1 min 0,000 mm 6,8 UV-I 905 W/m² 10,3 °C 17,2 °C 24,1 km/h (4 Bft)
01.07.2017 11:38 17,2 °C 17,2 °C 63 % 1011,5 hPa 0,0 mm 13,5 km/h (3 Bft) W 266 ° 1 min 0,000 mm 6,7 UV-I 872 W/m² 10,1 °C 17,2 °C 22,5 km/h (4 Bft)
01.07.2017 11:39 17,2 °C 17,2 °C 63 % 1011,5 hPa 0,0 mm 17,5 km/h (3 Bft) W 265 ° 1 min 0,000 mm 6,7 UV-I 881 W/m² 10,1 °C 17,2 °C 24,1 km/h (4 Bft)
01.07.2017 11:40 17,2 °C 17,2 °C 64 % 1011,5 hPa 0,0 mm 18,2 km/h (3 Bft) W-SW 253 ° 1 min 0,000 mm 6,8 UV-I 902 W/m² 10,3 °C 17,2 °C 24,1 km/h (4 Bft)
01.07.2017 11:41 17,1 °C 17,2 °C 62 % 1011,5 hPa 0,0 mm 12,3 km/h (3 Bft) W-NW 288 ° 1 min 0,000 mm 7,0 UV-I 930 W/m² 9,8 °C 17,1 °C 17,7 km/h (3 Bft)
01.07.2017 11:42 17,1 °C 17,1 °C 65 % 1011,5 hPa 0,0 mm 11,2 km/h (2 Bft) W-NW 290 ° 1 min 0,000 mm 6,9 UV-I 954 W/m² 10,5 °C 17,1 °C 17,7 km/h (3 Bft)
01.07.2017 11:43 17,1 °C 17,1 °C 65 % 1011,5 hPa 0,0 mm 11,8 km/h (2 Bft) NW 323 ° 1 min 0,000 mm 4,8 UV-I 954 W/m² 10,5 °C 17,1 °C 22,5 km/h (4 Bft)
01.07.2017 11:44 17,1 °C 17,1 °C 63 % 1011,4 hPa 0,0 mm 16,0 km/h (3 Bft) W-NW 295 ° 1 min 0,000 mm 2,7 UV-I 954 W/m² 10,0 °C 17,1 °C 27,4 km/h (4 Bft)
01.07.2017 11:45 16,9 °C 17,1 °C 62 % 1011,5 hPa 0,0 mm 9,7 km/h (2 Bft) W 273 ° 1 min 0,000 mm 6,9 UV-I 954 W/m² 9,6 °C 16,9 °C 19,3 km/h (3 Bft)
01.07.2017 11:46 16,9 °C 16,9 °C 63 % 1011,5 hPa 0,2 mm 10,9 km/h (2 Bft) W 263 ° 1 min 0,000 mm 6,9 UV-I 921 W/m² 9,8 °C 16,9 °C 22,5 km/h (4 Bft)
01.07.2017 11:47 16,9 °C 16,9 °C 64 % 1011,5 hPa 0,0 mm 20,7 km/h (4 Bft) W-NW 284 ° 1 min 0,000 mm 6,9 UV-I 916 W/m² 10,0 °C 16,9 °C 27,4 km/h (4 Bft)
01.07.2017 11:48 16,9 °C 16,9 °C 61 % 1011,5 hPa 0,0 mm 10,6 km/h (2 Bft) W 271 ° 1 min 0,000 mm 6,9 UV-I 868 W/m² 9,3 °C 16,9 °C 14,5 km/h (3 Bft)
01.07.2017 11:49 16,8 °C 16,9 °C 62 % 1011,5 hPa 0,0 mm 11,0 km/h (2 Bft) W-NW 299 ° 1 min 0,000 mm 6,9 UV-I 907 W/m² 9,5 °C 16,8 °C 17,7 km/h (3 Bft)
01.07.2017 11:50 16,9 °C 16,9 °C 63 % 1011,4 hPa 0,0 mm 12,1 km/h (2 Bft) W-NW 299 ° 1 min 0,000 mm 5,8 UV-I 907 W/m² 9,8 °C 16,9 °C 17,7 km/h (3 Bft)
01.07.2017 11:51 16,9 °C 16,9 °C 63 % 1011,4 hPa 0,0 mm 7,1 km/h (2 Bft) W-NW 287 ° 1 min 0,000 mm 6,9 UV-I 907 W/m² 9,8 °C 16,9 °C 14,5 km/h (3 Bft)
01.07.2017 11:52 17,0 °C 17,1 °C 66 % 1011,5 hPa 0,0 mm 11,1 km/h (2 Bft) W 263 ° 1 min 0,000 mm 7,0 UV-I 911 W/m² 10,6 °C 17,0 °C 20,9 km/h (4 Bft)
01.07.2017 11:53 17,1 °C 17,1 °C 67 % 1011,5 hPa 0,0 mm 14,0 km/h (3 Bft) W-NW 302 ° 1 min 0,000 mm 7,0 UV-I 907 W/m² 10,9 °C 17,1 °C 20,9 km/h (4 Bft)
01.07.2017 11:54 17,2 °C 17,2 °C 65 % 1011,5 hPa 0,0 mm 8,4 km/h (2 Bft) W 276 ° 1 min 0,000 mm 7,0 UV-I 904 W/m² 10,6 °C 17,2 °C 14,5 km/h (3 Bft)
01.07.2017 11:55 17,2 °C 17,2 °C 62 % 1011,5 hPa 0,0 mm 18,8 km/h (3 Bft) W-NW 284 ° 1 min 0,000 mm 6,9 UV-I 891 W/m² 9,9 °C 17,2 °C 25,7 km/h (4 Bft)
01.07.2017 11:56 17,3 °C 17,3 °C 64 % 1011,5 hPa 0,0 mm 18,2 km/h (3 Bft) NW 306 ° 1 min 0,000 mm 7,0 UV-I 895 W/m² 10,4 °C 17,3 °C 29,0 km/h (5 Bft)
01.07.2017 11:57 17,3 °C 17,3 °C 62 % 1011,4 hPa 0,0 mm 13,3 km/h (3 Bft) W-SW 254 ° 1 min 0,000 mm 7,0 UV-I 898 W/m² 9,9 °C 17,3 °C 24,1 km/h (4 Bft)
01.07.2017 11:58 17,3 °C 17,3 °C 65 % 1011,4 hPa 0,0 mm 12,5 km/h (3 Bft) NW 306 ° 1 min 0,000 mm 7,0 UV-I 895 W/m² 10,7 °C 17,3 °C 19,3 km/h (3 Bft)
01.07.2017 11:59 17,3 °C 17,3 °C 62 % 1011,4 hPa 0,0 mm 18,0 km/h (3 Bft) W-NW 284 ° 1 min 0,000 mm 7,0 UV-I 896 W/m² 9,9 °C 17,3 °C 24,1 km/h (4 Bft)
01.07.2017 12:00 17,2 °C 17,3 °C 59 % 1011,5 hPa 0,0 mm 14,2 km/h (3 Bft) N-NW 331 ° 1 min 0,000 mm 7,0 UV-I 900 W/m² 9,1 °C 17,2 °C 22,5 km/h (4 Bft)
01.07.2017 12:01 17,1 °C 17,2 °C 62 % 1011,5 hPa 0,0 mm 12,7 km/h (3 Bft) NW 304 ° 1 min 0,457 mm 7,0 UV-I 888 W/m² 9,8 °C 17,1 °C 17,7 km/h (3 Bft)
01.07.2017 12:02 17,2 °C 17,2 °C 64 % 1011,5 hPa 0,0 mm 13,5 km/h (3 Bft) W-NW 290 ° 1 min 0,000 mm 7,0 UV-I 886 W/m² 10,3 °C 17,2 °C 20,9 km/h (4 Bft)
01.07.2017 12:03 17,2 °C 17,2 °C 62 % 1011,5 hPa 0,0 mm 11,9 km/h (2 Bft) W-NW 283 ° 1 min 0,000 mm 7,0 UV-I 888 W/m² 9,9 °C 17,2 °C 17,7 km/h (3 Bft)
01.07.2017 12:04 17,3 °C 17,3 °C 65 % 1011,4 hPa 0,0 mm 11,8 km/h (2 Bft) W 276 ° 1 min 0,000 mm 7,0 UV-I 889 W/m² 10,7 °C 17,3 °C 19,3 km/h (3 Bft)
01.07.2017 12:05 17,6 °C 17,6 °C 62 % 1011,4 hPa 0,0 mm 15,0 km/h (3 Bft) W 263 ° 1 min 0,000 mm 7,0 UV-I 891 W/m² 10,2 °C 17,6 °C 22,5 km/h (4 Bft)
01.07.2017 12:06 17,5 °C 17,6 °C 59 % 1011,5 hPa 0,0 mm 17,4 km/h (3 Bft) W 274 ° 1 min 0,000 mm 7,0 UV-I 893 W/m² 9,4 °C 17,5 °C 24,1 km/h (4 Bft)
01.07.2017 12:07 17,4 °C 17,5 °C 61 % 1011,5 hPa 0,0 mm 16,6 km/h (3 Bft) W-NW 294 ° 1 min 0,000 mm 7,1 UV-I 898 W/m² 9,8 °C 17,4 °C 27,4 km/h (4 Bft)
01.07.2017 12:08 17,4 °C 17,4 °C 59 % 1011,5 hPa 0,0 mm 14,9 km/h (3 Bft) W 265 ° 1 min 0,000 mm 7,1 UV-I 905 W/m² 9,3 °C 17,4 °C 20,9 km/h (4 Bft)
01.07.2017 12:09 17,3 °C 17,4 °C 59 % 1011,5 hPa 0,0 mm 13,3 km/h (3 Bft) W-NW 292 ° 1 min 0,000 mm 7,2 UV-I 914 W/m² 9,2 °C 17,3 °C 20,9 km/h (4 Bft)
01.07.2017 12:10 17,3 °C 17,3 °C 63 % 1011,5 hPa 0,0 mm 8,8 km/h (2 Bft) W-SW 252 ° 1 min 0,000 mm 7,2 UV-I 918 W/m² 10,2 °C 17,3 °C 12,9 km/h (3 Bft)
01.07.2017 12:11 17,5 °C 17,5 °C 61 % 1011,5 hPa 0,0 mm 11,7 km/h (2 Bft) NW 304 ° 1 min 0,000 mm 7,2 UV-I 918 W/m² 9,9 °C 17,5 °C 19,3 km/h (3 Bft)
01.07.2017 12:12 17,7 °C 17,7 °C 65 % 1011,4 hPa 0,0 mm 11,3 km/h (2 Bft) W-NW 300 ° 1 min 0,000 mm 7,2 UV-I 918 W/m² 11,0 °C 17,7 °C 17,7 km/h (3 Bft)
01.07.2017 12:13 17,9 °C 17,9 °C 64 % 1011,5 hPa 0,0 mm 13,1 km/h (3 Bft) W-NW 302 ° 1 min 0,000 mm 7,2 UV-I 918 W/m² 11,0 °C 17,9 °C 22,5 km/h (4 Bft)
01.07.2017 12:14 17,9 °C 18,0 °C 62 % 1011,5 hPa 0,0 mm 13,2 km/h (3 Bft) N-NW 327 ° 1 min 0,000 mm 7,2 UV-I 909 W/m² 10,5 °C 17,9 °C 20,9 km/h (4 Bft)
01.07.2017 12:15 17,9 °C 17,9 °C 61 % 1011,5 hPa 0,0 mm 16,6 km/h (3 Bft) W-NW 294 ° 1 min 0,000 mm 7,2 UV-I 907 W/m² 10,3 °C 17,9 °C 22,5 km/h (4 Bft)
01.07.2017 12:16 17,7 °C 17,9 °C 60 % 1011,5 hPa 0,0 mm 11,5 km/h (2 Bft) W-NW 286 ° 1 min 0,000 mm 7,2 UV-I 912 W/m² 9,8 °C 17,7 °C 19,3 km/h (3 Bft)
01.07.2017 12:17 17,7 °C 17,7 °C 63 % 1011,5 hPa 0,0 mm 11,8 km/h (2 Bft) W-NW 303 ° 1 min 0,000 mm 7,3 UV-I 921 W/m² 10,6 °C 17,7 °C 16,1 km/h (3 Bft)
01.07.2017 12:18 17,7 °C 17,7 °C 59 % 1011,5 hPa 0,0 mm 13,5 km/h (3 Bft) W 273 ° 1 min 0,000 mm 7,4 UV-I 939 W/m² 9,6 °C 17,7 °C 17,7 km/h (3 Bft)
01.07.2017 12:19 17,6 °C 17,7 °C 58 % 1011,5 hPa 0,0 mm 11,4 km/h (2 Bft) W-NW 285 ° 1 min 0,000 mm 7,7 UV-I 939 W/m² 9,2 °C 17,6 °C 17,7 km/h (3 Bft)
01.07.2017 12:20 17,6 °C 17,6 °C 61 % 1011,5 hPa 0,0 mm 12,1 km/h (2 Bft) W-SW 242 ° 1 min 0,000 mm 7,4 UV-I 949 W/m² 10,0 °C 17,6 °C 16,1 km/h (3 Bft)
01.07.2017 12:21 17,6 °C 17,6 °C 60 % 1011,4 hPa 0,0 mm 5,1 km/h (1 Bft) W 265 ° 1 min 0,000 mm 7,5 UV-I 953 W/m² 9,7 °C 17,6 °C 11,3 km/h (2 Bft)
01.07.2017 12:22 17,8 °C 17,8 °C 63 % 1011,4 hPa 0,0 mm 11,4 km/h (2 Bft) W-NW 297 ° 1 min 0,000 mm 7,5 UV-I 947 W/m² 10,7 °C 17,8 °C 14,5 km/h (3 Bft)
01.07.2017 12:23 17,8 °C 17,8 °C 58 % 1011,4 hPa 0,0 mm 8,0 km/h (2 Bft) W 264 ° 1 min 0,000 mm 7,4 UV-I 939 W/m² 9,4 °C 17,8 °C 12,9 km/h (3 Bft)
01.07.2017 12:24 17,9 °C 17,9 °C 64 % 1011,4 hPa 0,0 mm 11,5 km/h (2 Bft) W 271 ° 1 min 0,000 mm 7,4 UV-I 921 W/m² 11,0 °C 17,9 °C 17,7 km/h (3 Bft)
01.07.2017 12:25 17,9 °C 17,9 °C 61 % 1011,4 hPa 0,0 mm 10,7 km/h (2 Bft) W 269 ° 1 min 0,000 mm 7,4 UV-I 918 W/m² 10,3 °C 17,9 °C 14,5 km/h (3 Bft)
01.07.2017 12:26 18,1 °C 18,1 °C 61 % 1011,4 hPa 0,0 mm 5,8 km/h (2 Bft) NW 321 ° 1 min 0,000 mm 7,3 UV-I 914 W/m² 10,5 °C 18,1 °C 11,3 km/h (2 Bft)
01.07.2017 12:27 18,1 °C 18,1 °C 59 % 1011,4 hPa 0,0 mm 7,5 km/h (2 Bft) W-NW 300 ° 1 min 0,000 mm 7,3 UV-I 912 W/m² 10,0 °C 18,1 °C 12,9 km/h (3 Bft)
01.07.2017 12:28 18,1 °C 18,1 °C 64 % 1011,4 hPa 0,0 mm 11,5 km/h (2 Bft) NW 323 ° 1 min 0,000 mm 7,3 UV-I 909 W/m² 11,2 °C 18,1 °C 17,7 km/h (3 Bft)
01.07.2017 12:29 18,2 °C 18,2 °C 58 % 1011,4 hPa 0,0 mm 18,1 km/h (3 Bft) W 279 ° 1 min 0,000 mm 7,4 UV-I 911 W/m² 9,8 °C 18,2 °C 25,7 km/h (4 Bft)
01.07.2017 12:30 18,1 °C 18,2 °C 58 % 1011,5 hPa 0,0 mm 13,7 km/h (3 Bft) W-NW 299 ° 1 min 0,000 mm 7,4 UV-I 914 W/m² 9,7 °C 18,1 °C 19,3 km/h (3 Bft)
01.07.2017 12:31 18,0 °C 18,1 °C 59 % 1011,4 hPa 0,0 mm 10,7 km/h (2 Bft) W 268 ° 1 min 0,000 mm 7,4 UV-I 918 W/m² 9,9 °C 18,0 °C 20,9 km/h (4 Bft)
01.07.2017 12:32 18,1 °C 18,1 °C 60 % 1011,5 hPa 0,0 mm 15,2 km/h (3 Bft) W 277 ° 1 min 0,000 mm 7,5 UV-I 925 W/m² 10,2 °C 18,1 °C 19,3 km/h (3 Bft)
01.07.2017 12:33 18,1 °C 18,1 °C 60 % 1011,5 hPa 0,0 mm 13,1 km/h (3 Bft) W 268 ° 1 min 0,000 mm 7,6 UV-I 946 W/m² 10,2 °C 18,1 °C 20,9 km/h (4 Bft)
01.07.2017 12:34 18,1 °C 18,1 °C 59 % 1011,5 hPa 0,0 mm 8,3 km/h (2 Bft) W 267 ° 1 min 0,000 mm 6,0 UV-I 946 W/m² 10,0 °C 18,1 °C 14,5 km/h (3 Bft)
01.07.2017 12:35 18,1 °C 18,1 °C 60 % 1011,4 hPa 0,0 mm 9,6 km/h (2 Bft) W 272 ° 1 min 0,000 mm 7,6 UV-I 946 W/m² 10,2 °C 18,1 °C 19,3 km/h (3 Bft)
01.07.2017 12:36 18,1 °C 18,1 °C 60 % 1011,5 hPa 0,0 mm 13,8 km/h (3 Bft) W 278 ° 1 min 0,000 mm 7,6 UV-I 932 W/m² 10,2 °C 18,1 °C 19,3 km/h (3 Bft)
01.07.2017 12:37 18,1 °C 18,2 °C 55 % 1011,4 hPa 0,0 mm 11,5 km/h (2 Bft) W-NW 302 ° 1 min 0,000 mm 7,6 UV-I 935 W/m² 8,9 °C 18,1 °C 19,3 km/h (3 Bft)
01.07.2017 12:38 18,1 °C 18,1 °C 59 % 1011,4 hPa 0,0 mm 12,5 km/h (3 Bft) W-NW 295 ° 1 min 0,000 mm 7,6 UV-I 932 W/m² 10,0 °C 18,1 °C 17,7 km/h (3 Bft)
01.07.2017 12:39 18,2 °C 18,2 °C 64 % 1011,5 hPa 0,0 mm 9,3 km/h (2 Bft) W-SW 243 ° 1 min 0,000 mm 7,6 UV-I 930 W/m² 11,3 °C 18,2 °C 19,3 km/h (3 Bft)
01.07.2017 12:40 18,3 °C 18,3 °C 60 % 1011,5 hPa 0,0 mm 10,8 km/h (2 Bft) W-SW 249 ° 1 min 0,000 mm 7,6 UV-I 928 W/m² 10,4 °C 18,3 °C 17,7 km/h (3 Bft)
01.07.2017 12:41 18,2 °C 18,3 °C 57 % 1011,4 hPa 0,0 mm 12,6 km/h (3 Bft) NW 323 ° 1 min 0,000 mm 7,6 UV-I 930 W/m² 9,5 °C 18,2 °C 17,7 km/h (3 Bft)
01.07.2017 12:42 18,2 °C 18,3 °C 58 % 1011,5 hPa 0,0 mm 13,9 km/h (3 Bft) NW 323 ° 1 min 0,000 mm 7,6 UV-I 944 W/m² 9,8 °C 18,2 °C 19,3 km/h (3 Bft)
01.07.2017 12:43 18,2 °C 18,2 °C 59 % 1011,5 hPa 0,0 mm 15,3 km/h (3 Bft) W-NW 301 ° 1 min 0,000 mm 7,6 UV-I 956 W/m² 10,1 °C 18,2 °C 20,9 km/h (4 Bft)
01.07.2017 12:44 18,2 °C 18,2 °C 60 % 1011,5 hPa 0,0 mm 10,9 km/h (2 Bft) W 271 ° 1 min 0,000 mm 7,8 UV-I 981 W/m² 10,3 °C 18,2 °C 16,1 km/h (3 Bft)
01.07.2017 12:45 18,1 °C 18,2 °C 58 % 1011,5 hPa 0,0 mm 13,3 km/h (3 Bft) W 267 ° 1 min 0,000 mm 7,8 UV-I 981 W/m² 9,7 °C 18,1 °C 20,9 km/h (4 Bft)
01.07.2017 12:46 17,9 °C 18,1 °C 58 % 1011,5 hPa 0,0 mm 10,1 km/h (2 Bft) W-NW 283 ° 0 min 0,000 mm 3,1 UV-I 172 W/m² 9,5 °C 17,9 °C 19,3 km/h (3 Bft)
01.07.2017 12:47 17,8 °C 17,9 °C 62 % 1011,5 hPa 0,0 mm 7,2 km/h (2 Bft) S-SW 209 ° 0 min 0,000 mm 3,1 UV-I 172 W/m² 10,4 °C 17,8 °C 14,5 km/h (3 Bft)
01.07.2017 12:48 17,8 °C 17,8 °C 62 % 1011,4 hPa 0,0 mm 11,9 km/h (2 Bft) W-SW 238 ° 1 min 0,000 mm 8,0 UV-I 1032 W/m² 10,4 °C 17,8 °C 16,1 km/h (3 Bft)
01.07.2017 12:49 17,9 °C 17,9 °C 61 % 1011,5 hPa 0,0 mm 4,6 km/h (1 Bft) W 277 ° 1 min 0,000 mm 8,0 UV-I 1027 W/m² 10,3 °C 17,9 °C 9,7 km/h (2 Bft)
01.07.2017 12:50 18,1 °C 18,1 °C 62 % 1011,4 hPa 0,0 mm 10,5 km/h (2 Bft) W-NW 289 ° 1 min 0,000 mm 8,1 UV-I 951 W/m² 10,7 °C 18,1 °C 19,3 km/h (3 Bft)
01.07.2017 12:51 18,3 °C 18,3 °C 60 % 1011,5 hPa 0,0 mm 15,1 km/h (3 Bft) W-NW 298 ° 1 min 0,000 mm 8,0 UV-I 1030 W/m² 10,4 °C 18,3 °C 24,1 km/h (4 Bft)
01.07.2017 12:52 18,4 °C 18,4 °C 58 % 1011,5 hPa 0,0 mm 16,8 km/h (3 Bft) W 277 ° 1 min 0,000 mm 8,1 UV-I 1037 W/m² 10,0 °C 18,4 °C 24,1 km/h (4 Bft)
01.07.2017 12:53 18,4 °C 18,4 °C 56 % 1011,5 hPa 0,0 mm 15,2 km/h (3 Bft) SW 234 ° 1 min 0,000 mm 8,2 UV-I 1067 W/m² 9,5 °C 18,4 °C 20,9 km/h (4 Bft)
01.07.2017 12:54 18,3 °C 18,4 °C 58 % 1011,5 hPa 0,0 mm 13,5 km/h (3 Bft) NW 309 ° 1 min 0,000 mm 4,9 UV-I 1067 W/m² 9,9 °C 18,3 °C 17,7 km/h (3 Bft)
01.07.2017 12:55 18,2 °C 18,3 °C 58 % 1011,5 hPa 0,0 mm 12,1 km/h (2 Bft) NW 306 ° 1 min 0,000 mm 3,5 UV-I 1067 W/m² 9,8 °C 18,2 °C 16,1 km/h (3 Bft)
01.07.2017 12:56 18,1 °C 18,2 °C 57 % 1011,4 hPa 0,0 mm 14,0 km/h (3 Bft) W 281 ° 1 min 0,000 mm 8,1 UV-I 1074 W/m² 9,4 °C 18,1 °C 22,5 km/h (4 Bft)
01.07.2017 12:57 18,0 °C 18,1 °C 58 % 1011,4 hPa 0,0 mm 12,1 km/h (2 Bft) W-NW 286 ° 1 min 0,000 mm 8,1 UV-I 1074 W/m² 9,6 °C 18,0 °C 17,7 km/h (3 Bft)
01.07.2017 12:58 17,9 °C 18,0 °C 57 % 1011,5 hPa 0,0 mm 14,4 km/h (3 Bft) W-NW 289 ° 0 min 0,000 mm 8,1 UV-I 186 W/m² 9,3 °C 17,9 °C 22,5 km/h (4 Bft)
01.07.2017 12:59 17,8 °C 17,9 °C 59 % 1011,4 hPa 0,0 mm 19,8 km/h (3 Bft) W-NW 300 ° 0 min 0,000 mm 7,9 UV-I 186 W/m² 9,7 °C 17,8 °C 27,4 km/h (4 Bft)
01.07.2017 13:00 17,9 °C 17,9 °C 59 % 1011,4 hPa 0,0 mm 15,8 km/h (3 Bft) NW 306 ° 1 min 0,000 mm 7,7 UV-I 954 W/m² 9,8 °C 17,9 °C 25,7 km/h (4 Bft)
01.07.2017 13:01 18,1 °C 18,1 °C 60 % 1011,4 hPa 0,0 mm 10,9 km/h (2 Bft) W 275 ° 1 min 0,559 mm 7,6 UV-I 942 W/m² 10,2 °C 18,1 °C 19,3 km/h (3 Bft)
01.07.2017 13:02 18,2 °C 18,2 °C 58 % 1011,4 hPa 0,0 mm 15,9 km/h (3 Bft) W 264 ° 1 min 0,000 mm 7,6 UV-I 935 W/m² 9,8 °C 18,2 °C 24,1 km/h (4 Bft)
01.07.2017 13:03 18,2 °C 18,2 °C 58 % 1011,4 hPa 0,0 mm 6,9 km/h (2 Bft) W-NW 283 ° 1 min 0,000 mm 7,6 UV-I 935 W/m² 9,8 °C 18,2 °C 12,9 km/h (3 Bft)
01.07.2017 13:04 18,4 °C 18,4 °C 63 % 1011,4 hPa 0,0 mm 12,3 km/h (3 Bft) W-SW 252 ° 1 min 0,000 mm 7,6 UV-I 935 W/m² 11,2 °C 18,4 °C 17,7 km/h (3 Bft)
01.07.2017 13:05 18,6 °C 18,6 °C 59 % 1011,4 hPa 0,0 mm 16,9 km/h (3 Bft) NW 317 ° 1 min 0,000 mm 7,6 UV-I 933 W/m² 10,4 °C 18,6 °C 24,1 km/h (4 Bft)
01.07.2017 13:06 18,5 °C 18,6 °C 54 % 1011,4 hPa 0,0 mm 14,3 km/h (3 Bft) W-NW 288 ° 1 min 0,000 mm 7,6 UV-I 932 W/m² 9,0 °C 18,5 °C 19,3 km/h (3 Bft)
01.07.2017 13:07 18,4 °C 18,5 °C 58 % 1011,4 hPa 0,0 mm 21,6 km/h (4 Bft) W-NW 300 ° 1 min 0,000 mm 7,7 UV-I 933 W/m² 10,0 °C 18,4 °C 30,6 km/h (5 Bft)
01.07.2017 13:08 18,3 °C 18,4 °C 58 % 1011,5 hPa 0,0 mm 13,9 km/h (3 Bft) W-NW 290 ° 1 min 0,000 mm 7,7 UV-I 944 W/m² 9,9 °C 18,3 °C 30,6 km/h (5 Bft)
01.07.2017 13:09 18,3 °C 18,3 °C 56 % 1011,4 hPa 0,0 mm 14,6 km/h (3 Bft) W 279 ° 1 min 0,000 mm 7,8 UV-I 958 W/m² 9,4 °C 18,3 °C 24,1 km/h (4 Bft)
01.07.2017 13:10 18,3 °C 18,3 °C 57 % 1011,4 hPa 0,0 mm 17,6 km/h (3 Bft) SW 234 ° 1 min 0,000 mm 7,8 UV-I 963 W/m² 9,6 °C 18,3 °C 27,4 km/h (4 Bft)
01.07.2017 13:11 18,3 °C 18,3 °C 57 % 1011,4 hPa 0,0 mm 14,7 km/h (3 Bft) W-NW 296 ° 1 min 0,000 mm 7,8 UV-I 972 W/m² 9,6 °C 18,3 °C 19,3 km/h (3 Bft)
01.07.2017 13:12 18,3 °C 18,3 °C 56 % 1011,5 hPa 0,0 mm 13,3 km/h (3 Bft) W-NW 297 ° 1 min 0,000 mm 7,8 UV-I 993 W/m² 9,4 °C 18,3 °C 24,1 km/h (4 Bft)
01.07.2017 13:13 18,2 °C 18,3 °C 55 % 1011,5 hPa 0,0 mm 15,4 km/h (3 Bft) NW 309 ° 1 min 0,000 mm 6,9 UV-I 1002 W/m² 9,0 °C 18,2 °C 24,1 km/h (4 Bft)
01.07.2017 13:14 18,2 °C 18,2 °C 57 % 1011,5 hPa 0,0 mm 10,5 km/h (2 Bft) NW 310 ° 1 min 0,000 mm 8,0 UV-I 1051 W/m² 9,5 °C 18,2 °C 16,1 km/h (3 Bft)
01.07.2017 13:15 18,1 °C 18,2 °C 55 % 1011,4 hPa 0,0 mm 16,2 km/h (3 Bft) W-NW 292 ° 1 min 0,000 mm 8,0 UV-I 1051 W/m² 8,9 °C 18,1 °C 22,5 km/h (4 Bft)
01.07.2017 13:16 17,9 °C 18,1 °C 59 % 1011,4 hPa 0,0 mm 15,8 km/h (3 Bft) W 276 ° 1 min 0,000 mm 8,0 UV-I 1051 W/m² 9,8 °C 17,9 °C 22,5 km/h (4 Bft)
01.07.2017 13:17 17,9 °C 17,9 °C 58 % 1011,4 hPa 0,0 mm 13,7 km/h (3 Bft) W-NW 302 ° 1 min 0,000 mm 7,8 UV-I 972 W/m² 9,5 °C 17,9 °C 22,5 km/h (4 Bft)
01.07.2017 13:18 18,1 °C 18,1 °C 60 % 1011,5 hPa 0,0 mm 14,8 km/h (3 Bft) W-NW 289 ° 1 min 0,000 mm 8,0 UV-I 1004 W/m² 10,2 °C 18,1 °C 22,5 km/h (4 Bft)
01.07.2017 13:19 18,1 °C 18,1 °C 57 % 1011,5 hPa 0,0 mm 14,2 km/h (3 Bft) W 277 ° 1 min 0,000 mm 4,0 UV-I 1004 W/m² 9,4 °C 18,1 °C 19,3 km/h (3 Bft)
01.07.2017 13:20 17,9 °C 18,1 °C 55 % 1011,4 hPa 0,0 mm 9,8 km/h (2 Bft) N-NW 336 ° 1 min 0,000 mm 5,6 UV-I 1004 W/m² 8,7 °C 17,9 °C 17,7 km/h (3 Bft)
01.07.2017 13:21 17,9 °C 17,9 °C 60 % 1011,4 hPa 0,0 mm 13,9 km/h (3 Bft) W-NW 296 ° 1 min 0,000 mm 7,9 UV-I 1004 W/m² 10,0 °C 17,9 °C 24,1 km/h (4 Bft)
01.07.2017 13:22 17,9 °C 17,9 °C 57 % 1011,4 hPa 0,0 mm 11,6 km/h (2 Bft) W-NW 289 ° 1 min 0,000 mm 8,0 UV-I 1004 W/m² 9,3 °C 17,9 °C 20,9 km/h (4 Bft)
01.07.2017 13:23 17,9 °C 17,9 °C 59 % 1011,3 hPa 0,0 mm 14,8 km/h (3 Bft) W-NW 303 ° 1 min 0,000 mm 7,9 UV-I 960 W/m² 9,8 °C 17,9 °C 22,5 km/h (4 Bft)
01.07.2017 13:24 18,2 °C 18,2 °C 61 % 1011,3 hPa 0,0 mm 15,6 km/h (3 Bft) W 269 ° 1 min 0,000 mm 7,7 UV-I 884 W/m² 10,6 °C 18,2 °C 24,1 km/h (4 Bft)
01.07.2017 13:25 18,2 °C 18,2 °C 60 % 1011,4 hPa 0,0 mm 10,3 km/h (2 Bft) W 259 ° 1 min 0,000 mm 7,6 UV-I 937 W/m² 10,3 °C 18,2 °C 16,1 km/h (3 Bft)
01.07.2017 13:26 18,3 °C 18,3 °C 58 % 1011,4 hPa 0,0 mm 10,0 km/h (2 Bft) W 281 ° 1 min 0,000 mm 7,6 UV-I 928 W/m² 9,9 °C 18,3 °C 16,1 km/h (3 Bft)
01.07.2017 13:27 18,4 °C 18,4 °C 62 % 1011,4 hPa 0,0 mm 4,1 km/h (1 Bft) NO 52 ° 1 min 0,000 mm 7,6 UV-I 928 W/m² 11,0 °C 18,4 °C 8,0 km/h (2 Bft)
01.07.2017 13:28 18,5 °C 18,5 °C 60 % 1011,3 hPa 0,0 mm 5,6 km/h (1 Bft) NW 317 ° 1 min 0,000 mm 7,6 UV-I 928 W/m² 10,6 °C 18,5 °C 16,1 km/h (3 Bft)
01.07.2017 13:29 18,7 °C 18,7 °C 60 % 1011,3 hPa 0,0 mm 10,5 km/h (2 Bft) W-NW 288 ° 1 min 0,000 mm 7,6 UV-I 937 W/m² 10,8 °C 18,7 °C 16,1 km/h (3 Bft)
01.07.2017 13:30 18,7 °C 18,7 °C 59 % 1011,3 hPa 0,0 mm 7,2 km/h (2 Bft) SW 236 ° 1 min 0,000 mm 7,6 UV-I 935 W/m² 10,5 °C 18,7 °C 16,1 km/h (3 Bft)
01.07.2017 13:31 18,7 °C 18,7 °C 57 % 1011,4 hPa 0,0 mm 12,2 km/h (2 Bft) W-NW 303 ° 1 min 0,000 mm 7,6 UV-I 935 W/m² 10,0 °C 18,7 °C 17,7 km/h (3 Bft)
01.07.2017 13:32 18,7 °C 18,7 °C 60 % 1011,3 hPa 0,0 mm 11,0 km/h (2 Bft) W-SW 255 ° 1 min 0,000 mm 7,7 UV-I 939 W/m² 10,8 °C 18,7 °C 14,5 km/h (3 Bft)
01.07.2017 13:33 18,7 °C 18,7 °C 59 % 1011,3 hPa 0,0 mm 8,2 km/h (2 Bft) W-NW 303 ° 1 min 0,000 mm 7,7 UV-I 949 W/m² 10,5 °C 18,7 °C 12,9 km/h (3 Bft)
01.07.2017 13:34 18,6 °C 18,7 °C 58 % 1011,3 hPa 0,0 mm 11,9 km/h (2 Bft) NW 317 ° 1 min 0,000 mm 7,8 UV-I 965 W/m² 10,2 °C 18,6 °C 16,1 km/h (3 Bft)
01.07.2017 13:35 18,7 °C 18,7 °C 59 % 1011,3 hPa 0,0 mm 8,8 km/h (2 Bft) W 281 ° 1 min 0,000 mm 7,9 UV-I 1005 W/m² 10,5 °C 18,7 °C 14,5 km/h (3 Bft)
01.07.2017 13:36 18,7 °C 18,7 °C 59 % 1011,2 hPa 0,0 mm 5,0 km/h (1 Bft) W 263 ° 1 min 0,000 mm 7,9 UV-I 990 W/m² 10,5 °C 18,7 °C 9,7 km/h (2 Bft)
01.07.2017 13:37 18,8 °C 18,8 °C 59 % 1011,3 hPa 0,0 mm 8,9 km/h (2 Bft) W-NW 286 ° 1 min 0,000 mm 7,8 UV-I 972 W/m² 10,6 °C 18,8 °C 12,9 km/h (3 Bft)
01.07.2017 13:38 18,8 °C 18,8 °C 61 % 1011,2 hPa 0,0 mm 7,5 km/h (2 Bft) W-NW 287 ° 1 min 0,000 mm 7,7 UV-I 972 W/m² 11,1 °C 18,8 °C 14,5 km/h (3 Bft)
01.07.2017 13:39 18,8 °C 18,9 °C 57 % 1011,2 hPa 0,0 mm 10,0 km/h (2 Bft) W-NW 290 ° 1 min 0,000 mm 7,7 UV-I 951 W/m² 10,1 °C 18,8 °C 22,5 km/h (4 Bft)
01.07.2017 13:40 18,9 °C 18,9 °C 58 % 1011,2 hPa 0,0 mm 9,4 km/h (2 Bft) W 281 ° 1 min 0,000 mm 7,7 UV-I 953 W/m² 10,5 °C 18,9 °C 14,5 km/h (3 Bft)
01.07.2017 13:41 19,1 °C 19,1 °C 61 % 1011,2 hPa 0,0 mm 13,7 km/h (3 Bft) W-NW 284 ° 1 min 0,000 mm 7,7 UV-I 951 W/m² 11,4 °C 19,1 °C 20,9 km/h (4 Bft)
01.07.2017 13:42 19,1 °C 19,1 °C 55 % 1011,2 hPa 0,0 mm 10,1 km/h (2 Bft) NW 319 ° 1 min 0,000 mm 7,7 UV-I 951 W/m² 9,8 °C 19,1 °C 14,5 km/h (3 Bft)
01.07.2017 13:43 19,1 °C 19,1 °C 56 % 1011,2 hPa 0,0 mm 5,3 km/h (1 Bft) W-NW 294 ° 1 min 0,000 mm 7,7 UV-I 902 W/m² 10,1 °C 19,1 °C 12,9 km/h (3 Bft)
01.07.2017 13:44 19,1 °C 19,1 °C 55 % 1011,2 hPa 0,0 mm 11,3 km/h (2 Bft) W 264 ° 1 min 0,000 mm 7,8 UV-I 946 W/m² 9,8 °C 19,1 °C 17,7 km/h (3 Bft)
01.07.2017 13:45 19,1 °C 19,1 °C 58 % 1011,2 hPa 0,0 mm 8,7 km/h (2 Bft) NW 306 ° 1 min 0,000 mm 7,7 UV-I 949 W/m² 10,6 °C 19,1 °C 12,9 km/h (3 Bft)
01.07.2017 13:46 19,1 °C 19,1 °C 56 % 1011,2 hPa 0,0 mm 14,5 km/h (3 Bft) NW 315 ° 1 min 0,000 mm 7,8 UV-I 972 W/m² 10,1 °C 19,1 °C 19,3 km/h (3 Bft)
01.07.2017 13:47 19,1 °C 19,1 °C 55 % 1011,2 hPa 0,0 mm 11,5 km/h (2 Bft) W-SW 254 ° 1 min 0,000 mm 7,9 UV-I 965 W/m² 9,8 °C 19,1 °C 16,1 km/h (3 Bft)
01.07.2017 13:48 19,1 °C 19,1 °C 58 % 1011,2 hPa 0,0 mm 5,9 km/h (2 Bft) W-NW 297 ° 1 min 0,000 mm 7,7 UV-I 914 W/m² 10,6 °C 19,1 °C 12,9 km/h (3 Bft)
01.07.2017 13:49 19,1 °C 19,1 °C 58 % 1011,2 hPa 0,0 mm 12,1 km/h (2 Bft) N-NW 341 ° 1 min 0,000 mm 7,7 UV-I 954 W/m² 10,6 °C 19,1 °C 16,1 km/h (3 Bft)
01.07.2017 13:50 18,9 °C 19,1 °C 56 % 1011,2 hPa 0,0 mm 11,4 km/h (2 Bft) N-NW 342 ° 1 min 0,000 mm 7,7 UV-I 946 W/m² 9,9 °C 18,9 °C 19,3 km/h (3 Bft)
01.07.2017 13:51 18,9 °C 18,9 °C 61 % 1011,1 hPa 0,0 mm 15,0 km/h (3 Bft) NW 319 ° 1 min 0,000 mm 7,7 UV-I 967 W/m² 11,2 °C 18,9 °C 20,9 km/h (4 Bft)
01.07.2017 13:52 19,1 °C 19,1 °C 59 % 1011,1 hPa 0,0 mm 10,1 km/h (2 Bft) W 275 ° 1 min 0,000 mm 7,7 UV-I 974 W/m² 10,9 °C 19,1 °C 16,1 km/h (3 Bft)
01.07.2017 13:53 19,1 °C 19,1 °C 55 % 1011,1 hPa 0,0 mm 11,9 km/h (2 Bft) W 277 ° 1 min 0,000 mm 7,8 UV-I 997 W/m² 9,8 °C 19,1 °C 17,7 km/h (3 Bft)
01.07.2017 13:54 19,1 °C 19,1 °C 60 % 1011,1 hPa 0,0 mm 9,5 km/h (2 Bft) W-NW 289 ° 1 min 0,000 mm 7,9 UV-I 988 W/m² 11,1 °C 19,1 °C 17,7 km/h (3 Bft)
01.07.2017 13:55 19,1 °C 19,1 °C 58 % 1011,2 hPa 0,0 mm 10,4 km/h (2 Bft) W-SW 254 ° 1 min 0,000 mm 8,0 UV-I 1004 W/m² 10,6 °C 19,1 °C 19,3 km/h (3 Bft)
01.07.2017 13:56 18,9 °C 19,1 °C 56 % 1011,1 hPa 0,0 mm 20,1 km/h (4 Bft) W-NW 284 ° 1 min 0,000 mm 8,2 UV-I 1004 W/m² 9,9 °C 18,9 °C 27,4 km/h (4 Bft)
01.07.2017 13:57 18,9 °C 18,9 °C 57 % 1011,1 hPa 0,0 mm 17,3 km/h (3 Bft) W-NW 301 ° 1 min 0,000 mm 8,2 UV-I 1060 W/m² 10,2 °C 18,9 °C 27,4 km/h (4 Bft)
01.07.2017 13:58 18,9 °C 18,9 °C 54 % 1011,2 hPa 0,0 mm 16,5 km/h (3 Bft) W-NW 292 ° 1 min 0,000 mm 8,2 UV-I 1062 W/m² 9,4 °C 18,9 °C 25,7 km/h (4 Bft)
01.07.2017 13:59 18,8 °C 18,9 °C 56 % 1011,1 hPa 0,0 mm 13,3 km/h (3 Bft) W 271 ° 1 min 0,000 mm 7,1 UV-I 1062 W/m² 9,8 °C 18,8 °C 19,3 km/h (3 Bft)
01.07.2017 14:00 18,7 °C 18,8 °C 54 % 1011,1 hPa 0,0 mm 9,0 km/h (2 Bft) N-NW 336 ° 1 min 0,000 mm 8,0 UV-I 1062 W/m² 9,2 °C 18,7 °C 14,5 km/h (3 Bft)
01.07.2017 14:01 18,6 °C 18,7 °C 57 % 1011,1 hPa 0,0 mm 6,8 km/h (2 Bft) W-NW 298 ° 1 min 0,584 mm 7,9 UV-I 1007 W/m² 9,9 °C 18,6 °C 11,3 km/h (2 Bft)
01.07.2017 14:02 18,7 °C 18,7 °C 60 % 1011,1 hPa 0,0 mm 13,9 km/h (3 Bft) W 268 ° 1 min 0,000 mm 7,9 UV-I 1013 W/m² 10,8 °C 18,7 °C 19,3 km/h (3 Bft)
01.07.2017 14:03 18,7 °C 18,7 °C 57 % 1011,1 hPa 0,0 mm 17,2 km/h (3 Bft) W 278 ° 1 min 0,000 mm 7,0 UV-I 1041 W/m² 10,0 °C 18,7 °C 25,7 km/h (4 Bft)
01.07.2017 14:04 18,7 °C 18,7 °C 56 % 1011,1 hPa 0,0 mm 10,6 km/h (2 Bft) N 355 ° 1 min 0,000 mm 8,1 UV-I 998 W/m² 9,7 °C 18,7 °C 17,7 km/h (3 Bft)
01.07.2017 14:05 18,8 °C 18,8 °C 59 % 1011,2 hPa 0,0 mm 10,4 km/h (2 Bft) W-NW 300 ° 1 min 0,000 mm 7,7 UV-I 983 W/m² 10,6 °C 18,8 °C 16,1 km/h (3 Bft)
01.07.2017 14:06 19,0 °C 19,0 °C 59 % 1011,2 hPa 0,0 mm 8,8 km/h (2 Bft) W 265 ° 1 min 0,000 mm 7,7 UV-I 984 W/m² 10,8 °C 19,0 °C 14,5 km/h (3 Bft)
01.07.2017 14:07 19,1 °C 19,1 °C 61 % 1011,2 hPa 0,0 mm 16,0 km/h (3 Bft) W 261 ° 1 min 0,000 mm 7,8 UV-I 998 W/m² 11,4 °C 19,1 °C 22,5 km/h (4 Bft)
01.07.2017 14:08 19,0 °C 19,1 °C 55 % 1011,1 hPa 0,0 mm 17,4 km/h (3 Bft) SW 223 ° 1 min 0,000 mm 7,9 UV-I 1021 W/m² 9,8 °C 19,0 °C 24,1 km/h (4 Bft)
01.07.2017 14:09 18,9 °C 19,0 °C 57 % 1011,1 hPa 0,0 mm 12,9 km/h (3 Bft) NW 314 ° 1 min 0,000 mm 4,0 UV-I 1048 W/m² 10,2 °C 18,9 °C 19,3 km/h (3 Bft)
01.07.2017 14:10 18,8 °C 18,9 °C 57 % 1011,2 hPa 0,0 mm 14,0 km/h (3 Bft) NW 321 ° 1 min 0,000 mm 4,0 UV-I 1071 W/m² 10,1 °C 18,8 °C 19,3 km/h (3 Bft)
01.07.2017 14:11 18,8 °C 18,8 °C 56 % 1011,1 hPa 0,0 mm 10,4 km/h (2 Bft) NW 315 ° 1 min 0,000 mm 7,9 UV-I 1023 W/m² 9,8 °C 18,8 °C 19,3 km/h (3 Bft)
01.07.2017 14:12 18,9 °C 18,9 °C 55 % 1011,1 hPa 0,0 mm 10,8 km/h (2 Bft) W-NW 284 ° 1 min 0,000 mm 7,9 UV-I 1007 W/m² 9,7 °C 18,9 °C 19,3 km/h (3 Bft)
01.07.2017 14:13 18,9 °C 18,9 °C 55 % 1011,1 hPa 0,0 mm 12,1 km/h (2 Bft) W-NW 285 ° 1 min 0,000 mm 7,8 UV-I 1005 W/m² 9,7 °C 18,9 °C 17,7 km/h (3 Bft)
01.07.2017 14:14 18,8 °C 18,9 °C 55 % 1011,1 hPa 0,0 mm 13,2 km/h (3 Bft) W-NW 302 ° 1 min 0,000 mm 7,6 UV-I 1005 W/m² 9,6 °C 18,8 °C 17,7 km/h (3 Bft)
01.07.2017 14:15 18,8 °C 18,8 °C 56 % 1011,1 hPa 0,0 mm 17,1 km/h (3 Bft) W-NW 298 ° 1 min 0,000 mm 8,1 UV-I 1039 W/m² 9,8 °C 18,8 °C 27,4 km/h (4 Bft)
01.07.2017 14:16 18,9 °C 18,9 °C 59 % 1011,1 hPa 0,0 mm 15,6 km/h (3 Bft) NW 306 ° 1 min 0,000 mm 8,1 UV-I 1100 W/m² 10,7 °C 18,9 °C 25,7 km/h (4 Bft)
01.07.2017 14:17 18,8 °C 18,9 °C 54 % 1011,1 hPa 0,0 mm 11,6 km/h (2 Bft) NW 309 ° 1 min 0,000 mm 8,1 UV-I 1100 W/m² 9,3 °C 18,8 °C 17,7 km/h (3 Bft)
01.07.2017 14:18 18,8 °C 18,8 °C 55 % 1011,1 hPa 0,0 mm 14,1 km/h (3 Bft) W-NW 291 ° 1 min 0,000 mm 8,1 UV-I 1100 W/m² 9,6 °C 18,8 °C 22,5 km/h (4 Bft)
01.07.2017 14:19 18,7 °C 18,8 °C 57 % 1011,1 hPa 0,0 mm 13,1 km/h (3 Bft) W 269 ° 1 min 0,000 mm 8,1 UV-I 1100 W/m² 10,0 °C 18,7 °C 19,3 km/h (3 Bft)
01.07.2017 14:20 18,6 °C 18,7 °C 55 % 1011,1 hPa 0,0 mm 16,0 km/h (3 Bft) W 278 ° 1 min 0,000 mm 8,1 UV-I 1100 W/m² 9,4 °C 18,6 °C 25,7 km/h (4 Bft)
01.07.2017 14:21 18,5 °C 18,6 °C 56 % 1011,1 hPa 0,0 mm 13,8 km/h (3 Bft) NW 326 ° 1 min 0,000 mm 6,2 UV-I 497 W/m² 9,6 °C 18,5 °C 19,3 km/h (3 Bft)
01.07.2017 14:22 18,4 °C 18,5 °C 57 % 1011,1 hPa 0,0 mm 9,7 km/h (2 Bft) W 278 ° 1 min 0,000 mm 5,0 UV-I 497 W/m² 9,7 °C 18,4 °C 12,9 km/h (3 Bft)
01.07.2017 14:23 18,3 °C 18,4 °C 55 % 1011,1 hPa 0,0 mm 15,4 km/h (3 Bft) W 262 ° 1 min 0,000 mm 5,7 UV-I 497 W/m² 9,1 °C 18,3 °C 17,7 km/h (3 Bft)
01.07.2017 14:24 18,2 °C 18,3 °C 56 % 1011,1 hPa 0,0 mm 14,8 km/h (3 Bft) S-SW 209 ° 1 min 0,000 mm 6,9 UV-I 874 W/m² 9,3 °C 18,2 °C 19,3 km/h (3 Bft)
01.07.2017 14:25 18,2 °C 18,2 °C 57 % 1011,0 hPa 0,0 mm 13,1 km/h (3 Bft) SW 232 ° 1 min 0,000 mm 7,4 UV-I 921 W/m² 9,5 °C 18,2 °C 17,7 km/h (3 Bft)
01.07.2017 14:26 18,3 °C 18,3 °C 55 % 1011,1 hPa 0,0 mm 15,4 km/h (3 Bft) W 261 ° 1 min 0,000 mm 7,0 UV-I 937 W/m² 9,1 °C 18,3 °C 20,9 km/h (4 Bft)
01.07.2017 14:27 18,3 °C 18,3 °C 56 % 1011,1 hPa 0,0 mm 19,1 km/h (3 Bft) W-NW 299 ° 1 min 0,000 mm 6,6 UV-I 937 W/m² 9,4 °C 18,3 °C 25,7 km/h (4 Bft)
01.07.2017 14:28 18,4 °C 18,4 °C 56 % 1011,1 hPa 0,0 mm 15,6 km/h (3 Bft) W-SW 239 ° 1 min 0,000 mm 6,8 UV-I 807 W/m² 9,5 °C 18,4 °C 24,1 km/h (4 Bft)
01.07.2017 14:29 18,5 °C 18,5 °C 59 % 1011,1 hPa 0,0 mm 15,2 km/h (3 Bft) SW 226 ° 1 min 0,000 mm 6,8 UV-I 867 W/m² 10,3 °C 18,5 °C 24,1 km/h (4 Bft)
01.07.2017 14:30 18,6 °C 18,6 °C 57 % 1011,1 hPa 0,0 mm 9,1 km/h (2 Bft) W 264 ° 1 min 0,000 mm 7,1 UV-I 888 W/m² 9,9 °C 18,6 °C 19,3 km/h (3 Bft)
01.07.2017 14:31 18,7 °C 18,7 °C 56 % 1011,1 hPa 0,0 mm 16,3 km/h (3 Bft) W-NW 292 ° 1 min 0,000 mm 7,3 UV-I 925 W/m² 9,7 °C 18,7 °C 27,4 km/h (4 Bft)
01.07.2017 14:32 18,6 °C 18,7 °C 54 % 1011,1 hPa 0,0 mm 14,0 km/h (3 Bft) W-NW 298 ° 1 min 0,000 mm 7,5 UV-I 925 W/m² 9,1 °C 18,6 °C 20,9 km/h (4 Bft)
01.07.2017 14:33 18,6 °C 18,6 °C 54 % 1011,2 hPa 0,0 mm 15,6 km/h (3 Bft) W 279 ° 1 min 0,000 mm 7,5 UV-I 951 W/m² 9,1 °C 18,6 °C 19,3 km/h (3 Bft)
01.07.2017 14:34 18,5 °C 18,6 °C 57 % 1011,1 hPa 0,0 mm 18,0 km/h (3 Bft) W 269 ° 1 min 0,000 mm 7,6 UV-I 998 W/m² 9,8 °C 18,5 °C 24,1 km/h (4 Bft)
01.07.2017 14:35 18,4 °C 18,5 °C 53 % 1011,1 hPa 0,0 mm 13,9 km/h (3 Bft) W-NW 290 ° 1 min 0,000 mm 7,6 UV-I 991 W/m² 8,6 °C 18,4 °C 19,3 km/h (3 Bft)
01.07.2017 14:36 18,4 °C 18,4 °C 57 % 1011,1 hPa 0,0 mm 16,2 km/h (3 Bft) W-SW 246 ° 1 min 0,000 mm 7,6 UV-I 977 W/m² 9,7 °C 18,4 °C 22,5 km/h (4 Bft)
01.07.2017 14:37 18,5 °C 18,5 °C 57 % 1011,0 hPa 0,0 mm 11,1 km/h (2 Bft) NW 306 ° 1 min 0,000 mm 7,5 UV-I 977 W/m² 9,8 °C 18,5 °C 29,0 km/h (5 Bft)
01.07.2017 14:38 18,6 °C 18,6 °C 56 % 1011,1 hPa 0,0 mm 21,6 km/h (4 Bft) NW 307 ° 1 min 0,000 mm 7,4 UV-I 956 W/m² 9,6 °C 18,6 °C 25,7 km/h (4 Bft)
01.07.2017 14:39 18,5 °C 18,6 °C 55 % 1011,1 hPa 0,0 mm 16,1 km/h (3 Bft) W 273 ° 1 min 0,000 mm 7,3 UV-I 923 W/m² 9,3 °C 18,5 °C 27,4 km/h (4 Bft)
01.07.2017 14:40 18,5 °C 18,5 °C 56 % 1011,1 hPa 0,0 mm 15,6 km/h (3 Bft) W-SW 257 ° 1 min 0,000 mm 7,2 UV-I 930 W/m² 9,6 °C 18,5 °C 24,1 km/h (4 Bft)
01.07.2017 14:41 18,5 °C 18,5 °C 56 % 1011,1 hPa 0,0 mm 19,4 km/h (3 Bft) W 266 ° 1 min 0,000 mm 7,1 UV-I 916 W/m² 9,6 °C 18,5 °C 30,6 km/h (5 Bft)
01.07.2017 14:42 18,4 °C 18,5 °C 56 % 1011,1 hPa 0,0 mm 12,5 km/h (3 Bft) NW 316 ° 1 min 0,000 mm 7,2 UV-I 944 W/m² 9,5 °C 18,4 °C 19,3 km/h (3 Bft)
01.07.2017 14:43 18,4 °C 18,4 °C 58 % 1011,1 hPa 0,0 mm 10,3 km/h (2 Bft) NW 305 ° 1 min 0,000 mm 4,5 UV-I 944 W/m² 10,0 °C 18,4 °C 16,1 km/h (3 Bft)
01.07.2017 14:44 18,4 °C 18,5 °C 57 % 1011,2 hPa 0,0 mm 16,5 km/h (3 Bft) W 266 ° 1 min 0,000 mm 7,0 UV-I 928 W/m² 9,7 °C 18,4 °C 22,5 km/h (4 Bft)
01.07.2017 14:45 18,4 °C 18,4 °C 58 % 1011,2 hPa 0,0 mm 13,7 km/h (3 Bft) W-NW 296 ° 1 min 0,000 mm 7,0 UV-I 947 W/m² 10,0 °C 18,4 °C 22,5 km/h (4 Bft)
01.07.2017 14:46 18,4 °C 18,4 °C 57 % 1011,2 hPa 0,0 mm 18,0 km/h (3 Bft) W 276 ° 1 min 0,000 mm 7,4 UV-I 947 W/m² 9,7 °C 18,4 °C 22,5 km/h (4 Bft)
01.07.2017 14:47 18,4 °C 18,4 °C 58 % 1011,2 hPa 0,0 mm 19,1 km/h (3 Bft) W-NW 294 ° 1 min 0,000 mm 7,4 UV-I 1013 W/m² 10,0 °C 18,4 °C 27,4 km/h (4 Bft)
01.07.2017 14:48 18,4 °C 18,4 °C 57 % 1011,2 hPa 0,0 mm 14,5 km/h (3 Bft) W-NW 284 ° 1 min 0,000 mm 7,2 UV-I 1013 W/m² 9,7 °C 18,4 °C 22,5 km/h (4 Bft)
01.07.2017 14:49 18,4 °C 18,4 °C 57 % 1011,2 hPa 0,0 mm 15,1 km/h (3 Bft) W-NW 286 ° 1 min 0,000 mm 7,3 UV-I 969 W/m² 9,7 °C 18,4 °C 20,9 km/h (4 Bft)
01.07.2017 14:50 18,4 °C 18,4 °C 58 % 1011,1 hPa 0,0 mm 11,0 km/h (2 Bft) W-NW 298 ° 1 min 0,000 mm 7,3 UV-I 969 W/m² 10,0 °C 18,4 °C 19,3 km/h (3 Bft)
01.07.2017 14:51 18,5 °C 18,5 °C 58 % 1011,1 hPa 0,0 mm 13,2 km/h (3 Bft) NW 311 ° 1 min 0,000 mm 7,5 UV-I 984 W/m² 10,1 °C 18,5 °C 20,9 km/h (4 Bft)
01.07.2017 14:52 18,6 °C 18,6 °C 59 % 1011,2 hPa 0,0 mm 13,4 km/h (3 Bft) W-NW 295 ° 1 min 0,000 mm 7,4 UV-I 986 W/m² 10,4 °C 18,6 °C 19,3 km/h (3 Bft)
01.07.2017 14:53 18,7 °C 18,7 °C 58 % 1011,1 hPa 0,0 mm 18,3 km/h (3 Bft) W 267 ° 1 min 0,000 mm 7,4 UV-I 988 W/m² 10,3 °C 18,7 °C 30,6 km/h (5 Bft)
01.07.2017 14:54 18,7 °C 18,7 °C 59 % 1011,1 hPa 0,0 mm 12,9 km/h (3 Bft) W-NW 288 ° 1 min 0,000 mm 7,3 UV-I 976 W/m² 10,5 °C 18,7 °C 19,3 km/h (3 Bft)
01.07.2017 14:55 18,7 °C 18,7 °C 57 % 1011,2 hPa 0,0 mm 15,3 km/h (3 Bft) NW 314 ° 1 min 0,000 mm 7,1 UV-I 944 W/m² 10,0 °C 18,7 °C 24,1 km/h (4 Bft)
01.07.2017 14:56 18,8 °C 18,8 °C 61 % 1011,2 hPa 0,0 mm 13,9 km/h (3 Bft) W 271 ° 1 min 0,000 mm 6,7 UV-I 893 W/m² 11,1 °C 18,8 °C 19,3 km/h (3 Bft)
01.07.2017 14:57 18,8 °C 18,9 °C 56 % 1011,2 hPa 0,0 mm 19,2 km/h (3 Bft) W 280 ° 1 min 0,000 mm 6,6 UV-I 809 W/m² 9,8 °C 18,8 °C 30,6 km/h (5 Bft)
01.07.2017 14:58 18,8 °C 18,8 °C 56 % 1011,2 hPa 0,0 mm 16,6 km/h (3 Bft) NW 307 ° 1 min 0,000 mm 6,2 UV-I 809 W/m² 9,8 °C 18,8 °C 25,7 km/h (4 Bft)
01.07.2017 14:59 18,7 °C 18,8 °C 57 % 1011,2 hPa 0,0 mm 21,1 km/h (4 Bft) NW 319 ° 1 min 0,000 mm 6,1 UV-I 775 W/m² 10,0 °C 18,7 °C 27,4 km/h (4 Bft)
01.07.2017 15:00 18,6 °C 18,7 °C 58 % 1011,2 hPa 0,0 mm 21,2 km/h (4 Bft) W-NW 292 ° 1 min 0,000 mm 6,0 UV-I 763 W/m² 10,2 °C 18,6 °C 30,6 km/h (5 Bft)
01.07.2017 15:01 18,6 °C 18,6 °C 57 % 1011,3 hPa 0,0 mm 15,7 km/h (3 Bft) W 277 ° 1 min 0,584 mm 6,1 UV-I 763 W/m² 9,9 °C 18,6 °C 24,1 km/h (4 Bft)
01.07.2017 15:02 18,5 °C 18,6 °C 58 % 1011,2 hPa 0,0 mm 15,8 km/h (3 Bft) NW 313 ° 1 min 0,000 mm 6,4 UV-I 802 W/m² 10,1 °C 18,5 °C 20,9 km/h (4 Bft)
01.07.2017 15:03 18,5 °C 18,5 °C 59 % 1011,2 hPa 0,0 mm 11,6 km/h (2 Bft) NW 304 ° 1 min 0,000 mm 6,3 UV-I 784 W/m² 10,3 °C 18,5 °C 17,7 km/h (3 Bft)
01.07.2017 15:04 18,4 °C 18,5 °C 59 % 1011,3 hPa 0,0 mm 12,5 km/h (3 Bft) W 271 ° 1 min 0,000 mm 6,2 UV-I 809 W/m² 10,2 °C 18,4 °C 19,3 km/h (3 Bft)
01.07.2017 15:05 18,4 °C 18,4 °C 57 % 1011,2 hPa 0,0 mm 11,6 km/h (2 Bft) W 270 ° 1 min 0,000 mm 6,3 UV-I 814 W/m² 9,7 °C 18,4 °C 19,3 km/h (3 Bft)
01.07.2017 15:06 18,3 °C 18,4 °C 58 % 1011,2 hPa 0,0 mm 17,8 km/h (3 Bft) W-SW 250 ° 1 min 0,000 mm 5,4 UV-I 814 W/m² 9,9 °C 18,3 °C 27,4 km/h (4 Bft)
01.07.2017 15:07 18,3 °C 18,3 °C 57 % 1011,2 hPa 0,0 mm 14,9 km/h (3 Bft) W-NW 301 ° 1 min 0,000 mm 6,2 UV-I 814 W/m² 9,6 °C 18,3 °C 22,5 km/h (4 Bft)
01.07.2017 15:08 18,3 °C 18,3 °C 57 % 1011,2 hPa 0,0 mm 14,2 km/h (3 Bft) W-NW 288 ° 1 min 0,000 mm 3,7 UV-I 770 W/m² 9,6 °C 18,3 °C 22,5 km/h (4 Bft)
01.07.2017 15:09 18,2 °C 18,3 °C 57 % 1011,2 hPa 0,0 mm 15,5 km/h (3 Bft) N 355 ° 1 min 0,000 mm 6,1 UV-I 803 W/m² 9,5 °C 18,2 °C 24,1 km/h (4 Bft)
01.07.2017 15:10 18,2 °C 18,2 °C 59 % 1011,2 hPa 0,0 mm 17,7 km/h (3 Bft) W-SW 252 ° 1 min 0,000 mm 6,1 UV-I 756 W/m² 10,1 °C 18,2 °C 25,7 km/h (4 Bft)
01.07.2017 15:11 18,2 °C 18,3 °C 59 % 1011,2 hPa 0,0 mm 14,1 km/h (3 Bft) W 268 ° 1 min 0,000 mm 6,1 UV-I 765 W/m² 10,1 °C 18,2 °C 24,1 km/h (4 Bft)
01.07.2017 15:12 18,3 °C 18,3 °C 60 % 1011,2 hPa 0,0 mm 8,9 km/h (2 Bft) W 269 ° 1 min 0,000 mm 6,3 UV-I 805 W/m² 10,4 °C 18,3 °C 12,9 km/h (3 Bft)
01.07.2017 15:13 18,3 °C 18,3 °C 59 % 1011,2 hPa 0,0 mm 4,3 km/h (1 Bft) W-NW 300 ° 1 min 0,000 mm 6,5 UV-I 833 W/m² 10,1 °C 18,3 °C 8,0 km/h (2 Bft)
01.07.2017 15:14 18,5 °C 18,5 °C 63 % 1011,2 hPa 0,0 mm 12,3 km/h (3 Bft) W 275 ° 1 min 0,000 mm 4,5 UV-I 916 W/m² 11,3 °C 18,5 °C 17,7 km/h (3 Bft)
01.07.2017 15:15 18,6 °C 18,6 °C 57 % 1011,3 hPa 0,0 mm 15,3 km/h (3 Bft) W-SW 254 ° 1 min 0,000 mm 6,2 UV-I 916 W/m² 9,9 °C 18,6 °C 20,9 km/h (4 Bft)
01.07.2017 15:16 18,6 °C 18,6 °C 56 % 1011,3 hPa 0,0 mm 19,2 km/h (3 Bft) NW 312 ° 1 min 0,000 mm 4,8 UV-I 916 W/m² 9,6 °C 18,6 °C 29,0 km/h (5 Bft)
01.07.2017 15:17 18,4 °C 18,6 °C 57 % 1011,2 hPa 0,0 mm 14,3 km/h (3 Bft) W 278 ° 1 min 0,000 mm 6,5 UV-I 916 W/m² 9,7 °C 18,4 °C 22,5 km/h (4 Bft)
01.07.2017 15:18 18,3 °C 18,4 °C 57 % 1011,2 hPa 0,0 mm 16,8 km/h (3 Bft) W-NW 282 ° 1 min 0,000 mm 6,4 UV-I 833 W/m² 9,6 °C 18,3 °C 22,5 km/h (4 Bft)
01.07.2017 15:19 18,3 °C 18,3 °C 58 % 1011,3 hPa 0,0 mm 11,0 km/h (2 Bft) W 259 ° 1 min 0,000 mm 6,1 UV-I 819 W/m² 9,9 °C 18,3 °C 20,9 km/h (4 Bft)
01.07.2017 15:20 18,3 °C 18,3 °C 57 % 1011,2 hPa 0,0 mm 13,8 km/h (3 Bft) W-NW 287 ° 1 min 0,000 mm 5,8 UV-I 756 W/m² 9,6 °C 18,3 °C 20,9 km/h (4 Bft)
01.07.2017 15:21 18,2 °C 18,3 °C 58 % 1011,2 hPa 0,0 mm 15,2 km/h (3 Bft) W 273 ° 1 min 0,000 mm 6,3 UV-I 830 W/m² 9,8 °C 18,2 °C 27,4 km/h (4 Bft)
01.07.2017 15:22 18,3 °C 18,3 °C 58 % 1011,2 hPa 0,0 mm 18,0 km/h (3 Bft) W-NW 287 ° 1 min 0,000 mm 6,3 UV-I 844 W/m² 9,9 °C 18,3 °C 25,7 km/h (4 Bft)
01.07.2017 15:23 18,4 °C 18,4 °C 61 % 1011,2 hPa 0,0 mm 12,9 km/h (3 Bft) W-SW 252 ° 1 min 0,000 mm 6,0 UV-I 773 W/m² 10,7 °C 18,4 °C 20,9 km/h (4 Bft)
01.07.2017 15:24 18,4 °C 18,4 °C 59 % 1011,2 hPa 0,0 mm 17,9 km/h (3 Bft) S-SW 196 ° 1 min 0,000 mm 5,9 UV-I 768 W/m² 10,2 °C 18,4 °C 30,6 km/h (5 Bft)
01.07.2017 15:25 18,5 °C 18,5 °C 55 % 1011,2 hPa 0,0 mm 14,0 km/h (3 Bft) W 280 ° 1 min 0,000 mm 5,9 UV-I 807 W/m² 9,3 °C 18,5 °C 22,5 km/h (4 Bft)
01.07.2017 15:26 18,5 °C 18,5 °C 57 % 1011,3 hPa 0,0 mm 13,2 km/h (3 Bft) W 263 ° 1 min 0,000 mm 5,2 UV-I 830 W/m² 9,8 °C 18,5 °C 19,3 km/h (3 Bft)
01.07.2017 15:27 18,5 °C 18,5 °C 60 % 1011,3 hPa 0,0 mm 10,8 km/h (2 Bft) W 265 ° 1 min 0,000 mm 5,0 UV-I 844 W/m² 10,6 °C 18,5 °C 22,5 km/h (4 Bft)
01.07.2017 15:28 18,5 °C 18,6 °C 59 % 1011,2 hPa 0,0 mm 12,2 km/h (2 Bft) N-NW 329 ° 1 min 0,000 mm 3,5 UV-I 844 W/m² 10,3 °C 18,5 °C 20,9 km/h (4 Bft)
01.07.2017 15:29 18,4 °C 18,5 °C 58 % 1011,3 hPa 0,0 mm 16,0 km/h (3 Bft) NW 319 ° 1 min 0,000 mm 3,5 UV-I 343 W/m² 10,0 °C 18,4 °C 24,1 km/h (4 Bft)
01.07.2017 15:30 18,3 °C 18,4 °C 60 % 1011,2 hPa 0,0 mm 13,7 km/h (3 Bft) W 276 ° 1 min 0,000 mm 6,2 UV-I 343 W/m² 10,4 °C 18,3 °C 22,5 km/h (4 Bft)
01.07.2017 15:31 18,3 °C 18,3 °C 57 % 1011,2 hPa 0,0 mm 15,0 km/h (3 Bft) N-NW 328 ° 1 min 0,000 mm 3,5 UV-I 343 W/m² 9,6 °C 18,3 °C 22,5 km/h (4 Bft)
01.07.2017 15:32 18,2 °C 18,3 °C 58 % 1011,2 hPa 0,0 mm 12,2 km/h (2 Bft) W-SW 257 ° 0 min 0,000 mm 3,2 UV-I 236 W/m² 9,8 °C 18,2 °C 20,9 km/h (4 Bft)
01.07.2017 15:33 18,2 °C 18,2 °C 58 % 1011,2 hPa 0,0 mm 9,2 km/h (2 Bft) W-NW 288 ° 1 min 0,000 mm 6,8 UV-I 984 W/m² 9,8 °C 18,2 °C 14,5 km/h (3 Bft)
01.07.2017 15:34 18,3 °C 18,3 °C 62 % 1011,3 hPa 0,0 mm 12,2 km/h (2 Bft) W-NW 296 ° 1 min 0,000 mm 6,5 UV-I 947 W/m² 10,9 °C 18,3 °C 19,3 km/h (3 Bft)
01.07.2017 15:35 18,4 °C 18,4 °C 61 % 1011,2 hPa 0,0 mm 13,5 km/h (3 Bft) W-NW 292 ° 1 min 0,000 mm 6,4 UV-I 905 W/m² 10,7 °C 18,4 °C 19,3 km/h (3 Bft)
01.07.2017 15:36 18,6 °C 18,6 °C 61 % 1011,2 hPa 0,0 mm 16,0 km/h (3 Bft) N-NW 333 ° 1 min 0,000 mm 6,3 UV-I 898 W/m² 10,9 °C 18,6 °C 25,7 km/h (4 Bft)
01.07.2017 15:37 18,7 °C 18,7 °C 59 % 1011,2 hPa 0,0 mm 13,1 km/h (3 Bft) W 273 ° 1 min 0,000 mm 5,9 UV-I 844 W/m² 10,5 °C 18,7 °C 19,3 km/h (3 Bft)
01.07.2017 15:38 18,7 °C 18,7 °C 60 % 1011,2 hPa 0,0 mm 11,4 km/h (2 Bft) W-NW 291 ° 1 min 0,000 mm 3,3 UV-I 844 W/m² 10,8 °C 18,7 °C 17,7 km/h (3 Bft)
01.07.2017 15:39 18,6 °C 18,7 °C 58 % 1011,2 hPa 0,0 mm 15,0 km/h (3 Bft) W-NW 294 ° 0 min 0,000 mm 2,8 UV-I 202 W/m² 10,2 °C 18,6 °C 20,9 km/h (4 Bft)
01.07.2017 15:40 18,4 °C 18,6 °C 57 % 1011,2 hPa 0,0 mm 12,7 km/h (3 Bft) W-NW 288 ° 0 min 0,000 mm 2,8 UV-I 199 W/m² 9,7 °C 18,4 °C 17,7 km/h (3 Bft)
01.07.2017 15:41 18,2 °C 18,4 °C 61 % 1011,2 hPa 0,0 mm 12,2 km/h (2 Bft) W 279 ° 0 min 0,000 mm 3,2 UV-I 216 W/m² 10,6 °C 18,2 °C 17,7 km/h (3 Bft)
01.07.2017 15:42 18,1 °C 18,2 °C 60 % 1011,3 hPa 0,0 mm 14,0 km/h (3 Bft) W 261 ° 0 min 0,000 mm 4,4 UV-I 285 W/m² 10,2 °C 18,1 °C 19,3 km/h (3 Bft)
01.07.2017 15:43 17,9 °C 18,1 °C 60 % 1011,3 hPa 0,0 mm 12,0 km/h (2 Bft) W 266 ° 0 min 0,000 mm 3,0 UV-I 278 W/m² 10,0 °C 17,9 °C 19,3 km/h (3 Bft)
01.07.2017 15:44 17,9 °C 17,9 °C 62 % 1011,3 hPa 0,0 mm 9,9 km/h (2 Bft) W-NW 286 ° 0 min 0,000 mm 2,8 UV-I 190 W/m² 10,5 °C 17,9 °C 16,1 km/h (3 Bft)
01.07.2017 15:45 17,8 °C 17,9 °C 61 % 1011,3 hPa 0,0 mm 10,6 km/h (2 Bft) S-SW 202 ° 0 min 0,000 mm 3,6 UV-I 190 W/m² 10,2 °C 17,8 °C 19,3 km/h (3 Bft)
01.07.2017 15:46 17,7 °C 17,8 °C 59 % 1011,3 hPa 0,0 mm 5,6 km/h (1 Bft) W 281 ° 0 min 0,000 mm 3,0 UV-I 190 W/m² 9,6 °C 17,7 °C 12,9 km/h (3 Bft)
01.07.2017 15:47 17,7 °C 17,7 °C 61 % 1011,3 hPa 0,0 mm 13,5 km/h (3 Bft) W 263 ° 1 min 0,000 mm 3,0 UV-I 294 W/m² 10,1 °C 17,7 °C 19,3 km/h (3 Bft)
01.07.2017 15:48 17,7 °C 17,7 °C 60 % 1011,3 hPa 0,0 mm 11,6 km/h (2 Bft) W 278 ° 1 min 0,000 mm 3,0 UV-I 301 W/m² 9,8 °C 17,7 °C 19,3 km/h (3 Bft)
01.07.2017 15:49 17,7 °C 17,7 °C 61 % 1011,3 hPa 0,0 mm 14,8 km/h (3 Bft) SW 232 ° 1 min 0,000 mm 3,0 UV-I 294 W/m² 10,1 °C 17,7 °C 24,1 km/h (4 Bft)
01.07.2017 15:50 17,7 °C 17,7 °C 62 % 1011,2 hPa 0,0 mm 16,0 km/h (3 Bft) W-SW 252 ° 1 min 0,000 mm 3,1 UV-I 329 W/m² 10,3 °C 17,7 °C 24,1 km/h (4 Bft)
01.07.2017 15:51 17,7 °C 17,7 °C 58 % 1011,3 hPa 0,0 mm 16,2 km/h (3 Bft) SW 221 ° 1 min 0,000 mm 4,4 UV-I 329 W/m² 9,3 °C 17,7 °C 22,5 km/h (4 Bft)
01.07.2017 15:52 17,8 °C 17,8 °C 63 % 1011,3 hPa 0,0 mm 12,6 km/h (3 Bft) W 261 ° 1 min 0,000 mm 3,3 UV-I 387 W/m² 10,7 °C 17,8 °C 22,5 km/h (4 Bft)
01.07.2017 15:53 17,8 °C 17,8 °C 61 % 1011,4 hPa 0,0 mm 13,4 km/h (3 Bft) NW 309 ° 1 min 0,000 mm 6,2 UV-I 387 W/m² 10,2 °C 17,8 °C 22,5 km/h (4 Bft)
01.07.2017 15:54 17,9 °C 17,9 °C 59 % 1011,4 hPa 0,0 mm 14,9 km/h (3 Bft) N 355 ° 1 min 0,000 mm 5,9 UV-I 387 W/m² 9,8 °C 17,9 °C 22,5 km/h (4 Bft)
01.07.2017 15:55 18,0 °C 18,0 °C 60 % 1011,4 hPa 0,0 mm 14,8 km/h (3 Bft) W 278 ° 1 min 0,000 mm 3,3 UV-I 387 W/m² 10,1 °C 18,0 °C 25,7 km/h (4 Bft)
01.07.2017 15:56 18,1 °C 18,1 °C 59 % 1011,4 hPa 0,0 mm 16,0 km/h (3 Bft) W 263 ° 1 min 0,000 mm 3,3 UV-I 387 W/m² 10,0 °C 18,1 °C 30,6 km/h (5 Bft)
01.07.2017 15:57 18,1 °C 18,1 °C 60 % 1011,4 hPa 0,0 mm 19,0 km/h (3 Bft) W 260 ° 1 min 0,000 mm 5,6 UV-I 977 W/m² 10,2 °C 18,1 °C 27,4 km/h (4 Bft)
01.07.2017 15:58 18,2 °C 18,2 °C 60 % 1011,4 hPa 0,0 mm 12,1 km/h (2 Bft) W 263 ° 1 min 0,000 mm 2,9 UV-I 977 W/m² 10,3 °C 18,2 °C 16,1 km/h (3 Bft)
01.07.2017 15:59 18,3 °C 18,3 °C 60 % 1011,4 hPa 0,0 mm 12,7 km/h (3 Bft) W 261 ° 0 min 0,000 mm 2,8 UV-I 234 W/m² 10,4 °C 18,3 °C 20,9 km/h (4 Bft)
01.07.2017 16:00 18,2 °C 18,3 °C 56 % 1011,4 hPa 0,0 mm 16,8 km/h (3 Bft) W 265 ° 0 min 0,000 mm 2,8 UV-I 241 W/m² 9,3 °C 18,2 °C 29,0 km/h (5 Bft)
01.07.2017 16:01 18,0 °C 18,2 °C 57 % 1011,4 hPa 0,0 mm 20,0 km/h (4 Bft) W 277 ° 0 min 0,407 mm 2,8 UV-I 253 W/m² 9,4 °C 18,0 °C 30,6 km/h (5 Bft)
01.07.2017 16:02 17,9 °C 18,0 °C 59 % 1011,4 hPa 0,0 mm 12,9 km/h (3 Bft) W 267 ° 0 min 0,000 mm 2,7 UV-I 248 W/m² 9,8 °C 17,9 °C 20,9 km/h (4 Bft)
01.07.2017 16:03 17,8 °C 17,9 °C 58 % 1011,3 hPa 0,0 mm 16,4 km/h (3 Bft) W-NW 286 ° 0 min 0,000 mm 2,6 UV-I 248 W/m² 9,4 °C 17,8 °C 22,5 km/h (4 Bft)
01.07.2017 16:04 17,7 °C 17,8 °C 59 % 1011,4 hPa 0,0 mm 9,7 km/h (2 Bft) W 262 ° 0 min 0,000 mm 2,6 UV-I 243 W/m² 9,6 °C 17,7 °C 19,3 km/h (3 Bft)
01.07.2017 16:05 17,6 °C 17,7 °C 58 % 1011,5 hPa 0,0 mm 18,0 km/h (3 Bft) W 265 ° 1 min 0,000 mm 2,6 UV-I 302 W/m² 9,2 °C 17,6 °C 30,6 km/h (5 Bft)
01.07.2017 16:06 17,5 °C 17,6 °C 58 % 1011,4 hPa 0,0 mm 14,1 km/h (3 Bft) W 276 ° 0 min 0,000 mm 2,5 UV-I 262 W/m² 9,1 °C 17,5 °C 19,3 km/h (3 Bft)
01.07.2017 16:07 17,5 °C 17,5 °C 60 % 1011,4 hPa 0,0 mm 14,6 km/h (3 Bft) W-NW 288 ° 0 min 0,000 mm 2,4 UV-I 250 W/m² 9,6 °C 17,5 °C 20,9 km/h (4 Bft)
01.07.2017 16:08 17,4 °C 17,5 °C 59 % 1011,5 hPa 0,0 mm 16,0 km/h (3 Bft) W-SW 248 ° 0 min 0,000 mm 2,2 UV-I 250 W/m² 9,3 °C 17,4 °C 24,1 km/h (4 Bft)
01.07.2017 16:09 17,4 °C 17,4 °C 58 % 1011,4 hPa 0,0 mm 13,2 km/h (3 Bft) W 275 ° 0 min 0,000 mm 2,3 UV-I 258 W/m² 9,1 °C 17,4 °C 19,3 km/h (3 Bft)
01.07.2017 16:10 17,4 °C 17,4 °C 58 % 1011,5 hPa 0,0 mm 8,7 km/h (2 Bft) W-NW 303 ° 1 min 0,000 mm 4,6 UV-I 355 W/m² 9,1 °C 17,4 °C 17,7 km/h (3 Bft)
01.07.2017 16:11 17,4 °C 17,4 °C 60 % 1011,5 hPa 0,0 mm 14,6 km/h (3 Bft) W 265 ° 1 min 0,000 mm 5,4 UV-I 380 W/m² 9,6 °C 17,4 °C 22,5 km/h (4 Bft)
01.07.2017 16:12 17,6 °C 17,6 °C 61 % 1011,4 hPa 0,0 mm 17,0 km/h (3 Bft) N-NW 329 ° 1 min 0,000 mm 3,0 UV-I 345 W/m² 10,0 °C 17,6 °C 20,9 km/h (4 Bft)
01.07.2017 16:13 17,7 °C 17,7 °C 61 % 1011,5 hPa 0,0 mm 14,1 km/h (3 Bft) NW 305 ° 0 min 0,000 mm 2,7 UV-I 255 W/m² 10,1 °C 17,7 °C 29,0 km/h (5 Bft)
01.07.2017 16:14 17,7 °C 17,7 °C 59 % 1011,5 hPa 0,0 mm 22,2 km/h (4 Bft) NW 304 ° 0 min 0,000 mm 2,3 UV-I 230 W/m² 9,6 °C 17,7 °C 29,0 km/h (5 Bft)
01.07.2017 16:15 17,6 °C 17,7 °C 59 % 1011,5 hPa 0,0 mm 14,1 km/h (3 Bft) W 281 ° 0 min 0,000 mm 2,2 UV-I 218 W/m² 9,5 °C 17,6 °C 24,1 km/h (4 Bft)
01.07.2017 16:16 17,6 °C 17,6 °C 58 % 1011,4 hPa 0,0 mm 15,0 km/h (3 Bft) NW 309 ° 0 min 0,000 mm 2,2 UV-I 225 W/m² 9,2 °C 17,6 °C 20,9 km/h (4 Bft)
01.07.2017 16:17 17,4 °C 17,6 °C 58 % 1011,5 hPa 0,0 mm 16,2 km/h (3 Bft) W-SW 252 ° 0 min 0,000 mm 2,3 UV-I 264 W/m² 9,1 °C 17,4 °C 24,1 km/h (4 Bft)
01.07.2017 16:18 17,4 °C 17,5 °C 60 % 1011,4 hPa 0,0 mm 12,5 km/h (3 Bft) W-NW 284 ° 1 min 0,000 mm 2,5 UV-I 299 W/m² 9,6 °C 17,4 °C 19,3 km/h (3 Bft)
01.07.2017 16:19 17,4 °C 17,4 °C 60 % 1011,5 hPa 0,0 mm 15,1 km/h (3 Bft) W 281 ° 0 min 0,000 mm 2,5 UV-I 285 W/m² 9,6 °C 17,4 °C 24,1 km/h (4 Bft)
01.07.2017 16:20 17,4 °C 17,4 °C 59 % 1011,5 hPa 0,0 mm 9,0 km/h (2 Bft) NW 312 ° 1 min 0,000 mm 2,8 UV-I 334 W/m² 9,3 °C 17,4 °C 16,1 km/h (3 Bft)
01.07.2017 16:21 17,4 °C 17,4 °C 60 % 1011,6 hPa 0,0 mm 14,8 km/h (3 Bft) W-SW 240 ° 1 min 0,000 mm 2,7 UV-I 308 W/m² 9,6 °C 17,4 °C 20,9 km/h (4 Bft)
01.07.2017 16:22 17,5 °C 17,5 °C 59 % 1011,5 hPa 0,0 mm 15,6 km/h (3 Bft) W 279 ° 0 min 0,000 mm 2,4 UV-I 260 W/m² 9,4 °C 17,5 °C 22,5 km/h (4 Bft)
01.07.2017 16:23 17,5 °C 17,6 °C 59 % 1011,5 hPa 0,0 mm 12,5 km/h (3 Bft) W 259 ° 0 min 0,000 mm 2,4 UV-I 234 W/m² 9,4 °C 17,5 °C 17,7 km/h (3 Bft)
01.07.2017 16:24 17,5 °C 17,5 °C 61 % 1011,5 hPa 0,0 mm 11,5 km/h (2 Bft) W 277 ° 0 min 0,000 mm 2,2 UV-I 239 W/m² 9,9 °C 17,5 °C 22,5 km/h (4 Bft)
01.07.2017 16:25 17,5 °C 17,5 °C 60 % 1011,5 hPa 0,0 mm 15,0 km/h (3 Bft) W 263 ° 0 min 0,000 mm 2,2 UV-I 279 W/m² 9,6 °C 17,5 °C 20,9 km/h (4 Bft)
01.07.2017 16:26 17,4 °C 17,5 °C 61 % 1011,5 hPa 0,0 mm 16,4 km/h (3 Bft) W 274 ° 1 min 0,000 mm 2,5 UV-I 297 W/m² 9,8 °C 17,4 °C 22,5 km/h (4 Bft)
01.07.2017 16:27 17,4 °C 17,5 °C 59 % 1011,5 hPa 0,0 mm 12,4 km/h (3 Bft) SW 216 ° 1 min 0,000 mm 2,7 UV-I 315 W/m² 9,3 °C 17,4 °C 17,7 km/h (3 Bft)
01.07.2017 16:28 17,5 °C 17,5 °C 59 % 1011,5 hPa 0,0 mm 15,8 km/h (3 Bft) W-NW 284 ° 1 min 0,000 mm 2,8 UV-I 308 W/m² 9,4 °C 17,5 °C 20,9 km/h (4 Bft)
01.07.2017 16:29 17,6 °C 17,6 °C 61 % 1011,5 hPa 0,0 mm 13,4 km/h (3 Bft) W 279 ° 0 min 0,000 mm 2,7 UV-I 209 W/m² 10,0 °C 17,6 °C 20,9 km/h (4 Bft)
01.07.2017 16:30 17,6 °C 17,6 °C 62 % 1011,6 hPa 0,0 mm 10,3 km/h (2 Bft) W-NW 290 ° 0 min 0,000 mm 2,5 UV-I 179 W/m² 10,2 °C 17,6 °C 12,9 km/h (3 Bft)
01.07.2017 16:31 17,7 °C 17,7 °C 60 % 1011,6 hPa 0,0 mm 16,7 km/h (3 Bft) W 267 ° 0 min 0,000 mm 2,6 UV-I 174 W/m² 9,8 °C 17,7 °C 24,1 km/h (4 Bft)
01.07.2017 16:32 17,7 °C 17,7 °C 59 % 1011,6 hPa 0,0 mm 10,5 km/h (2 Bft) W-SW 256 ° 0 min 0,000 mm 2,6 UV-I 262 W/m² 9,6 °C 17,7 °C 19,3 km/h (3 Bft)
01.07.2017 16:33 17,7 °C 17,7 °C 61 % 1011,5 hPa 0,0 mm 13,5 km/h (3 Bft) W 261 ° 0 min 0,000 mm 2,6 UV-I 264 W/m² 10,1 °C 17,7 °C 22,5 km/h (4 Bft)
01.07.2017 16:34 17,8 °C 17,8 °C 61 % 1011,6 hPa 0,0 mm 11,8 km/h (2 Bft) W 265 ° 0 min 0,000 mm 2,5 UV-I 229 W/m² 10,2 °C 17,8 °C 22,5 km/h (4 Bft)
01.07.2017 16:35 17,8 °C 17,8 °C 59 % 1011,6 hPa 0,0 mm 12,9 km/h (3 Bft) W-SW 240 ° 0 min 0,000 mm 2,3 UV-I 197 W/m² 9,7 °C 17,8 °C 19,3 km/h (3 Bft)
01.07.2017 16:36 17,7 °C 17,8 °C 60 % 1011,6 hPa 0,0 mm 12,6 km/h (3 Bft) W-SW 257 ° 0 min 0,000 mm 2,2 UV-I 186 W/m² 9,8 °C 17,7 °C 17,7 km/h (3 Bft)
01.07.2017 16:37 17,6 °C 17,7 °C 60 % 1011,6 hPa 0,0 mm 16,2 km/h (3 Bft) W-NW 289 ° 0 min 0,000 mm 2,1 UV-I 172 W/m² 9,7 °C 17,6 °C 27,4 km/h (4 Bft)
01.07.2017 16:38 17,4 °C 17,6 °C 61 % 1011,6 hPa 0,0 mm 17,3 km/h (3 Bft) W 272 ° 0 min 0,000 mm 1,9 UV-I 160 W/m² 9,8 °C 17,4 °C 25,7 km/h (4 Bft)
01.07.2017 16:39 17,4 °C 17,4 °C 59 % 1011,6 hPa 0,0 mm 12,2 km/h (2 Bft) NW 304 ° 0 min 0,000 mm 1,9 UV-I 160 W/m² 9,3 °C 17,4 °C 17,7 km/h (3 Bft)
01.07.2017 16:40 17,3 °C 17,4 °C 62 % 1011,5 hPa 0,0 mm 9,1 km/h (2 Bft) W-NW 285 ° 0 min 0,000 mm 1,9 UV-I 178 W/m² 9,9 °C 17,3 °C 12,9 km/h (3 Bft)
01.07.2017 16:41 17,3 °C 17,3 °C 64 % 1011,6 hPa 0,0 mm 4,8 km/h (1 Bft) W-SW 256 ° 0 min 0,000 mm 1,9 UV-I 192 W/m² 10,4 °C 17,3 °C 8,0 km/h (2 Bft)
01.07.2017 16:42 17,3 °C 17,3 °C 62 % 1011,6 hPa 0,0 mm 7,8 km/h (2 Bft) W-NW 300 ° 0 min 0,000 mm 1,9 UV-I 155 W/m² 9,9 °C 17,3 °C 12,9 km/h (3 Bft)
01.07.2017 16:43 17,2 °C 17,3 °C 63 % 1011,6 hPa 0,0 mm 8,6 km/h (2 Bft) W-NW 285 ° 0 min 0,000 mm 1,5 UV-I 132 W/m² 10,1 °C 17,2 °C 14,5 km/h (3 Bft)
01.07.2017 16:44 17,3 °C 17,3 °C 63 % 1011,6 hPa 0,0 mm 5,7 km/h (1 Bft) W-NW 294 ° 0 min 0,000 mm 1,4 UV-I 132 W/m² 10,2 °C 17,3 °C 6,4 km/h (2 Bft)
01.07.2017 16:45 17,2 °C 17,3 °C 63 % 1011,6 hPa 0,0 mm 6,7 km/h (2 Bft) W 269 ° 0 min 0,000 mm 1,3 UV-I 128 W/m² 10,1 °C 17,2 °C 12,9 km/h (3 Bft)
01.07.2017 16:46 17,2 °C 17,2 °C 62 % 1011,8 hPa 0,0 mm 11,7 km/h (2 Bft) W 266 ° 0 min 0,000 mm 1,2 UV-I 125 W/m² 9,9 °C 17,2 °C 20,9 km/h (4 Bft)
01.07.2017 16:47 17,2 °C 17,2 °C 62 % 1011,6 hPa 0,0 mm 17,7 km/h (3 Bft) W-SW 258 ° 0 min 0,000 mm 1,1 UV-I 121 W/m² 9,9 °C 17,2 °C 24,1 km/h (4 Bft)
01.07.2017 16:48 17,1 °C 17,2 °C 61 % 1011,6 hPa 0,0 mm 16,0 km/h (3 Bft) W-SW 255 ° 0 min 0,000 mm 1,0 UV-I 113 W/m² 9,5 °C 17,1 °C 25,7 km/h (4 Bft)
01.07.2017 16:49 17,1 °C 17,1 °C 62 % 1011,7 hPa 0,0 mm 13,2 km/h (3 Bft) W-SW 255 ° 0 min 0,000 mm 0,9 UV-I 105 W/m² 9,8 °C 17,1 °C 17,7 km/h (3 Bft)
01.07.2017 16:50 17,0 °C 17,1 °C 63 % 1011,8 hPa 0,0 mm 15,5 km/h (3 Bft) W 275 ° 0 min 0,000 mm 0,8 UV-I 102 W/m² 9,9 °C 17,0 °C 20,9 km/h (4 Bft)
01.07.2017 16:51 16,9 °C 17,0 °C 64 % 1011,8 hPa 0,0 mm 9,7 km/h (2 Bft) W 273 ° 0 min 0,000 mm 0,8 UV-I 102 W/m² 10,0 °C 16,9 °C 16,1 km/h (3 Bft)
01.07.2017 16:52 16,9 °C 16,9 °C 61 % 1011,7 hPa 0,0 mm 13,4 km/h (3 Bft) W-NW 292 ° 0 min 0,000 mm 0,8 UV-I 107 W/m² 9,3 °C 16,9 °C 20,9 km/h (4 Bft)
01.07.2017 16:53 16,9 °C 16,9 °C 63 % 1011,8 hPa 0,0 mm 8,2 km/h (2 Bft) W 276 ° 0 min 0,000 mm 0,9 UV-I 120 W/m² 9,8 °C 16,9 °C 12,9 km/h (3 Bft)
01.07.2017 16:54 16,8 °C 16,9 °C 64 % 1011,8 hPa 0,0 mm 11,7 km/h (2 Bft) W 279 ° 0 min 0,000 mm 1,0 UV-I 156 W/m² 10,0 °C 16,8 °C 17,7 km/h (3 Bft)
01.07.2017 16:55 16,8 °C 16,8 °C 63 % 1011,7 hPa 0,0 mm 10,8 km/h (2 Bft) W-SW 252 ° 0 min 0,000 mm 1,3 UV-I 183 W/m² 9,7 °C 16,8 °C 14,5 km/h (3 Bft)
01.07.2017 16:56 16,8 °C 16,8 °C 63 % 1011,8 hPa 0,0 mm 13,7 km/h (3 Bft) W 265 ° 0 min 0,000 mm 1,5 UV-I 207 W/m² 9,7 °C 16,8 °C 17,7 km/h (3 Bft)
01.07.2017 16:57 16,9 °C 16,9 °C 63 % 1011,8 hPa 0,0 mm 17,3 km/h (3 Bft) W-NW 282 ° 0 min 0,000 mm 1,7 UV-I 227 W/m² 9,8 °C 16,9 °C 29,0 km/h (5 Bft)
01.07.2017 16:58 16,9 °C 16,9 °C 61 % 1011,7 hPa 0,0 mm 15,5 km/h (3 Bft) W-NW 286 ° 0 min 0,000 mm 2,0 UV-I 253 W/m² 9,3 °C 16,9 °C 25,7 km/h (4 Bft)
01.07.2017 16:59 17,1 °C 17,1 °C 61 % 1011,7 hPa 0,0 mm 13,0 km/h (3 Bft) W 279 ° 0 min 0,000 mm 2,0 UV-I 274 W/m² 9,5 °C 17,1 °C 20,9 km/h (4 Bft)
01.07.2017 17:00 17,3 °C 17,3 °C 62 % 1011,7 hPa 0,0 mm 9,8 km/h (2 Bft) W-NW 292 ° 0 min 0,000 mm 2,2 UV-I 241 W/m² 9,9 °C 17,3 °C 16,1 km/h (3 Bft)
01.07.2017 17:01 17,4 °C 17,4 °C 63 % 1011,8 hPa 0,0 mm 18,9 km/h (3 Bft) W-NW 286 ° 0 min 0,203 mm 2,1 UV-I 214 W/m² 10,3 °C 17,4 °C 30,6 km/h (5 Bft)
01.07.2017 17:02 17,4 °C 17,4 °C 59 % 1011,8 hPa 0,0 mm 15,7 km/h (3 Bft) SW 235 ° 0 min 0,000 mm 1,9 UV-I 186 W/m² 9,3 °C 17,4 °C 24,1 km/h (4 Bft)
01.07.2017 17:03 17,4 °C 17,4 °C 61 % 1011,8 hPa 0,0 mm 11,3 km/h (2 Bft) W 264 ° 0 min 0,000 mm 1,7 UV-I 169 W/m² 9,8 °C 17,4 °C 17,7 km/h (3 Bft)
01.07.2017 17:04 17,3 °C 17,4 °C 61 % 1011,8 hPa 0,0 mm 11,6 km/h (2 Bft) W 267 ° 0 min 0,000 mm 1,6 UV-I 162 W/m² 9,7 °C 17,3 °C 16,1 km/h (3 Bft)
01.07.2017 17:05 17,3 °C 17,3 °C 61 % 1011,8 hPa 0,0 mm 6,4 km/h (2 Bft) W-SW 258 ° 0 min 0,000 mm 1,5 UV-I 162 W/m² 9,7 °C 17,3 °C 11,3 km/h (2 Bft)
01.07.2017 17:06 17,2 °C 17,3 °C 61 % 1011,9 hPa 0,0 mm 7,3 km/h (2 Bft) W 271 ° 0 min 0,000 mm 1,4 UV-I 155 W/m² 9,6 °C 17,2 °C 12,9 km/h (3 Bft)
01.07.2017 17:07 17,2 °C 17,2 °C 61 % 1011,8 hPa 0,0 mm 7,6 km/h (2 Bft) S-SW 208 ° 0 min 0,000 mm 1,3 UV-I 156 W/m² 9,6 °C 17,2 °C 16,1 km/h (3 Bft)
01.07.2017 17:08 17,1 °C 17,2 °C 60 % 1011,9 hPa 0,0 mm 9,3 km/h (2 Bft) W-SW 246 ° 0 min 0,000 mm 1,3 UV-I 155 W/m² 9,3 °C 17,1 °C 16,1 km/h (3 Bft)
01.07.2017 17:09 17,1 °C 17,1 °C 62 % 1011,9 hPa 0,0 mm 12,0 km/h (2 Bft) W-NW 283 ° 0 min 0,000 mm 1,3 UV-I 151 W/m² 9,8 °C 17,1 °C 19,3 km/h (3 Bft)
01.07.2017 17:10 17,1 °C 17,1 °C 61 % 1011,8 hPa 0,0 mm 12,5 km/h (3 Bft) W-NW 302 ° 0 min 0,000 mm 1,3 UV-I 148 W/m² 9,5 °C 17,1 °C 17,7 km/h (3 Bft)
01.07.2017 17:11 17,0 °C 17,1 °C 62 % 1012,0 hPa 0,0 mm 14,3 km/h (3 Bft) N-NW 327 ° 0 min 0,000 mm 1,3 UV-I 167 W/m² 9,7 °C 17,0 °C 20,9 km/h (4 Bft)
01.07.2017 17:12 17,1 °C 17,1 °C 61 % 1011,9 hPa 0,0 mm 14,9 km/h (3 Bft) W 259 ° 0 min 0,000 mm 1,3 UV-I 174 W/m² 9,5 °C 17,1 °C 24,1 km/h (4 Bft)
01.07.2017 17:13 17,1 °C 17,1 °C 61 % 1012,0 hPa 0,0 mm 16,5 km/h (3 Bft) W 273 ° 0 min 0,000 mm 1,4 UV-I 172 W/m² 9,5 °C 17,1 °C 24,1 km/h (4 Bft)
01.07.2017 17:14 17,0 °C 17,1 °C 60 % 1012,0 hPa 0,0 mm 12,2 km/h (2 Bft) W 277 ° 0 min 0,000 mm 1,3 UV-I 167 W/m² 9,2 °C 17,0 °C 20,9 km/h (4 Bft)
01.07.2017 17:15 17,1 °C 17,1 °C 61 % 1012,0 hPa 0,0 mm 12,2 km/h (2 Bft) W-SW 255 ° 0 min 0,000 mm 1,3 UV-I 163 W/m² 9,5 °C 17,1 °C 16,1 km/h (3 Bft)
01.07.2017 17:16 17,1 °C 17,1 °C 62 % 1012,0 hPa 0,0 mm 15,6 km/h (3 Bft) W 271 ° 0 min 0,000 mm 1,4 UV-I 165 W/m² 9,8 °C 17,1 °C 24,1 km/h (4 Bft)
01.07.2017 17:17 17,1 °C 17,1 °C 60 % 1011,9 hPa 0,0 mm 14,8 km/h (3 Bft) W-NW 285 ° 0 min 0,000 mm 1,4 UV-I 172 W/m² 9,3 °C 17,1 °C 24,1 km/h (4 Bft)
01.07.2017 17:18 17,0 °C 17,1 °C 61 % 1012,0 hPa 0,0 mm 14,5 km/h (3 Bft) W 261 ° 0 min 0,000 mm 1,4 UV-I 176 W/m² 9,4 °C 17,0 °C 24,1 km/h (4 Bft)
01.07.2017 17:19 16,9 °C 17,0 °C 61 % 1012,0 hPa 0,0 mm 17,5 km/h (3 Bft) W 269 ° 0 min 0,000 mm 1,5 UV-I 188 W/m² 9,3 °C 16,9 °C 24,1 km/h (4 Bft)
01.07.2017 17:20 16,9 °C 16,9 °C 61 % 1012,0 hPa 0,0 mm 11,2 km/h (2 Bft) W 265 ° 0 min 0,000 mm 1,5 UV-I 192 W/m² 9,3 °C 16,9 °C 20,9 km/h (4 Bft)
01.07.2017 17:21 16,9 °C 16,9 °C 63 % 1012,0 hPa 0,0 mm 10,1 km/h (2 Bft) W 277 ° 0 min 0,000 mm 1,4 UV-I 176 W/m² 9,8 °C 16,9 °C 14,5 km/h (3 Bft)
01.07.2017 17:22 16,9 °C 16,9 °C 63 % 1012,0 hPa 0,0 mm 11,5 km/h (2 Bft) W-NW 286 ° 0 min 0,000 mm 1,3 UV-I 162 W/m² 9,8 °C 16,9 °C 20,9 km/h (4 Bft)
01.07.2017 17:23 16,9 °C 16,9 °C 62 % 1012,1 hPa 0,0 mm 11,4 km/h (2 Bft) W 279 ° 0 min 0,000 mm 1,3 UV-I 158 W/m² 9,6 °C 16,9 °C 14,5 km/h (3 Bft)
01.07.2017 17:24 16,9 °C 16,9 °C 62 % 1012,0 hPa 0,0 mm 9,3 km/h (2 Bft) W 271 ° 0 min 0,000 mm 1,2 UV-I 156 W/m² 9,6 °C 16,9 °C 14,5 km/h (3 Bft)
01.07.2017 17:25 16,9 °C 16,9 °C 62 % 1012,0 hPa 0,0 mm 10,7 km/h (2 Bft) W-NW 291 ° 0 min 0,000 mm 1,2 UV-I 151 W/m² 9,6 °C 16,9 °C 20,9 km/h (4 Bft)
01.07.2017 17:26 16,9 °C 16,9 °C 63 % 1012,1 hPa 0,0 mm 10,7 km/h (2 Bft) W-NW 287 ° 0 min 0,000 mm 1,2 UV-I 151 W/m² 9,8 °C 16,9 °C 19,3 km/h (3 Bft)
01.07.2017 17:27 16,9 °C 16,9 °C 64 % 1012,1 hPa 0,0 mm 11,5 km/h (2 Bft) W-SW 250 ° 0 min 0,000 mm 1,2 UV-I 155 W/m² 10,0 °C 16,9 °C 16,1 km/h (3 Bft)
01.07.2017 17:28 16,9 °C 16,9 °C 63 % 1012,1 hPa 0,0 mm 16,1 km/h (3 Bft) W 267 ° 0 min 0,000 mm 1,3 UV-I 169 W/m² 9,8 °C 16,9 °C 22,5 km/h (4 Bft)
01.07.2017 17:29 16,9 °C 16,9 °C 64 % 1012,0 hPa 0,0 mm 13,3 km/h (3 Bft) W-NW 290 ° 0 min 0,000 mm 1,3 UV-I 190 W/m² 10,0 °C 16,9 °C 27,4 km/h (4 Bft)
01.07.2017 17:30 16,9 °C 16,9 °C 64 % 1012,1 hPa 0,0 mm 10,6 km/h (2 Bft) W-SW 252 ° 0 min 0,000 mm 1,5 UV-I 202 W/m² 10,0 °C 16,9 °C 16,1 km/h (3 Bft)
01.07.2017 17:31 16,9 °C 16,9 °C 64 % 1012,0 hPa 0,0 mm 12,3 km/h (3 Bft) W-SW 254 ° 0 min 0,000 mm 1,5 UV-I 211 W/m² 10,0 °C 16,9 °C 17,7 km/h (3 Bft)
01.07.2017 17:32 16,9 °C 16,9 °C 63 % 1012,1 hPa 0,0 mm 5,2 km/h (1 Bft) S 169 ° 0 min 0,000 mm 1,6 UV-I 213 W/m² 9,8 °C 16,9 °C 12,9 km/h (3 Bft)
01.07.2017 17:33 16,9 °C 16,9 °C 62 % 1012,1 hPa 0,0 mm 4,8 km/h (1 Bft) SW 219 ° 0 min 0,000 mm 1,6 UV-I 218 W/m² 9,6 °C 16,9 °C 11,3 km/h (2 Bft)
01.07.2017 17:34 17,0 °C 17,0 °C 64 % 1012,1 hPa 0,0 mm 7,4 km/h (2 Bft) W-NW 298 ° 0 min 0,000 mm 1,7 UV-I 214 W/m² 10,1 °C 17,0 °C 11,3 km/h (2 Bft)
01.07.2017 17:35 17,0 °C 17,0 °C 65 % 1012,1 hPa 0,0 mm 10,5 km/h (2 Bft) N-NW 327 ° 0 min 0,000 mm 1,7 UV-I 171 W/m² 10,4 °C 17,0 °C 14,5 km/h (3 Bft)
01.07.2017 17:36 17,1 °C 17,1 °C 65 % 1012,1 hPa 0,0 mm 8,6 km/h (2 Bft) W 267 ° 0 min 0,000 mm 1,3 UV-I 137 W/m² 10,5 °C 17,1 °C 14,5 km/h (3 Bft)
01.07.2017 17:37 17,0 °C 17,1 °C 62 % 1012,1 hPa 0,0 mm 9,9 km/h (2 Bft) W 268 ° 0 min 0,000 mm 1,1 UV-I 116 W/m² 9,7 °C 17,0 °C 14,5 km/h (3 Bft)
01.07.2017 17:38 17,0 °C 17,0 °C 63 % 1012,1 hPa 0,0 mm 7,0 km/h (2 Bft) SW 235 ° 0 min 0,000 mm 0,9 UV-I 102 W/m² 9,9 °C 17,0 °C 16,1 km/h (3 Bft)
01.07.2017 17:39 16,9 °C 17,0 °C 63 % 1012,1 hPa 0,0 mm 11,7 km/h (2 Bft) W 264 ° 0 min 0,000 mm 0,7 UV-I 102 W/m² 9,8 °C 16,9 °C 16,1 km/h (3 Bft)
01.07.2017 17:40 16,8 °C 16,9 °C 63 % 1012,1 hPa 0,0 mm 5,8 km/h (2 Bft) S 181 ° 0 min 0,000 mm 0,7 UV-I 81 W/m² 9,7 °C 16,8 °C 9,7 km/h (2 Bft)
01.07.2017 17:41 16,8 °C 16,8 °C 64 % 1012,1 hPa 0,0 mm 6,0 km/h (2 Bft) W 260 ° 0 min 0,000 mm 0,6 UV-I 91 W/m² 10,0 °C 16,8 °C 9,7 km/h (2 Bft)
01.07.2017 17:42 16,8 °C 16,8 °C 65 % 1012,1 hPa 0,0 mm 7,2 km/h (2 Bft) SW 236 ° 0 min 0,000 mm 0,8 UV-I 100 W/m² 10,2 °C 16,8 °C 12,9 km/h (3 Bft)
01.07.2017 17:43 16,7 °C 16,8 °C 64 % 1012,1 hPa 0,0 mm 3,1 km/h (1 Bft) W-SW 248 ° 0 min 0,000 mm 0,8 UV-I 107 W/m² 9,9 °C 16,7 °C 8,0 km/h (2 Bft)
01.07.2017 17:44 16,7 °C 16,8 °C 67 % 1012,1 hPa 0,0 mm 6,2 km/h (2 Bft) W 275 ° 0 min 0,000 mm 0,9 UV-I 111 W/m² 10,5 °C 16,7 °C 11,3 km/h (2 Bft)
01.07.2017 17:45 16,7 °C 16,7 °C 66 % 1012,1 hPa 0,0 mm 3,8 km/h (1 Bft) NW 306 ° 0 min 0,000 mm 0,9 UV-I 116 W/m² 10,3 °C 16,7 °C 6,4 km/h (2 Bft)
01.07.2017 17:46 16,7 °C 16,7 °C 65 % 1012,1 hPa 0,0 mm 3,4 km/h (1 Bft) SW 223 ° 0 min 0,000 mm 1,0 UV-I 121 W/m² 10,1 °C 16,7 °C 4,8 km/h (1 Bft)
01.07.2017 17:47 16,7 °C 16,7 °C 66 % 1012,2 hPa 0,0 mm 5,7 km/h (1 Bft) W-NW 289 ° 0 min 0,000 mm 1,0 UV-I 125 W/m² 10,3 °C 16,7 °C 11,3 km/h (2 Bft)
01.07.2017 17:48 16,8 °C 16,8 °C 65 % 1012,2 hPa 0,0 mm 7,0 km/h (2 Bft) W-NW 286 ° 0 min 0,000 mm 1,0 UV-I 125 W/m² 10,2 °C 16,8 °C 9,7 km/h (2 Bft)
01.07.2017 17:49 16,8 °C 16,8 °C 65 % 1012,2 hPa 0,0 mm 2,9 km/h (1 Bft) W-SW 255 ° 0 min 0,000 mm 1,0 UV-I 127 W/m² 10,2 °C 16,8 °C 4,8 km/h (1 Bft)
01.07.2017 17:50 16,8 °C 16,8 °C 63 % 1012,2 hPa 0,0 mm 7,1 km/h (2 Bft) W 266 ° 0 min 0,000 mm 1,0 UV-I 125 W/m² 9,7 °C 16,8 °C 14,5 km/h (3 Bft)
01.07.2017 17:51 16,9 °C 16,9 °C 64 % 1012,2 hPa 0,0 mm 8,4 km/h (2 Bft) W-SW 257 ° 0 min 0,000 mm 1,0 UV-I 135 W/m² 10,0 °C 16,9 °C 14,5 km/h (3 Bft)
01.07.2017 17:52 16,9 °C 16,9 °C 64 % 1012,2 hPa 0,0 mm 5,6 km/h (1 Bft) SW 232 ° 0 min 0,000 mm 1,0 UV-I 130 W/m² 10,0 °C 16,9 °C 11,3 km/h (2 Bft)
01.07.2017 17:53 17,0 °C 17,0 °C 63 % 1012,2 hPa 0,0 mm 9,8 km/h (2 Bft) SW 220 ° 0 min 0,000 mm 1,0 UV-I 127 W/m² 9,9 °C 17,0 °C 19,3 km/h (3 Bft)
01.07.2017 17:54 17,1 °C 17,1 °C 63 % 1012,1 hPa 0,0 mm 10,8 km/h (2 Bft) W-SW 251 ° 0 min 0,000 mm 0,9 UV-I 127 W/m² 10,0 °C 17,1 °C 24,1 km/h (4 Bft)
01.07.2017 17:55 17,1 °C 17,1 °C 64 % 1012,2 hPa 0,0 mm 12,7 km/h (3 Bft) SW 225 ° 0 min 0,000 mm 0,9 UV-I 127 W/m² 10,2 °C 17,1 °C 19,3 km/h (3 Bft)
01.07.2017 17:56 17,1 °C 17,1 °C 62 % 1012,2 hPa 0,0 mm 10,3 km/h (2 Bft) W-SW 254 ° 0 min 0,000 mm 0,9 UV-I 127 W/m² 9,8 °C 17,1 °C 17,7 km/h (3 Bft)
01.07.2017 17:57 17,0 °C 17,1 °C 62 % 1012,2 hPa 0,0 mm 11,8 km/h (2 Bft) W 276 ° 0 min 0,000 mm 1,0 UV-I 128 W/m² 9,7 °C 17,0 °C 16,1 km/h (3 Bft)
01.07.2017 17:58 17,0 °C 17,0 °C 62 % 1012,2 hPa 0,0 mm 7,5 km/h (2 Bft) W-SW 242 ° 0 min 0,000 mm 0,9 UV-I 113 W/m² 9,7 °C 17,0 °C 12,9 km/h (3 Bft)
01.07.2017 17:59 16,9 °C 17,0 °C 62 % 1012,2 hPa 0,0 mm 8,1 km/h (2 Bft) W 273 ° 0 min 0,000 mm 0,9 UV-I 100 W/m² 9,6 °C 16,9 °C 12,9 km/h (3 Bft)
01.07.2017 18:00 16,9 °C 16,9 °C 64 % 1012,3 hPa 0,0 mm 9,8 km/h (2 Bft) NW 323 ° 0 min 0,000 mm 0,7 UV-I 88 W/m² 10,0 °C 16,9 °C 16,1 km/h (3 Bft)
01.07.2017 18:01 16,9 °C 16,9 °C 62 % 1012,3 hPa 0,0 mm 9,4 km/h (2 Bft) W 265 ° 0 min 0,127 mm 0,6 UV-I 84 W/m² 9,6 °C 16,9 °C 16,1 km/h (3 Bft)
01.07.2017 18:02 16,8 °C 16,9 °C 63 % 1012,3 hPa 0,0 mm 7,0 km/h (2 Bft) W 276 ° 0 min 0,000 mm 0,6 UV-I 90 W/m² 9,7 °C 16,8 °C 12,9 km/h (3 Bft)
01.07.2017 18:03 16,8 °C 16,8 °C 64 % 1012,2 hPa 0,0 mm 4,9 km/h (1 Bft) W-SW 257 ° 0 min 0,000 mm 0,6 UV-I 97 W/m² 10,0 °C 16,8 °C 12,9 km/h (3 Bft)
01.07.2017 18:04 16,8 °C 16,8 °C 63 % 1012,3 hPa 0,0 mm 10,9 km/h (2 Bft) W-SW 257 ° 0 min 0,000 mm 0,7 UV-I 109 W/m² 9,7 °C 16,8 °C 17,7 km/h (3 Bft)
01.07.2017 18:05 16,7 °C 16,8 °C 63 % 1012,3 hPa 0,0 mm 6,3 km/h (2 Bft) W-SW 254 ° 0 min 0,000 mm 0,7 UV-I 116 W/m² 9,6 °C 16,7 °C 11,3 km/h (2 Bft)
01.07.2017 18:06 16,7 °C 16,7 °C 63 % 1012,3 hPa 0,0 mm 14,6 km/h (3 Bft) W-NW 288 ° 0 min 0,000 mm 0,8 UV-I 123 W/m² 9,6 °C 16,7 °C 17,7 km/h (3 Bft)
01.07.2017 18:07 16,7 °C 16,7 °C 63 % 1012,3 hPa 0,0 mm 18,2 km/h (3 Bft) W 272 ° 0 min 0,000 mm 0,9 UV-I 132 W/m² 9,6 °C 16,7 °C 24,1 km/h (4 Bft)
01.07.2017 18:08 16,7 °C 16,7 °C 63 % 1012,3 hPa 0,0 mm 13,2 km/h (3 Bft) W 279 ° 0 min 0,000 mm 0,9 UV-I 139 W/m² 9,6 °C 16,7 °C 19,3 km/h (3 Bft)
01.07.2017 18:09 16,7 °C 16,7 °C 63 % 1012,3 hPa 0,0 mm 11,6 km/h (2 Bft) W-SW 247 ° 0 min 0,000 mm 0,9 UV-I 142 W/m² 9,6 °C 16,7 °C 19,3 km/h (3 Bft)
01.07.2017 18:10 16,7 °C 16,7 °C 63 % 1012,4 hPa 0,0 mm 14,7 km/h (3 Bft) W-NW 292 ° 0 min 0,000 mm 1,0 UV-I 146 W/m² 9,6 °C 16,7 °C 25,7 km/h (4 Bft)
01.07.2017 18:11 16,7 °C 16,7 °C 62 % 1012,3 hPa 0,0 mm 12,3 km/h (3 Bft) W-NW 296 ° 0 min 0,000 mm 1,0 UV-I 148 W/m² 9,4 °C 16,7 °C 17,7 km/h (3 Bft)
01.07.2017 18:12 16,7 °C 16,7 °C 64 % 1012,4 hPa 0,0 mm 5,4 km/h (1 Bft) W 281 ° 0 min 0,000 mm 1,0 UV-I 146 W/m² 9,9 °C 16,7 °C 8,0 km/h (2 Bft)
01.07.2017 18:13 16,7 °C 16,7 °C 64 % 1012,4 hPa 0,0 mm 11,2 km/h (2 Bft) W 281 ° 0 min 0,000 mm 1,0 UV-I 141 W/m² 9,9 °C 16,7 °C 17,7 km/h (3 Bft)
01.07.2017 18:14 16,7 °C 16,7 °C 65 % 1012,3 hPa 0,0 mm 8,9 km/h (2 Bft) W 277 ° 0 min 0,000 mm 0,9 UV-I 134 W/m² 10,1 °C 16,7 °C 14,5 km/h (3 Bft)
01.07.2017 18:15 16,7 °C 16,7 °C 66 % 1012,4 hPa 0,0 mm 6,8 km/h (2 Bft) W-SW 258 ° 0 min 0,000 mm 0,9 UV-I 128 W/m² 10,3 °C 16,7 °C 12,9 km/h (3 Bft)
01.07.2017 18:16 16,7 °C 16,7 °C 64 % 1012,4 hPa 0,0 mm 6,1 km/h (2 Bft) W 271 ° 0 min 0,000 mm 0,8 UV-I 118 W/m² 9,9 °C 16,7 °C 11,3 km/h (2 Bft)
01.07.2017 18:17 16,7 °C 16,7 °C 67 % 1012,4 hPa 0,0 mm 5,5 km/h (1 Bft) W 278 ° 0 min 0,000 mm 0,8 UV-I 113 W/m² 10,5 °C 16,7 °C 12,9 km/h (3 Bft)
01.07.2017 18:18 16,7 °C 16,7 °C 65 % 1012,4 hPa 0,0 mm 9,9 km/h (2 Bft) W 269 ° 0 min 0,000 mm 0,7 UV-I 107 W/m² 10,1 °C 16,7 °C 19,3 km/h (3 Bft)
01.07.2017 18:19 16,7 °C 16,7 °C 65 % 1012,4 hPa 0,0 mm 7,7 km/h (2 Bft) W 265 ° 0 min 0,000 mm 0,7 UV-I 102 W/m² 10,1 °C 16,7 °C 17,7 km/h (3 Bft)
01.07.2017 18:20 16,7 °C 16,7 °C 66 % 1012,4 hPa 0,0 mm 12,1 km/h (2 Bft) W 271 ° 0 min 0,000 mm 0,7 UV-I 102 W/m² 10,3 °C 16,7 °C 17,7 km/h (3 Bft)
01.07.2017 18:21 16,6 °C 16,7 °C 66 % 1012,4 hPa 0,0 mm 4,7 km/h (1 Bft) W-SW 237 ° 0 min 0,000 mm 0,7 UV-I 105 W/m² 10,2 °C 16,6 °C 11,3 km/h (2 Bft)
01.07.2017 18:22 16,6 °C 16,6 °C 67 % 1012,4 hPa 0,0 mm 1,5 km/h (1 Bft) S-SW 192 ° 0 min 0,000 mm 0,7 UV-I 128 W/m² 10,4 °C 16,6 °C 4,8 km/h (1 Bft)
01.07.2017 18:23 16,6 °C 16,6 °C 65 % 1012,4 hPa 0,0 mm 12,0 km/h (2 Bft) W 270 ° 0 min 0,000 mm 0,9 UV-I 139 W/m² 10,0 °C 16,6 °C 17,7 km/h (3 Bft)
01.07.2017 18:24 16,6 °C 16,6 °C 66 % 1012,4 hPa 0,0 mm 7,8 km/h (2 Bft) W 262 ° 0 min 0,000 mm 0,9 UV-I 142 W/m² 10,2 °C 16,6 °C 16,1 km/h (3 Bft)
01.07.2017 18:25 16,6 °C 16,6 °C 64 % 1012,4 hPa 0,0 mm 14,3 km/h (3 Bft) W-SW 255 ° 0 min 0,000 mm 0,9 UV-I 144 W/m² 9,8 °C 16,6 °C 17,7 km/h (3 Bft)
01.07.2017 18:26 16,5 °C 16,6 °C 65 % 1012,4 hPa 0,0 mm 10,6 km/h (2 Bft) W-NW 292 ° 0 min 0,000 mm 0,9 UV-I 144 W/m² 9,9 °C 16,5 °C 14,5 km/h (3 Bft)
01.07.2017 18:27 16,5 °C 16,6 °C 63 % 1012,4 hPa 0,0 mm 13,7 km/h (3 Bft) W 267 ° 0 min 0,000 mm 0,9 UV-I 142 W/m² 9,4 °C 16,5 °C 19,3 km/h (3 Bft)
01.07.2017 18:28 16,6 °C 16,6 °C 64 % 1012,4 hPa 0,0 mm 12,9 km/h (3 Bft) W 274 ° 0 min 0,000 mm 0,9 UV-I 142 W/m² 9,8 °C 16,6 °C 17,7 km/h (3 Bft)
01.07.2017 18:29 16,5 °C 16,6 °C 63 % 1012,4 hPa 0,0 mm 9,9 km/h (2 Bft) NW 323 ° 0 min 0,000 mm 0,9 UV-I 141 W/m² 9,4 °C 16,5 °C 16,1 km/h (3 Bft)
01.07.2017 18:30 16,4 °C 16,5 °C 65 % 1012,4 hPa 0,0 mm 7,8 km/h (2 Bft) W 260 ° 0 min 0,000 mm 0,9 UV-I 144 W/m² 9,8 °C 16,4 °C 14,5 km/h (3 Bft)
01.07.2017 18:31 16,4 °C 16,4 °C 64 % 1012,4 hPa 0,0 mm 7,2 km/h (2 Bft) W 270 ° 0 min 0,000 mm 0,9 UV-I 153 W/m² 9,6 °C 16,4 °C 12,9 km/h (3 Bft)
01.07.2017 18:32 16,4 °C 16,4 °C 64 % 1012,4 hPa 0,0 mm 16,2 km/h (3 Bft) NW 317 ° 0 min 0,000 mm 1,0 UV-I 165 W/m² 9,6 °C 16,4 °C 20,9 km/h (4 Bft)
01.07.2017 18:33 16,4 °C 16,4 °C 63 % 1012,4 hPa 0,0 mm 10,7 km/h (2 Bft) W 268 ° 0 min 0,000 mm 1,0 UV-I 179 W/m² 9,3 °C 16,4 °C 16,1 km/h (3 Bft)
01.07.2017 18:34 16,5 °C 16,5 °C 62 % 1012,4 hPa 0,0 mm 12,7 km/h (3 Bft) W-NW 293 ° 0 min 0,000 mm 1,1 UV-I 181 W/m² 9,2 °C 16,5 °C 24,1 km/h (4 Bft)
01.07.2017 18:35 16,5 °C 16,5 °C 63 % 1012,4 hPa 0,0 mm 9,5 km/h (2 Bft) W 281 ° 0 min 0,000 mm 1,1 UV-I 178 W/m² 9,4 °C 16,5 °C 14,5 km/h (3 Bft)
01.07.2017 18:36 16,5 °C 16,6 °C 65 % 1012,4 hPa 0,0 mm 13,7 km/h (3 Bft) W 259 ° 0 min 0,000 mm 1,1 UV-I 171 W/m² 9,9 °C 16,5 °C 19,3 km/h (3 Bft)
01.07.2017 18:37 16,5 °C 16,6 °C 64 % 1012,4 hPa 0,0 mm 9,2 km/h (2 Bft) S-SW 209 ° 0 min 0,000 mm 1,1 UV-I 163 W/m² 9,7 °C 16,5 °C 16,1 km/h (3 Bft)
01.07.2017 18:38 16,5 °C 16,5 °C 63 % 1012,5 hPa 0,0 mm 13,3 km/h (3 Bft) W-NW 286 ° 0 min 0,000 mm 1,1 UV-I 156 W/m² 9,4 °C 16,5 °C 22,5 km/h (4 Bft)
01.07.2017 18:39 16,4 °C 16,5 °C 62 % 1012,4 hPa 0,0 mm 7,5 km/h (2 Bft) W 271 ° 0 min 0,000 mm 1,1 UV-I 146 W/m² 9,1 °C 16,4 °C 14,5 km/h (3 Bft)
01.07.2017 18:40 16,4 °C 16,4 °C 64 % 1012,5 hPa 0,0 mm 8,3 km/h (2 Bft) W-SW 243 ° 0 min 0,000 mm 1,0 UV-I 144 W/m² 9,6 °C 16,4 °C 12,9 km/h (3 Bft)
01.07.2017 18:41 16,4 °C 16,4 °C 62 % 1012,5 hPa 0,0 mm 8,8 km/h (2 Bft) W-NW 298 ° 0 min 0,000 mm 1,0 UV-I 139 W/m² 9,1 °C 16,4 °C 22,5 km/h (4 Bft)
01.07.2017 18:42 16,3 °C 16,4 °C 65 % 1012,5 hPa 0,0 mm 12,6 km/h (3 Bft) SW 224 ° 0 min 0,000 mm 1,0 UV-I 135 W/m² 9,7 °C 16,3 °C 19,3 km/h (3 Bft)
01.07.2017 18:43 16,3 °C 16,3 °C 65 % 1012,5 hPa 0,0 mm 5,1 km/h (1 Bft) W 273 ° 0 min 0,000 mm 0,9 UV-I 132 W/m² 9,7 °C 16,3 °C 9,7 km/h (2 Bft)
01.07.2017 18:44 16,3 °C 16,3 °C 64 % 1012,5 hPa 0,0 mm 6,2 km/h (2 Bft) W 273 ° 0 min 0,000 mm 0,9 UV-I 130 W/m² 9,5 °C 16,3 °C 12,9 km/h (3 Bft)
01.07.2017 18:45 16,3 °C 16,3 °C 66 % 1012,5 hPa 0,0 mm 5,0 km/h (1 Bft) W-NW 292 ° 0 min 0,000 mm 0,9 UV-I 123 W/m² 9,9 °C 16,3 °C 11,3 km/h (2 Bft)
01.07.2017 18:46 16,3 °C 16,3 °C 65 % 1012,5 hPa 0,0 mm 3,4 km/h (1 Bft) W 278 ° 0 min 0,000 mm 0,9 UV-I 118 W/m² 9,7 °C 16,3 °C 9,7 km/h (2 Bft)
01.07.2017 18:47 16,3 °C 16,3 °C 67 % 1012,5 hPa 0,0 mm 7,0 km/h (2 Bft) W-SW 245 ° 0 min 0,000 mm 0,9 UV-I 111 W/m² 10,2 °C 16,3 °C 11,3 km/h (2 Bft)
01.07.2017 18:48 16,3 °C 16,3 °C 65 % 1012,5 hPa 0,0 mm 8,4 km/h (2 Bft) W 265 ° 0 min 0,000 mm 0,9 UV-I 107 W/m² 9,7 °C 16,3 °C 12,9 km/h (3 Bft)
01.07.2017 18:49 16,2 °C 16,3 °C 66 % 1012,5 hPa 0,0 mm 6,0 km/h (2 Bft) SW 225 ° 0 min 0,000 mm 0,9 UV-I 100 W/m² 9,8 °C 16,2 °C 11,3 km/h (2 Bft)
01.07.2017 18:50 16,2 °C 16,2 °C 65 % 1012,4 hPa 0,0 mm 5,6 km/h (1 Bft) W 259 ° 0 min 0,000 mm 0,9 UV-I 95 W/m² 9,6 °C 16,2 °C 11,3 km/h (2 Bft)
01.07.2017 18:51 16,1 °C 16,2 °C 65 % 1012,4 hPa 0,0 mm 7,2 km/h (2 Bft) W 281 ° 0 min 0,000 mm 0,8 UV-I 93 W/m² 9,5 °C 16,1 °C 12,9 km/h (3 Bft)
01.07.2017 18:52 16,1 °C 16,2 °C 65 % 1012,5 hPa 0,0 mm 7,0 km/h (2 Bft) W 271 ° 0 min 0,000 mm 0,9 UV-I 98 W/m² 9,5 °C 16,1 °C 14,5 km/h (3 Bft)
01.07.2017 18:53 16,1 °C 16,1 °C 66 % 1012,5 hPa 0,0 mm 13,5 km/h (3 Bft) W-NW 298 ° 0 min 0,000 mm 0,9 UV-I 107 W/m² 9,7 °C 16,1 °C 20,9 km/h (4 Bft)
01.07.2017 18:54 16,1 °C 16,1 °C 66 % 1012,5 hPa 0,0 mm 13,8 km/h (3 Bft) W 277 ° 0 min 0,000 mm 0,9 UV-I 111 W/m² 9,7 °C 16,1 °C 22,5 km/h (4 Bft)
01.07.2017 18:55 16,0 °C 16,1 °C 64 % 1012,5 hPa 0,0 mm 17,9 km/h (3 Bft) W 267 ° 0 min 0,000 mm 0,9 UV-I 118 W/m² 9,2 °C 16,0 °C 27,4 km/h (4 Bft)
01.07.2017 18:56 16,0 °C 16,1 °C 64 % 1012,4 hPa 0,0 mm 7,0 km/h (2 Bft) W 281 ° 0 min 0,000 mm 0,9 UV-I 118 W/m² 9,2 °C 16,0 °C 12,9 km/h (3 Bft)
01.07.2017 18:57 16,0 °C 16,0 °C 67 % 1012,5 hPa 0,0 mm 8,3 km/h (2 Bft) W-NW 288 ° 0 min 0,000 mm 0,8 UV-I 113 W/m² 9,9 °C 16,0 °C 17,7 km/h (3 Bft)
01.07.2017 18:58 15,9 °C 16,0 °C 65 % 1012,5 hPa 0,0 mm 7,6 km/h (2 Bft) W 263 ° 0 min 0,000 mm 0,8 UV-I 113 W/m² 9,3 °C 15,9 °C 12,9 km/h (3 Bft)
01.07.2017 18:59 16,0 °C 16,0 °C 66 % 1012,5 hPa 0,0 mm 8,0 km/h (2 Bft) W-NW 296 ° 0 min 0,000 mm 0,8 UV-I 113 W/m² 9,7 °C 16,0 °C 14,5 km/h (3 Bft)
01.07.2017 19:00 16,0 °C 16,0 °C 66 % 1012,5 hPa 0,0 mm 6,7 km/h (2 Bft) W 273 ° 0 min 0,127 mm 0,8 UV-I 111 W/m² 9,7 °C 16,0 °C 11,3 km/h (2 Bft)
01.07.2017 19:01 16,0 °C 16,0 °C 66 % 1012,5 hPa 0,0 mm 12,8 km/h (3 Bft) W-NW 291 ° 0 min 0,000 mm 0,8 UV-I 107 W/m² 9,7 °C 16,0 °C 22,5 km/h (4 Bft)
01.07.2017 19:02 16,0 °C 16,0 °C 67 % 1012,5 hPa 0,0 mm 13,1 km/h (3 Bft) S-SW 194 ° 0 min 0,000 mm 0,8 UV-I 105 W/m² 9,9 °C 16,0 °C 17,7 km/h (3 Bft)
01.07.2017 19:03 15,9 °C 16,0 °C 66 % 1012,6 hPa 0,0 mm 6,1 km/h (2 Bft) W-NW 286 ° 0 min 0,000 mm 0,8 UV-I 104 W/m² 9,6 °C 15,9 °C 9,7 km/h (2 Bft)
01.07.2017 19:04 15,9 °C 15,9 °C 66 % 1012,6 hPa 0,0 mm 6,9 km/h (2 Bft) W 271 ° 0 min 0,000 mm 0,8 UV-I 104 W/m² 9,6 °C 15,9 °C 11,3 km/h (2 Bft)
01.07.2017 19:05 15,9 °C 16,0 °C 67 % 1012,6 hPa 0,0 mm 3,6 km/h (1 Bft) W-NW 296 ° 0 min 0,000 mm 0,7 UV-I 104 W/m² 9,8 °C 15,9 °C 6,4 km/h (2 Bft)
01.07.2017 19:06 15,9 °C 16,0 °C 67 % 1012,6 hPa 0,0 mm 6,4 km/h (2 Bft) W 263 ° 0 min 0,000 mm 0,7 UV-I 102 W/m² 9,8 °C 15,9 °C 11,3 km/h (2 Bft)
01.07.2017 19:07 15,9 °C 15,9 °C 68 % 1012,7 hPa 0,0 mm 12,3 km/h (3 Bft) W-NW 288 ° 0 min 0,000 mm 0,8 UV-I 104 W/m² 10,0 °C 15,9 °C 19,3 km/h (3 Bft)
01.07.2017 19:08 15,9 °C 15,9 °C 66 % 1012,6 hPa 0,0 mm 13,9 km/h (3 Bft) W-SW 256 ° 0 min 0,000 mm 0,7 UV-I 113 W/m² 9,6 °C 15,9 °C 22,5 km/h (4 Bft)
01.07.2017 19:09 15,9 °C 15,9 °C 66 % 1012,6 hPa 0,0 mm 14,8 km/h (3 Bft) W 263 ° 0 min 0,000 mm 0,7 UV-I 120 W/m² 9,6 °C 15,9 °C 19,3 km/h (3 Bft)
01.07.2017 19:10 16,0 °C 16,0 °C 66 % 1012,7 hPa 0,0 mm 17,2 km/h (3 Bft) W 271 ° 0 min 0,000 mm 0,7 UV-I 118 W/m² 9,7 °C 16,0 °C 27,4 km/h (4 Bft)
01.07.2017 19:11 16,0 °C 16,0 °C 66 % 1012,6 hPa 0,0 mm 16,7 km/h (3 Bft) W-SW 246 ° 0 min 0,000 mm 0,8 UV-I 118 W/m² 9,7 °C 16,0 °C 29,0 km/h (5 Bft)
01.07.2017 19:12 16,1 °C 16,1 °C 66 % 1012,7 hPa 0,0 mm 12,5 km/h (3 Bft) W-SW 252 ° 0 min 0,000 mm 0,8 UV-I 113 W/m² 9,7 °C 16,1 °C 22,5 km/h (4 Bft)
01.07.2017 19:13 16,0 °C 16,1 °C 65 % 1012,7 hPa 0,0 mm 17,1 km/h (3 Bft) W-NW 292 ° 0 min 0,000 mm 0,8 UV-I 109 W/m² 9,4 °C 16,0 °C 22,5 km/h (4 Bft)
01.07.2017 19:14 16,1 °C 16,1 °C 66 % 1012,7 hPa 0,0 mm 13,4 km/h (3 Bft) NW 315 ° 0 min 0,000 mm 0,7 UV-I 83 W/m² 9,7 °C 16,1 °C 20,9 km/h (4 Bft)
01.07.2017 19:15 16,1 °C 16,1 °C 66 % 1012,7 hPa 0,0 mm 8,4 km/h (2 Bft) W 271 ° 0 min 0,000 mm 0,7 UV-I 79 W/m² 9,7 °C 16,1 °C 11,3 km/h (2 Bft)
01.07.2017 19:16 16,0 °C 16,1 °C 66 % 1012,7 hPa 0,0 mm 9,9 km/h (2 Bft) W 272 ° 0 min 0,000 mm 0,8 UV-I 134 W/m² 9,7 °C 16,0 °C 14,5 km/h (3 Bft)
01.07.2017 19:17 16,0 °C 16,0 °C 67 % 1012,7 hPa 0,0 mm 6,6 km/h (2 Bft) W-NW 293 ° 0 min 0,000 mm 0,9 UV-I 185 W/m² 9,9 °C 16,0 °C 11,3 km/h (2 Bft)
01.07.2017 19:18 16,1 °C 16,1 °C 67 % 1012,7 hPa 0,0 mm 8,9 km/h (2 Bft) W-NW 288 ° 0 min 0,000 mm 0,8 UV-I 181 W/m² 10,0 °C 16,1 °C 16,1 km/h (3 Bft)
01.07.2017 19:19 16,1 °C 16,1 °C 65 % 1012,8 hPa 0,0 mm 19,7 km/h (3 Bft) W-NW 292 ° 0 min 0,000 mm 0,7 UV-I 181 W/m² 9,5 °C 16,1 °C 30,6 km/h (5 Bft)
01.07.2017 19:20 16,1 °C 16,1 °C 64 % 1012,7 hPa 0,0 mm 17,8 km/h (3 Bft) W 261 ° 0 min 0,000 mm 0,7 UV-I 56 W/m² 9,3 °C 16,1 °C 24,1 km/h (4 Bft)
01.07.2017 19:21 16,1 °C 16,1 °C 65 % 1012,7 hPa 0,0 mm 13,8 km/h (3 Bft) W-SW 257 ° 0 min 0,000 mm 0,7 UV-I 60 W/m² 9,5 °C 16,1 °C 17,7 km/h (3 Bft)
01.07.2017 19:22 16,1 °C 16,1 °C 65 % 1012,7 hPa 0,0 mm 19,2 km/h (3 Bft) W 259 ° 0 min 0,000 mm 0,7 UV-I 56 W/m² 9,5 °C 16,1 °C 30,6 km/h (5 Bft)
01.07.2017 19:23 16,0 °C 16,1 °C 64 % 1012,7 hPa 0,0 mm 19,0 km/h (3 Bft) W-NW 284 ° 0 min 0,000 mm 0,0 UV-I 53 W/m² 9,2 °C 16,0 °C 27,4 km/h (4 Bft)
01.07.2017 19:24 15,9 °C 16,0 °C 65 % 1012,8 hPa 0,0 mm 17,4 km/h (3 Bft) W 267 ° 0 min 0,000 mm 0,0 UV-I 51 W/m² 9,3 °C 15,9 °C 25,7 km/h (4 Bft)
01.07.2017 19:25 15,9 °C 15,9 °C 66 % 1012,8 hPa 0,0 mm 14,3 km/h (3 Bft) W 263 ° 0 min 0,000 mm 0,0 UV-I 51 W/m² 9,6 °C 15,9 °C 33,8 km/h (5 Bft)
01.07.2017 19:26 15,8 °C 15,9 °C 66 % 1012,8 hPa 0,0 mm 16,8 km/h (3 Bft) W 273 ° 0 min 0,000 mm 0,0 UV-I 51 W/m² 9,5 °C 15,8 °C 24,1 km/h (4 Bft)
01.07.2017 19:27 15,8 °C 15,8 °C 66 % 1012,8 hPa 0,0 mm 12,1 km/h (2 Bft) W 264 ° 0 min 0,000 mm 0,0 UV-I 53 W/m² 9,5 °C 15,8 °C 20,9 km/h (4 Bft)
01.07.2017 19:28 15,7 °C 15,8 °C 66 % 1012,8 hPa 0,0 mm 8,3 km/h (2 Bft) W 262 ° 0 min 0,000 mm 0,0 UV-I 51 W/m² 9,4 °C 15,7 °C 17,7 km/h (3 Bft)
01.07.2017 19:29 15,7 °C 15,7 °C 66 % 1012,8 hPa 0,0 mm 14,3 km/h (3 Bft) W-NW 286 ° 0 min 0,000 mm 0,0 UV-I 47 W/m² 9,4 °C 15,7 °C 22,5 km/h (4 Bft)
01.07.2017 19:30 15,7 °C 15,7 °C 65 % 1012,7 hPa 0,0 mm 15,9 km/h (3 Bft) W 274 ° 0 min 0,000 mm 0,0 UV-I 42 W/m² 9,1 °C 15,7 °C 24,1 km/h (4 Bft)
01.07.2017 19:31 15,7 °C 15,7 °C 65 % 1012,7 hPa 0,0 mm 10,6 km/h (2 Bft) NW 314 ° 0 min 0,000 mm 0,0 UV-I 39 W/m² 9,1 °C 15,7 °C 20,9 km/h (4 Bft)
01.07.2017 19:32 15,7 °C 15,7 °C 65 % 1012,7 hPa 0,0 mm 13,8 km/h (3 Bft) W 271 ° 0 min 0,000 mm 0,0 UV-I 37 W/m² 9,1 °C 15,7 °C 17,7 km/h (3 Bft)
01.07.2017 19:33 15,7 °C 15,7 °C 66 % 1012,8 hPa 0,0 mm 11,4 km/h (2 Bft) W-NW 300 ° 0 min 0,000 mm 0,0 UV-I 39 W/m² 9,4 °C 15,7 °C 16,1 km/h (3 Bft)
01.07.2017 19:34 15,6 °C 15,7 °C 66 % 1012,8 hPa 0,0 mm 13,5 km/h (3 Bft) W-NW 292 ° 0 min 0,000 mm 0,0 UV-I 39 W/m² 9,3 °C 15,6 °C 19,3 km/h (3 Bft)
01.07.2017 19:35 15,6 °C 15,6 °C 67 % 1012,8 hPa 0,0 mm 11,8 km/h (2 Bft) W 267 ° 0 min 0,000 mm 0,0 UV-I 42 W/m² 9,5 °C 15,6 °C 16,1 km/h (3 Bft)
01.07.2017 19:36 15,6 °C 15,6 °C 66 % 1012,9 hPa 0,0 mm 12,0 km/h (2 Bft) NW 315 ° 0 min 0,000 mm 0,0 UV-I 46 W/m² 9,3 °C 15,6 °C 20,9 km/h (4 Bft)
01.07.2017 19:37 15,6 °C 15,6 °C 66 % 1012,9 hPa 0,0 mm 13,1 km/h (3 Bft) W-SW 257 ° 0 min 0,000 mm 0,0 UV-I 46 W/m² 9,3 °C 15,6 °C 19,3 km/h (3 Bft)
01.07.2017 19:38 15,6 °C 15,6 °C 67 % 1012,9 hPa 0,0 mm 14,7 km/h (3 Bft) W-SW 252 ° 0 min 0,000 mm 0,0 UV-I 42 W/m² 9,5 °C 15,6 °C 24,1 km/h (4 Bft)
01.07.2017 19:39 15,6 °C 15,6 °C 66 % 1012,9 hPa 0,0 mm 15,6 km/h (3 Bft) W 269 ° 0 min 0,000 mm 0,0 UV-I 42 W/m² 9,3 °C 15,6 °C 22,5 km/h (4 Bft)
01.07.2017 19:40 15,6 °C 15,6 °C 66 % 1012,9 hPa 0,0 mm 15,4 km/h (3 Bft) W 271 ° 0 min 0,000 mm 0,0 UV-I 42 W/m² 9,3 °C 15,6 °C 24,1 km/h (4 Bft)
01.07.2017 19:41 15,6 °C 15,6 °C 66 % 1012,9 hPa 0,0 mm 17,7 km/h (3 Bft) W 268 ° 0 min 0,000 mm 0,0 UV-I 46 W/m² 9,3 °C 15,6 °C 22,5 km/h (4 Bft)
01.07.2017 19:42 15,6 °C 15,6 °C 67 % 1012,9 hPa 0,0 mm 8,9 km/h (2 Bft) NW 309 ° 0 min 0,000 mm 0,0 UV-I 51 W/m² 9,5 °C 15,6 °C 14,5 km/h (3 Bft)
01.07.2017 19:43 15,6 °C 15,6 °C 66 % 1012,9 hPa 0,0 mm 13,4 km/h (3 Bft) W-NW 298 ° 0 min 0,000 mm 0,0 UV-I 54 W/m² 9,3 °C 15,6 °C 20,9 km/h (4 Bft)
01.07.2017 19:44 15,6 °C 15,6 °C 66 % 1012,9 hPa 0,0 mm 9,7 km/h (2 Bft) W-NW 300 ° 0 min 0,000 mm 0,0 UV-I 54 W/m² 9,3 °C 15,6 °C 17,7 km/h (3 Bft)
01.07.2017 19:45 15,6 °C 15,6 °C 67 % 1013,0 hPa 0,0 mm 8,8 km/h (2 Bft) W-NW 290 ° 0 min 0,000 mm 0,0 UV-I 53 W/m² 9,5 °C 15,6 °C 12,9 km/h (3 Bft)
01.07.2017 19:46 15,6 °C 15,6 °C 67 % 1013,0 hPa 0,0 mm 13,1 km/h (3 Bft) W 266 ° 0 min 0,000 mm 0,0 UV-I 49 W/m² 9,5 °C 15,6 °C 17,7 km/h (3 Bft)
01.07.2017 19:47 15,6 °C 15,6 °C 67 % 1012,9 hPa 0,0 mm 10,2 km/h (2 Bft) W 274 ° 0 min 0,000 mm 0,0 UV-I 47 W/m² 9,5 °C 15,6 °C 16,1 km/h (3 Bft)
01.07.2017 19:48 15,5 °C 15,6 °C 67 % 1013,0 hPa 0,0 mm 10,7 km/h (2 Bft) W-SW 246 ° 0 min 0,000 mm 0,0 UV-I 47 W/m² 9,4 °C 15,5 °C 17,7 km/h (3 Bft)
01.07.2017 19:49 15,4 °C 15,5 °C 67 % 1012,9 hPa 0,0 mm 7,0 km/h (2 Bft) W 272 ° 0 min 0,000 mm 0,0 UV-I 49 W/m² 9,3 °C 15,4 °C 11,3 km/h (2 Bft)
01.07.2017 19:50 15,4 °C 15,4 °C 67 % 1012,9 hPa 0,0 mm 10,7 km/h (2 Bft) W 277 ° 0 min 0,000 mm 0,0 UV-I 93 W/m² 9,3 °C 15,4 °C 14,5 km/h (3 Bft)
01.07.2017 19:51 15,4 °C 15,4 °C 67 % 1012,9 hPa 0,0 mm 7,2 km/h (2 Bft) W-SW 255 ° 0 min 0,000 mm 0,5 UV-I 165 W/m² 9,3 °C 15,4 °C 12,9 km/h (3 Bft)
01.07.2017 19:52 15,5 °C 15,5 °C 67 % 1013,0 hPa 0,0 mm 9,1 km/h (2 Bft) W-NW 296 ° 0 min 0,000 mm 0,5 UV-I 163 W/m² 9,4 °C 15,5 °C 14,5 km/h (3 Bft)
01.07.2017 19:53 15,6 °C 15,6 °C 68 % 1012,9 hPa 0,0 mm 8,9 km/h (2 Bft) W-NW 302 ° 0 min 0,000 mm 0,0 UV-I 63 W/m² 9,7 °C 15,6 °C 12,9 km/h (3 Bft)
01.07.2017 19:54 15,6 °C 15,6 °C 68 % 1012,9 hPa 0,0 mm 5,6 km/h (1 Bft) S-SW 208 ° 0 min 0,000 mm 0,0 UV-I 104 W/m² 9,7 °C 15,6 °C 11,3 km/h (2 Bft)
01.07.2017 19:55 15,7 °C 15,7 °C 67 % 1012,9 hPa 0,0 mm 14,5 km/h (3 Bft) W 266 ° 0 min 0,000 mm 0,0 UV-I 74 W/m² 9,6 °C 15,7 °C 17,7 km/h (3 Bft)
01.07.2017 19:56 15,7 °C 15,7 °C 67 % 1012,9 hPa 0,0 mm 12,7 km/h (3 Bft) W-NW 288 ° 0 min 0,000 mm 0,0 UV-I 46 W/m² 9,6 °C 15,7 °C 17,7 km/h (3 Bft)
01.07.2017 19:57 15,7 °C 15,7 °C 67 % 1013,0 hPa 0,0 mm 6,7 km/h (2 Bft) W-SW 254 ° 0 min 0,000 mm 0,0 UV-I 42 W/m² 9,6 °C 15,7 °C 11,3 km/h (2 Bft)
01.07.2017 19:58 15,6 °C 15,7 °C 67 % 1013,0 hPa 0,0 mm 9,1 km/h (2 Bft) W-NW 300 ° 0 min 0,000 mm 0,0 UV-I 113 W/m² 9,5 °C 15,6 °C 11,3 km/h (2 Bft)
01.07.2017 19:59 15,6 °C 15,6 °C 68 % 1013,0 hPa 0,0 mm 7,6 km/h (2 Bft) W 267 ° 0 min 0,000 mm 0,0 UV-I 127 W/m² 9,7 °C 15,6 °C 12,9 km/h (3 Bft)
01.07.2017 20:00 15,6 °C 15,6 °C 69 % 1013,0 hPa 0,0 mm 8,6 km/h (2 Bft) W 271 ° 0 min 0,000 mm 0,0 UV-I 109 W/m² 9,9 °C 15,6 °C 12,9 km/h (3 Bft)
01.07.2017 20:01 15,6 °C 15,6 °C 68 % 1013,0 hPa 0,0 mm 4,3 km/h (1 Bft) W 270 ° 0 min 0,101 mm 0,0 UV-I 127 W/m² 9,7 °C 15,6 °C 6,4 km/h (2 Bft)
01.07.2017 20:02 15,6 °C 15,6 °C 68 % 1013,0 hPa 0,0 mm 10,5 km/h (2 Bft) W-NW 282 ° 0 min 0,000 mm 0,0 UV-I 123 W/m² 9,7 °C 15,6 °C 16,1 km/h (3 Bft)
01.07.2017 20:03 15,7 °C 15,7 °C 68 % 1013,0 hPa 0,0 mm 8,0 km/h (2 Bft) W 277 ° 0 min 0,000 mm 0,0 UV-I 121 W/m² 9,8 °C 15,7 °C 16,1 km/h (3 Bft)
01.07.2017 20:04 15,7 °C 15,7 °C 68 % 1013,0 hPa 0,0 mm 6,6 km/h (2 Bft) W-NW 290 ° 0 min 0,000 mm 0,0 UV-I 121 W/m² 9,8 °C 15,7 °C 11,3 km/h (2 Bft)
01.07.2017 20:05 15,8 °C 15,8 °C 67 % 1013,1 hPa 0,0 mm 9,5 km/h (2 Bft) W 272 ° 0 min 0,000 mm 0,0 UV-I 62 W/m² 9,7 °C 15,8 °C 16,1 km/h (3 Bft)
01.07.2017 20:06 15,8 °C 15,8 °C 67 % 1013,0 hPa 0,0 mm 3,1 km/h (1 Bft) W-NW 300 ° 0 min 0,000 mm 0,0 UV-I 134 W/m² 9,7 °C 15,8 °C 6,4 km/h (2 Bft)
01.07.2017 20:07 15,9 °C 15,9 °C 68 % 1013,0 hPa 0,0 mm 9,7 km/h (2 Bft) W 269 ° 0 min 0,000 mm 0,0 UV-I 135 W/m² 10,0 °C 15,9 °C 17,7 km/h (3 Bft)
01.07.2017 20:08 15,9 °C 15,9 °C 68 % 1013,1 hPa 0,0 mm 13,3 km/h (3 Bft) W-SW 258 ° 0 min 0,000 mm 0,0 UV-I 125 W/m² 10,0 °C 15,9 °C 22,5 km/h (4 Bft)
01.07.2017 20:09 16,0 °C 16,0 °C 67 % 1013,1 hPa 0,0 mm 15,2 km/h (3 Bft) W 265 ° 0 min 0,000 mm 0,0 UV-I 113 W/m² 9,9 °C 16,0 °C 19,3 km/h (3 Bft)
01.07.2017 20:10 16,0 °C 16,0 °C 67 % 1013,1 hPa 0,0 mm 6,6 km/h (2 Bft) W-NW 296 ° 0 min 0,000 mm 0,0 UV-I 84 W/m² 9,9 °C 16,0 °C 12,9 km/h (3 Bft)
01.07.2017 20:11 16,0 °C 16,0 °C 67 % 1013,1 hPa 0,0 mm 12,3 km/h (3 Bft) W-SW 246 ° 0 min 0,000 mm 0,0 UV-I 95 W/m² 9,9 °C 16,0 °C 17,7 km/h (3 Bft)
01.07.2017 20:12 15,9 °C 16,0 °C 67 % 1013,1 hPa 0,0 mm 12,1 km/h (2 Bft) NW 306 ° 0 min 0,000 mm 0,0 UV-I 67 W/m² 9,8 °C 15,9 °C 17,7 km/h (3 Bft)
01.07.2017 20:13 15,9 °C 15,9 °C 67 % 1013,1 hPa 0,0 mm 9,4 km/h (2 Bft) W-NW 284 ° 0 min 0,000 mm 0,0 UV-I 105 W/m² 9,8 °C 15,9 °C 14,5 km/h (3 Bft)
01.07.2017 20:14 15,9 °C 15,9 °C 67 % 1013,1 hPa 0,0 mm 7,5 km/h (2 Bft) N-NW 340 ° 0 min 0,000 mm 0,0 UV-I 102 W/m² 9,8 °C 15,9 °C 11,3 km/h (2 Bft)
01.07.2017 20:15 15,9 °C 15,9 °C 67 % 1013,1 hPa 0,0 mm 10,2 km/h (2 Bft) W 275 ° 0 min 0,000 mm 0,0 UV-I 100 W/m² 9,8 °C 15,9 °C 12,9 km/h (3 Bft)
01.07.2017 20:16 15,9 °C 15,9 °C 66 % 1013,1 hPa 0,0 mm 8,3 km/h (2 Bft) N-NW 331 ° 0 min 0,000 mm 0,0 UV-I 98 W/m² 9,6 °C 15,9 °C 11,3 km/h (2 Bft)
01.07.2017 20:17 15,9 °C 15,9 °C 66 % 1013,2 hPa 0,0 mm 11,1 km/h (2 Bft) W 259 ° 0 min 0,000 mm 0,0 UV-I 98 W/m² 9,6 °C 15,9 °C 17,7 km/h (3 Bft)
01.07.2017 20:18 15,9 °C 15,9 °C 67 % 1013,1 hPa 0,0 mm 13,8 km/h (3 Bft) W-NW 291 ° 0 min 0,000 mm 0,0 UV-I 97 W/m² 9,8 °C 15,9 °C 20,9 km/h (4 Bft)
01.07.2017 20:19 15,9 °C 15,9 °C 66 % 1013,2 hPa 0,0 mm 17,5 km/h (3 Bft) W 263 ° 0 min 0,000 mm 0,0 UV-I 91 W/m² 9,6 °C 15,9 °C 24,1 km/h (4 Bft)
01.07.2017 20:20 15,9 °C 15,9 °C 66 % 1013,2 hPa 0,0 mm 12,1 km/h (2 Bft) W 271 ° 0 min 0,000 mm 0,0 UV-I 88 W/m² 9,6 °C 15,9 °C 16,1 km/h (3 Bft)
01.07.2017 20:21 15,8 °C 15,9 °C 66 % 1013,2 hPa 0,0 mm 13,8 km/h (3 Bft) W 275 ° 0 min 0,000 mm 0,0 UV-I 83 W/m² 9,5 °C 15,8 °C 25,7 km/h (4 Bft)
01.07.2017 20:22 15,8 °C 15,9 °C 66 % 1013,2 hPa 0,0 mm 14,6 km/h (3 Bft) W-SW 257 ° 0 min 0,000 mm 0,0 UV-I 77 W/m² 9,5 °C 15,8 °C 22,5 km/h (4 Bft)
01.07.2017 20:23 15,8 °C 15,8 °C 66 % 1013,2 hPa 0,0 mm 15,4 km/h (3 Bft) W 261 ° 0 min 0,000 mm 0,0 UV-I 74 W/m² 9,5 °C 15,8 °C 22,5 km/h (4 Bft)
01.07.2017 20:24 15,8 °C 15,8 °C 66 % 1013,3 hPa 0,0 mm 18,1 km/h (3 Bft) W 281 ° 0 min 0,000 mm 0,0 UV-I 69 W/m² 9,5 °C 15,8 °C 27,4 km/h (4 Bft)
01.07.2017 20:25 15,8 °C 15,8 °C 66 % 1013,3 hPa 0,0 mm 15,0 km/h (3 Bft) W 261 ° 0 min 0,000 mm 0,0 UV-I 25 W/m² 9,5 °C 15,8 °C 19,3 km/h (3 Bft)
01.07.2017 20:26 15,7 °C 15,8 °C 66 % 1013,3 hPa 0,0 mm 19,9 km/h (4 Bft) W-NW 292 ° 0 min 0,000 mm 0,0 UV-I 53 W/m² 9,4 °C 15,7 °C 27,4 km/h (4 Bft)
01.07.2017 20:27 15,7 °C 15,7 °C 66 % 1013,3 hPa 0,0 mm 11,5 km/h (2 Bft) W 264 ° 0 min 0,000 mm 0,0 UV-I 46 W/m² 9,4 °C 15,7 °C 17,7 km/h (3 Bft)
01.07.2017 20:28 15,7 °C 15,7 °C 66 % 1013,3 hPa 0,0 mm 13,4 km/h (3 Bft) S-SW 202 ° 0 min 0,000 mm 0,0 UV-I 33 W/m² 9,4 °C 15,7 °C 20,9 km/h (4 Bft)
01.07.2017 20:29 15,6 °C 15,7 °C 66 % 1013,3 hPa 0,0 mm 12,6 km/h (3 Bft) NW 312 ° 0 min 0,000 mm 0,0 UV-I 23 W/m² 9,3 °C 15,6 °C 19,3 km/h (3 Bft)
01.07.2017 20:30 15,5 °C 15,6 °C 67 % 1013,3 hPa 0,0 mm 10,8 km/h (2 Bft) W-NW 293 ° 0 min 0,000 mm 0,0 UV-I 21 W/m² 9,4 °C 15,5 °C 16,1 km/h (3 Bft)
01.07.2017 20:31 15,4 °C 15,5 °C 67 % 1013,4 hPa 0,0 mm 11,7 km/h (2 Bft) W 279 ° 0 min 0,000 mm 0,0 UV-I 19 W/m² 9,3 °C 15,4 °C 22,5 km/h (4 Bft)
01.07.2017 20:32 15,3 °C 15,4 °C 67 % 1013,3 hPa 0,0 mm 6,2 km/h (2 Bft) W 261 ° 0 min 0,000 mm 0,0 UV-I 19 W/m² 9,2 °C 15,3 °C 11,3 km/h (2 Bft)
01.07.2017 20:33 15,2 °C 15,3 °C 68 % 1013,4 hPa 0,0 mm 10,5 km/h (2 Bft) SW 228 ° 0 min 0,000 mm 0,0 UV-I 18 W/m² 9,3 °C 15,2 °C 16,1 km/h (3 Bft)
01.07.2017 20:34 15,1 °C 15,2 °C 69 % 1013,3 hPa 0,0 mm 5,2 km/h (1 Bft) W 273 ° 0 min 0,000 mm 0,0 UV-I 18 W/m² 9,5 °C 15,1 °C 8,0 km/h (2 Bft)
01.07.2017 20:35 15,0 °C 15,1 °C 69 % 1013,4 hPa 0,0 mm 8,3 km/h (2 Bft) W 271 ° 0 min 0,000 mm 0,0 UV-I 16 W/m² 9,4 °C 15,0 °C 14,5 km/h (3 Bft)
01.07.2017 20:36 14,9 °C 15,0 °C 69 % 1013,3 hPa 0,0 mm 13,1 km/h (3 Bft) W 266 ° 0 min 0,000 mm 0,0 UV-I 14 W/m² 9,3 °C 14,9 °C 19,3 km/h (3 Bft)
01.07.2017 20:37 14,9 °C 14,9 °C 69 % 1013,4 hPa 0,0 mm 8,5 km/h (2 Bft) W-SW 247 ° 0 min 0,000 mm 0,0 UV-I 12 W/m² 9,3 °C 14,9 °C 17,7 km/h (3 Bft)
01.07.2017 20:38 14,9 °C 14,9 °C 69 % 1013,4 hPa 0,0 mm 13,0 km/h (3 Bft) W-SW 250 ° 0 min 0,000 mm 0,0 UV-I 12 W/m² 9,3 °C 14,9 °C 19,3 km/h (3 Bft)
01.07.2017 20:39 14,8 °C 14,9 °C 69 % 1013,4 hPa 0,0 mm 10,1 km/h (2 Bft) W 259 ° 0 min 0,000 mm 0,0 UV-I 12 W/m² 9,2 °C 14,8 °C 14,5 km/h (3 Bft)
01.07.2017 20:40 14,8 °C 14,8 °C 70 % 1013,4 hPa 0,0 mm 10,3 km/h (2 Bft) W-SW 254 ° 0 min 0,000 mm 0,0 UV-I 12 W/m² 9,4 °C 14,8 °C 19,3 km/h (3 Bft)
01.07.2017 20:41 14,8 °C 14,8 °C 70 % 1013,4 hPa 0,0 mm 8,2 km/h (2 Bft) W-SW 242 ° 0 min 0,000 mm 0,0 UV-I 12 W/m² 9,4 °C 14,8 °C 19,3 km/h (3 Bft)
01.07.2017 20:42 14,7 °C 14,8 °C 70 % 1013,4 hPa 0,0 mm 4,0 km/h (1 Bft) W 270 ° 0 min 0,000 mm 0,0 UV-I 12 W/m² 9,3 °C 14,7 °C 6,4 km/h (2 Bft)
01.07.2017 20:43 14,7 °C 14,7 °C 70 % 1013,5 hPa 0,0 mm 8,0 km/h (2 Bft) W-SW 253 ° 0 min 0,000 mm 0,0 UV-I 11 W/m² 9,3 °C 14,7 °C 14,5 km/h (3 Bft)
01.07.2017 20:44 14,6 °C 14,7 °C 70 % 1013,5 hPa 0,0 mm 7,4 km/h (2 Bft) SW 235 ° 0 min 0,000 mm 0,0 UV-I 11 W/m² 9,2 °C 14,6 °C 11,3 km/h (2 Bft)
01.07.2017 20:45 14,6 °C 14,6 °C 71 % 1013,5 hPa 0,0 mm 5,0 km/h (1 Bft) W 275 ° 0 min 0,000 mm 0,0 UV-I 11 W/m² 9,4 °C 14,6 °C 11,3 km/h (2 Bft)
01.07.2017 20:46 14,5 °C 14,6 °C 71 % 1013,5 hPa 0,0 mm 11,5 km/h (2 Bft) W-SW 258 ° 0 min 0,000 mm 0,0 UV-I 11 W/m² 9,3 °C 14,5 °C 17,7 km/h (3 Bft)
01.07.2017 20:47 14,4 °C 14,5 °C 71 % 1013,5 hPa 0,0 mm 12,5 km/h (3 Bft) W-SW 252 ° 0 min 0,000 mm 0,0 UV-I 11 W/m² 9,2 °C 14,4 °C 19,3 km/h (3 Bft)
01.07.2017 20:48 14,4 °C 14,4 °C 71 % 1013,5 hPa 0,0 mm 6,9 km/h (2 Bft) W 279 ° 0 min 0,000 mm 0,0 UV-I 11 W/m² 9,2 °C 14,4 °C 11,3 km/h (2 Bft)
01.07.2017 20:49 14,4 °C 14,4 °C 71 % 1013,4 hPa 0,0 mm 4,8 km/h (1 Bft) W-SW 237 ° 0 min 0,000 mm 0,0 UV-I 12 W/m² 9,2 °C 14,4 °C 8,0 km/h (2 Bft)
01.07.2017 20:50 14,4 °C 14,4 °C 71 % 1013,5 hPa 0,0 mm 3,0 km/h (1 Bft) W 269 ° 0 min 0,000 mm 0,0 UV-I 12 W/m² 9,2 °C 14,4 °C 4,8 km/h (1 Bft)
01.07.2017 20:51 14,4 °C 14,4 °C 72 % 1013,5 hPa 0,0 mm 4,9 km/h (1 Bft) SW 234 ° 0 min 0,000 mm 0,0 UV-I 12 W/m² 9,4 °C 14,4 °C 12,9 km/h (3 Bft)
01.07.2017 20:52 14,4 °C 14,4 °C 72 % 1013,5 hPa 0,0 mm 5,0 km/h (1 Bft) W 277 ° 0 min 0,000 mm 0,0 UV-I 12 W/m² 9,4 °C 14,4 °C 6,4 km/h (2 Bft)
01.07.2017 20:53 14,4 °C 14,4 °C 72 % 1013,5 hPa 0,0 mm 7,3 km/h (2 Bft) W-NW 284 ° 0 min 0,000 mm 0,0 UV-I 12 W/m² 9,4 °C 14,4 °C 12,9 km/h (3 Bft)
01.07.2017 20:54 14,3 °C 14,4 °C 72 % 1013,5 hPa 0,0 mm 7,6 km/h (2 Bft) W 281 ° 0 min 0,000 mm 0,0 UV-I 12 W/m² 9,3 °C 14,3 °C 16,1 km/h (3 Bft)
01.07.2017 20:55 14,3 °C 14,3 °C 72 % 1013,5 hPa 0,0 mm 13,6 km/h (3 Bft) W-SW 248 ° 0 min 0,000 mm 0,0 UV-I 12 W/m² 9,3 °C 14,3 °C 20,9 km/h (4 Bft)
01.07.2017 20:56 14,3 °C 14,3 °C 72 % 1013,5 hPa 0,0 mm 7,0 km/h (2 Bft) W-SW 258 ° 0 min 0,000 mm 0,0 UV-I 12 W/m² 9,3 °C 14,3 °C 11,3 km/h (2 Bft)
01.07.2017 20:57 14,3 °C 14,3 °C 72 % 1013,5 hPa 0,0 mm 5,1 km/h (1 Bft) W-NW 284 ° 0 min 0,000 mm 0,0 UV-I 11 W/m² 9,3 °C 14,3 °C 9,7 km/h (2 Bft)
01.07.2017 20:58 14,2 °C 14,3 °C 72 % 1013,6 hPa 0,0 mm 7,6 km/h (2 Bft) W 270 ° 0 min 0,000 mm 0,0 UV-I 11 W/m² 9,2 °C 14,2 °C 12,9 km/h (3 Bft)
01.07.2017 20:59 14,3 °C 14,3 °C 71 % 1013,5 hPa 0,0 mm 5,7 km/h (1 Bft) W 268 ° 0 min 0,000 mm 0,0 UV-I 9 W/m² 9,1 °C 14,3 °C 9,7 km/h (2 Bft)
01.07.2017 21:00 14,3 °C 14,3 °C 72 % 1013,6 hPa 0,0 mm 7,9 km/h (2 Bft) SW 235 ° 0 min 0,000 mm 0,0 UV-I 5 W/m² 9,3 °C 14,3 °C 14,5 km/h (3 Bft)
01.07.2017 21:01 14,3 °C 14,3 °C 71 % 1013,5 hPa 0,0 mm 6,6 km/h (2 Bft) W-SW 244 ° 0 min 0,077 mm 0,0 UV-I 5 W/m² 9,1 °C 14,3 °C 12,9 km/h (3 Bft)
01.07.2017 21:02 14,3 °C 14,3 °C 71 % 1013,6 hPa 0,0 mm 8,7 km/h (2 Bft) SW 236 ° 0 min 0,000 mm 0,0 UV-I 5 W/m² 9,1 °C 14,3 °C 19,3 km/h (3 Bft)
01.07.2017 21:03 14,3 °C 14,3 °C 71 % 1013,7 hPa 0,0 mm 11,7 km/h (2 Bft) W 265 ° 0 min 0,000 mm 0,0 UV-I 5 W/m² 9,1 °C 14,3 °C 16,1 km/h (3 Bft)
01.07.2017 21:04 14,3 °C 14,3 °C 71 % 1013,6 hPa 0,0 mm 7,1 km/h (2 Bft) W-SW 252 ° 0 min 0,000 mm 0,0 UV-I 5 W/m² 9,1 °C 14,3 °C 12,9 km/h (3 Bft)
01.07.2017 21:05 14,3 °C 14,3 °C 71 % 1013,6 hPa 0,0 mm 5,5 km/h (1 Bft) W-SW 253 ° 0 min 0,000 mm 0,0 UV-I 5 W/m² 9,1 °C 14,3 °C 11,3 km/h (2 Bft)
01.07.2017 21:06 14,3 °C 14,3 °C 72 % 1013,6 hPa 0,0 mm 6,7 km/h (2 Bft) SW 233 ° 0 min 0,000 mm 0,0 UV-I 5 W/m² 9,3 °C 14,3 °C 11,3 km/h (2 Bft)
01.07.2017 21:07 14,3 °C 14,3 °C 71 % 1013,7 hPa 0,0 mm 4,3 km/h (1 Bft) W-SW 248 ° 0 min 0,000 mm 0,0 UV-I 0 W/m² 9,1 °C 14,3 °C 8,0 km/h (2 Bft)
01.07.2017 21:08 14,3 °C 14,3 °C 71 % 1013,6 hPa 0,0 mm 4,2 km/h (1 Bft) W-SW 254 ° 0 min 0,000 mm 0,0 UV-I 0 W/m² 9,1 °C 14,3 °C 9,7 km/h (2 Bft)
01.07.2017 21:09 14,3 °C 14,3 °C 72 % 1013,7 hPa 0,0 mm 7,5 km/h (2 Bft) W 261 ° 0 min 0,000 mm 0,0 UV-I 0 W/m² 9,3 °C 14,3 °C 14,5 km/h (3 Bft)
01.07.2017 21:10 14,3 °C 14,3 °C 72 % 1013,7 hPa 0,0 mm 11,5 km/h (2 Bft) W 281 ° 0 min 0,000 mm 0,0 UV-I 0 W/m² 9,3 °C 14,3 °C 17,7 km/h (3 Bft)
01.07.2017 21:11 14,3 °C 14,3 °C 72 % 1013,7 hPa 0,0 mm 5,0 km/h (1 Bft) W 274 ° 0 min 0,000 mm 0,0 UV-I 0 W/m² 9,3 °C 14,3 °C 8,0 km/h (2 Bft)
01.07.2017 21:12 14,3 °C 14,3 °C 72 % 1013,7 hPa 0,0 mm 6,4 km/h (2 Bft) W-NW 302 ° 0 min 0,000 mm 0,0 UV-I 0 W/m² 9,3 °C 14,3 °C 11,3 km/h (2 Bft)
01.07.2017 21:13 14,3 °C 14,3 °C 72 % 1013,7 hPa 0,0 mm 10,5 km/h (2 Bft) W-SW 255 ° 0 min 0,000 mm 0,0 UV-I 0 W/m² 9,3 °C 14,3 °C 14,5 km/h (3 Bft)
01.07.2017 21:14 14,3 °C 14,3 °C 73 % 1013,7 hPa 0,0 mm 10,5 km/h (2 Bft) SW 223 ° 0 min 0,000 mm 0,0 UV-I 0 W/m² 9,5 °C 14,3 °C 16,1 km/h (3 Bft)
01.07.2017 21:15 14,3 °C 14,3 °C 73 % 1013,7 hPa 0,0 mm 13,2 km/h (3 Bft) W-NW 284 ° 0 min 0,000 mm 0,0 UV-I 0 W/m² 9,5 °C 14,3 °C 22,5 km/h (4 Bft)
01.07.2017 21:16 14,3 °C 14,3 °C 73 % 1013,7 hPa 0,0 mm 11,7 km/h (2 Bft) SW 218 ° 0 min 0,000 mm 0,0 UV-I 0 W/m² 9,5 °C 14,3 °C 19,3 km/h (3 Bft)
01.07.2017 21:17 14,3 °C 14,3 °C 73 % 1013,8 hPa 0,0 mm 6,6 km/h (2 Bft) W 271 ° 0 min 0,000 mm 0,0 UV-I 0 W/m² 9,5 °C 14,3 °C 14,5 km/h (3 Bft)
01.07.2017 21:18 14,3 °C 14,3 °C 73 % 1013,8 hPa 0,0 mm 8,4 km/h (2 Bft) W 273 ° 0 min 0,000 mm 0,0 UV-I 0 W/m² 9,5 °C 14,3 °C 14,5 km/h (3 Bft)
01.07.2017 21:19 14,3 °C 14,3 °C 72 % 1013,7 hPa 0,0 mm 8,0 km/h (2 Bft) W-NW 292 ° 0 min 0,000 mm 0,0 UV-I 0 W/m² 9,3 °C 14,3 °C 14,5 km/h (3 Bft)
01.07.2017 21:20 14,3 °C 14,3 °C 73 % 1013,8 hPa 0,0 mm 10,5 km/h (2 Bft) W-SW 258 ° 0 min 0,000 mm 0,0 UV-I 0 W/m² 9,5 °C 14,3 °C 14,5 km/h (3 Bft)
01.07.2017 21:21 14,3 °C 14,3 °C 73 % 1013,8 hPa 0,0 mm 4,2 km/h (1 Bft) W-SW 256 ° 0 min 0,000 mm 0,0 UV-I 0 W/m² 9,5 °C 14,3 °C 11,3 km/h (2 Bft)
01.07.2017 21:22 14,3 °C 14,3 °C 73 % 1013,9 hPa 0,0 mm 8,7 km/h (2 Bft) W 265 ° 0 min 0,000 mm 0,0 UV-I 0 W/m² 9,5 °C 14,3 °C 14,5 km/h (3 Bft)
01.07.2017 21:23 14,3 °C 14,3 °C 73 % 1013,9 hPa 0,0 mm 9,8 km/h (2 Bft) W 266 ° 0 min 0,000 mm 0,0 UV-I 0 W/m² 9,5 °C 14,3 °C 12,9 km/h (3 Bft)
01.07.2017 21:24 14,3 °C 14,3 °C 73 % 1013,9 hPa 0,0 mm 6,0 km/h (2 Bft) W-NW 286 ° 0 min 0,000 mm 0,0 UV-I 0 W/m² 9,5 °C 14,3 °C 11,3 km/h (2 Bft)
01.07.2017 21:25 14,3 °C 14,3 °C 73 % 1013,9 hPa 0,0 mm 9,3 km/h (2 Bft) W 260 ° 0 min 0,000 mm 0,0 UV-I 0 W/m² 9,5 °C 14,3 °C 14,5 km/h (3 Bft)
01.07.2017 21:26 14,2 °C 14,3 °C 73 % 1013,9 hPa 0,0 mm 13,2 km/h (3 Bft) W 267 ° 0 min 0,000 mm 0,0 UV-I 0 W/m² 9,4 °C 14,2 °C 17,7 km/h (3 Bft)
01.07.2017 21:27 14,2 °C 14,2 °C 74 % 1014,0 hPa 0,0 mm 10,1 km/h (2 Bft) W 260 ° 0 min 0,000 mm 0,0 UV-I 0 W/m² 9,6 °C 14,2 °C 14,5 km/h (3 Bft)
01.07.2017 21:28 14,2 °C 14,2 °C 73 % 1014,0 hPa 0,0 mm 5,4 km/h (1 Bft) W-NW 286 ° 0 min 0,000 mm 0,0 UV-I 0 W/m² 9,4 °C 14,2 °C 12,9 km/h (3 Bft)
01.07.2017 21:29 14,1 °C 14,2 °C 75 % 1014,0 hPa 0,0 mm 8,9 km/h (2 Bft) W 261 ° 0 min 0,000 mm 0,0 UV-I 0 W/m² 9,7 °C 14,1 °C 16,1 km/h (3 Bft)
01.07.2017 21:30 14,1 °C 14,1 °C 74 % 1014,0 hPa 0,0 mm 8,4 km/h (2 Bft) W-SW 255 ° 0 min 0,000 mm 0,0 UV-I 0 W/m² 9,5 °C 14,1 °C 12,9 km/h (3 Bft)
01.07.2017 21:31 14,0 °C 14,1 °C 74 % 1013,9 hPa 0,0 mm 3,9 km/h (1 Bft) W-NW 294 ° 0 min 0,000 mm 0,0 UV-I 0 W/m² 9,4 °C 14,0 °C 4,8 km/h (1 Bft)
01.07.2017 21:32 14,0 °C 14,0 °C 74 % 1014,0 hPa 0,0 mm 6,3 km/h (2 Bft) SW 218 ° 0 min 0,000 mm 0,0 UV-I 0 W/m² 9,4 °C 14,0 °C 11,3 km/h (2 Bft)
01.07.2017 21:33 13,9 °C 14,0 °C 74 % 1014,0 hPa 0,0 mm 3,2 km/h (1 Bft) SW 221 ° 0 min 0,000 mm 0,0 UV-I 0 W/m² 9,3 °C 13,9 °C 9,7 km/h (2 Bft)
01.07.2017 21:34 13,9 °C 13,9 °C 75 % 1014,0 hPa 0,0 mm 6,6 km/h (2 Bft) W-NW 296 ° 0 min 0,000 mm 0,0 UV-I 0 W/m² 9,5 °C 13,9 °C 14,5 km/h (3 Bft)
01.07.2017 21:35 13,9 °C 13,9 °C 75 % 1014,0 hPa 0,0 mm 9,3 km/h (2 Bft) W 275 ° 0 min 0,000 mm 0,0 UV-I 0 W/m² 9,5 °C 13,9 °C 16,1 km/h (3 Bft)
01.07.2017 21:36 13,8 °C 13,9 °C 75 % 1014,0 hPa 0,0 mm 5,6 km/h (1 Bft) W 273 ° 0 min 0,000 mm 0,0 UV-I 0 W/m² 9,4 °C 13,8 °C 11,3 km/h (2 Bft)
01.07.2017 21:37 13,8 °C 13,8 °C 75 % 1014,1 hPa 0,0 mm 4,6 km/h (1 Bft) W 263 ° 0 min 0,000 mm 0,0 UV-I 0 W/m² 9,4 °C 13,8 °C 9,7 km/h (2 Bft)
01.07.2017 21:38 13,7 °C 13,8 °C 75 % 1014,1 hPa 0,0 mm 4,2 km/h (1 Bft) W 281 ° 0 min 0,000 mm 0,0 UV-I 0 W/m² 9,3 °C 13,7 °C 9,7 km/h (2 Bft)
01.07.2017 21:39 13,7 °C 13,7 °C 75 % 1014,1 hPa 0,0 mm 5,1 km/h (1 Bft) W 278 ° 0 min 0,000 mm 0,0 UV-I 0 W/m² 9,3 °C 13,7 °C 6,4 km/h (2 Bft)
01.07.2017 21:40 13,7 °C 13,7 °C 75 % 1014,1 hPa 0,0 mm 5,8 km/h (2 Bft) W 274 ° 0 min 0,000 mm 0,0 UV-I 0 W/m² 9,3 °C 13,7 °C 8,0 km/h (2 Bft)
01.07.2017 21:41 13,6 °C 13,7 °C 75 % 1014,1 hPa 0,0 mm 7,0 km/h (2 Bft) W 278 ° 0 min 0,000 mm 0,0 UV-I 0 W/m² 9,3 °C 13,6 °C 12,9 km/h (3 Bft)
01.07.2017 21:42 13,6 °C 13,6 °C 75 % 1014,1 hPa 0,0 mm 2,0 km/h (1 Bft) W 259 ° 0 min 0,000 mm 0,0 UV-I 0 W/m² 9,3 °C 13,6 °C 3,2 km/h (1 Bft)
01.07.2017 21:43 13,6 °C 13,6 °C 75 % 1014,1 hPa 0,0 mm 4,4 km/h (1 Bft) W-SW 245 ° 0 min 0,000 mm 0,0 UV-I 0 W/m² 9,3 °C 13,6 °C 6,4 km/h (2 Bft)
01.07.2017 21:44 13,6 °C 13,6 °C 75 % 1014,1 hPa 0,0 mm 3,1 km/h (1 Bft) W 269 ° 0 min 0,000 mm 0,0 UV-I 0 W/m² 9,3 °C 13,6 °C 6,4 km/h (2 Bft)
01.07.2017 21:45 13,5 °C 13,6 °C 76 % 1014,1 hPa 0,0 mm 5,7 km/h (1 Bft) W 277 ° 0 min 0,000 mm 0,0 UV-I 0 W/m² 9,4 °C 13,5 °C 9,7 km/h (2 Bft)
01.07.2017 21:46 13,5 °C 13,5 °C 75 % 1014,1 hPa 0,0 mm 4,7 km/h (1 Bft) W-SW 252 ° 0 min 0,000 mm 0,0 UV-I 0 W/m² 9,2 °C 13,5 °C 6,4 km/h (2 Bft)
01.07.2017 21:47 13,4 °C 13,5 °C 76 % 1014,2 hPa 0,0 mm 2,1 km/h (1 Bft) W-SW 258 ° 0 min 0,000 mm 0,0 UV-I 0 W/m² 9,3 °C 13,4 °C 4,8 km/h (1 Bft)
01.07.2017 21:48 13,4 °C 13,4 °C 75 % 1014,2 hPa 0,0 mm 3,7 km/h (1 Bft) W-SW 250 ° 0 min 0,000 mm 0,0 UV-I 0 W/m² 9,1 °C 13,4 °C 4,8 km/h (1 Bft)
01.07.2017 21:49 13,4 °C 13,4 °C 76 % 1014,2 hPa 0,0 mm 4,3 km/h (1 Bft) W-NW 290 ° 0 min 0,000 mm 0,0 UV-I 0 W/m² 9,3 °C 13,4 °C 6,4 km/h (2 Bft)
01.07.2017 21:50 13,4 °C 13,4 °C 76 % 1014,2 hPa 0,0 mm 2,9 km/h (1 Bft) W-SW 255 ° 0 min 0,000 mm 0,0 UV-I 0 W/m² 9,3 °C 13,4 °C 4,8 km/h (1 Bft)
01.07.2017 21:51 13,3 °C 13,4 °C 76 % 1014,2 hPa 0,0 mm 5,2 km/h (1 Bft) S 190 ° 0 min 0,000 mm 0,0 UV-I 0 W/m² 9,2 °C 13,3 °C 8,0 km/h (2 Bft)
01.07.2017 21:52 13,3 °C 13,3 °C 76 % 1014,2 hPa 0,0 mm 3,3 km/h (1 Bft) W-SW 256 ° 0 min 0,000 mm 0,0 UV-I 0 W/m² 9,2 °C 13,3 °C 4,8 km/h (1 Bft)
01.07.2017 21:53 13,3 °C 13,3 °C 76 % 1014,2 hPa 0,0 mm 2,8 km/h (1 Bft) W 275 ° 0 min 0,000 mm 0,0 UV-I 0 W/m² 9,2 °C 13,3 °C 6,4 km/h (2 Bft)
01.07.2017 21:54 13,3 °C 13,3 °C 77 % 1014,3 hPa 0,0 mm 8,2 km/h (2 Bft) W-SW 252 ° 0 min 0,000 mm 0,0 UV-I 0 W/m² 9,4 °C 13,3 °C 12,9 km/h (3 Bft)
01.07.2017 21:55 13,3 °C 13,3 °C 76 % 1014,3 hPa 0,0 mm 11,1 km/h (2 Bft) S-SW 202 ° 0 min 0,000 mm 0,0 UV-I 0 W/m² 9,2 °C 13,3 °C 19,3 km/h (3 Bft)
01.07.2017 21:56 13,3 °C 13,3 °C 76 % 1014,3 hPa 0,0 mm 4,8 km/h (1 Bft) W 270 ° 0 min 0,000 mm 0,0 UV-I 0 W/m² 9,2 °C 13,3 °C 8,0 km/h (2 Bft)
01.07.2017 21:57 13,3 °C 13,3 °C 76 % 1014,3 hPa 0,0 mm 5,6 km/h (1 Bft) W-SW 251 ° 0 min 0,000 mm 0,0 UV-I 0 W/m² 9,2 °C 13,3 °C 9,7 km/h (2 Bft)
01.07.2017 21:58 13,3 °C 13,3 °C 76 % 1014,4 hPa 0,0 mm 2,6 km/h (1 Bft) W-SW 251 ° 0 min 0,000 mm 0,0 UV-I 0 W/m² 9,2 °C 13,3 °C 3,2 km/h (1 Bft)
01.07.2017 21:59 13,3 °C 13,3 °C 76 % 1014,4 hPa 0,0 mm 3,5 km/h (1 Bft) W 267 ° 0 min 0,000 mm 0,0 UV-I 0 W/m² 9,2 °C 13,3 °C 6,4 km/h (2 Bft)
01.07.2017 22:00 13,3 °C 13,3 °C 76 % 1014,4 hPa 0,0 mm 5,0 km/h (1 Bft) W-NW 303 ° 0 min 0,000 mm 0,0 UV-I 0 W/m² 9,2 °C 13,3 °C 6,4 km/h (2 Bft)
01.07.2017 22:01 13,3 °C 13,3 °C 76 % 1014,3 hPa 0,0 mm 5,6 km/h (1 Bft) W-SW 237 ° 0 min 0,025 mm 0,0 UV-I 0 W/m² 9,2 °C 13,3 °C 8,0 km/h (2 Bft)
01.07.2017 22:02 13,2 °C 13,3 °C 77 % 1014,4 hPa 0,0 mm 5,6 km/h (1 Bft) W 261 ° 0 min 0,000 mm 0,0 UV-I 0 W/m² 9,3 °C 13,2 °C 9,7 km/h (2 Bft)
01.07.2017 22:03 13,2 °C 13,2 °C 77 % 1014,5 hPa 0,0 mm 7,0 km/h (2 Bft) W-SW 248 ° 0 min 0,000 mm 0,0 UV-I 0 W/m² 9,3 °C 13,2 °C 12,9 km/h (3 Bft)
01.07.2017 22:04 13,2 °C 13,2 °C 77 % 1014,5 hPa 0,0 mm 4,9 km/h (1 Bft) W-SW 248 ° 0 min 0,000 mm 0,0 UV-I 0 W/m² 9,3 °C 13,2 °C 11,3 km/h (2 Bft)
01.07.2017 22:05 13,2 °C 13,2 °C 77 % 1014,5 hPa 0,0 mm 6,2 km/h (2 Bft) W-NW 285 ° 0 min 0,000 mm 0,0 UV-I 0 W/m² 9,3 °C 13,2 °C 11,3 km/h (2 Bft)
01.07.2017 22:06 13,2 °C 13,2 °C 77 % 1014,5 hPa 0,0 mm 3,6 km/h (1 Bft) W-SW 240 ° 0 min 0,000 mm 0,0 UV-I 0 W/m² 9,3 °C 13,2 °C 6,4 km/h (2 Bft)
01.07.2017 22:07 13,2 °C 13,2 °C 77 % 1014,6 hPa 0,0 mm 10,4 km/h (2 Bft) W 260 ° 0 min 0,000 mm 0,0 UV-I 0 W/m² 9,3 °C 13,2 °C 16,1 km/h (3 Bft)
01.07.2017 22:08 13,2 °C 13,2 °C 77 % 1014,6 hPa 0,0 mm 4,8 km/h (1 Bft) W 261 ° 0 min 0,000 mm 0,0 UV-I 0 W/m² 9,3 °C 13,2 °C 11,3 km/h (2 Bft)
01.07.2017 22:09 13,2 °C 13,2 °C 77 % 1014,5 hPa 0,0 mm 5,2 km/h (1 Bft) W-SW 254 ° 0 min 0,000 mm 0,0 UV-I 0 W/m² 9,3 °C 13,2 °C 9,7 km/h (2 Bft)
01.07.2017 22:10 13,1 °C 13,2 °C 77 % 1014,6 hPa 0,0 mm 3,5 km/h (1 Bft) W 273 ° 0 min 0,000 mm 0,0 UV-I 0 W/m² 9,2 °C 13,1 °C 4,8 km/h (1 Bft)
01.07.2017 22:11 13,1 °C 13,1 °C 78 % 1014,6 hPa 0,0 mm 8,2 km/h (2 Bft) SW 217 ° 0 min 0,000 mm 0,0 UV-I 0 W/m² 9,4 °C 13,1 °C 14,5 km/h (3 Bft)
01.07.2017 22:12 13,0 °C 13,1 °C 78 % 1014,5 hPa 0,0 mm 4,0 km/h (1 Bft) W-SW 242 ° 0 min 0,000 mm 0,0 UV-I 0 W/m² 9,3 °C 13,0 °C 9,7 km/h (2 Bft)
01.07.2017 22:13 13,0 °C 13,0 °C 78 % 1014,6 hPa 0,0 mm 1,1 km/h (1 Bft) W 262 ° 0 min 0,000 mm 0,0 UV-I 0 W/m² 9,3 °C 13,0 °C 4,8 km/h (1 Bft)
01.07.2017 22:14 13,0 °C 13,1 °C 78 % 1014,6 hPa 0,0 mm 5,6 km/h (1 Bft) W-SW 240 ° 0 min 0,000 mm 0,0 UV-I 0 W/m² 9,3 °C 13,0 °C 9,7 km/h (2 Bft)
01.07.2017 22:15 13,1 °C 13,1 °C 78 % 1014,6 hPa 0,0 mm 2,5 km/h (1 Bft) W-SW 246 ° 0 min 0,000 mm 0,0 UV-I 0 W/m² 9,4 °C 13,1 °C 4,8 km/h (1 Bft)
01.07.2017 22:16 13,1 °C 13,1 °C 78 % 1014,6 hPa 0,0 mm 3,7 km/h (1 Bft) W-SW 258 ° 0 min 0,000 mm 0,0 UV-I 0 W/m² 9,4 °C 13,1 °C 9,7 km/h (2 Bft)
01.07.2017 22:17 13,1 °C 13,1 °C 78 % 1014,6 hPa 0,0 mm 6,9 km/h (2 Bft) W 277 ° 0 min 0,000 mm 0,0 UV-I 0 W/m² 9,4 °C 13,1 °C 14,5 km/h (3 Bft)
01.07.2017 22:18 13,1 °C 13,1 °C 78 % 1014,6 hPa 0,0 mm 5,2 km/h (1 Bft) SW 224 ° 0 min 0,000 mm 0,0 UV-I 0 W/m² 9,4 °C 13,1 °C 11,3 km/h (2 Bft)
01.07.2017 22:19 13,2 °C 13,2 °C 78 % 1014,6 hPa 0,0 mm 6,4 km/h (2 Bft) SW 227 ° 0 min 0,000 mm 0,0 UV-I 0 W/m² 9,4 °C 13,2 °C 14,5 km/h (3 Bft)
01.07.2017 22:20 13,2 °C 13,2 °C 78 % 1014,6 hPa 0,0 mm 7,6 km/h (2 Bft) W 271 ° 0 min 0,000 mm 0,0 UV-I 0 W/m² 9,4 °C 13,2 °C 14,5 km/h (3 Bft)
01.07.2017 22:21 13,3 °C 13,3 °C 78 % 1014,6 hPa 0,0 mm 6,5 km/h (2 Bft) W-SW 256 ° 0 min 0,000 mm 0,0 UV-I 0 W/m² 9,5 °C 13,3 °C 12,9 km/h (3 Bft)
01.07.2017 22:22 13,3 °C 13,3 °C 78 % 1014,6 hPa 0,0 mm 5,4 km/h (1 Bft) W 281 ° 0 min 0,000 mm 0,0 UV-I 0 W/m² 9,5 °C 13,3 °C 6,4 km/h (2 Bft)
01.07.2017 22:23 13,3 °C 13,3 °C 78 % 1014,6 hPa 0,0 mm 4,9 km/h (1 Bft) W-SW 246 ° 0 min 0,000 mm 0,0 UV-I 0 W/m² 9,5 °C 13,3 °C 6,4 km/h (2 Bft)
01.07.2017 22:24 13,3 °C 13,3 °C 78 % 1014,6 hPa 0,0 mm 4,6 km/h (1 Bft) W 278 ° 0 min 0,000 mm 0,0 UV-I 0 W/m² 9,5 °C 13,3 °C 9,7 km/h (2 Bft)
01.07.2017 22:25 13,3 °C 13,3 °C 78 % 1014,6 hPa 0,0 mm 3,6 km/h (1 Bft) SW 227 ° 0 min 0,000 mm 0,0 UV-I 0 W/m² 9,5 °C 13,3 °C 6,4 km/h (2 Bft)
01.07.2017 22:26 13,3 °C 13,3 °C 78 % 1014,6 hPa 0,0 mm 5,2 km/h (1 Bft) W-SW 244 ° 0 min 0,000 mm 0,0 UV-I 0 W/m² 9,5 °C 13,3 °C 12,9 km/h (3 Bft)
01.07.2017 22:27 13,3 °C 13,3 °C 78 % 1014,6 hPa 0,0 mm 6,2 km/h (2 Bft) W 261 ° 0 min 0,000 mm 0,0 UV-I 0 W/m² 9,5 °C 13,3 °C 9,7 km/h (2 Bft)
01.07.2017 22:28 13,3 °C 13,3 °C 78 % 1014,6 hPa 0,0 mm 4,7 km/h (1 Bft) SW 236 ° 0 min 0,000 mm 0,0 UV-I 0 W/m² 9,5 °C 13,3 °C 9,7 km/h (2 Bft)
01.07.2017 22:29 13,2 °C 13,3 °C 78 % 1014,5 hPa 0,0 mm 6,0 km/h (2 Bft) W 265 ° 0 min 0,000 mm 0,0 UV-I 0 W/m² 9,4 °C 13,2 °C 11,3 km/h (2 Bft)
01.07.2017 22:30 13,2 °C 13,2 °C 78 % 1014,6 hPa 0,0 mm 9,2 km/h (2 Bft) W-NW 299 ° 0 min 0,000 mm 0,0 UV-I 0 W/m² 9,4 °C 13,2 °C 12,9 km/h (3 Bft)
01.07.2017 22:31 13,2 °C 13,2 °C 78 % 1014,6 hPa 0,0 mm 6,9 km/h (2 Bft) W-NW 292 ° 0 min 0,000 mm 0,0 UV-I 0 W/m² 9,4 °C 13,2 °C 11,3 km/h (2 Bft)
01.07.2017 22:32 13,2 °C 13,2 °C 79 % 1014,6 hPa 0,0 mm 3,8 km/h (1 Bft) W-NW 288 ° 0 min 0,000 mm 0,0 UV-I 0 W/m² 9,6 °C 13,2 °C 6,4 km/h (2 Bft)
01.07.2017 22:33 13,3 °C 13,3 °C 78 % 1014,5 hPa 0,0 mm 4,1 km/h (1 Bft) SW 236 ° 0 min 0,000 mm 0,0 UV-I 0 W/m² 9,5 °C 13,3 °C 8,0 km/h (2 Bft)
01.07.2017 22:34 13,3 °C 13,3 °C 78 % 1014,5 hPa 0,0 mm 11,3 km/h (2 Bft) W-SW 248 ° 0 min 0,000 mm 0,0 UV-I 0 W/m² 9,5 °C 13,3 °C 17,7 km/h (3 Bft)
01.07.2017 22:35 13,3 °C 13,3 °C 78 % 1014,5 hPa 0,0 mm 4,8 km/h (1 Bft) W 277 ° 0 min 0,000 mm 0,0 UV-I 0 W/m² 9,5 °C 13,3 °C 8,0 km/h (2 Bft)
01.07.2017 22:36 13,4 °C 13,4 °C 77 % 1014,6 hPa 0,0 mm 7,8 km/h (2 Bft) W 271 ° 0 min 0,000 mm 0,0 UV-I 0 W/m² 9,5 °C 13,4 °C 19,3 km/h (3 Bft)
01.07.2017 22:37 13,4 °C 13,4 °C 77 % 1014,6 hPa 0,0 mm 11,1 km/h (2 Bft) SW 227 ° 0 min 0,000 mm 0,0 UV-I 0 W/m² 9,5 °C 13,4 °C 16,1 km/h (3 Bft)
01.07.2017 22:38 13,5 °C 13,5 °C 77 % 1014,6 hPa 0,0 mm 11,0 km/h (2 Bft) W-NW 290 ° 0 min 0,000 mm 0,0 UV-I 0 W/m² 9,5 °C 13,5 °C 16,1 km/h (3 Bft)
01.07.2017 22:39 13,6 °C 13,6 °C 77 % 1014,5 hPa 0,0 mm 8,7 km/h (2 Bft) W-SW 257 ° 0 min 0,000 mm 0,0 UV-I 0 W/m² 9,6 °C 13,6 °C 12,9 km/h (3 Bft)
01.07.2017 22:40 13,6 °C 13,6 °C 77 % 1014,5 hPa 0,0 mm 3,7 km/h (1 Bft) W-SW 257 ° 0 min 0,000 mm 0,0 UV-I 0 W/m² 9,6 °C 13,6 °C 6,4 km/h (2 Bft)
01.07.2017 22:41 13,6 °C 13,6 °C 77 % 1014,5 hPa 0,0 mm 11,9 km/h (2 Bft) W-SW 254 ° 0 min 0,000 mm 0,0 UV-I 0 W/m² 9,6 °C 13,6 °C 19,3 km/h (3 Bft)
01.07.2017 22:42 13,6 °C 13,6 °C 77 % 1014,5 hPa 0,0 mm 10,3 km/h (2 Bft) W-NW 285 ° 0 min 0,000 mm 0,0 UV-I 0 W/m² 9,6 °C 13,6 °C 16,1 km/h (3 Bft)
01.07.2017 22:43 13,6 °C 13,6 °C 77 % 1014,5 hPa 0,0 mm 5,9 km/h (2 Bft) W 269 ° 0 min 0,000 mm 0,0 UV-I 0 W/m² 9,6 °C 13,6 °C 12,9 km/h (3 Bft)
01.07.2017 22:44 13,6 °C 13,6 °C 77 % 1014,5 hPa 0,0 mm 8,2 km/h (2 Bft) W 259 ° 0 min 0,000 mm 0,0 UV-I 0 W/m² 9,6 °C 13,6 °C 11,3 km/h (2 Bft)
01.07.2017 22:45 13,6 °C 13,6 °C 77 % 1014,5 hPa 0,0 mm 6,8 km/h (2 Bft) W-SW 247 ° 0 min 0,000 mm 0,0 UV-I 0 W/m² 9,6 °C 13,6 °C 9,7 km/h (2 Bft)
01.07.2017 22:46 13,6 °C 13,6 °C 77 % 1014,5 hPa 0,0 mm 5,0 km/h (1 Bft) W-NW 292 ° 0 min 0,000 mm 0,0 UV-I 0 W/m² 9,6 °C 13,6 °C 6,4 km/h (2 Bft)
01.07.2017 22:47 13,6 °C 13,6 °C 77 % 1014,6 hPa 0,0 mm 5,2 km/h (1 Bft) W 274 ° 0 min 0,000 mm 0,0 UV-I 0 W/m² 9,6 °C 13,6 °C 11,3 km/h (2 Bft)
01.07.2017 22:48 13,5 °C 13,6 °C 77 % 1014,5 hPa 0,0 mm 4,6 km/h (1 Bft) W 273 ° 0 min 0,000 mm 0,0 UV-I 0 W/m² 9,5 °C 13,5 °C 11,3 km/h (2 Bft)
01.07.2017 22:49 13,4 °C 13,5 °C 77 % 1014,5 hPa 0,0 mm 5,3 km/h (1 Bft) W-SW 257 ° 0 min 0,000 mm 0,0 UV-I 0 W/m² 9,5 °C 13,4 °C 12,9 km/h (3 Bft)
01.07.2017 22:50 13,4 °C 13,4 °C 77 % 1014,5 hPa 0,0 mm 4,4 km/h (1 Bft) W 263 ° 0 min 0,000 mm 0,0 UV-I 0 W/m² 9,5 °C 13,4 °C 11,3 km/h (2 Bft)
01.07.2017 22:51 13,3 °C 13,4 °C 77 % 1014,5 hPa 0,0 mm 6,2 km/h (2 Bft) W-SW 247 ° 0 min 0,000 mm 0,0 UV-I 0 W/m² 9,4 °C 13,3 °C 8,0 km/h (2 Bft)
01.07.2017 22:52 13,3 °C 13,4 °C 78 % 1014,5 hPa 0,0 mm 5,5 km/h (1 Bft) W 264 ° 0 min 0,000 mm 0,0 UV-I 0 W/m² 9,5 °C 13,3 °C 9,7 km/h (2 Bft)
01.07.2017 22:53 13,3 °C 13,3 °C 77 % 1014,6 hPa 0,0 mm 6,2 km/h (2 Bft) SW 236 ° 0 min 0,000 mm 0,0 UV-I 0 W/m² 9,4 °C 13,3 °C 9,7 km/h (2 Bft)
01.07.2017 22:54 13,3 °C 13,3 °C 78 % 1014,6 hPa 0,0 mm 4,7 km/h (1 Bft) W 277 ° 0 min 0,000 mm 0,0 UV-I 0 W/m² 9,5 °C 13,3 °C 9,7 km/h (2 Bft)
01.07.2017 22:55 13,2 °C 13,3 °C 77 % 1014,5 hPa 0,0 mm 4,0 km/h (1 Bft) W 264 ° 0 min 0,000 mm 0,0 UV-I 0 W/m² 9,3 °C 13,2 °C 6,4 km/h (2 Bft)
01.07.2017 22:56 13,3 °C 13,3 °C 78 % 1014,5 hPa 0,0 mm 6,3 km/h (2 Bft) W-SW 254 ° 0 min 0,000 mm 0,0 UV-I 0 W/m² 9,5 °C 13,3 °C 11,3 km/h (2 Bft)
01.07.2017 22:57 13,3 °C 13,3 °C 78 % 1014,5 hPa 0,0 mm 5,9 km/h (2 Bft) W 269 ° 0 min 0,000 mm 0,0 UV-I 0 W/m² 9,5 °C 13,3 °C 8,0 km/h (2 Bft)
01.07.2017 22:58 13,3 °C 13,3 °C 78 % 1014,5 hPa 0,0 mm 4,4 km/h (1 Bft) W-SW 249 ° 0 min 0,000 mm 0,0 UV-I 0 W/m² 9,5 °C 13,3 °C 6,4 km/h (2 Bft)
01.07.2017 22:59 13,3 °C 13,3 °C 78 % 1014,5 hPa 0,0 mm 4,6 km/h (1 Bft) W-SW 256 ° 0 min 0,000 mm 0,0 UV-I 0 W/m² 9,5 °C 13,3 °C 9,7 km/h (2 Bft)
01.07.2017 23:00 13,3 °C 13,3 °C 78 % 1014,5 hPa 0,0 mm 3,8 km/h (1 Bft) W-NW 296 ° 0 min 0,000 mm 0,0 UV-I 0 W/m² 9,5 °C 13,3 °C 6,4 km/h (2 Bft)
01.07.2017 23:01 13,2 °C 13,3 °C 78 % 1014,5 hPa 0,0 mm 5,2 km/h (1 Bft) W 272 ° 0 min 0,025 mm 0,0 UV-I 0 W/m² 9,4 °C 13,2 °C 11,3 km/h (2 Bft)
01.07.2017 23:02 13,3 °C 13,3 °C 78 % 1014,5 hPa 0,0 mm 4,2 km/h (1 Bft) W-SW 252 ° 0 min 0,000 mm 0,0 UV-I 0 W/m² 9,5 °C 13,3 °C 9,7 km/h (2 Bft)
01.07.2017 23:03 13,3 °C 13,3 °C 78 % 1014,5 hPa 0,0 mm 5,1 km/h (1 Bft) W-SW 252 ° 0 min 0,000 mm 0,0 UV-I 0 W/m² 9,5 °C 13,3 °C 6,4 km/h (2 Bft)
01.07.2017 23:04 13,3 °C 13,3 °C 78 % 1014,6 hPa 0,0 mm 10,2 km/h (2 Bft) W 266 ° 0 min 0,000 mm 0,0 UV-I 0 W/m² 9,5 °C 13,3 °C 16,1 km/h (3 Bft)
01.07.2017 23:05 13,3 °C 13,3 °C 78 % 1014,5 hPa 0,0 mm 6,9 km/h (2 Bft) W-SW 258 ° 0 min 0,000 mm 0,0 UV-I 0 W/m² 9,5 °C 13,3 °C 11,3 km/h (2 Bft)
01.07.2017 23:06 13,3 °C 13,3 °C 78 % 1014,5 hPa 0,0 mm 9,1 km/h (2 Bft) W-SW 254 ° 0 min 0,000 mm 0,0 UV-I 0 W/m² 9,5 °C 13,3 °C 12,9 km/h (3 Bft)
01.07.2017 23:07 13,2 °C 13,3 °C 78 % 1014,5 hPa 0,0 mm 2,7 km/h (1 Bft) W-SW 254 ° 0 min 0,000 mm 0,0 UV-I 0 W/m² 9,4 °C 13,2 °C 4,8 km/h (1 Bft)
01.07.2017 23:08 13,3 °C 13,3 °C 78 % 1014,5 hPa 0,0 mm 1,6 km/h (1 Bft) W-SW 254 ° 0 min 0,000 mm 0,0 UV-I 0 W/m² 9,5 °C 13,3 °C 3,2 km/h (1 Bft)
01.07.2017 23:09 13,3 °C 13,3 °C 78 % 1014,6 hPa 0,0 mm 2,5 km/h (1 Bft) W-SW 254 ° 0 min 0,000 mm 0,0 UV-I 0 W/m² 9,5 °C 13,3 °C 8,0 km/h (2 Bft)
01.07.2017 23:10 13,3 °C 13,3 °C 78 % 1014,6 hPa 0,0 mm 6,9 km/h (2 Bft) W 270 ° 0 min 0,000 mm 0,0 UV-I 0 W/m² 9,5 °C 13,3 °C 11,3 km/h (2 Bft)
01.07.2017 23:11 13,3 °C 13,3 °C 78 % 1014,6 hPa 0,0 mm 1,9 km/h (1 Bft) W 270 ° 0 min 0,000 mm 0,0 UV-I 0 W/m² 9,5 °C 13,3 °C 3,2 km/h (1 Bft)
01.07.2017 23:12 13,3 °C 13,3 °C 78 % 1014,6 hPa 0,0 mm 4,2 km/h (1 Bft) W 265 ° 0 min 0,000 mm 0,0 UV-I 0 W/m² 9,5 °C 13,3 °C 8,0 km/h (2 Bft)
01.07.2017 23:13 13,3 °C 13,3 °C 78 % 1014,5 hPa 0,0 mm 3,3 km/h (1 Bft) W 265 ° 0 min 0,000 mm 0,0 UV-I 0 W/m² 9,5 °C 13,3 °C 6,4 km/h (2 Bft)
01.07.2017 23:14 13,2 °C 13,3 °C 78 % 1014,6 hPa 0,0 mm 2,6 km/h (1 Bft) W-SW 238 ° 0 min 0,000 mm 0,0 UV-I 0 W/m² 9,4 °C 13,2 °C 4,8 km/h (1 Bft)
01.07.2017 23:15 13,2 °C 13,3 °C 78 % 1014,6 hPa 0,0 mm 1,1 km/h (1 Bft) W-SW 237 ° 0 min 0,000 mm 0,0 UV-I 0 W/m² 9,4 °C 13,2 °C 3,2 km/h (1 Bft)
01.07.2017 23:16 13,2 °C 13,2 °C 78 % 1014,6 hPa 0,0 mm 1,2 km/h (1 Bft) W 261 ° 0 min 0,000 mm 0,0 UV-I 0 W/m² 9,4 °C 13,2 °C 6,4 km/h (2 Bft)
01.07.2017 23:17 13,2 °C 13,2 °C 78 % 1014,6 hPa 0,0 mm 3,8 km/h (1 Bft) W 266 ° 0 min 0,000 mm 0,0 UV-I 0 W/m² 9,4 °C 13,2 °C 6,4 km/h (2 Bft)
01.07.2017 23:18 13,2 °C 13,2 °C 78 % 1014,6 hPa 0,0 mm 2,9 km/h (1 Bft) W 266 ° 0 min 0,000 mm 0,0 UV-I 0 W/m² 9,4 °C 13,2 °C 4,8 km/h (1 Bft)
01.07.2017 23:19 13,3 °C 13,3 °C 78 % 1014,6 hPa 0,0 mm 1,9 km/h (1 Bft) W 266 ° 0 min 0,000 mm 0,0 UV-I 0 W/m² 9,5 °C 13,3 °C 3,2 km/h (1 Bft)
01.07.2017 23:20 13,2 °C 13,3 °C 78 % 1014,7 hPa 0,0 mm 2,9 km/h (1 Bft) W 266 ° 0 min 0,000 mm 0,0 UV-I 0 W/m² 9,4 °C 13,2 °C 3,2 km/h (1 Bft)
01.07.2017 23:21 13,2 °C 13,2 °C 78 % 1014,7 hPa 0,0 mm 3,6 km/h (1 Bft) W 269 ° 0 min 0,000 mm 0,0 UV-I 0 W/m² 9,4 °C 13,2 °C 6,4 km/h (2 Bft)
01.07.2017 23:22 13,2 °C 13,2 °C 78 % 1014,8 hPa 0,0 mm 3,0 km/h (1 Bft) W 270 ° 0 min 0,000 mm 0,0 UV-I 0 W/m² 9,4 °C 13,2 °C 4,8 km/h (1 Bft)
01.07.2017 23:23 13,1 °C 13,2 °C 79 % 1014,8 hPa 0,0 mm 3,4 km/h (1 Bft) W 277 ° 0 min 0,000 mm 0,0 UV-I 0 W/m² 9,5 °C 13,1 °C 4,8 km/h (1 Bft)
01.07.2017 23:24 13,1 °C 13,1 °C 79 % 1014,8 hPa 0,0 mm 4,8 km/h (1 Bft) W 270 ° 0 min 0,000 mm 0,0 UV-I 0 W/m² 9,5 °C 13,1 °C 6,4 km/h (2 Bft)
01.07.2017 23:25 13,0 °C 13,1 °C 80 % 1014,8 hPa 0,0 mm 2,7 km/h (1 Bft) W 268 ° 0 min 0,000 mm 0,0 UV-I 0 W/m² 9,6 °C 13,0 °C 4,8 km/h (1 Bft)
01.07.2017 23:26 13,0 °C 13,0 °C 79 % 1014,8 hPa 0,0 mm 5,9 km/h (2 Bft) W-SW 258 ° 0 min 0,000 mm 0,0 UV-I 0 W/m² 9,4 °C 13,0 °C 11,3 km/h (2 Bft)
01.07.2017 23:27 13,0 °C 13,0 °C 79 % 1014,7 hPa 0,0 mm 6,8 km/h (2 Bft) W 264 ° 0 min 0,000 mm 0,0 UV-I 0 W/m² 9,4 °C 13,0 °C 12,9 km/h (3 Bft)
01.07.2017 23:28 13,1 °C 13,1 °C 79 % 1014,8 hPa 0,0 mm 7,3 km/h (2 Bft) W-NW 285 ° 0 min 0,000 mm 0,0 UV-I 0 W/m² 9,5 °C 13,1 °C 14,5 km/h (3 Bft)
01.07.2017 23:29 13,1 °C 13,1 °C 79 % 1014,7 hPa 0,0 mm 8,9 km/h (2 Bft) W 260 ° 0 min 0,000 mm 0,0 UV-I 0 W/m² 9,5 °C 13,1 °C 12,9 km/h (3 Bft)
01.07.2017 23:30 13,1 °C 13,1 °C 79 % 1014,7 hPa 0,0 mm 10,4 km/h (2 Bft) W-SW 257 ° 0 min 0,000 mm 0,0 UV-I 0 W/m² 9,5 °C 13,1 °C 12,9 km/h (3 Bft)
01.07.2017 23:31 13,2 °C 13,2 °C 78 % 1014,7 hPa 0,0 mm 8,4 km/h (2 Bft) S 186 ° 0 min 0,000 mm 0,0 UV-I 0 W/m² 9,4 °C 13,2 °C 11,3 km/h (2 Bft)
01.07.2017 23:32 13,2 °C 13,2 °C 78 % 1014,7 hPa 0,0 mm 10,7 km/h (2 Bft) W-NW 296 ° 0 min 0,000 mm 0,0 UV-I 0 W/m² 9,4 °C 13,2 °C 16,1 km/h (3 Bft)
01.07.2017 23:33 13,3 °C 13,3 °C 78 % 1014,7 hPa 0,0 mm 10,1 km/h (2 Bft) W-NW 296 ° 0 min 0,000 mm 0,0 UV-I 0 W/m² 9,5 °C 13,3 °C 14,5 km/h (3 Bft)
01.07.2017 23:34 13,4 °C 13,4 °C 77 % 1014,8 hPa 0,0 mm 12,0 km/h (2 Bft) W 267 ° 0 min 0,000 mm 0,0 UV-I 0 W/m² 9,5 °C 13,4 °C 20,9 km/h (4 Bft)
01.07.2017 23:35 13,4 °C 13,4 °C 77 % 1014,8 hPa 0,0 mm 13,1 km/h (3 Bft) W 262 ° 0 min 0,000 mm 0,0 UV-I 0 W/m² 9,5 °C 13,4 °C 24,1 km/h (4 Bft)
01.07.2017 23:36 13,4 °C 13,4 °C 76 % 1014,7 hPa 0,0 mm 8,9 km/h (2 Bft) W 265 ° 0 min 0,000 mm 0,0 UV-I 0 W/m² 9,3 °C 13,4 °C 14,5 km/h (3 Bft)
01.07.2017 23:37 13,5 °C 13,5 °C 77 % 1014,7 hPa 0,0 mm 17,1 km/h (3 Bft) SW 225 ° 0 min 0,000 mm 0,0 UV-I 0 W/m² 9,5 °C 13,5 °C 24,1 km/h (4 Bft)
01.07.2017 23:38 13,5 °C 13,5 °C 76 % 1014,6 hPa 0,0 mm 12,3 km/h (3 Bft) NW 316 ° 0 min 0,000 mm 0,0 UV-I 0 W/m² 9,4 °C 13,5 °C 17,7 km/h (3 Bft)
01.07.2017 23:39 13,5 °C 13,6 °C 76 % 1014,7 hPa 0,0 mm 11,9 km/h (2 Bft) W 275 ° 0 min 0,000 mm 0,0 UV-I 0 W/m² 9,4 °C 13,5 °C 20,9 km/h (4 Bft)
01.07.2017 23:40 13,5 °C 13,5 °C 76 % 1014,8 hPa 0,0 mm 7,1 km/h (2 Bft) W-NW 284 ° 0 min 0,000 mm 0,0 UV-I 0 W/m² 9,4 °C 13,5 °C 14,5 km/h (3 Bft)
01.07.2017 23:41 13,4 °C 13,5 °C 76 % 1014,8 hPa 0,0 mm 10,5 km/h (2 Bft) W-NW 302 ° 0 min 0,000 mm 0,0 UV-I 0 W/m² 9,3 °C 13,4 °C 16,1 km/h (3 Bft)
01.07.2017 23:42 13,4 °C 13,4 °C 76 % 1014,8 hPa 0,0 mm 4,7 km/h (1 Bft) W 263 ° 0 min 0,000 mm 0,0 UV-I 0 W/m² 9,3 °C 13,4 °C 6,4 km/h (2 Bft)
01.07.2017 23:43 13,4 °C 13,4 °C 77 % 1014,8 hPa 0,0 mm 3,1 km/h (1 Bft) W 277 ° 0 min 0,000 mm 0,0 UV-I 0 W/m² 9,5 °C 13,4 °C 4,8 km/h (1 Bft)
01.07.2017 23:44 13,3 °C 13,4 °C 76 % 1014,8 hPa 0,0 mm 5,3 km/h (1 Bft) W-SW 255 ° 0 min 0,000 mm 0,0 UV-I 0 W/m² 9,2 °C 13,3 °C 9,7 km/h (2 Bft)
01.07.2017 23:45 13,3 °C 13,4 °C 76 % 1014,8 hPa 0,0 mm 2,4 km/h (1 Bft) W-SW 255 ° 0 min 0,000 mm 0,0 UV-I 0 W/m² 9,2 °C 13,3 °C 3,2 km/h (1 Bft)
01.07.2017 23:46 13,3 °C 13,3 °C 77 % 1014,8 hPa 0,0 mm 3,7 km/h (1 Bft) W 263 ° 0 min 0,000 mm 0,0 UV-I 0 W/m² 9,4 °C 13,3 °C 6,4 km/h (2 Bft)
01.07.2017 23:47 13,2 °C 13,3 °C 77 % 1014,8 hPa 0,0 mm 7,0 km/h (2 Bft) SW 215 ° 0 min 0,000 mm 0,0 UV-I 0 W/m² 9,3 °C 13,2 °C 11,3 km/h (2 Bft)
01.07.2017 23:48 13,2 °C 13,2 °C 77 % 1014,8 hPa 0,0 mm 4,1 km/h (1 Bft) W 270 ° 0 min 0,000 mm 0,0 UV-I 0 W/m² 9,3 °C 13,2 °C 12,9 km/h (3 Bft)
01.07.2017 23:49 13,1 °C 13,2 °C 78 % 1014,9 hPa 0,0 mm 7,5 km/h (2 Bft) W 279 ° 0 min 0,000 mm 0,0 UV-I 0 W/m² 9,4 °C 13,1 °C 11,3 km/h (2 Bft)
01.07.2017 23:50 13,1 °C 13,1 °C 78 % 1014,9 hPa 0,0 mm 5,4 km/h (1 Bft) W 278 ° 0 min 0,000 mm 0,0 UV-I 0 W/m² 9,4 °C 13,1 °C 9,7 km/h (2 Bft)
01.07.2017 23:51 13,1 °C 13,1 °C 78 % 1014,9 hPa 0,0 mm 8,8 km/h (2 Bft) W 271 ° 0 min 0,000 mm 0,0 UV-I 0 W/m² 9,4 °C 13,1 °C 12,9 km/h (3 Bft)
01.07.2017 23:52 13,1 °C 13,1 °C 78 % 1014,9 hPa 0,0 mm 3,8 km/h (1 Bft) W-SW 237 ° 0 min 0,000 mm 0,0 UV-I 0 W/m² 9,4 °C 13,1 °C 6,4 km/h (2 Bft)
01.07.2017 23:53 13,1 °C 13,1 °C 78 % 1014,9 hPa 0,0 mm 7,4 km/h (2 Bft) W 266 ° 0 min 0,000 mm 0,0 UV-I 0 W/m² 9,4 °C 13,1 °C 16,1 km/h (3 Bft)
01.07.2017 23:54 13,2 °C 13,2 °C 78 % 1015,0 hPa 0,0 mm 13,6 km/h (3 Bft) W-SW 240 ° 0 min 0,000 mm 0,0 UV-I 0 W/m² 9,4 °C 13,2 °C 19,3 km/h (3 Bft)
01.07.2017 23:55 13,2 °C 13,2 °C 78 % 1014,9 hPa 0,0 mm 8,4 km/h (2 Bft) W 265 ° 0 min 0,000 mm 0,0 UV-I 0 W/m² 9,4 °C 13,2 °C 11,3 km/h (2 Bft)
01.07.2017 23:56 13,2 °C 13,2 °C 78 % 1015,0 hPa 0,0 mm 5,9 km/h (2 Bft) S-SW 198 ° 0 min 0,000 mm 0,0 UV-I 0 W/m² 9,4 °C 13,2 °C 11,3 km/h (2 Bft)
01.07.2017 23:57 13,2 °C 13,2 °C 78 % 1015,0 hPa 0,0 mm 8,2 km/h (2 Bft) W 273 ° 0 min 0,000 mm 0,0 UV-I 0 W/m² 9,4 °C 13,2 °C 14,5 km/h (3 Bft)
01.07.2017 23:58 13,2 °C 13,3 °C 78 % 1014,9 hPa 0,0 mm 11,3 km/h (2 Bft) W 259 ° 0 min 0,000 mm 0,0 UV-I 0 W/m² 9,4 °C 13,2 °C 17,7 km/h (3 Bft)
01.07.2017 23:59 13,2 °C 13,3 °C 78 % 1014,9 hPa 0,0 mm 8,2 km/h (2 Bft) W 271 ° 0 min 0,000 mm 0,0 UV-I 0 W/m² 9,4 °C 13,2 °C 11,3 km/h (2 Bft)
_ Min-Zeit 06:31 06:31 14:35 00:20 - 06:59 - - - - - - 14:35 06:31 06:59
Minimum _ 10,3 °C 10,3 °C 53 % 1008,5 hPa - 0,0 km/h (0 Bft) - - - - - - 8,6 °C 10,3 °C 0,0 km/h (0 Bft)
_ Max-Zeit 14:07 14:08 03:46 23:57 11:46 09:28 - - 16:28 15:01 13:58 14:20 14:07 14:07 19:25
Maximum _ 19,1 °C 19,1 °C 93 % 1015,0 hPa 0,2 mm 23,0 km/h
W (4 Bft)
- - 1 min 0,584 mm 8,2 UV-I 1100 W/m² 11,4 °C 19,1 °C 33,8 km/h
W (5 Bft)
Durchschnitt _ 14,6 °C 14,6 °C 74 % 1011,4 hPa #0,8 mm 8,0 km/h (2 Bft) W - #7:28 h #4,470 mm 4,0 UV-I 287 W/m² 9,7 °C 14,6 °C 12,8 km/h (3 Bft)